<?xml version="1.0" encoding="UTF-8" standalone="no" ?>
<gpx xmlns="http://www.topografix.com/GPX/1/1" xmlns:xsi="http://www.w3.org/2001/XMLSchema-instance" creator="Kurviger.de" version="1.1" xmlns:gh="https://kurviger.de/public/schema/gpx/1.1">
<metadata>
<name>Eisenberg_Domitreffen_neu</name>
<copyright author="OpenStreetMap contributors"/>
<link href="https://kurviger.de">
<text>Kurviger.de GPX</text>
</link>
<time>2024-05-15T12:19:02Z</time>
</metadata>
<trk><name>Eisenberg_Domitreffen_neu</name><trkseg>
<trkpt lat="47.530548" lon="10.265357"><ele>732.75</ele><time>2024-05-15T12:19:02Z</time></trkpt>
<trkpt lat="47.530186" lon="10.266235"><ele>733.78</ele><time>2024-05-15T12:19:08Z</time></trkpt>
<trkpt lat="47.530091" lon="10.266349"><ele>734.53</ele><time>2024-05-15T12:19:15Z</time></trkpt>
<trkpt lat="47.529958" lon="10.266408"><ele>735.22</ele><time>2024-05-15T12:19:22Z</time></trkpt>
<trkpt lat="47.529761" lon="10.266434"><ele>736.02</ele><time>2024-05-15T12:19:29Z</time></trkpt>
<trkpt lat="47.52924" lon="10.266451"><ele>738.53</ele><time>2024-05-15T12:19:35Z</time></trkpt>
<trkpt lat="47.528862" lon="10.26636"><ele>736.51</ele><time>2024-05-15T12:19:42Z</time></trkpt>
<trkpt lat="47.528649" lon="10.26646"><ele>734.92</ele><time>2024-05-15T12:19:49Z</time></trkpt>
<trkpt lat="47.528507" lon="10.266753"><ele>735.87</ele><time>2024-05-15T12:19:56Z</time></trkpt>
<trkpt lat="47.528511" lon="10.267068"><ele>737.88</ele><time>2024-05-15T12:20:03Z</time></trkpt>
<trkpt lat="47.528659" lon="10.267588"><ele>737.19</ele><time>2024-05-15T12:20:09Z</time></trkpt>
<trkpt lat="47.528548" lon="10.268149"><ele>735.89</ele><time>2024-05-15T12:20:16Z</time></trkpt>
<trkpt lat="47.52842" lon="10.268546"><ele>735.69</ele><time>2024-05-15T12:20:23Z</time></trkpt>
<trkpt lat="47.528295" lon="10.268745"><ele>735.52</ele><time>2024-05-15T12:20:30Z</time></trkpt>
<trkpt lat="47.528192" lon="10.268855"><ele>735.12</ele><time>2024-05-15T12:20:36Z</time></trkpt>
<trkpt lat="47.527513" lon="10.268804"><ele>734.0</ele><time>2024-05-15T12:20:52Z</time></trkpt>
<trkpt lat="47.527071" lon="10.269804"><ele>735.7</ele><time>2024-05-15T12:21:19Z</time></trkpt>
<trkpt lat="47.526252" lon="10.271756"><ele>735.32</ele><time>2024-05-15T12:21:46Z</time></trkpt>
<trkpt lat="47.525271" lon="10.27116"><ele>737.2</ele><time>2024-05-15T12:21:59Z</time></trkpt>
<trkpt lat="47.525021" lon="10.271178"><ele>737.94</ele><time>2024-05-15T12:22:12Z</time></trkpt>
<trkpt lat="47.524656" lon="10.271251"><ele>739.62</ele><time>2024-05-15T12:22:25Z</time></trkpt>
<trkpt lat="47.524632" lon="10.271591"><ele>741.29</ele><time>2024-05-15T12:22:36Z</time></trkpt>
<trkpt lat="47.524313" lon="10.273759"><ele>741.35</ele><time>2024-05-15T12:22:48Z</time></trkpt>
<trkpt lat="47.524096" lon="10.275472"><ele>739.0</ele><time>2024-05-15T12:22:54Z</time></trkpt>
<trkpt lat="47.524008" lon="10.276067"><ele>739.0</ele><time>2024-05-15T12:23:01Z</time></trkpt>
<trkpt lat="47.524016" lon="10.27639"><ele>740.0</ele><time>2024-05-15T12:23:07Z</time></trkpt>
<trkpt lat="47.524081" lon="10.276657"><ele>741.63</ele><time>2024-05-15T12:23:13Z</time></trkpt>
<trkpt lat="47.524677" lon="10.27784"><ele>743.19</ele><time>2024-05-15T12:23:20Z</time></trkpt>
<trkpt lat="47.524713" lon="10.278461"><ele>743.44</ele><time>2024-05-15T12:23:26Z</time></trkpt>
<trkpt lat="47.52462" lon="10.279061"><ele>745.23</ele><time>2024-05-15T12:23:32Z</time></trkpt>
<trkpt lat="47.524528" lon="10.279525"><ele>746.6</ele><time>2024-05-15T12:23:39Z</time></trkpt>
<trkpt lat="47.524255" lon="10.280383"><ele>744.62</ele><time>2024-05-15T12:23:45Z</time></trkpt>
<trkpt lat="47.524106" lon="10.280686"><ele>743.85</ele><time>2024-05-15T12:23:51Z</time></trkpt>
<trkpt lat="47.523773" lon="10.281264"><ele>745.6</ele><time>2024-05-15T12:23:58Z</time></trkpt>
<trkpt lat="47.523793" lon="10.281591"><ele>745.09</ele><time>2024-05-15T12:24:04Z</time></trkpt>
<trkpt lat="47.523793" lon="10.281591"><ele>745.09</ele><time>2024-05-15T12:24:04Z</time></trkpt>
<trkpt lat="47.523881" lon="10.28157"><ele>745.01</ele><time>2024-05-15T12:24:11Z</time></trkpt>
<trkpt lat="47.524059" lon="10.281568"><ele>744.71</ele><time>2024-05-15T12:24:18Z</time></trkpt>
<trkpt lat="47.524454" lon="10.281633"><ele>744.03</ele><time>2024-05-15T12:24:25Z</time></trkpt>
<trkpt lat="47.524699" lon="10.281583"><ele>744.64</ele><time>2024-05-15T12:24:33Z</time></trkpt>
<trkpt lat="47.52557" lon="10.281076"><ele>742.0</ele><time>2024-05-15T12:24:40Z</time></trkpt>
<trkpt lat="47.526229" lon="10.280811"><ele>742.92</ele><time>2024-05-15T12:24:47Z</time></trkpt>
<trkpt lat="47.526736" lon="10.280668"><ele>742.55</ele><time>2024-05-15T12:24:54Z</time></trkpt>
<trkpt lat="47.527076" lon="10.280645"><ele>741.85</ele><time>2024-05-15T12:25:01Z</time></trkpt>
<trkpt lat="47.527537" lon="10.280653"><ele>740.14</ele><time>2024-05-15T12:25:08Z</time></trkpt>
<trkpt lat="47.527777" lon="10.280679"><ele>740.89</ele><time>2024-05-15T12:25:15Z</time></trkpt>
<trkpt lat="47.528065" lon="10.280743"><ele>742.74</ele><time>2024-05-15T12:25:23Z</time></trkpt>
<trkpt lat="47.528777" lon="10.281048"><ele>744.67</ele><time>2024-05-15T12:25:30Z</time></trkpt>
<trkpt lat="47.530241" lon="10.281963"><ele>742.39</ele><time>2024-05-15T12:25:37Z</time></trkpt>
<trkpt lat="47.532568" lon="10.28321"><ele>740.97</ele><time>2024-05-15T12:25:44Z</time></trkpt>
<trkpt lat="47.532866" lon="10.283387"><ele>741.19</ele><time>2024-05-15T12:25:51Z</time></trkpt>
<trkpt lat="47.533517" lon="10.283784"><ele>743.87</ele><time>2024-05-15T12:25:58Z</time></trkpt>
<trkpt lat="47.534949" lon="10.28482"><ele>744.18</ele><time>2024-05-15T12:26:05Z</time></trkpt>
<trkpt lat="47.535863" lon="10.285228"><ele>744.0</ele><time>2024-05-15T12:26:13Z</time></trkpt>
<trkpt lat="47.536238" lon="10.285428"><ele>744.46</ele><time>2024-05-15T12:26:20Z</time></trkpt>
<trkpt lat="47.536659" lon="10.285706"><ele>745.53</ele><time>2024-05-15T12:26:27Z</time></trkpt>
<trkpt lat="47.536659" lon="10.285706"><ele>745.53</ele><time>2024-05-15T12:26:27Z</time></trkpt>
<trkpt lat="47.536791" lon="10.285726"><ele>746.06</ele><time>2024-05-15T12:26:31Z</time></trkpt>
<trkpt lat="47.536971" lon="10.285688"><ele>746.47</ele><time>2024-05-15T12:26:34Z</time></trkpt>
<trkpt lat="47.53741" lon="10.285437"><ele>744.96</ele><time>2024-05-15T12:26:38Z</time></trkpt>
<trkpt lat="47.537761" lon="10.285364"><ele>746.5</ele><time>2024-05-15T12:26:41Z</time></trkpt>
<trkpt lat="47.538081" lon="10.285395"><ele>748.84</ele><time>2024-05-15T12:26:45Z</time></trkpt>
<trkpt lat="47.538183" lon="10.285433"><ele>749.12</ele><time>2024-05-15T12:26:48Z</time></trkpt>
<trkpt lat="47.53843" lon="10.285605"><ele>750.35</ele><time>2024-05-15T12:26:52Z</time></trkpt>
<trkpt lat="47.538632" lon="10.285709"><ele>751.14</ele><time>2024-05-15T12:26:56Z</time></trkpt>
<trkpt lat="47.53879" lon="10.285723"><ele>751.46</ele><time>2024-05-15T12:26:59Z</time></trkpt>
<trkpt lat="47.539234" lon="10.285614"><ele>750.42</ele><time>2024-05-15T12:27:03Z</time></trkpt>
<trkpt lat="47.539617" lon="10.28563"><ele>750.53</ele><time>2024-05-15T12:27:06Z</time></trkpt>
<trkpt lat="47.539884" lon="10.285679"><ele>751.21</ele><time>2024-05-15T12:27:10Z</time></trkpt>
<trkpt lat="47.540174" lon="10.285801"><ele>751.18</ele><time>2024-05-15T12:27:14Z</time></trkpt>
<trkpt lat="47.540526" lon="10.285985"><ele>749.9</ele><time>2024-05-15T12:27:17Z</time></trkpt>
<trkpt lat="47.540629" lon="10.286008"><ele>749.45</ele><time>2024-05-15T12:27:21Z</time></trkpt>
<trkpt lat="47.540697" lon="10.285998"><ele>748.96</ele><time>2024-05-15T12:27:24Z</time></trkpt>
<trkpt lat="47.540806" lon="10.28594"><ele>747.91</ele><time>2024-05-15T12:27:28Z</time></trkpt>
<trkpt lat="47.540921" lon="10.285837"><ele>747.03</ele><time>2024-05-15T12:27:32Z</time></trkpt>
<trkpt lat="47.541001" lon="10.285704"><ele>746.35</ele><time>2024-05-15T12:27:35Z</time></trkpt>
<trkpt lat="47.541074" lon="10.285491"><ele>745.63</ele><time>2024-05-15T12:27:39Z</time></trkpt>
<trkpt lat="47.541279" lon="10.28465"><ele>740.9</ele><time>2024-05-15T12:27:42Z</time></trkpt>
<trkpt lat="47.541388" lon="10.284368"><ele>740.72</ele><time>2024-05-15T12:27:46Z</time></trkpt>
<trkpt lat="47.54149" lon="10.284245"><ele>740.28</ele><time>2024-05-15T12:27:50Z</time></trkpt>
<trkpt lat="47.541619" lon="10.28415"><ele>739.95</ele><time>2024-05-15T12:27:53Z</time></trkpt>
<trkpt lat="47.542543" lon="10.28375"><ele>735.31</ele><time>2024-05-15T12:27:57Z</time></trkpt>
<trkpt lat="47.542662" lon="10.283632"><ele>735.31</ele><time>2024-05-15T12:28:00Z</time></trkpt>
<trkpt lat="47.543087" lon="10.283084"><ele>735.2</ele><time>2024-05-15T12:28:04Z</time></trkpt>
<trkpt lat="47.543359" lon="10.282685"><ele>738.31</ele><time>2024-05-15T12:28:08Z</time></trkpt>
<trkpt lat="47.543663" lon="10.282145"><ele>732.62</ele><time>2024-05-15T12:28:11Z</time></trkpt>
<trkpt lat="47.543796" lon="10.281975"><ele>730.29</ele><time>2024-05-15T12:28:15Z</time></trkpt>
<trkpt lat="47.54391" lon="10.281863"><ele>729.43</ele><time>2024-05-15T12:28:18Z</time></trkpt>
<trkpt lat="47.54421" lon="10.281662"><ele>729.31</ele><time>2024-05-15T12:28:22Z</time></trkpt>
<trkpt lat="47.544359" lon="10.281605"><ele>730.23</ele><time>2024-05-15T12:28:25Z</time></trkpt>
<trkpt lat="47.544593" lon="10.281568"><ele>731.52</ele><time>2024-05-15T12:28:29Z</time></trkpt>
<trkpt lat="47.54491" lon="10.281613"><ele>733.29</ele><time>2024-05-15T12:28:33Z</time></trkpt>
<trkpt lat="47.545352" lon="10.281821"><ele>733.61</ele><time>2024-05-15T12:28:36Z</time></trkpt>
<trkpt lat="47.545607" lon="10.281896"><ele>730.59</ele><time>2024-05-15T12:28:40Z</time></trkpt>
<trkpt lat="47.546043" lon="10.281892"><ele>729.57</ele><time>2024-05-15T12:28:43Z</time></trkpt>
<trkpt lat="47.546309" lon="10.281781"><ele>731.42</ele><time>2024-05-15T12:28:47Z</time></trkpt>
<trkpt lat="47.54703" lon="10.281238"><ele>731.61</ele><time>2024-05-15T12:28:51Z</time></trkpt>
<trkpt lat="47.547412" lon="10.280937"><ele>733.76</ele><time>2024-05-15T12:28:54Z</time></trkpt>
<trkpt lat="47.547585" lon="10.280822"><ele>733.21</ele><time>2024-05-15T12:28:58Z</time></trkpt>
<trkpt lat="47.547673" lon="10.280792"><ele>733.23</ele><time>2024-05-15T12:29:01Z</time></trkpt>
<trkpt lat="47.548337" lon="10.280795"><ele>733.44</ele><time>2024-05-15T12:29:05Z</time></trkpt>
<trkpt lat="47.548884" lon="10.280841"><ele>729.14</ele><time>2024-05-15T12:29:09Z</time></trkpt>
<trkpt lat="47.549895" lon="10.280087"><ele>725.74</ele><time>2024-05-15T12:29:12Z</time></trkpt>
<trkpt lat="47.550385" lon="10.279637"><ele>728.69</ele><time>2024-05-15T12:29:16Z</time></trkpt>
<trkpt lat="47.550624" lon="10.279462"><ele>729.95</ele><time>2024-05-15T12:29:19Z</time></trkpt>
<trkpt lat="47.55074" lon="10.279426"><ele>730.07</ele><time>2024-05-15T12:29:23Z</time></trkpt>
<trkpt lat="47.550855" lon="10.279437"><ele>730.02</ele><time>2024-05-15T12:29:27Z</time></trkpt>
<trkpt lat="47.551094" lon="10.279556"><ele>730.0</ele><time>2024-05-15T12:29:30Z</time></trkpt>
<trkpt lat="47.551227" lon="10.27968"><ele>729.52</ele><time>2024-05-15T12:29:34Z</time></trkpt>
<trkpt lat="47.551389" lon="10.279779"><ele>729.0</ele><time>2024-05-15T12:29:37Z</time></trkpt>
<trkpt lat="47.551609" lon="10.279853"><ele>728.58</ele><time>2024-05-15T12:29:41Z</time></trkpt>
<trkpt lat="47.55219" lon="10.279949"><ele>730.38</ele><time>2024-05-15T12:29:45Z</time></trkpt>
<trkpt lat="47.552823" lon="10.280181"><ele>730.36</ele><time>2024-05-15T12:29:48Z</time></trkpt>
<trkpt lat="47.553039" lon="10.28021"><ele>730.74</ele><time>2024-05-15T12:29:52Z</time></trkpt>
<trkpt lat="47.553201" lon="10.280185"><ele>731.72</ele><time>2024-05-15T12:29:55Z</time></trkpt>
<trkpt lat="47.553838" lon="10.279928"><ele>734.0</ele><time>2024-05-15T12:29:59Z</time></trkpt>
<trkpt lat="47.554066" lon="10.279792"><ele>732.88</ele><time>2024-05-15T12:30:02Z</time></trkpt>
<trkpt lat="47.554698" lon="10.279303"><ele>728.58</ele><time>2024-05-15T12:30:06Z</time></trkpt>
<trkpt lat="47.554997" lon="10.279097"><ele>728.0</ele><time>2024-05-15T12:30:10Z</time></trkpt>
<trkpt lat="47.55576" lon="10.2787"><ele>728.5</ele><time>2024-05-15T12:30:13Z</time></trkpt>
<trkpt lat="47.555995" lon="10.278646"><ele>727.54</ele><time>2024-05-15T12:30:17Z</time></trkpt>
<trkpt lat="47.556801" lon="10.278608"><ele>727.02</ele><time>2024-05-15T12:30:20Z</time></trkpt>
<trkpt lat="47.557019" lon="10.278573"><ele>725.5</ele><time>2024-05-15T12:30:24Z</time></trkpt>
<trkpt lat="47.557168" lon="10.278524"><ele>724.64</ele><time>2024-05-15T12:30:28Z</time></trkpt>
<trkpt lat="47.557651" lon="10.278306"><ele>725.15</ele><time>2024-05-15T12:30:31Z</time></trkpt>
<trkpt lat="47.55793" lon="10.278142"><ele>726.55</ele><time>2024-05-15T12:30:35Z</time></trkpt>
<trkpt lat="47.559705" lon="10.276965"><ele>728.94</ele><time>2024-05-15T12:30:38Z</time></trkpt>
<trkpt lat="47.559906" lon="10.276844"><ele>729.24</ele><time>2024-05-15T12:30:42Z</time></trkpt>
<trkpt lat="47.560181" lon="10.276768"><ele>728.98</ele><time>2024-05-15T12:30:46Z</time></trkpt>
<trkpt lat="47.560221" lon="10.27681"><ele>728.69</ele><time>2024-05-15T12:30:48Z</time></trkpt>
<trkpt lat="47.560315" lon="10.276839"><ele>728.46</ele><time>2024-05-15T12:30:51Z</time></trkpt>
<trkpt lat="47.560406" lon="10.276792"><ele>728.76</ele><time>2024-05-15T12:30:53Z</time></trkpt>
<trkpt lat="47.560438" lon="10.27675"><ele>728.87</ele><time>2024-05-15T12:30:56Z</time></trkpt>
<trkpt lat="47.560477" lon="10.27664"><ele>729.03</ele><time>2024-05-15T12:30:58Z</time></trkpt>
<trkpt lat="47.560476" lon="10.276499"><ele>729.17</ele><time>2024-05-15T12:31:01Z</time></trkpt>
<trkpt lat="47.560718" lon="10.276087"><ele>730.59</ele><time>2024-05-15T12:31:03Z</time></trkpt>
<trkpt lat="47.56101" lon="10.275659"><ele>732.03</ele><time>2024-05-15T12:31:06Z</time></trkpt>
<trkpt lat="47.561187" lon="10.275433"><ele>732.85</ele><time>2024-05-15T12:31:08Z</time></trkpt>
<trkpt lat="47.56165" lon="10.274941"><ele>732.72</ele><time>2024-05-15T12:31:11Z</time></trkpt>
<trkpt lat="47.562212" lon="10.27416"><ele>736.95</ele><time>2024-05-15T12:31:13Z</time></trkpt>
<trkpt lat="47.562769" lon="10.273568"><ele>740.15</ele><time>2024-05-15T12:31:16Z</time></trkpt>
<trkpt lat="47.562903" lon="10.273453"><ele>741.54</ele><time>2024-05-15T12:31:19Z</time></trkpt>
<trkpt lat="47.563088" lon="10.273333"><ele>743.88</ele><time>2024-05-15T12:31:21Z</time></trkpt>
<trkpt lat="47.563393" lon="10.273197"><ele>742.46</ele><time>2024-05-15T12:31:24Z</time></trkpt>
<trkpt lat="47.56424" lon="10.273093"><ele>738.27</ele><time>2024-05-15T12:31:26Z</time></trkpt>
<trkpt lat="47.564543" lon="10.273124"><ele>738.56</ele><time>2024-05-15T12:31:29Z</time></trkpt>
<trkpt lat="47.564895" lon="10.27328"><ele>736.45</ele><time>2024-05-15T12:31:31Z</time></trkpt>
<trkpt lat="47.565016" lon="10.273294"><ele>735.96</ele><time>2024-05-15T12:31:34Z</time></trkpt>
<trkpt lat="47.565139" lon="10.273275"><ele>735.71</ele><time>2024-05-15T12:31:36Z</time></trkpt>
<trkpt lat="47.565246" lon="10.273226"><ele>735.8</ele><time>2024-05-15T12:31:39Z</time></trkpt>
<trkpt lat="47.566505" lon="10.272323"><ele>736.58</ele><time>2024-05-15T12:31:41Z</time></trkpt>
<trkpt lat="47.566666" lon="10.272243"><ele>736.07</ele><time>2024-05-15T12:31:44Z</time></trkpt>
<trkpt lat="47.568304" lon="10.271627"><ele>733.91</ele><time>2024-05-15T12:31:46Z</time></trkpt>
<trkpt lat="47.568477" lon="10.271523"><ele>735.3</ele><time>2024-05-15T12:31:49Z</time></trkpt>
<trkpt lat="47.568601" lon="10.271426"><ele>736.77</ele><time>2024-05-15T12:31:51Z</time></trkpt>
<trkpt lat="47.56924" lon="10.270786"><ele>740.29</ele><time>2024-05-15T12:31:54Z</time></trkpt>
<trkpt lat="47.569355" lon="10.270643"><ele>740.91</ele><time>2024-05-15T12:31:57Z</time></trkpt>
<trkpt lat="47.569605" lon="10.270256"><ele>741.53</ele><time>2024-05-15T12:31:59Z</time></trkpt>
<trkpt lat="47.569701" lon="10.270164"><ele>741.52</ele><time>2024-05-15T12:32:02Z</time></trkpt>
<trkpt lat="47.569821" lon="10.270099"><ele>741.64</ele><time>2024-05-15T12:32:04Z</time></trkpt>
<trkpt lat="47.570242" lon="10.270002"><ele>743.73</ele><time>2024-05-15T12:32:07Z</time></trkpt>
<trkpt lat="47.570887" lon="10.269842"><ele>743.03</ele><time>2024-05-15T12:32:09Z</time></trkpt>
<trkpt lat="47.571039" lon="10.269838"><ele>742.73</ele><time>2024-05-15T12:32:12Z</time></trkpt>
<trkpt lat="47.571246" lon="10.269887"><ele>741.92</ele><time>2024-05-15T12:32:14Z</time></trkpt>
<trkpt lat="47.571809" lon="10.270102"><ele>739.5</ele><time>2024-05-15T12:32:17Z</time></trkpt>
<trkpt lat="47.572374" lon="10.270276"><ele>743.09</ele><time>2024-05-15T12:32:19Z</time></trkpt>
<trkpt lat="47.572626" lon="10.270325"><ele>744.24</ele><time>2024-05-15T12:32:22Z</time></trkpt>
<trkpt lat="47.572876" lon="10.270373"><ele>744.8</ele><time>2024-05-15T12:32:24Z</time></trkpt>
<trkpt lat="47.573118" lon="10.270487"><ele>745.05</ele><time>2024-05-15T12:32:27Z</time></trkpt>
<trkpt lat="47.573554" lon="10.270804"><ele>744.29</ele><time>2024-05-15T12:32:29Z</time></trkpt>
<trkpt lat="47.573746" lon="10.271032"><ele>743.52</ele><time>2024-05-15T12:32:32Z</time></trkpt>
<trkpt lat="47.57394" lon="10.271425"><ele>741.69</ele><time>2024-05-15T12:32:35Z</time></trkpt>
<trkpt lat="47.574186" lon="10.271786"><ele>739.49</ele><time>2024-05-15T12:32:37Z</time></trkpt>
<trkpt lat="47.574388" lon="10.271956"><ele>739.03</ele><time>2024-05-15T12:32:40Z</time></trkpt>
<trkpt lat="47.574786" lon="10.272207"><ele>741.19</ele><time>2024-05-15T12:32:42Z</time></trkpt>
<trkpt lat="47.575098" lon="10.272327"><ele>742.17</ele><time>2024-05-15T12:32:45Z</time></trkpt>
<trkpt lat="47.576155" lon="10.272662"><ele>752.09</ele><time>2024-05-15T12:32:47Z</time></trkpt>
<trkpt lat="47.576346" lon="10.272696"><ele>751.46</ele><time>2024-05-15T12:32:50Z</time></trkpt>
<trkpt lat="47.576867" lon="10.272721"><ele>760.08</ele><time>2024-05-15T12:32:52Z</time></trkpt>
<trkpt lat="47.577267" lon="10.272638"><ele>763.6</ele><time>2024-05-15T12:32:55Z</time></trkpt>
<trkpt lat="47.57749" lon="10.272623"><ele>761.54</ele><time>2024-05-15T12:32:57Z</time></trkpt>
<trkpt lat="47.57749" lon="10.272623"><ele>761.54</ele><time>2024-05-15T12:32:57Z</time></trkpt>
<trkpt lat="47.577666" lon="10.272749"><ele>757.59</ele><time>2024-05-15T12:33:01Z</time></trkpt>
<trkpt lat="47.577832" lon="10.273023"><ele>754.59</ele><time>2024-05-15T12:33:04Z</time></trkpt>
<trkpt lat="47.578184" lon="10.273463"><ele>741.48</ele><time>2024-05-15T12:33:07Z</time></trkpt>
<trkpt lat="47.578424" lon="10.273824"><ele>735.97</ele><time>2024-05-15T12:33:11Z</time></trkpt>
<trkpt lat="47.578575" lon="10.273997"><ele>734.38</ele><time>2024-05-15T12:33:14Z</time></trkpt>
<trkpt lat="47.578885" lon="10.274237"><ele>728.14</ele><time>2024-05-15T12:33:18Z</time></trkpt>
<trkpt lat="47.579262" lon="10.274463"><ele>726.29</ele><time>2024-05-15T12:33:21Z</time></trkpt>
<trkpt lat="47.579762" lon="10.274531"><ele>722.29</ele><time>2024-05-15T12:33:24Z</time></trkpt>
<trkpt lat="47.580088" lon="10.27467"><ele>721.07</ele><time>2024-05-15T12:33:28Z</time></trkpt>
<trkpt lat="47.580275" lon="10.274776"><ele>722.58</ele><time>2024-05-15T12:33:31Z</time></trkpt>
<trkpt lat="47.580897" lon="10.275286"><ele>725.18</ele><time>2024-05-15T12:33:34Z</time></trkpt>
<trkpt lat="47.581218" lon="10.275647"><ele>724.91</ele><time>2024-05-15T12:33:38Z</time></trkpt>
<trkpt lat="47.582119" lon="10.276934"><ele>729.78</ele><time>2024-05-15T12:33:41Z</time></trkpt>
<trkpt lat="47.582301" lon="10.277141"><ele>729.35</ele><time>2024-05-15T12:33:44Z</time></trkpt>
<trkpt lat="47.582875" lon="10.277648"><ele>728.82</ele><time>2024-05-15T12:33:48Z</time></trkpt>
<trkpt lat="47.583444" lon="10.278118"><ele>727.53</ele><time>2024-05-15T12:33:51Z</time></trkpt>
<trkpt lat="47.5836" lon="10.278194"><ele>724.26</ele><time>2024-05-15T12:33:55Z</time></trkpt>
<trkpt lat="47.583694" lon="10.27821"><ele>723.98</ele><time>2024-05-15T12:33:58Z</time></trkpt>
<trkpt lat="47.584285" lon="10.278154"><ele>720.35</ele><time>2024-05-15T12:34:01Z</time></trkpt>
<trkpt lat="47.584501" lon="10.278157"><ele>720.16</ele><time>2024-05-15T12:34:05Z</time></trkpt>
<trkpt lat="47.584974" lon="10.278339"><ele>719.17</ele><time>2024-05-15T12:34:08Z</time></trkpt>
<trkpt lat="47.585096" lon="10.278369"><ele>719.81</ele><time>2024-05-15T12:34:11Z</time></trkpt>
<trkpt lat="47.585774" lon="10.27846"><ele>722.79</ele><time>2024-05-15T12:34:15Z</time></trkpt>
<trkpt lat="47.586495" lon="10.278854"><ele>723.56</ele><time>2024-05-15T12:34:18Z</time></trkpt>
<trkpt lat="47.587027" lon="10.279213"><ele>722.56</ele><time>2024-05-15T12:34:21Z</time></trkpt>
<trkpt lat="47.587289" lon="10.279436"><ele>723.47</ele><time>2024-05-15T12:34:25Z</time></trkpt>
<trkpt lat="47.587395" lon="10.279557"><ele>723.56</ele><time>2024-05-15T12:34:28Z</time></trkpt>
<trkpt lat="47.587558" lon="10.279804"><ele>723.67</ele><time>2024-05-15T12:34:32Z</time></trkpt>
<trkpt lat="47.58789" lon="10.280816"><ele>722.13</ele><time>2024-05-15T12:34:35Z</time></trkpt>
<trkpt lat="47.58812" lon="10.28135"><ele>726.78</ele><time>2024-05-15T12:34:38Z</time></trkpt>
<trkpt lat="47.588222" lon="10.281497"><ele>728.3</ele><time>2024-05-15T12:34:42Z</time></trkpt>
<trkpt lat="47.588911" lon="10.282169"><ele>731.98</ele><time>2024-05-15T12:34:45Z</time></trkpt>
<trkpt lat="47.590168" lon="10.283371"><ele>735.35</ele><time>2024-05-15T12:34:48Z</time></trkpt>
<trkpt lat="47.591088" lon="10.284079"><ele>740.31</ele><time>2024-05-15T12:34:52Z</time></trkpt>
<trkpt lat="47.591924" lon="10.284788"><ele>738.49</ele><time>2024-05-15T12:34:55Z</time></trkpt>
<trkpt lat="47.592159" lon="10.285039"><ele>738.73</ele><time>2024-05-15T12:34:58Z</time></trkpt>
<trkpt lat="47.592338" lon="10.285168"><ele>738.54</ele><time>2024-05-15T12:35:02Z</time></trkpt>
<trkpt lat="47.593058" lon="10.28549"><ele>742.49</ele><time>2024-05-15T12:35:05Z</time></trkpt>
<trkpt lat="47.59416" lon="10.285907"><ele>738.33</ele><time>2024-05-15T12:35:09Z</time></trkpt>
<trkpt lat="47.594347" lon="10.286003"><ele>736.66</ele><time>2024-05-15T12:35:12Z</time></trkpt>
<trkpt lat="47.595244" lon="10.286711"><ele>736.85</ele><time>2024-05-15T12:35:15Z</time></trkpt>
<trkpt lat="47.595605" lon="10.286948"><ele>742.05</ele><time>2024-05-15T12:35:19Z</time></trkpt>
<trkpt lat="47.595864" lon="10.287091"><ele>741.88</ele><time>2024-05-15T12:35:22Z</time></trkpt>
<trkpt lat="47.596141" lon="10.2872"><ele>737.53</ele><time>2024-05-15T12:35:25Z</time></trkpt>
<trkpt lat="47.596669" lon="10.287486"><ele>739.88</ele><time>2024-05-15T12:35:29Z</time></trkpt>
<trkpt lat="47.596906" lon="10.287651"><ele>739.36</ele><time>2024-05-15T12:35:32Z</time></trkpt>
<trkpt lat="47.597383" lon="10.288056"><ele>739.42</ele><time>2024-05-15T12:35:35Z</time></trkpt>
<trkpt lat="47.598037" lon="10.288372"><ele>744.01</ele><time>2024-05-15T12:35:39Z</time></trkpt>
<trkpt lat="47.598814" lon="10.288793"><ele>739.44</ele><time>2024-05-15T12:35:42Z</time></trkpt>
<trkpt lat="47.600339" lon="10.289358"><ele>737.09</ele><time>2024-05-15T12:35:45Z</time></trkpt>
<trkpt lat="47.600737" lon="10.28954"><ele>734.53</ele><time>2024-05-15T12:35:49Z</time></trkpt>
<trkpt lat="47.600864" lon="10.289641"><ele>734.65</ele><time>2024-05-15T12:35:52Z</time></trkpt>
<trkpt lat="47.601026" lon="10.28984"><ele>736.28</ele><time>2024-05-15T12:35:56Z</time></trkpt>
<trkpt lat="47.601252" lon="10.290363"><ele>738.94</ele><time>2024-05-15T12:35:59Z</time></trkpt>
<trkpt lat="47.601364" lon="10.29055"><ele>739.14</ele><time>2024-05-15T12:36:02Z</time></trkpt>
<trkpt lat="47.601419" lon="10.290614"><ele>739.02</ele><time>2024-05-15T12:36:06Z</time></trkpt>
<trkpt lat="47.60161" lon="10.290739"><ele>738.6</ele><time>2024-05-15T12:36:09Z</time></trkpt>
<trkpt lat="47.602596" lon="10.291094"><ele>737.72</ele><time>2024-05-15T12:36:12Z</time></trkpt>
<trkpt lat="47.60335" lon="10.291571"><ele>740.21</ele><time>2024-05-15T12:36:16Z</time></trkpt>
<trkpt lat="47.605183" lon="10.29304"><ele>742.68</ele><time>2024-05-15T12:36:19Z</time></trkpt>
<trkpt lat="47.605846" lon="10.293584"><ele>741.14</ele><time>2024-05-15T12:36:22Z</time></trkpt>
<trkpt lat="47.606556" lon="10.294337"><ele>744.6</ele><time>2024-05-15T12:36:26Z</time></trkpt>
<trkpt lat="47.606631" lon="10.294434"><ele>744.87</ele><time>2024-05-15T12:36:29Z</time></trkpt>
<trkpt lat="47.606986" lon="10.295086"><ele>744.99</ele><time>2024-05-15T12:36:33Z</time></trkpt>
<trkpt lat="47.607178" lon="10.295343"><ele>745.48</ele><time>2024-05-15T12:36:36Z</time></trkpt>
<trkpt lat="47.607946" lon="10.296135"><ele>745.07</ele><time>2024-05-15T12:36:39Z</time></trkpt>
<trkpt lat="47.608055" lon="10.29619"><ele>745.42</ele><time>2024-05-15T12:36:43Z</time></trkpt>
<trkpt lat="47.60835" lon="10.296133"><ele>744.65</ele><time>2024-05-15T12:36:46Z</time></trkpt>
<trkpt lat="47.608415" lon="10.296151"><ele>743.27</ele><time>2024-05-15T12:36:49Z</time></trkpt>
<trkpt lat="47.608513" lon="10.29625"><ele>741.45</ele><time>2024-05-15T12:36:53Z</time></trkpt>
<trkpt lat="47.608748" lon="10.2966"><ele>739.3</ele><time>2024-05-15T12:36:56Z</time></trkpt>
<trkpt lat="47.608953" lon="10.296797"><ele>739.54</ele><time>2024-05-15T12:36:59Z</time></trkpt>
<trkpt lat="47.609217" lon="10.296976"><ele>738.59</ele><time>2024-05-15T12:37:03Z</time></trkpt>
<trkpt lat="47.60956" lon="10.297204"><ele>734.36</ele><time>2024-05-15T12:37:06Z</time></trkpt>
<trkpt lat="47.609885" lon="10.297386"><ele>728.91</ele><time>2024-05-15T12:37:10Z</time></trkpt>
<trkpt lat="47.610567" lon="10.297709"><ele>721.62</ele><time>2024-05-15T12:37:13Z</time></trkpt>
<trkpt lat="47.610792" lon="10.297875"><ele>719.8</ele><time>2024-05-15T12:37:16Z</time></trkpt>
<trkpt lat="47.611476" lon="10.298544"><ele>717.97</ele><time>2024-05-15T12:37:20Z</time></trkpt>
<trkpt lat="47.611821" lon="10.298825"><ele>716.88</ele><time>2024-05-15T12:37:23Z</time></trkpt>
<trkpt lat="47.612566" lon="10.299379"><ele>714.77</ele><time>2024-05-15T12:37:26Z</time></trkpt>
<trkpt lat="47.613315" lon="10.299937"><ele>715.77</ele><time>2024-05-15T12:37:30Z</time></trkpt>
<trkpt lat="47.61361" lon="10.300198"><ele>715.72</ele><time>2024-05-15T12:37:33Z</time></trkpt>
<trkpt lat="47.613855" lon="10.300385"><ele>718.48</ele><time>2024-05-15T12:37:36Z</time></trkpt>
<trkpt lat="47.614063" lon="10.300514"><ele>719.61</ele><time>2024-05-15T12:37:40Z</time></trkpt>
<trkpt lat="47.614991" lon="10.300892"><ele>707.72</ele><time>2024-05-15T12:37:43Z</time></trkpt>
<trkpt lat="47.615776" lon="10.301352"><ele>712.56</ele><time>2024-05-15T12:37:47Z</time></trkpt>
<trkpt lat="47.615997" lon="10.301524"><ele>714.17</ele><time>2024-05-15T12:37:50Z</time></trkpt>
<trkpt lat="47.616682" lon="10.302393"><ele>716.7</ele><time>2024-05-15T12:37:53Z</time></trkpt>
<trkpt lat="47.616823" lon="10.302545"><ele>719.45</ele><time>2024-05-15T12:37:57Z</time></trkpt>
<trkpt lat="47.61698" lon="10.30267"><ele>722.38</ele><time>2024-05-15T12:38:00Z</time></trkpt>
<trkpt lat="47.617263" lon="10.302827"><ele>725.21</ele><time>2024-05-15T12:38:03Z</time></trkpt>
<trkpt lat="47.618296" lon="10.303008"><ele>731.58</ele><time>2024-05-15T12:38:07Z</time></trkpt>
<trkpt lat="47.618463" lon="10.303014"><ele>732.31</ele><time>2024-05-15T12:38:10Z</time></trkpt>
<trkpt lat="47.619119" lon="10.302898"><ele>733.75</ele><time>2024-05-15T12:38:13Z</time></trkpt>
<trkpt lat="47.61934" lon="10.302926"><ele>735.24</ele><time>2024-05-15T12:38:17Z</time></trkpt>
<trkpt lat="47.619529" lon="10.303065"><ele>737.19</ele><time>2024-05-15T12:38:20Z</time></trkpt>
<trkpt lat="47.619529" lon="10.303065"><ele>737.19</ele><time>2024-05-15T12:38:20Z</time></trkpt>
<trkpt lat="47.619622" lon="10.303195"><ele>738.05</ele><time>2024-05-15T12:38:23Z</time></trkpt>
<trkpt lat="47.620063" lon="10.304027"><ele>740.98</ele><time>2024-05-15T12:38:26Z</time></trkpt>
<trkpt lat="47.621701" lon="10.306782"><ele>742.71</ele><time>2024-05-15T12:38:29Z</time></trkpt>
<trkpt lat="47.622171" lon="10.3076"><ele>751.96</ele><time>2024-05-15T12:38:32Z</time></trkpt>
<trkpt lat="47.622445" lon="10.308108"><ele>747.03</ele><time>2024-05-15T12:38:35Z</time></trkpt>
<trkpt lat="47.622825" lon="10.308935"><ele>738.24</ele><time>2024-05-15T12:38:38Z</time></trkpt>
<trkpt lat="47.623115" lon="10.309472"><ele>736.67</ele><time>2024-05-15T12:38:41Z</time></trkpt>
<trkpt lat="47.624229" lon="10.311324"><ele>728.41</ele><time>2024-05-15T12:38:45Z</time></trkpt>
<trkpt lat="47.62432" lon="10.311445"><ele>727.8</ele><time>2024-05-15T12:38:48Z</time></trkpt>
<trkpt lat="47.624495" lon="10.311589"><ele>727.59</ele><time>2024-05-15T12:38:51Z</time></trkpt>
<trkpt lat="47.624825" lon="10.311694"><ele>729.37</ele><time>2024-05-15T12:38:54Z</time></trkpt>
<trkpt lat="47.625211" lon="10.311863"><ele>730.31</ele><time>2024-05-15T12:38:57Z</time></trkpt>
<trkpt lat="47.625362" lon="10.312015"><ele>730.95</ele><time>2024-05-15T12:39:00Z</time></trkpt>
<trkpt lat="47.625557" lon="10.312318"><ele>730.98</ele><time>2024-05-15T12:39:03Z</time></trkpt>
<trkpt lat="47.625688" lon="10.312553"><ele>730.05</ele><time>2024-05-15T12:39:06Z</time></trkpt>
<trkpt lat="47.626001" lon="10.313284"><ele>729.61</ele><time>2024-05-15T12:39:09Z</time></trkpt>
<trkpt lat="47.626072" lon="10.313498"><ele>729.88</ele><time>2024-05-15T12:39:12Z</time></trkpt>
<trkpt lat="47.626137" lon="10.313769"><ele>730.47</ele><time>2024-05-15T12:39:15Z</time></trkpt>
<trkpt lat="47.626223" lon="10.314296"><ele>731.19</ele><time>2024-05-15T12:39:18Z</time></trkpt>
<trkpt lat="47.626123" lon="10.314355"><ele>731.03</ele><time>2024-05-15T12:39:22Z</time></trkpt>
<trkpt lat="47.625752" lon="10.314858"><ele>732.29</ele><time>2024-05-15T12:39:26Z</time></trkpt>
<trkpt lat="47.625539" lon="10.315379"><ele>735.46</ele><time>2024-05-15T12:39:30Z</time></trkpt>
<trkpt lat="47.625417" lon="10.31551"><ele>736.41</ele><time>2024-05-15T12:39:35Z</time></trkpt>
<trkpt lat="47.625307" lon="10.315691"><ele>737.0</ele><time>2024-05-15T12:39:39Z</time></trkpt>
<trkpt lat="47.625261" lon="10.315894"><ele>737.42</ele><time>2024-05-15T12:39:43Z</time></trkpt>
<trkpt lat="47.625192" lon="10.316624"><ele>743.54</ele><time>2024-05-15T12:39:47Z</time></trkpt>
<trkpt lat="47.625188" lon="10.316994"><ele>747.53</ele><time>2024-05-15T12:39:51Z</time></trkpt>
<trkpt lat="47.625298" lon="10.317345"><ele>751.67</ele><time>2024-05-15T12:39:55Z</time></trkpt>
<trkpt lat="47.625518" lon="10.317614"><ele>753.55</ele><time>2024-05-15T12:39:59Z</time></trkpt>
<trkpt lat="47.625594" lon="10.317874"><ele>754.95</ele><time>2024-05-15T12:40:03Z</time></trkpt>
<trkpt lat="47.625575" lon="10.318288"><ele>759.17</ele><time>2024-05-15T12:40:08Z</time></trkpt>
<trkpt lat="47.625622" lon="10.318616"><ele>760.54</ele><time>2024-05-15T12:40:12Z</time></trkpt>
<trkpt lat="47.62572" lon="10.31884"><ele>761.13</ele><time>2024-05-15T12:40:16Z</time></trkpt>
<trkpt lat="47.625912" lon="10.319404"><ele>760.67</ele><time>2024-05-15T12:40:20Z</time></trkpt>
<trkpt lat="47.626035" lon="10.319876"><ele>764.64</ele><time>2024-05-15T12:40:24Z</time></trkpt>
<trkpt lat="47.626263" lon="10.319861"><ele>764.54</ele><time>2024-05-15T12:40:27Z</time></trkpt>
<trkpt lat="47.626494" lon="10.319881"><ele>765.6</ele><time>2024-05-15T12:40:29Z</time></trkpt>
<trkpt lat="47.626696" lon="10.319611"><ele>765.55</ele><time>2024-05-15T12:40:32Z</time></trkpt>
<trkpt lat="47.626851" lon="10.319491"><ele>766.88</ele><time>2024-05-15T12:40:34Z</time></trkpt>
<trkpt lat="47.627" lon="10.319513"><ele>768.09</ele><time>2024-05-15T12:40:37Z</time></trkpt>
<trkpt lat="47.627141" lon="10.319645"><ele>768.53</ele><time>2024-05-15T12:40:39Z</time></trkpt>
<trkpt lat="47.627346" lon="10.320085"><ele>765.16</ele><time>2024-05-15T12:40:41Z</time></trkpt>
<trkpt lat="47.627577" lon="10.32039"><ele>762.62</ele><time>2024-05-15T12:40:44Z</time></trkpt>
<trkpt lat="47.627793" lon="10.320776"><ele>763.82</ele><time>2024-05-15T12:40:46Z</time></trkpt>
<trkpt lat="47.627839" lon="10.320809"><ele>762.55</ele><time>2024-05-15T12:40:49Z</time></trkpt>
<trkpt lat="47.627888" lon="10.320791"><ele>760.57</ele><time>2024-05-15T12:40:51Z</time></trkpt>
<trkpt lat="47.627941" lon="10.320908"><ele>759.68</ele><time>2024-05-15T12:40:55Z</time></trkpt>
<trkpt lat="47.6282" lon="10.321338"><ele>756.12</ele><time>2024-05-15T12:40:58Z</time></trkpt>
<trkpt lat="47.628518" lon="10.321803"><ele>754.34</ele><time>2024-05-15T12:41:02Z</time></trkpt>
<trkpt lat="47.628693" lon="10.322001"><ele>752.97</ele><time>2024-05-15T12:41:05Z</time></trkpt>
<trkpt lat="47.628956" lon="10.322249"><ele>754.07</ele><time>2024-05-15T12:41:09Z</time></trkpt>
<trkpt lat="47.629898" lon="10.32289"><ele>753.05</ele><time>2024-05-15T12:41:13Z</time></trkpt>
<trkpt lat="47.630414" lon="10.323218"><ele>756.29</ele><time>2024-05-15T12:41:16Z</time></trkpt>
<trkpt lat="47.630631" lon="10.323418"><ele>756.26</ele><time>2024-05-15T12:41:20Z</time></trkpt>
<trkpt lat="47.63141" lon="10.324557"><ele>750.25</ele><time>2024-05-15T12:41:23Z</time></trkpt>
<trkpt lat="47.632626" lon="10.326341"><ele>752.75</ele><time>2024-05-15T12:41:27Z</time></trkpt>
<trkpt lat="47.633224" lon="10.327386"><ele>756.56</ele><time>2024-05-15T12:41:31Z</time></trkpt>
<trkpt lat="47.633373" lon="10.327607"><ele>755.43</ele><time>2024-05-15T12:41:34Z</time></trkpt>
<trkpt lat="47.633555" lon="10.327769"><ele>754.57</ele><time>2024-05-15T12:41:38Z</time></trkpt>
<trkpt lat="47.633687" lon="10.327852"><ele>754.59</ele><time>2024-05-15T12:41:41Z</time></trkpt>
<trkpt lat="47.634361" lon="10.328187"><ele>751.21</ele><time>2024-05-15T12:41:45Z</time></trkpt>
<trkpt lat="47.634718" lon="10.328491"><ele>747.62</ele><time>2024-05-15T12:41:49Z</time></trkpt>
<trkpt lat="47.634973" lon="10.328736"><ele>747.5</ele><time>2024-05-15T12:41:52Z</time></trkpt>
<trkpt lat="47.635554" lon="10.329403"><ele>752.71</ele><time>2024-05-15T12:41:56Z</time></trkpt>
<trkpt lat="47.636645" lon="10.330887"><ele>749.57</ele><time>2024-05-15T12:41:59Z</time></trkpt>
<trkpt lat="47.637364" lon="10.332012"><ele>754.08</ele><time>2024-05-15T12:42:03Z</time></trkpt>
<trkpt lat="47.637619" lon="10.332379"><ele>754.36</ele><time>2024-05-15T12:42:07Z</time></trkpt>
<trkpt lat="47.638039" lon="10.332825"><ele>754.61</ele><time>2024-05-15T12:42:10Z</time></trkpt>
<trkpt lat="47.638395" lon="10.333136"><ele>757.08</ele><time>2024-05-15T12:42:14Z</time></trkpt>
<trkpt lat="47.638786" lon="10.333384"><ele>754.81</ele><time>2024-05-15T12:42:17Z</time></trkpt>
<trkpt lat="47.638888" lon="10.333411"><ele>754.01</ele><time>2024-05-15T12:42:21Z</time></trkpt>
<trkpt lat="47.639325" lon="10.333405"><ele>755.68</ele><time>2024-05-15T12:42:25Z</time></trkpt>
<trkpt lat="47.639718" lon="10.333346"><ele>754.08</ele><time>2024-05-15T12:42:28Z</time></trkpt>
<trkpt lat="47.640065" lon="10.333137"><ele>753.22</ele><time>2024-05-15T12:42:32Z</time></trkpt>
<trkpt lat="47.640194" lon="10.333113"><ele>753.06</ele><time>2024-05-15T12:42:35Z</time></trkpt>
<trkpt lat="47.640272" lon="10.333142"><ele>753.01</ele><time>2024-05-15T12:42:39Z</time></trkpt>
<trkpt lat="47.640444" lon="10.33327"><ele>751.8</ele><time>2024-05-15T12:42:43Z</time></trkpt>
<trkpt lat="47.640444" lon="10.33327"><ele>751.8</ele><time>2024-05-15T12:42:43Z</time></trkpt>
<trkpt lat="47.640224" lon="10.33364"><ele>754.38</ele><time>2024-05-15T12:42:45Z</time></trkpt>
<trkpt lat="47.639984" lon="10.333962"><ele>756.34</ele><time>2024-05-15T12:42:48Z</time></trkpt>
<trkpt lat="47.639572" lon="10.334276"><ele>760.68</ele><time>2024-05-15T12:42:51Z</time></trkpt>
<trkpt lat="47.639499" lon="10.334417"><ele>762.23</ele><time>2024-05-15T12:42:53Z</time></trkpt>
<trkpt lat="47.63948" lon="10.334518"><ele>763.88</ele><time>2024-05-15T12:42:56Z</time></trkpt>
<trkpt lat="47.63949" lon="10.335439"><ele>783.3</ele><time>2024-05-15T12:42:59Z</time></trkpt>
<trkpt lat="47.6395" lon="10.336098"><ele>795.77</ele><time>2024-05-15T12:43:01Z</time></trkpt>
<trkpt lat="47.639535" lon="10.336195"><ele>796.56</ele><time>2024-05-15T12:43:04Z</time></trkpt>
<trkpt lat="47.639687" lon="10.3364"><ele>797.13</ele><time>2024-05-15T12:43:07Z</time></trkpt>
<trkpt lat="47.63975" lon="10.336455"><ele>796.56</ele><time>2024-05-15T12:43:09Z</time></trkpt>
<trkpt lat="47.640322" lon="10.336827"><ele>794.38</ele><time>2024-05-15T12:43:12Z</time></trkpt>
<trkpt lat="47.640541" lon="10.337089"><ele>796.08</ele><time>2024-05-15T12:43:15Z</time></trkpt>
<trkpt lat="47.640604" lon="10.337198"><ele>796.17</ele><time>2024-05-15T12:43:18Z</time></trkpt>
<trkpt lat="47.64065" lon="10.33733"><ele>796.34</ele><time>2024-05-15T12:43:20Z</time></trkpt>
<trkpt lat="47.640693" lon="10.337533"><ele>796.43</ele><time>2024-05-15T12:43:23Z</time></trkpt>
<trkpt lat="47.640825" lon="10.339111"><ele>807.17</ele><time>2024-05-15T12:43:26Z</time></trkpt>
<trkpt lat="47.640833" lon="10.339631"><ele>813.02</ele><time>2024-05-15T12:43:28Z</time></trkpt>
<trkpt lat="47.640794" lon="10.339825"><ele>814.74</ele><time>2024-05-15T12:43:31Z</time></trkpt>
<trkpt lat="47.640604" lon="10.340493"><ele>816.17</ele><time>2024-05-15T12:43:34Z</time></trkpt>
<trkpt lat="47.640566" lon="10.340834"><ele>816.04</ele><time>2024-05-15T12:43:36Z</time></trkpt>
<trkpt lat="47.64059" lon="10.341138"><ele>817.0</ele><time>2024-05-15T12:43:39Z</time></trkpt>
<trkpt lat="47.640656" lon="10.341389"><ele>817.0</ele><time>2024-05-15T12:43:42Z</time></trkpt>
<trkpt lat="47.640992" lon="10.342401"><ele>822.63</ele><time>2024-05-15T12:43:44Z</time></trkpt>
<trkpt lat="47.641082" lon="10.342899"><ele>825.27</ele><time>2024-05-15T12:43:47Z</time></trkpt>
<trkpt lat="47.64109" lon="10.343083"><ele>826.13</ele><time>2024-05-15T12:43:50Z</time></trkpt>
<trkpt lat="47.641086" lon="10.343461"><ele>829.8</ele><time>2024-05-15T12:43:52Z</time></trkpt>
<trkpt lat="47.641061" lon="10.343691"><ele>832.69</ele><time>2024-05-15T12:43:55Z</time></trkpt>
<trkpt lat="47.640829" lon="10.344883"><ele>842.12</ele><time>2024-05-15T12:43:58Z</time></trkpt>
<trkpt lat="47.640805" lon="10.345222"><ele>845.11</ele><time>2024-05-15T12:44:01Z</time></trkpt>
<trkpt lat="47.640785" lon="10.346442"><ele>848.03</ele><time>2024-05-15T12:44:03Z</time></trkpt>
<trkpt lat="47.64081" lon="10.346903"><ele>849.01</ele><time>2024-05-15T12:44:06Z</time></trkpt>
<trkpt lat="47.640845" lon="10.347232"><ele>850.91</ele><time>2024-05-15T12:44:09Z</time></trkpt>
<trkpt lat="47.640912" lon="10.347619"><ele>852.41</ele><time>2024-05-15T12:44:11Z</time></trkpt>
<trkpt lat="47.640959" lon="10.347804"><ele>853.78</ele><time>2024-05-15T12:44:14Z</time></trkpt>
<trkpt lat="47.641126" lon="10.348313"><ele>856.0</ele><time>2024-05-15T12:44:17Z</time></trkpt>
<trkpt lat="47.641284" lon="10.348619"><ele>856.42</ele><time>2024-05-15T12:44:19Z</time></trkpt>
<trkpt lat="47.641621" lon="10.349188"><ele>859.24</ele><time>2024-05-15T12:44:22Z</time></trkpt>
<trkpt lat="47.641866" lon="10.349732"><ele>865.07</ele><time>2024-05-15T12:44:25Z</time></trkpt>
<trkpt lat="47.642398" lon="10.351511"><ele>867.44</ele><time>2024-05-15T12:44:27Z</time></trkpt>
<trkpt lat="47.642713" lon="10.352638"><ele>874.52</ele><time>2024-05-15T12:44:30Z</time></trkpt>
<trkpt lat="47.642892" lon="10.353366"><ele>879.0</ele><time>2024-05-15T12:44:33Z</time></trkpt>
<trkpt lat="47.642972" lon="10.353556"><ele>879.0</ele><time>2024-05-15T12:44:35Z</time></trkpt>
<trkpt lat="47.642871" lon="10.355218"><ele>885.92</ele><time>2024-05-15T12:44:38Z</time></trkpt>
<trkpt lat="47.642822" lon="10.355818"><ele>890.42</ele><time>2024-05-15T12:44:40Z</time></trkpt>
<trkpt lat="47.642772" lon="10.356072"><ele>889.96</ele><time>2024-05-15T12:44:43Z</time></trkpt>
<trkpt lat="47.642696" lon="10.356286"><ele>889.37</ele><time>2024-05-15T12:44:45Z</time></trkpt>
<trkpt lat="47.642696" lon="10.356286"><ele>889.37</ele><time>2024-05-15T12:44:45Z</time></trkpt>
<trkpt lat="47.642591" lon="10.356446"><ele>887.66</ele><time>2024-05-15T12:44:47Z</time></trkpt>
<trkpt lat="47.642461" lon="10.356584"><ele>886.76</ele><time>2024-05-15T12:44:50Z</time></trkpt>
<trkpt lat="47.642291" lon="10.356627"><ele>885.6</ele><time>2024-05-15T12:44:52Z</time></trkpt>
<trkpt lat="47.64203" lon="10.356605"><ele>885.91</ele><time>2024-05-15T12:44:54Z</time></trkpt>
<trkpt lat="47.640531" lon="10.356168"><ele>886.63</ele><time>2024-05-15T12:44:57Z</time></trkpt>
<trkpt lat="47.640297" lon="10.356076"><ele>888.79</ele><time>2024-05-15T12:44:59Z</time></trkpt>
<trkpt lat="47.64005" lon="10.355945"><ele>891.96</ele><time>2024-05-15T12:45:01Z</time></trkpt>
<trkpt lat="47.639863" lon="10.355814"><ele>892.11</ele><time>2024-05-15T12:45:04Z</time></trkpt>
<trkpt lat="47.639708" lon="10.355666"><ele>892.08</ele><time>2024-05-15T12:45:06Z</time></trkpt>
<trkpt lat="47.638991" lon="10.35487"><ele>893.64</ele><time>2024-05-15T12:45:08Z</time></trkpt>
<trkpt lat="47.638818" lon="10.354724"><ele>891.19</ele><time>2024-05-15T12:45:11Z</time></trkpt>
<trkpt lat="47.638719" lon="10.354695"><ele>888.98</ele><time>2024-05-15T12:45:13Z</time></trkpt>
<trkpt lat="47.638511" lon="10.354708"><ele>884.7</ele><time>2024-05-15T12:45:15Z</time></trkpt>
<trkpt lat="47.63838" lon="10.354751"><ele>882.46</ele><time>2024-05-15T12:45:18Z</time></trkpt>
<trkpt lat="47.637478" lon="10.355351"><ele>878.84</ele><time>2024-05-15T12:45:20Z</time></trkpt>
<trkpt lat="47.637098" lon="10.355532"><ele>877.0</ele><time>2024-05-15T12:45:22Z</time></trkpt>
<trkpt lat="47.636901" lon="10.355547"><ele>876.7</ele><time>2024-05-15T12:45:25Z</time></trkpt>
<trkpt lat="47.63676" lon="10.355535"><ele>875.77</ele><time>2024-05-15T12:45:27Z</time></trkpt>
<trkpt lat="47.635378" lon="10.355367"><ele>871.64</ele><time>2024-05-15T12:45:29Z</time></trkpt>
<trkpt lat="47.635166" lon="10.355384"><ele>872.25</ele><time>2024-05-15T12:45:32Z</time></trkpt>
<trkpt lat="47.634455" lon="10.355671"><ele>867.81</ele><time>2024-05-15T12:45:34Z</time></trkpt>
<trkpt lat="47.634211" lon="10.355709"><ele>866.12</ele><time>2024-05-15T12:45:36Z</time></trkpt>
<trkpt lat="47.634002" lon="10.355692"><ele>864.84</ele><time>2024-05-15T12:45:38Z</time></trkpt>
<trkpt lat="47.633563" lon="10.35557"><ele>863.96</ele><time>2024-05-15T12:45:41Z</time></trkpt>
<trkpt lat="47.63343" lon="10.355557"><ele>864.0</ele><time>2024-05-15T12:45:43Z</time></trkpt>
<trkpt lat="47.633289" lon="10.355571"><ele>863.83</ele><time>2024-05-15T12:45:45Z</time></trkpt>
<trkpt lat="47.632874" lon="10.355722"><ele>862.01</ele><time>2024-05-15T12:45:48Z</time></trkpt>
<trkpt lat="47.632359" lon="10.355983"><ele>858.4</ele><time>2024-05-15T12:45:50Z</time></trkpt>
<trkpt lat="47.631584" lon="10.356421"><ele>854.47</ele><time>2024-05-15T12:45:52Z</time></trkpt>
<trkpt lat="47.631494" lon="10.356504"><ele>855.65</ele><time>2024-05-15T12:45:55Z</time></trkpt>
<trkpt lat="47.631375" lon="10.356674"><ele>857.66</ele><time>2024-05-15T12:45:57Z</time></trkpt>
<trkpt lat="47.631328" lon="10.356829"><ele>857.54</ele><time>2024-05-15T12:45:59Z</time></trkpt>
<trkpt lat="47.631355" lon="10.358112"><ele>861.11</ele><time>2024-05-15T12:46:02Z</time></trkpt>
<trkpt lat="47.631332" lon="10.358309"><ele>857.54</ele><time>2024-05-15T12:46:04Z</time></trkpt>
<trkpt lat="47.631239" lon="10.358473"><ele>855.11</ele><time>2024-05-15T12:46:06Z</time></trkpt>
<trkpt lat="47.631177" lon="10.358519"><ele>854.12</ele><time>2024-05-15T12:46:09Z</time></trkpt>
<trkpt lat="47.631099" lon="10.358538"><ele>853.03</ele><time>2024-05-15T12:46:11Z</time></trkpt>
<trkpt lat="47.631005" lon="10.35851"><ele>851.32</ele><time>2024-05-15T12:46:13Z</time></trkpt>
<trkpt lat="47.63091" lon="10.358432"><ele>849.56</ele><time>2024-05-15T12:46:16Z</time></trkpt>
<trkpt lat="47.630813" lon="10.358313"><ele>847.21</ele><time>2024-05-15T12:46:18Z</time></trkpt>
<trkpt lat="47.630645" lon="10.358028"><ele>840.93</ele><time>2024-05-15T12:46:20Z</time></trkpt>
<trkpt lat="47.630412" lon="10.357682"><ele>833.69</ele><time>2024-05-15T12:46:23Z</time></trkpt>
<trkpt lat="47.629738" lon="10.356862"><ele>825.13</ele><time>2024-05-15T12:46:25Z</time></trkpt>
<trkpt lat="47.629451" lon="10.356575"><ele>822.4</ele><time>2024-05-15T12:46:27Z</time></trkpt>
<trkpt lat="47.628861" lon="10.356057"><ele>819.79</ele><time>2024-05-15T12:46:30Z</time></trkpt>
<trkpt lat="47.628409" lon="10.355733"><ele>815.91</ele><time>2024-05-15T12:46:32Z</time></trkpt>
<trkpt lat="47.628254" lon="10.355666"><ele>815.14</ele><time>2024-05-15T12:46:34Z</time></trkpt>
<trkpt lat="47.628136" lon="10.355647"><ele>814.49</ele><time>2024-05-15T12:46:37Z</time></trkpt>
<trkpt lat="47.627855" lon="10.35568"><ele>812.96</ele><time>2024-05-15T12:46:39Z</time></trkpt>
<trkpt lat="47.626659" lon="10.356141"><ele>811.03</ele><time>2024-05-15T12:46:41Z</time></trkpt>
<trkpt lat="47.626659" lon="10.356141"><ele>811.03</ele><time>2024-05-15T12:46:41Z</time></trkpt>
<trkpt lat="47.626784" lon="10.356405"><ele>811.42</ele><time>2024-05-15T12:46:44Z</time></trkpt>
<trkpt lat="47.62705" lon="10.356882"><ele>812.0</ele><time>2024-05-15T12:46:46Z</time></trkpt>
<trkpt lat="47.627161" lon="10.357227"><ele>813.27</ele><time>2024-05-15T12:46:48Z</time></trkpt>
<trkpt lat="47.627203" lon="10.357527"><ele>816.34</ele><time>2024-05-15T12:46:51Z</time></trkpt>
<trkpt lat="47.627207" lon="10.357986"><ele>820.47</ele><time>2024-05-15T12:46:53Z</time></trkpt>
<trkpt lat="47.627185" lon="10.358668"><ele>826.12</ele><time>2024-05-15T12:46:55Z</time></trkpt>
<trkpt lat="47.627196" lon="10.359056"><ele>833.32</ele><time>2024-05-15T12:46:58Z</time></trkpt>
<trkpt lat="47.627309" lon="10.359453"><ele>835.02</ele><time>2024-05-15T12:47:00Z</time></trkpt>
<trkpt lat="47.627465" lon="10.359784"><ele>832.91</ele><time>2024-05-15T12:47:02Z</time></trkpt>
<trkpt lat="47.627615" lon="10.360052"><ele>832.34</ele><time>2024-05-15T12:47:05Z</time></trkpt>
<trkpt lat="47.627773" lon="10.360419"><ele>832.51</ele><time>2024-05-15T12:47:07Z</time></trkpt>
<trkpt lat="47.627853" lon="10.360668"><ele>834.24</ele><time>2024-05-15T12:47:09Z</time></trkpt>
<trkpt lat="47.627915" lon="10.360935"><ele>836.59</ele><time>2024-05-15T12:47:12Z</time></trkpt>
<trkpt lat="47.627961" lon="10.36137"><ele>840.53</ele><time>2024-05-15T12:47:14Z</time></trkpt>
<trkpt lat="47.62795" lon="10.362251"><ele>850.77</ele><time>2024-05-15T12:47:16Z</time></trkpt>
<trkpt lat="47.628003" lon="10.362609"><ele>856.4</ele><time>2024-05-15T12:47:19Z</time></trkpt>
<trkpt lat="47.628047" lon="10.362762"><ele>859.69</ele><time>2024-05-15T12:47:21Z</time></trkpt>
<trkpt lat="47.628956" lon="10.365041"><ele>870.32</ele><time>2024-05-15T12:47:23Z</time></trkpt>
<trkpt lat="47.629143" lon="10.365424"><ele>864.99</ele><time>2024-05-15T12:47:25Z</time></trkpt>
<trkpt lat="47.629311" lon="10.365665"><ele>863.13</ele><time>2024-05-15T12:47:28Z</time></trkpt>
<trkpt lat="47.629423" lon="10.365865"><ele>860.77</ele><time>2024-05-15T12:47:30Z</time></trkpt>
<trkpt lat="47.62957" lon="10.36621"><ele>861.93</ele><time>2024-05-15T12:47:32Z</time></trkpt>
<trkpt lat="47.629667" lon="10.366593"><ele>862.48</ele><time>2024-05-15T12:47:35Z</time></trkpt>
<trkpt lat="47.629685" lon="10.366765"><ele>862.27</ele><time>2024-05-15T12:47:37Z</time></trkpt>
<trkpt lat="47.62969" lon="10.367161"><ele>862.48</ele><time>2024-05-15T12:47:39Z</time></trkpt>
<trkpt lat="47.629661" lon="10.367975"><ele>866.21</ele><time>2024-05-15T12:47:42Z</time></trkpt>
<trkpt lat="47.629671" lon="10.368309"><ele>868.53</ele><time>2024-05-15T12:47:44Z</time></trkpt>
<trkpt lat="47.629731" lon="10.368863"><ele>870.2</ele><time>2024-05-15T12:47:46Z</time></trkpt>
<trkpt lat="47.629949" lon="10.370205"><ele>865.36</ele><time>2024-05-15T12:47:49Z</time></trkpt>
<trkpt lat="47.630006" lon="10.371194"><ele>858.57</ele><time>2024-05-15T12:47:51Z</time></trkpt>
<trkpt lat="47.630033" lon="10.371408"><ele>857.47</ele><time>2024-05-15T12:47:53Z</time></trkpt>
<trkpt lat="47.630091" lon="10.371656"><ele>857.0</ele><time>2024-05-15T12:47:56Z</time></trkpt>
<trkpt lat="47.630208" lon="10.372032"><ele>853.28</ele><time>2024-05-15T12:47:58Z</time></trkpt>
<trkpt lat="47.630369" lon="10.372437"><ele>848.75</ele><time>2024-05-15T12:48:00Z</time></trkpt>
<trkpt lat="47.631042" lon="10.373561"><ele>851.73</ele><time>2024-05-15T12:48:03Z</time></trkpt>
<trkpt lat="47.631296" lon="10.374048"><ele>854.91</ele><time>2024-05-15T12:48:05Z</time></trkpt>
<trkpt lat="47.631518" lon="10.374572"><ele>861.73</ele><time>2024-05-15T12:48:07Z</time></trkpt>
<trkpt lat="47.631638" lon="10.374902"><ele>864.91</ele><time>2024-05-15T12:48:10Z</time></trkpt>
<trkpt lat="47.631925" lon="10.375796"><ele>874.8</ele><time>2024-05-15T12:48:12Z</time></trkpt>
<trkpt lat="47.632108" lon="10.376196"><ele>876.95</ele><time>2024-05-15T12:48:14Z</time></trkpt>
<trkpt lat="47.632418" lon="10.376759"><ele>882.38</ele><time>2024-05-15T12:48:17Z</time></trkpt>
<trkpt lat="47.632644" lon="10.377338"><ele>883.51</ele><time>2024-05-15T12:48:19Z</time></trkpt>
<trkpt lat="47.632679" lon="10.377607"><ele>885.11</ele><time>2024-05-15T12:48:21Z</time></trkpt>
<trkpt lat="47.632688" lon="10.377923"><ele>884.12</ele><time>2024-05-15T12:48:24Z</time></trkpt>
<trkpt lat="47.632677" lon="10.378418"><ele>881.0</ele><time>2024-05-15T12:48:26Z</time></trkpt>
<trkpt lat="47.632577" lon="10.379781"><ele>884.57</ele><time>2024-05-15T12:48:28Z</time></trkpt>
<trkpt lat="47.632585" lon="10.380161"><ele>882.84</ele><time>2024-05-15T12:48:31Z</time></trkpt>
<trkpt lat="47.632623" lon="10.380538"><ele>880.12</ele><time>2024-05-15T12:48:33Z</time></trkpt>
<trkpt lat="47.632671" lon="10.380831"><ele>879.39</ele><time>2024-05-15T12:48:35Z</time></trkpt>
<trkpt lat="47.632743" lon="10.38114"><ele>879.37</ele><time>2024-05-15T12:48:38Z</time></trkpt>
<trkpt lat="47.632817" lon="10.381363"><ele>879.64</ele><time>2024-05-15T12:48:40Z</time></trkpt>
<trkpt lat="47.632932" lon="10.381626"><ele>878.89</ele><time>2024-05-15T12:48:42Z</time></trkpt>
<trkpt lat="47.633298" lon="10.382291"><ele>875.47</ele><time>2024-05-15T12:48:45Z</time></trkpt>
<trkpt lat="47.634394" lon="10.383942"><ele>869.21</ele><time>2024-05-15T12:48:47Z</time></trkpt>
<trkpt lat="47.634512" lon="10.384152"><ele>868.51</ele><time>2024-05-15T12:48:49Z</time></trkpt>
<trkpt lat="47.634608" lon="10.384371"><ele>871.08</ele><time>2024-05-15T12:48:52Z</time></trkpt>
<trkpt lat="47.63465" lon="10.384529"><ele>873.14</ele><time>2024-05-15T12:48:54Z</time></trkpt>
<trkpt lat="47.634768" lon="10.38529"><ele>877.47</ele><time>2024-05-15T12:48:56Z</time></trkpt>
<trkpt lat="47.63485" lon="10.385849"><ele>877.57</ele><time>2024-05-15T12:48:59Z</time></trkpt>
<trkpt lat="47.634954" lon="10.386189"><ele>878.05</ele><time>2024-05-15T12:49:01Z</time></trkpt>
<trkpt lat="47.635308" lon="10.386833"><ele>881.6</ele><time>2024-05-15T12:49:03Z</time></trkpt>
<trkpt lat="47.635635" lon="10.387608"><ele>881.85</ele><time>2024-05-15T12:49:06Z</time></trkpt>
<trkpt lat="47.635635" lon="10.387608"><ele>881.85</ele><time>2024-05-15T12:49:06Z</time></trkpt>
<trkpt lat="47.635784" lon="10.38786"><ele>882.72</ele><time>2024-05-15T12:49:08Z</time></trkpt>
<trkpt lat="47.635913" lon="10.388021"><ele>883.5</ele><time>2024-05-15T12:49:10Z</time></trkpt>
<trkpt lat="47.636094" lon="10.388188"><ele>883.51</ele><time>2024-05-15T12:49:12Z</time></trkpt>
<trkpt lat="47.636282" lon="10.388328"><ele>883.97</ele><time>2024-05-15T12:49:14Z</time></trkpt>
<trkpt lat="47.636314" lon="10.388495"><ele>884.16</ele><time>2024-05-15T12:49:25Z</time></trkpt>
<trkpt lat="47.636516" lon="10.388997"><ele>883.41</ele><time>2024-05-15T12:49:36Z</time></trkpt>
<trkpt lat="47.636703" lon="10.389552"><ele>882.12</ele><time>2024-05-15T12:49:47Z</time></trkpt>
<trkpt lat="47.636873" lon="10.390372"><ele>883.18</ele><time>2024-05-15T12:49:58Z</time></trkpt>
<trkpt lat="47.637253" lon="10.392614"><ele>896.56</ele><time>2024-05-15T12:50:09Z</time></trkpt>
<trkpt lat="47.637354" lon="10.393494"><ele>906.66</ele><time>2024-05-15T12:50:20Z</time></trkpt>
<trkpt lat="47.637447" lon="10.394616"><ele>913.69</ele><time>2024-05-15T12:50:31Z</time></trkpt>
<trkpt lat="47.637447" lon="10.395708"><ele>919.02</ele><time>2024-05-15T12:50:42Z</time></trkpt>
<trkpt lat="47.637396" lon="10.396864"><ele>921.9</ele><time>2024-05-15T12:50:53Z</time></trkpt>
<trkpt lat="47.637301" lon="10.397741"><ele>924.24</ele><time>2024-05-15T12:51:04Z</time></trkpt>
<trkpt lat="47.636647" lon="10.401406"><ele>935.07</ele><time>2024-05-15T12:51:15Z</time></trkpt>
<trkpt lat="47.636607" lon="10.401786"><ele>935.43</ele><time>2024-05-15T12:51:26Z</time></trkpt>
<trkpt lat="47.636607" lon="10.402181"><ele>935.43</ele><time>2024-05-15T12:51:37Z</time></trkpt>
<trkpt lat="47.636658" lon="10.402574"><ele>936.61</ele><time>2024-05-15T12:51:48Z</time></trkpt>
<trkpt lat="47.637052" lon="10.404376"><ele>937.95</ele><time>2024-05-15T12:51:59Z</time></trkpt>
<trkpt lat="47.637184" lon="10.405114"><ele>945.56</ele><time>2024-05-15T12:52:10Z</time></trkpt>
<trkpt lat="47.637384" lon="10.406411"><ele>957.95</ele><time>2024-05-15T12:52:21Z</time></trkpt>
<trkpt lat="47.637419" lon="10.407274"><ele>962.19</ele><time>2024-05-15T12:52:32Z</time></trkpt>
<trkpt lat="47.637644" lon="10.408108"><ele>963.89</ele><time>2024-05-15T12:52:43Z</time></trkpt>
<trkpt lat="47.63822" lon="10.409999"><ele>968.63</ele><time>2024-05-15T12:52:54Z</time></trkpt>
<trkpt lat="47.638401" lon="10.41051"><ele>969.35</ele><time>2024-05-15T12:53:01Z</time></trkpt>
<trkpt lat="47.63875" lon="10.411233"><ele>967.44</ele><time>2024-05-15T12:53:08Z</time></trkpt>
<trkpt lat="47.639037" lon="10.411888"><ele>964.56</ele><time>2024-05-15T12:53:14Z</time></trkpt>
<trkpt lat="47.639239" lon="10.412584"><ele>965.23</ele><time>2024-05-15T12:53:21Z</time></trkpt>
<trkpt lat="47.639395" lon="10.413205"><ele>964.5</ele><time>2024-05-15T12:53:28Z</time></trkpt>
<trkpt lat="47.639619" lon="10.413868"><ele>964.29</ele><time>2024-05-15T12:53:35Z</time></trkpt>
<trkpt lat="47.639918" lon="10.414468"><ele>967.29</ele><time>2024-05-15T12:53:42Z</time></trkpt>
<trkpt lat="47.640102" lon="10.41494"><ele>967.62</ele><time>2024-05-15T12:53:48Z</time></trkpt>
<trkpt lat="47.640347" lon="10.415778"><ele>968.3</ele><time>2024-05-15T12:53:55Z</time></trkpt>
<trkpt lat="47.640561" lon="10.416431"><ele>971.44</ele><time>2024-05-15T12:54:02Z</time></trkpt>
<trkpt lat="47.641004" lon="10.417084"><ele>973.75</ele><time>2024-05-15T12:54:09Z</time></trkpt>
<trkpt lat="47.641835" lon="10.418537"><ele>978.46</ele><time>2024-05-15T12:54:16Z</time></trkpt>
<trkpt lat="47.642983" lon="10.420227"><ele>981.32</ele><time>2024-05-15T12:54:22Z</time></trkpt>
<trkpt lat="47.643132" lon="10.420383"><ele>982.04</ele><time>2024-05-15T12:54:29Z</time></trkpt>
<trkpt lat="47.64365" lon="10.420577"><ele>979.86</ele><time>2024-05-15T12:54:36Z</time></trkpt>
<trkpt lat="47.64392" lon="10.420778"><ele>978.53</ele><time>2024-05-15T12:54:43Z</time></trkpt>
<trkpt lat="47.644577" lon="10.421363"><ele>980.63</ele><time>2024-05-15T12:54:50Z</time></trkpt>
<trkpt lat="47.645287" lon="10.422087"><ele>973.91</ele><time>2024-05-15T12:54:56Z</time></trkpt>
<trkpt lat="47.645504" lon="10.422353"><ele>975.96</ele><time>2024-05-15T12:55:03Z</time></trkpt>
<trkpt lat="47.645791" lon="10.422963"><ele>982.63</ele><time>2024-05-15T12:55:10Z</time></trkpt>
<trkpt lat="47.646012" lon="10.423374"><ele>984.5</ele><time>2024-05-15T12:55:17Z</time></trkpt>
<trkpt lat="47.646416" lon="10.424831"><ele>984.2</ele><time>2024-05-15T12:55:23Z</time></trkpt>
<trkpt lat="47.646426" lon="10.425027"><ele>984.82</ele><time>2024-05-15T12:55:30Z</time></trkpt>
<trkpt lat="47.646375" lon="10.425142"><ele>985.61</ele><time>2024-05-15T12:55:33Z</time></trkpt>
<trkpt lat="47.64636" lon="10.425287"><ele>986.24</ele><time>2024-05-15T12:55:36Z</time></trkpt>
<trkpt lat="47.646419" lon="10.425669"><ele>986.86</ele><time>2024-05-15T12:55:39Z</time></trkpt>
<trkpt lat="47.646509" lon="10.426072"><ele>987.44</ele><time>2024-05-15T12:55:41Z</time></trkpt>
<trkpt lat="47.646626" lon="10.426253"><ele>987.46</ele><time>2024-05-15T12:55:44Z</time></trkpt>
<trkpt lat="47.646897" lon="10.426412"><ele>985.66</ele><time>2024-05-15T12:55:47Z</time></trkpt>
<trkpt lat="47.646973" lon="10.426505"><ele>985.63</ele><time>2024-05-15T12:55:50Z</time></trkpt>
<trkpt lat="47.647251" lon="10.427035"><ele>985.12</ele><time>2024-05-15T12:55:52Z</time></trkpt>
<trkpt lat="47.647251" lon="10.427035"><ele>985.12</ele><time>2024-05-15T12:55:52Z</time></trkpt>
<trkpt lat="47.647421" lon="10.427486"><ele>983.33</ele><time>2024-05-15T12:55:57Z</time></trkpt>
<trkpt lat="47.64798" lon="10.429139"><ele>982.4</ele><time>2024-05-15T12:56:02Z</time></trkpt>
<trkpt lat="47.649064" lon="10.432402"><ele>990.16</ele><time>2024-05-15T12:56:07Z</time></trkpt>
<trkpt lat="47.649166" lon="10.432775"><ele>990.98</ele><time>2024-05-15T12:56:13Z</time></trkpt>
<trkpt lat="47.649254" lon="10.43317"><ele>989.68</ele><time>2024-05-15T12:56:18Z</time></trkpt>
<trkpt lat="47.649342" lon="10.433748"><ele>989.47</ele><time>2024-05-15T12:56:23Z</time></trkpt>
<trkpt lat="47.649363" lon="10.434195"><ele>989.1</ele><time>2024-05-15T12:56:28Z</time></trkpt>
<trkpt lat="47.649345" lon="10.434658"><ele>989.29</ele><time>2024-05-15T12:56:33Z</time></trkpt>
<trkpt lat="47.649276" lon="10.435258"><ele>988.17</ele><time>2024-05-15T12:56:38Z</time></trkpt>
<trkpt lat="47.649188" lon="10.435713"><ele>985.8</ele><time>2024-05-15T12:56:43Z</time></trkpt>
<trkpt lat="47.649068" lon="10.436108"><ele>983.82</ele><time>2024-05-15T12:56:48Z</time></trkpt>
<trkpt lat="47.648908" lon="10.436479"><ele>981.36</ele><time>2024-05-15T12:56:53Z</time></trkpt>
<trkpt lat="47.648663" lon="10.436836"><ele>976.07</ele><time>2024-05-15T12:56:58Z</time></trkpt>
<trkpt lat="47.648522" lon="10.436965"><ele>974.74</ele><time>2024-05-15T12:57:03Z</time></trkpt>
<trkpt lat="47.648174" lon="10.437195"><ele>976.59</ele><time>2024-05-15T12:57:08Z</time></trkpt>
<trkpt lat="47.647903" lon="10.437421"><ele>975.14</ele><time>2024-05-15T12:57:14Z</time></trkpt>
<trkpt lat="47.647646" lon="10.437833"><ele>972.54</ele><time>2024-05-15T12:57:19Z</time></trkpt>
<trkpt lat="47.647544" lon="10.438073"><ele>972.18</ele><time>2024-05-15T12:57:24Z</time></trkpt>
<trkpt lat="47.647464" lon="10.438322"><ele>970.76</ele><time>2024-05-15T12:57:29Z</time></trkpt>
<trkpt lat="47.647403" lon="10.438664"><ele>969.4</ele><time>2024-05-15T12:57:34Z</time></trkpt>
<trkpt lat="47.647376" lon="10.439029"><ele>969.84</ele><time>2024-05-15T12:57:39Z</time></trkpt>
<trkpt lat="47.647383" lon="10.439519"><ele>970.53</ele><time>2024-05-15T12:57:44Z</time></trkpt>
<trkpt lat="47.647086" lon="10.439608"><ele>972.97</ele><time>2024-05-15T12:57:50Z</time></trkpt>
<trkpt lat="47.646761" lon="10.439635"><ele>974.97</ele><time>2024-05-15T12:57:57Z</time></trkpt>
<trkpt lat="47.646554" lon="10.439587"><ele>975.48</ele><time>2024-05-15T12:58:03Z</time></trkpt>
<trkpt lat="47.646383" lon="10.439518"><ele>975.78</ele><time>2024-05-15T12:58:10Z</time></trkpt>
<trkpt lat="47.645881" lon="10.439257"><ele>980.74</ele><time>2024-05-15T12:58:16Z</time></trkpt>
<trkpt lat="47.64497" lon="10.438825"><ele>985.01</ele><time>2024-05-15T12:58:23Z</time></trkpt>
<trkpt lat="47.644635" lon="10.43854"><ele>984.99</ele><time>2024-05-15T12:58:29Z</time></trkpt>
<trkpt lat="47.644346" lon="10.438235"><ele>991.0</ele><time>2024-05-15T12:58:35Z</time></trkpt>
<trkpt lat="47.644051" lon="10.438004"><ele>994.25</ele><time>2024-05-15T12:58:42Z</time></trkpt>
<trkpt lat="47.643644" lon="10.437798"><ele>995.78</ele><time>2024-05-15T12:58:48Z</time></trkpt>
<trkpt lat="47.643497" lon="10.437709"><ele>996.55</ele><time>2024-05-15T12:58:55Z</time></trkpt>
<trkpt lat="47.642967" lon="10.437195"><ele>997.67</ele><time>2024-05-15T12:59:01Z</time></trkpt>
<trkpt lat="47.64263" lon="10.436751"><ele>999.39</ele><time>2024-05-15T12:59:08Z</time></trkpt>
<trkpt lat="47.642358" lon="10.436487"><ele>1000.97</ele><time>2024-05-15T12:59:14Z</time></trkpt>
<trkpt lat="47.641939" lon="10.436177"><ele>1001.58</ele><time>2024-05-15T12:59:21Z</time></trkpt>
<trkpt lat="47.641228" lon="10.435512"><ele>1010.07</ele><time>2024-05-15T12:59:27Z</time></trkpt>
<trkpt lat="47.64091" lon="10.435313"><ele>1010.0</ele><time>2024-05-15T12:59:33Z</time></trkpt>
<trkpt lat="47.640788" lon="10.435211"><ele>1009.88</ele><time>2024-05-15T12:59:40Z</time></trkpt>
<trkpt lat="47.640523" lon="10.435332"><ele>1008.78</ele><time>2024-05-15T12:59:45Z</time></trkpt>
<trkpt lat="47.640323" lon="10.435356"><ele>1008.48</ele><time>2024-05-15T12:59:51Z</time></trkpt>
<trkpt lat="47.639768" lon="10.43538"><ele>1004.86</ele><time>2024-05-15T12:59:56Z</time></trkpt>
<trkpt lat="47.639685" lon="10.43536"><ele>1004.47</ele><time>2024-05-15T13:00:02Z</time></trkpt>
<trkpt lat="47.639623" lon="10.435286"><ele>1004.27</ele><time>2024-05-15T13:00:07Z</time></trkpt>
<trkpt lat="47.639407" lon="10.435265"><ele>1002.82</ele><time>2024-05-15T13:00:12Z</time></trkpt>
<trkpt lat="47.639362" lon="10.435355"><ele>1002.24</ele><time>2024-05-15T13:00:14Z</time></trkpt>
<trkpt lat="47.639339" lon="10.435478"><ele>1001.69</ele><time>2024-05-15T13:00:15Z</time></trkpt>
<trkpt lat="47.639332" lon="10.435654"><ele>1001.03</ele><time>2024-05-15T13:00:19Z</time></trkpt>
<trkpt lat="47.639299" lon="10.435766"><ele>1000.15</ele><time>2024-05-15T13:00:22Z</time></trkpt>
<trkpt lat="47.639235" lon="10.435868"><ele>998.98</ele><time>2024-05-15T13:00:26Z</time></trkpt>
<trkpt lat="47.639079" lon="10.435933"><ele>996.11</ele><time>2024-05-15T13:00:29Z</time></trkpt>
<trkpt lat="47.638836" lon="10.436121"><ele>990.85</ele><time>2024-05-15T13:00:32Z</time></trkpt>
<trkpt lat="47.638605" lon="10.436451"><ele>984.9</ele><time>2024-05-15T13:00:36Z</time></trkpt>
<trkpt lat="47.638443" lon="10.436768"><ele>982.11</ele><time>2024-05-15T13:00:39Z</time></trkpt>
<trkpt lat="47.638133" lon="10.43758"><ele>975.11</ele><time>2024-05-15T13:00:42Z</time></trkpt>
<trkpt lat="47.637961" lon="10.437874"><ele>972.21</ele><time>2024-05-15T13:00:46Z</time></trkpt>
<trkpt lat="47.637886" lon="10.438054"><ele>971.55</ele><time>2024-05-15T13:00:49Z</time></trkpt>
<trkpt lat="47.637842" lon="10.438257"><ele>970.93</ele><time>2024-05-15T13:00:53Z</time></trkpt>
<trkpt lat="47.637779" lon="10.438898"><ele>969.02</ele><time>2024-05-15T13:00:56Z</time></trkpt>
<trkpt lat="47.637662" lon="10.439843"><ele>962.95</ele><time>2024-05-15T13:00:59Z</time></trkpt>
<trkpt lat="47.63763" lon="10.439983"><ele>960.55</ele><time>2024-05-15T13:01:03Z</time></trkpt>
<trkpt lat="47.63738" lon="10.440516"><ele>952.55</ele><time>2024-05-15T13:01:06Z</time></trkpt>
<trkpt lat="47.637195" lon="10.441149"><ele>948.24</ele><time>2024-05-15T13:01:10Z</time></trkpt>
<trkpt lat="47.637073" lon="10.441209"><ele>945.79</ele><time>2024-05-15T13:01:13Z</time></trkpt>
<trkpt lat="47.63637" lon="10.441367"><ele>936.08</ele><time>2024-05-15T13:01:16Z</time></trkpt>
<trkpt lat="47.636319" lon="10.441398"><ele>935.71</ele><time>2024-05-15T13:01:20Z</time></trkpt>
<trkpt lat="47.636268" lon="10.441459"><ele>935.2</ele><time>2024-05-15T13:01:23Z</time></trkpt>
<trkpt lat="47.636055" lon="10.441901"><ele>932.39</ele><time>2024-05-15T13:01:26Z</time></trkpt>
<trkpt lat="47.635943" lon="10.442008"><ele>932.33</ele><time>2024-05-15T13:01:30Z</time></trkpt>
<trkpt lat="47.635753" lon="10.442139"><ele>931.97</ele><time>2024-05-15T13:01:33Z</time></trkpt>
<trkpt lat="47.635657" lon="10.442247"><ele>931.52</ele><time>2024-05-15T13:01:37Z</time></trkpt>
<trkpt lat="47.635226" lon="10.442861"><ele>929.7</ele><time>2024-05-15T13:01:40Z</time></trkpt>
<trkpt lat="47.635122" lon="10.442983"><ele>929.26</ele><time>2024-05-15T13:01:43Z</time></trkpt>
<trkpt lat="47.634954" lon="10.443116"><ele>928.82</ele><time>2024-05-15T13:01:47Z</time></trkpt>
<trkpt lat="47.634437" lon="10.443413"><ele>931.36</ele><time>2024-05-15T13:01:50Z</time></trkpt>
<trkpt lat="47.634321" lon="10.443448"><ele>932.66</ele><time>2024-05-15T13:01:54Z</time></trkpt>
<trkpt lat="47.633994" lon="10.443484"><ele>936.44</ele><time>2024-05-15T13:01:57Z</time></trkpt>
<trkpt lat="47.63391" lon="10.44354"><ele>937.56</ele><time>2024-05-15T13:02:00Z</time></trkpt>
<trkpt lat="47.633685" lon="10.443776"><ele>937.86</ele><time>2024-05-15T13:02:04Z</time></trkpt>
<trkpt lat="47.633597" lon="10.443895"><ele>938.02</ele><time>2024-05-15T13:02:07Z</time></trkpt>
<trkpt lat="47.633173" lon="10.444606"><ele>939.33</ele><time>2024-05-15T13:02:10Z</time></trkpt>
<trkpt lat="47.633002" lon="10.444907"><ele>936.61</ele><time>2024-05-15T13:02:14Z</time></trkpt>
<trkpt lat="47.632804" lon="10.445161"><ele>935.42</ele><time>2024-05-15T13:02:17Z</time></trkpt>
<trkpt lat="47.632642" lon="10.445316"><ele>935.07</ele><time>2024-05-15T13:02:21Z</time></trkpt>
<trkpt lat="47.63234" lon="10.445541"><ele>935.4</ele><time>2024-05-15T13:02:24Z</time></trkpt>
<trkpt lat="47.632163" lon="10.44564"><ele>934.87</ele><time>2024-05-15T13:02:27Z</time></trkpt>
<trkpt lat="47.632273" lon="10.44633"><ele>934.21</ele><time>2024-05-15T13:02:35Z</time></trkpt>
<trkpt lat="47.632368" lon="10.446597"><ele>934.0</ele><time>2024-05-15T13:02:43Z</time></trkpt>
<trkpt lat="47.632529" lon="10.44671"><ele>933.79</ele><time>2024-05-15T13:02:48Z</time></trkpt>
<trkpt lat="47.632708" lon="10.446901"><ele>932.5</ele><time>2024-05-15T13:02:54Z</time></trkpt>
<trkpt lat="47.633158" lon="10.447566"><ele>925.42</ele><time>2024-05-15T13:02:59Z</time></trkpt>
<trkpt lat="47.633235" lon="10.447712"><ele>924.98</ele><time>2024-05-15T13:03:04Z</time></trkpt>
<trkpt lat="47.633599" lon="10.448664"><ele>922.09</ele><time>2024-05-15T13:03:10Z</time></trkpt>
<trkpt lat="47.63366" lon="10.448774"><ele>921.75</ele><time>2024-05-15T13:03:15Z</time></trkpt>
<trkpt lat="47.633837" lon="10.449034"><ele>921.28</ele><time>2024-05-15T13:03:21Z</time></trkpt>
<trkpt lat="47.634571" lon="10.450232"><ele>920.38</ele><time>2024-05-15T13:03:26Z</time></trkpt>
<trkpt lat="47.634472" lon="10.450323"><ele>920.89</ele><time>2024-05-15T13:03:29Z</time></trkpt>
<trkpt lat="47.634374" lon="10.45045"><ele>921.25</ele><time>2024-05-15T13:03:32Z</time></trkpt>
<trkpt lat="47.634044" lon="10.450989"><ele>921.0</ele><time>2024-05-15T13:03:35Z</time></trkpt>
<trkpt lat="47.633636" lon="10.451611"><ele>916.29</ele><time>2024-05-15T13:03:38Z</time></trkpt>
<trkpt lat="47.633519" lon="10.45171"><ele>916.0</ele><time>2024-05-15T13:03:40Z</time></trkpt>
<trkpt lat="47.633393" lon="10.451723"><ele>916.0</ele><time>2024-05-15T13:03:43Z</time></trkpt>
<trkpt lat="47.633279" lon="10.451675"><ele>916.0</ele><time>2024-05-15T13:03:46Z</time></trkpt>
<trkpt lat="47.633043" lon="10.451512"><ele>915.93</ele><time>2024-05-15T13:03:49Z</time></trkpt>
<trkpt lat="47.632796" lon="10.451281"><ele>915.09</ele><time>2024-05-15T13:03:52Z</time></trkpt>
<trkpt lat="47.6326" lon="10.451612"><ele>911.64</ele><time>2024-05-15T13:03:59Z</time></trkpt>
<trkpt lat="47.632525" lon="10.451785"><ele>909.93</ele><time>2024-05-15T13:04:05Z</time></trkpt>
<trkpt lat="47.632493" lon="10.452018"><ele>908.68</ele><time>2024-05-15T13:04:12Z</time></trkpt>
<trkpt lat="47.632546" lon="10.453488"><ele>902.68</ele><time>2024-05-15T13:04:18Z</time></trkpt>
<trkpt lat="47.632645" lon="10.455354"><ele>900.02</ele><time>2024-05-15T13:04:25Z</time></trkpt>
<trkpt lat="47.632645" lon="10.455354"><ele>900.02</ele><time>2024-05-15T13:04:25Z</time></trkpt>
<trkpt lat="47.632659" lon="10.455616"><ele>897.35</ele><time>2024-05-15T13:04:27Z</time></trkpt>
<trkpt lat="47.632703" lon="10.456006"><ele>895.65</ele><time>2024-05-15T13:04:30Z</time></trkpt>
<trkpt lat="47.632784" lon="10.456318"><ele>894.33</ele><time>2024-05-15T13:04:33Z</time></trkpt>
<trkpt lat="47.633062" lon="10.457066"><ele>896.05</ele><time>2024-05-15T13:04:35Z</time></trkpt>
<trkpt lat="47.63311" lon="10.45724"><ele>896.32</ele><time>2024-05-15T13:04:38Z</time></trkpt>
<trkpt lat="47.633126" lon="10.457462"><ele>895.42</ele><time>2024-05-15T13:04:40Z</time></trkpt>
<trkpt lat="47.633109" lon="10.457631"><ele>894.72</ele><time>2024-05-15T13:04:43Z</time></trkpt>
<trkpt lat="47.633057" lon="10.457857"><ele>893.72</ele><time>2024-05-15T13:04:46Z</time></trkpt>
<trkpt lat="47.632901" lon="10.458111"><ele>892.24</ele><time>2024-05-15T13:04:48Z</time></trkpt>
<trkpt lat="47.632857" lon="10.458065"><ele>892.25</ele><time>2024-05-15T13:04:53Z</time></trkpt>
<trkpt lat="47.632805" lon="10.458044"><ele>892.1</ele><time>2024-05-15T13:04:58Z</time></trkpt>
<trkpt lat="47.632751" lon="10.45805"><ele>891.81</ele><time>2024-05-15T13:05:03Z</time></trkpt>
<trkpt lat="47.632702" lon="10.458084"><ele>891.35</ele><time>2024-05-15T13:05:08Z</time></trkpt>
<trkpt lat="47.632664" lon="10.45814"><ele>890.87</ele><time>2024-05-15T13:05:13Z</time></trkpt>
<trkpt lat="47.632639" lon="10.45822"><ele>890.41</ele><time>2024-05-15T13:05:18Z</time></trkpt>
<trkpt lat="47.632637" lon="10.458308"><ele>890.08</ele><time>2024-05-15T13:05:22Z</time></trkpt>
<trkpt lat="47.632657" lon="10.458391"><ele>890.01</ele><time>2024-05-15T13:05:27Z</time></trkpt>
<trkpt lat="47.632696" lon="10.458456"><ele>890.1</ele><time>2024-05-15T13:05:32Z</time></trkpt>
<trkpt lat="47.632574" lon="10.458671"><ele>889.21</ele><time>2024-05-15T13:05:37Z</time></trkpt>
<trkpt lat="47.632473" lon="10.45879"><ele>888.94</ele><time>2024-05-15T13:05:42Z</time></trkpt>
<trkpt lat="47.63232" lon="10.458877"><ele>888.38</ele><time>2024-05-15T13:05:47Z</time></trkpt>
<trkpt lat="47.632183" lon="10.458888"><ele>887.72</ele><time>2024-05-15T13:05:52Z</time></trkpt>
<trkpt lat="47.631997" lon="10.45883"><ele>886.77</ele><time>2024-05-15T13:05:57Z</time></trkpt>
<trkpt lat="47.631339" lon="10.458486"><ele>885.91</ele><time>2024-05-15T13:06:02Z</time></trkpt>
<trkpt lat="47.631178" lon="10.458446"><ele>886.93</ele><time>2024-05-15T13:06:07Z</time></trkpt>
<trkpt lat="47.630985" lon="10.45844"><ele>887.84</ele><time>2024-05-15T13:06:12Z</time></trkpt>
<trkpt lat="47.630659" lon="10.458538"><ele>888.74</ele><time>2024-05-15T13:06:16Z</time></trkpt>
<trkpt lat="47.630432" lon="10.458668"><ele>889.76</ele><time>2024-05-15T13:06:21Z</time></trkpt>
<trkpt lat="47.629855" lon="10.459124"><ele>892.29</ele><time>2024-05-15T13:06:26Z</time></trkpt>
<trkpt lat="47.629258" lon="10.459661"><ele>893.11</ele><time>2024-05-15T13:06:31Z</time></trkpt>
<trkpt lat="47.628873" lon="10.459979"><ele>891.74</ele><time>2024-05-15T13:06:36Z</time></trkpt>
<trkpt lat="47.62869" lon="10.460069"><ele>890.82</ele><time>2024-05-15T13:06:41Z</time></trkpt>
<trkpt lat="47.628579" lon="10.460161"><ele>890.51</ele><time>2024-05-15T13:06:46Z</time></trkpt>
<trkpt lat="47.628474" lon="10.460302"><ele>890.64</ele><time>2024-05-15T13:06:51Z</time></trkpt>
<trkpt lat="47.628127" lon="10.460865"><ele>891.63</ele><time>2024-05-15T13:06:56Z</time></trkpt>
<trkpt lat="47.627832" lon="10.461207"><ele>890.46</ele><time>2024-05-15T13:07:01Z</time></trkpt>
<trkpt lat="47.627705" lon="10.461399"><ele>889.76</ele><time>2024-05-15T13:07:05Z</time></trkpt>
<trkpt lat="47.627421" lon="10.461953"><ele>890.03</ele><time>2024-05-15T13:07:10Z</time></trkpt>
<trkpt lat="47.627378" lon="10.462094"><ele>890.54</ele><time>2024-05-15T13:07:15Z</time></trkpt>
<trkpt lat="47.627287" lon="10.462666"><ele>891.92</ele><time>2024-05-15T13:07:20Z</time></trkpt>
<trkpt lat="47.627246" lon="10.46326"><ele>891.02</ele><time>2024-05-15T13:07:25Z</time></trkpt>
<trkpt lat="47.627243" lon="10.46347"><ele>890.51</ele><time>2024-05-15T13:07:30Z</time></trkpt>
<trkpt lat="47.627259" lon="10.463698"><ele>890.27</ele><time>2024-05-15T13:07:35Z</time></trkpt>
<trkpt lat="47.627327" lon="10.464104"><ele>890.33</ele><time>2024-05-15T13:07:40Z</time></trkpt>
<trkpt lat="47.627379" lon="10.46432"><ele>889.63</ele><time>2024-05-15T13:07:45Z</time></trkpt>
<trkpt lat="47.627506" lon="10.464695"><ele>888.96</ele><time>2024-05-15T13:07:50Z</time></trkpt>
<trkpt lat="47.627642" lon="10.465023"><ele>886.45</ele><time>2024-05-15T13:07:54Z</time></trkpt>
<trkpt lat="47.62776" lon="10.465218"><ele>886.01</ele><time>2024-05-15T13:07:59Z</time></trkpt>
<trkpt lat="47.627917" lon="10.465423"><ele>886.0</ele><time>2024-05-15T13:08:04Z</time></trkpt>
<trkpt lat="47.628414" lon="10.465879"><ele>886.96</ele><time>2024-05-15T13:08:09Z</time></trkpt>
<trkpt lat="47.628404" lon="10.466669"><ele>881.73</ele><time>2024-05-15T13:08:13Z</time></trkpt>
<trkpt lat="47.628376" lon="10.466987"><ele>879.56</ele><time>2024-05-15T13:08:16Z</time></trkpt>
<trkpt lat="47.628204" lon="10.467811"><ele>879.52</ele><time>2024-05-15T13:08:19Z</time></trkpt>
<trkpt lat="47.628118" lon="10.468442"><ele>882.08</ele><time>2024-05-15T13:08:23Z</time></trkpt>
<trkpt lat="47.627982" lon="10.469249"><ele>882.27</ele><time>2024-05-15T13:08:26Z</time></trkpt>
<trkpt lat="47.627977" lon="10.469519"><ele>882.28</ele><time>2024-05-15T13:08:30Z</time></trkpt>
<trkpt lat="47.628014" lon="10.469754"><ele>882.15</ele><time>2024-05-15T13:08:33Z</time></trkpt>
<trkpt lat="47.628092" lon="10.469982"><ele>881.74</ele><time>2024-05-15T13:08:37Z</time></trkpt>
<trkpt lat="47.628325" lon="10.470488"><ele>880.03</ele><time>2024-05-15T13:08:40Z</time></trkpt>
<trkpt lat="47.629032" lon="10.472162"><ele>880.57</ele><time>2024-05-15T13:08:44Z</time></trkpt>
<trkpt lat="47.629081" lon="10.472215"><ele>881.45</ele><time>2024-05-15T13:08:47Z</time></trkpt>
<trkpt lat="47.629172" lon="10.472252"><ele>882.77</ele><time>2024-05-15T13:08:50Z</time></trkpt>
<trkpt lat="47.629603" lon="10.472338"><ele>879.53</ele><time>2024-05-15T13:08:54Z</time></trkpt>
<trkpt lat="47.629988" lon="10.472366"><ele>876.58</ele><time>2024-05-15T13:08:57Z</time></trkpt>
<trkpt lat="47.630285" lon="10.472444"><ele>877.03</ele><time>2024-05-15T13:09:01Z</time></trkpt>
<trkpt lat="47.630852" lon="10.4727"><ele>881.2</ele><time>2024-05-15T13:09:04Z</time></trkpt>
<trkpt lat="47.631408" lon="10.472907"><ele>884.0</ele><time>2024-05-15T13:09:08Z</time></trkpt>
<trkpt lat="47.631794" lon="10.473012"><ele>884.46</ele><time>2024-05-15T13:09:11Z</time></trkpt>
<trkpt lat="47.63207" lon="10.473023"><ele>885.45</ele><time>2024-05-15T13:09:15Z</time></trkpt>
<trkpt lat="47.632376" lon="10.473002"><ele>886.66</ele><time>2024-05-15T13:09:18Z</time></trkpt>
<trkpt lat="47.632564" lon="10.472948"><ele>887.61</ele><time>2024-05-15T13:09:22Z</time></trkpt>
<trkpt lat="47.632753" lon="10.472772"><ele>888.95</ele><time>2024-05-15T13:09:25Z</time></trkpt>
<trkpt lat="47.632921" lon="10.472436"><ele>891.0</ele><time>2024-05-15T13:09:28Z</time></trkpt>
<trkpt lat="47.632919" lon="10.47206"><ele>891.3</ele><time>2024-05-15T13:09:32Z</time></trkpt>
<trkpt lat="47.632741" lon="10.471216"><ele>895.44</ele><time>2024-05-15T13:09:35Z</time></trkpt>
<trkpt lat="47.6327" lon="10.47082"><ele>896.76</ele><time>2024-05-15T13:09:39Z</time></trkpt>
<trkpt lat="47.63277" lon="10.470544"><ele>897.98</ele><time>2024-05-15T13:09:42Z</time></trkpt>
<trkpt lat="47.632904" lon="10.470315"><ele>899.84</ele><time>2024-05-15T13:09:46Z</time></trkpt>
<trkpt lat="47.633076" lon="10.470221"><ele>900.85</ele><time>2024-05-15T13:09:49Z</time></trkpt>
<trkpt lat="47.633245" lon="10.470212"><ele>901.28</ele><time>2024-05-15T13:09:53Z</time></trkpt>
<trkpt lat="47.633391" lon="10.470306"><ele>902.31</ele><time>2024-05-15T13:09:56Z</time></trkpt>
<trkpt lat="47.633515" lon="10.470477"><ele>903.37</ele><time>2024-05-15T13:09:59Z</time></trkpt>
<trkpt lat="47.633606" lon="10.470723"><ele>904.56</ele><time>2024-05-15T13:10:03Z</time></trkpt>
<trkpt lat="47.633762" lon="10.471286"><ele>905.83</ele><time>2024-05-15T13:10:06Z</time></trkpt>
<trkpt lat="47.633822" lon="10.471406"><ele>906.21</ele><time>2024-05-15T13:10:10Z</time></trkpt>
<trkpt lat="47.634099" lon="10.471724"><ele>906.44</ele><time>2024-05-15T13:10:13Z</time></trkpt>
<trkpt lat="47.633912" lon="10.472114"><ele>904.74</ele><time>2024-05-15T13:10:17Z</time></trkpt>
<trkpt lat="47.633767" lon="10.47256"><ele>900.35</ele><time>2024-05-15T13:10:21Z</time></trkpt>
<trkpt lat="47.633674" lon="10.473151"><ele>898.3</ele><time>2024-05-15T13:10:25Z</time></trkpt>
<trkpt lat="47.633479" lon="10.476199"><ele>899.97</ele><time>2024-05-15T13:10:29Z</time></trkpt>
<trkpt lat="47.633414" lon="10.476881"><ele>897.4</ele><time>2024-05-15T13:10:33Z</time></trkpt>
<trkpt lat="47.633324" lon="10.477554"><ele>895.67</ele><time>2024-05-15T13:10:36Z</time></trkpt>
<trkpt lat="47.63315" lon="10.478464"><ele>891.19</ele><time>2024-05-15T13:10:40Z</time></trkpt>
<trkpt lat="47.63315" lon="10.478464"><ele>891.19</ele><time>2024-05-15T13:10:40Z</time></trkpt>
<trkpt lat="47.633009" lon="10.479026"><ele>888.5</ele><time>2024-05-15T13:10:44Z</time></trkpt>
<trkpt lat="47.632788" lon="10.479753"><ele>885.0</ele><time>2024-05-15T13:10:49Z</time></trkpt>
<trkpt lat="47.632695" lon="10.479997"><ele>885.22</ele><time>2024-05-15T13:10:53Z</time></trkpt>
<trkpt lat="47.632216" lon="10.481093"><ele>886.26</ele><time>2024-05-15T13:10:57Z</time></trkpt>
<trkpt lat="47.632009" lon="10.481474"><ele>886.63</ele><time>2024-05-15T13:11:01Z</time></trkpt>
<trkpt lat="47.631765" lon="10.481842"><ele>887.01</ele><time>2024-05-15T13:11:05Z</time></trkpt>
<trkpt lat="47.631187" lon="10.482541"><ele>887.79</ele><time>2024-05-15T13:11:09Z</time></trkpt>
<trkpt lat="47.63087" lon="10.482882"><ele>888.19</ele><time>2024-05-15T13:11:13Z</time></trkpt>
<trkpt lat="47.630505" lon="10.483231"><ele>891.45</ele><time>2024-05-15T13:11:17Z</time></trkpt>
<trkpt lat="47.629164" lon="10.484418"><ele>893.01</ele><time>2024-05-15T13:11:21Z</time></trkpt>
<trkpt lat="47.627833" lon="10.485676"><ele>893.71</ele><time>2024-05-15T13:11:25Z</time></trkpt>
<trkpt lat="47.627214" lon="10.486318"><ele>896.23</ele><time>2024-05-15T13:11:29Z</time></trkpt>
<trkpt lat="47.625002" lon="10.48899"><ele>900.64</ele><time>2024-05-15T13:11:34Z</time></trkpt>
<trkpt lat="47.624746" lon="10.489362"><ele>900.97</ele><time>2024-05-15T13:11:38Z</time></trkpt>
<trkpt lat="47.624593" lon="10.48964"><ele>902.64</ele><time>2024-05-15T13:11:42Z</time></trkpt>
<trkpt lat="47.62443" lon="10.489957"><ele>903.94</ele><time>2024-05-15T13:11:46Z</time></trkpt>
<trkpt lat="47.624211" lon="10.49048"><ele>902.16</ele><time>2024-05-15T13:11:50Z</time></trkpt>
<trkpt lat="47.623529" lon="10.49184"><ele>899.59</ele><time>2024-05-15T13:11:54Z</time></trkpt>
<trkpt lat="47.623529" lon="10.49184"><ele>899.59</ele><time>2024-05-15T13:11:54Z</time></trkpt>
<trkpt lat="47.623351" lon="10.492325"><ele>901.35</ele><time>2024-05-15T13:11:57Z</time></trkpt>
<trkpt lat="47.623245" lon="10.492719"><ele>902.32</ele><time>2024-05-15T13:12:00Z</time></trkpt>
<trkpt lat="47.623171" lon="10.493102"><ele>902.59</ele><time>2024-05-15T13:12:04Z</time></trkpt>
<trkpt lat="47.623124" lon="10.493473"><ele>902.25</ele><time>2024-05-15T13:12:07Z</time></trkpt>
<trkpt lat="47.623114" lon="10.493698"><ele>901.16</ele><time>2024-05-15T13:12:10Z</time></trkpt>
<trkpt lat="47.623113" lon="10.494063"><ele>898.04</ele><time>2024-05-15T13:12:13Z</time></trkpt>
<trkpt lat="47.623139" lon="10.494677"><ele>895.16</ele><time>2024-05-15T13:12:16Z</time></trkpt>
<trkpt lat="47.62322" lon="10.495191"><ele>893.75</ele><time>2024-05-15T13:12:20Z</time></trkpt>
<trkpt lat="47.623397" lon="10.495849"><ele>891.3</ele><time>2024-05-15T13:12:23Z</time></trkpt>
<trkpt lat="47.62373" lon="10.496941"><ele>884.59</ele><time>2024-05-15T13:12:26Z</time></trkpt>
<trkpt lat="47.624732" lon="10.498903"><ele>883.95</ele><time>2024-05-15T13:12:29Z</time></trkpt>
<trkpt lat="47.624786" lon="10.499047"><ele>883.3</ele><time>2024-05-15T13:12:32Z</time></trkpt>
<trkpt lat="47.624803" lon="10.499155"><ele>882.76</ele><time>2024-05-15T13:12:36Z</time></trkpt>
<trkpt lat="47.624791" lon="10.499307"><ele>881.49</ele><time>2024-05-15T13:12:39Z</time></trkpt>
<trkpt lat="47.624761" lon="10.499396"><ele>880.98</ele><time>2024-05-15T13:12:42Z</time></trkpt>
<trkpt lat="47.624664" lon="10.499519"><ele>879.89</ele><time>2024-05-15T13:12:45Z</time></trkpt>
<trkpt lat="47.624514" lon="10.499553"><ele>878.91</ele><time>2024-05-15T13:12:48Z</time></trkpt>
<trkpt lat="47.624412" lon="10.499495"><ele>878.26</ele><time>2024-05-15T13:12:52Z</time></trkpt>
<trkpt lat="47.62434" lon="10.499401"><ele>877.27</ele><time>2024-05-15T13:12:55Z</time></trkpt>
<trkpt lat="47.624303" lon="10.499265"><ele>877.1</ele><time>2024-05-15T13:12:58Z</time></trkpt>
<trkpt lat="47.624225" lon="10.498757"><ele>878.52</ele><time>2024-05-15T13:13:01Z</time></trkpt>
<trkpt lat="47.62412" lon="10.498492"><ele>878.19</ele><time>2024-05-15T13:13:04Z</time></trkpt>
<trkpt lat="47.623754" lon="10.498083"><ele>875.81</ele><time>2024-05-15T13:13:08Z</time></trkpt>
<trkpt lat="47.623682" lon="10.497979"><ele>875.64</ele><time>2024-05-15T13:13:11Z</time></trkpt>
<trkpt lat="47.623437" lon="10.497529"><ele>875.91</ele><time>2024-05-15T13:13:14Z</time></trkpt>
<trkpt lat="47.623372" lon="10.497452"><ele>875.62</ele><time>2024-05-15T13:13:17Z</time></trkpt>
<trkpt lat="47.623297" lon="10.497421"><ele>874.93</ele><time>2024-05-15T13:13:21Z</time></trkpt>
<trkpt lat="47.623221" lon="10.497427"><ele>874.15</ele><time>2024-05-15T13:13:24Z</time></trkpt>
<trkpt lat="47.623141" lon="10.497477"><ele>873.06</ele><time>2024-05-15T13:13:27Z</time></trkpt>
<trkpt lat="47.622879" lon="10.497737"><ele>871.15</ele><time>2024-05-15T13:13:30Z</time></trkpt>
<trkpt lat="47.622468" lon="10.498206"><ele>871.54</ele><time>2024-05-15T13:13:33Z</time></trkpt>
<trkpt lat="47.622395" lon="10.498343"><ele>872.0</ele><time>2024-05-15T13:13:37Z</time></trkpt>
<trkpt lat="47.622247" lon="10.498812"><ele>872.66</ele><time>2024-05-15T13:13:40Z</time></trkpt>
<trkpt lat="47.622123" lon="10.499179"><ele>873.71</ele><time>2024-05-15T13:13:43Z</time></trkpt>
<trkpt lat="47.622048" lon="10.499352"><ele>874.26</ele><time>2024-05-15T13:13:46Z</time></trkpt>
<trkpt lat="47.622203" lon="10.499499"><ele>872.93</ele><time>2024-05-15T13:13:51Z</time></trkpt>
<trkpt lat="47.622886" lon="10.499931"><ele>867.0</ele><time>2024-05-15T13:13:55Z</time></trkpt>
<trkpt lat="47.623399" lon="10.500347"><ele>865.34</ele><time>2024-05-15T13:14:00Z</time></trkpt>
<trkpt lat="47.623527" lon="10.500482"><ele>864.38</ele><time>2024-05-15T13:14:04Z</time></trkpt>
<trkpt lat="47.623853" lon="10.501011"><ele>861.49</ele><time>2024-05-15T13:14:09Z</time></trkpt>
<trkpt lat="47.624049" lon="10.501376"><ele>858.89</ele><time>2024-05-15T13:14:13Z</time></trkpt>
<trkpt lat="47.624174" lon="10.501543"><ele>858.55</ele><time>2024-05-15T13:14:17Z</time></trkpt>
<trkpt lat="47.624803" lon="10.502157"><ele>858.73</ele><time>2024-05-15T13:14:22Z</time></trkpt>
<trkpt lat="47.624961" lon="10.502398"><ele>858.68</ele><time>2024-05-15T13:14:26Z</time></trkpt>
<trkpt lat="47.625019" lon="10.502543"><ele>859.02</ele><time>2024-05-15T13:14:31Z</time></trkpt>
<trkpt lat="47.625046" lon="10.502715"><ele>859.44</ele><time>2024-05-15T13:14:35Z</time></trkpt>
<trkpt lat="47.625032" lon="10.503279"><ele>862.87</ele><time>2024-05-15T13:14:40Z</time></trkpt>
<trkpt lat="47.625065" lon="10.503425"><ele>863.89</ele><time>2024-05-15T13:14:44Z</time></trkpt>
<trkpt lat="47.625125" lon="10.503514"><ele>864.75</ele><time>2024-05-15T13:14:49Z</time></trkpt>
<trkpt lat="47.62625" lon="10.504524"><ele>880.3</ele><time>2024-05-15T13:14:53Z</time></trkpt>
<trkpt lat="47.626398" lon="10.504718"><ele>881.76</ele><time>2024-05-15T13:14:58Z</time></trkpt>
<trkpt lat="47.6265" lon="10.504922"><ele>886.14</ele><time>2024-05-15T13:15:02Z</time></trkpt>
<trkpt lat="47.626548" lon="10.505127"><ele>890.2</ele><time>2024-05-15T13:15:07Z</time></trkpt>
<trkpt lat="47.626563" lon="10.505334"><ele>893.39</ele><time>2024-05-15T13:15:11Z</time></trkpt>
<trkpt lat="47.626542" lon="10.505552"><ele>895.76</ele><time>2024-05-15T13:15:16Z</time></trkpt>
<trkpt lat="47.626398" lon="10.506227"><ele>897.95</ele><time>2024-05-15T13:15:20Z</time></trkpt>
<trkpt lat="47.626326" lon="10.50673"><ele>898.54</ele><time>2024-05-15T13:15:24Z</time></trkpt>
<trkpt lat="47.626337" lon="10.507277"><ele>897.81</ele><time>2024-05-15T13:15:29Z</time></trkpt>
<trkpt lat="47.626387" lon="10.507581"><ele>897.7</ele><time>2024-05-15T13:15:33Z</time></trkpt>
<trkpt lat="47.626489" lon="10.507923"><ele>897.72</ele><time>2024-05-15T13:15:38Z</time></trkpt>
<trkpt lat="47.626588" lon="10.508135"><ele>898.6</ele><time>2024-05-15T13:15:42Z</time></trkpt>
<trkpt lat="47.627848" lon="10.509995"><ele>904.25</ele><time>2024-05-15T13:15:47Z</time></trkpt>
<trkpt lat="47.627951" lon="10.510179"><ele>905.27</ele><time>2024-05-15T13:15:51Z</time></trkpt>
<trkpt lat="47.628138" lon="10.510604"><ele>907.12</ele><time>2024-05-15T13:15:56Z</time></trkpt>
<trkpt lat="47.628333" lon="10.511243"><ele>905.06</ele><time>2024-05-15T13:16:00Z</time></trkpt>
<trkpt lat="47.628333" lon="10.511243"><ele>905.06</ele><time>2024-05-15T13:16:00Z</time></trkpt>
<trkpt lat="47.628254" lon="10.511318"><ele>905.3</ele><time>2024-05-15T13:16:03Z</time></trkpt>
<trkpt lat="47.62823" lon="10.511386"><ele>905.13</ele><time>2024-05-15T13:16:05Z</time></trkpt>
<trkpt lat="47.628225" lon="10.511463"><ele>905.06</ele><time>2024-05-15T13:16:08Z</time></trkpt>
<trkpt lat="47.62824" lon="10.511537"><ele>904.83</ele><time>2024-05-15T13:16:10Z</time></trkpt>
<trkpt lat="47.628136" lon="10.511644"><ele>905.48</ele><time>2024-05-15T13:16:13Z</time></trkpt>
<trkpt lat="47.627531" lon="10.512679"><ele>911.0</ele><time>2024-05-15T13:16:15Z</time></trkpt>
<trkpt lat="47.627347" lon="10.513066"><ele>909.98</ele><time>2024-05-15T13:16:18Z</time></trkpt>
<trkpt lat="47.627209" lon="10.513407"><ele>910.14</ele><time>2024-05-15T13:16:20Z</time></trkpt>
<trkpt lat="47.627071" lon="10.513923"><ele>911.48</ele><time>2024-05-15T13:16:23Z</time></trkpt>
<trkpt lat="47.627059" lon="10.514158"><ele>911.02</ele><time>2024-05-15T13:16:25Z</time></trkpt>
<trkpt lat="47.627108" lon="10.514706"><ele>908.08</ele><time>2024-05-15T13:16:28Z</time></trkpt>
<trkpt lat="47.627114" lon="10.514927"><ele>907.55</ele><time>2024-05-15T13:16:30Z</time></trkpt>
<trkpt lat="47.627037" lon="10.515368"><ele>907.67</ele><time>2024-05-15T13:16:33Z</time></trkpt>
<trkpt lat="47.626983" lon="10.515797"><ele>906.87</ele><time>2024-05-15T13:16:34Z</time></trkpt>
<trkpt lat="47.626976" lon="10.515973"><ele>907.27</ele><time>2024-05-15T13:16:36Z</time></trkpt>
<trkpt lat="47.627004" lon="10.516262"><ele>907.99</ele><time>2024-05-15T13:16:37Z</time></trkpt>
<trkpt lat="47.627124" lon="10.516661"><ele>908.67</ele><time>2024-05-15T13:16:38Z</time></trkpt>
<trkpt lat="47.62717" lon="10.516906"><ele>908.54</ele><time>2024-05-15T13:16:40Z</time></trkpt>
<trkpt lat="47.627175" lon="10.517084"><ele>908.92</ele><time>2024-05-15T13:16:41Z</time></trkpt>
<trkpt lat="47.627163" lon="10.517204"><ele>909.38</ele><time>2024-05-15T13:16:43Z</time></trkpt>
<trkpt lat="47.62711" lon="10.517364"><ele>910.02</ele><time>2024-05-15T13:16:44Z</time></trkpt>
<trkpt lat="47.62685" lon="10.517907"><ele>912.68</ele><time>2024-05-15T13:16:46Z</time></trkpt>
<trkpt lat="47.626152" lon="10.518778"><ele>915.02</ele><time>2024-05-15T13:16:47Z</time></trkpt>
<trkpt lat="47.626093" lon="10.518939"><ele>916.0</ele><time>2024-05-15T13:16:48Z</time></trkpt>
<trkpt lat="47.625977" lon="10.519793"><ele>918.0</ele><time>2024-05-15T13:16:50Z</time></trkpt>
<trkpt lat="47.625909" lon="10.520044"><ele>917.8</ele><time>2024-05-15T13:16:51Z</time></trkpt>
<trkpt lat="47.625846" lon="10.520182"><ele>917.31</ele><time>2024-05-15T13:16:53Z</time></trkpt>
<trkpt lat="47.625744" lon="10.520336"><ele>916.86</ele><time>2024-05-15T13:16:54Z</time></trkpt>
<trkpt lat="47.625618" lon="10.520421"><ele>916.88</ele><time>2024-05-15T13:16:56Z</time></trkpt>
<trkpt lat="47.625123" lon="10.520494"><ele>916.22</ele><time>2024-05-15T13:16:57Z</time></trkpt>
<trkpt lat="47.624495" lon="10.520516"><ele>914.97</ele><time>2024-05-15T13:16:58Z</time></trkpt>
<trkpt lat="47.624342" lon="10.520553"><ele>915.73</ele><time>2024-05-15T13:17:00Z</time></trkpt>
<trkpt lat="47.624333" lon="10.521503"><ele>920.09</ele><time>2024-05-15T13:17:03Z</time></trkpt>
<trkpt lat="47.624364" lon="10.521628"><ele>920.94</ele><time>2024-05-15T13:17:06Z</time></trkpt>
<trkpt lat="47.624413" lon="10.521708"><ele>921.68</ele><time>2024-05-15T13:17:08Z</time></trkpt>
<trkpt lat="47.624478" lon="10.521778"><ele>922.05</ele><time>2024-05-15T13:17:11Z</time></trkpt>
<trkpt lat="47.624628" lon="10.521868"><ele>922.48</ele><time>2024-05-15T13:17:14Z</time></trkpt>
<trkpt lat="47.624656" lon="10.521913"><ele>922.67</ele><time>2024-05-15T13:17:17Z</time></trkpt>
<trkpt lat="47.624644" lon="10.52233"><ele>923.0</ele><time>2024-05-15T13:17:20Z</time></trkpt>
<trkpt lat="47.62457" lon="10.523291"><ele>921.08</ele><time>2024-05-15T13:17:22Z</time></trkpt>
<trkpt lat="47.624405" lon="10.52681"><ele>909.28</ele><time>2024-05-15T13:17:25Z</time></trkpt>
<trkpt lat="47.624448" lon="10.527415"><ele>909.39</ele><time>2024-05-15T13:17:28Z</time></trkpt>
<trkpt lat="47.624503" lon="10.527772"><ele>910.98</ele><time>2024-05-15T13:17:31Z</time></trkpt>
<trkpt lat="47.624531" lon="10.528084"><ele>910.97</ele><time>2024-05-15T13:17:34Z</time></trkpt>
<trkpt lat="47.624493" lon="10.52826"><ele>910.87</ele><time>2024-05-15T13:17:36Z</time></trkpt>
<trkpt lat="47.624365" lon="10.528327"><ele>911.0</ele><time>2024-05-15T13:17:39Z</time></trkpt>
<trkpt lat="47.624169" lon="10.528366"><ele>910.88</ele><time>2024-05-15T13:17:42Z</time></trkpt>
<trkpt lat="47.623757" lon="10.528317"><ele>908.97</ele><time>2024-05-15T13:17:45Z</time></trkpt>
<trkpt lat="47.623661" lon="10.528263"><ele>908.79</ele><time>2024-05-15T13:17:47Z</time></trkpt>
<trkpt lat="47.62353" lon="10.528237"><ele>908.17</ele><time>2024-05-15T13:17:50Z</time></trkpt>
<trkpt lat="47.622261" lon="10.528239"><ele>906.86</ele><time>2024-05-15T13:17:53Z</time></trkpt>
<trkpt lat="47.621636" lon="10.528269"><ele>906.77</ele><time>2024-05-15T13:17:56Z</time></trkpt>
<trkpt lat="47.621102" lon="10.528107"><ele>906.18</ele><time>2024-05-15T13:17:59Z</time></trkpt>
<trkpt lat="47.62091" lon="10.528079"><ele>906.02</ele><time>2024-05-15T13:18:01Z</time></trkpt>
<trkpt lat="47.620749" lon="10.528092"><ele>906.0</ele><time>2024-05-15T13:18:04Z</time></trkpt>
<trkpt lat="47.620357" lon="10.528284"><ele>906.84</ele><time>2024-05-15T13:18:07Z</time></trkpt>
<trkpt lat="47.620248" lon="10.528278"><ele>907.07</ele><time>2024-05-15T13:18:10Z</time></trkpt>
<trkpt lat="47.620046" lon="10.528192"><ele>906.25</ele><time>2024-05-15T13:18:13Z</time></trkpt>
<trkpt lat="47.619936" lon="10.528072"><ele>905.77</ele><time>2024-05-15T13:18:15Z</time></trkpt>
<trkpt lat="47.61982" lon="10.527871"><ele>905.59</ele><time>2024-05-15T13:18:18Z</time></trkpt>
<trkpt lat="47.61955" lon="10.52757"><ele>905.46</ele><time>2024-05-15T13:18:22Z</time></trkpt>
<trkpt lat="47.619363" lon="10.527439"><ele>905.85</ele><time>2024-05-15T13:18:27Z</time></trkpt>
<trkpt lat="47.619244" lon="10.527603"><ele>905.9</ele><time>2024-05-15T13:18:29Z</time></trkpt>
<trkpt lat="47.61915" lon="10.527818"><ele>905.83</ele><time>2024-05-15T13:18:30Z</time></trkpt>
<trkpt lat="47.619054" lon="10.528124"><ele>905.29</ele><time>2024-05-15T13:18:32Z</time></trkpt>
<trkpt lat="47.61897" lon="10.529148"><ele>904.63</ele><time>2024-05-15T13:18:37Z</time></trkpt>
<trkpt lat="47.618917" lon="10.529494"><ele>905.26</ele><time>2024-05-15T13:18:42Z</time></trkpt>
<trkpt lat="47.618854" lon="10.529788"><ele>906.02</ele><time>2024-05-15T13:18:47Z</time></trkpt>
<trkpt lat="47.618715" lon="10.53026"><ele>907.54</ele><time>2024-05-15T13:18:51Z</time></trkpt>
<trkpt lat="47.618643" lon="10.53041"><ele>908.41</ele><time>2024-05-15T13:18:56Z</time></trkpt>
<trkpt lat="47.618366" lon="10.530635"><ele>909.0</ele><time>2024-05-15T13:19:01Z</time></trkpt>
<trkpt lat="47.618143" lon="10.531024"><ele>908.78</ele><time>2024-05-15T13:19:05Z</time></trkpt>
<trkpt lat="47.618054" lon="10.531455"><ele>910.0</ele><time>2024-05-15T13:19:10Z</time></trkpt>
<trkpt lat="47.617984" lon="10.532098"><ele>909.15</ele><time>2024-05-15T13:19:15Z</time></trkpt>
<trkpt lat="47.617941" lon="10.53221"><ele>908.5</ele><time>2024-05-15T13:19:20Z</time></trkpt>
<trkpt lat="47.617822" lon="10.5323"><ele>907.49</ele><time>2024-05-15T13:19:24Z</time></trkpt>
<trkpt lat="47.617657" lon="10.532337"><ele>907.11</ele><time>2024-05-15T13:19:29Z</time></trkpt>
<trkpt lat="47.617564" lon="10.532384"><ele>906.53</ele><time>2024-05-15T13:19:34Z</time></trkpt>
<trkpt lat="47.617491" lon="10.532453"><ele>905.67</ele><time>2024-05-15T13:19:38Z</time></trkpt>
<trkpt lat="47.617491" lon="10.532453"><ele>905.67</ele><time>2024-05-15T13:19:38Z</time></trkpt>
<trkpt lat="47.617473" lon="10.532559"><ele>903.98</ele><time>2024-05-15T13:19:43Z</time></trkpt>
<trkpt lat="47.617478" lon="10.532734"><ele>900.92</ele><time>2024-05-15T13:19:48Z</time></trkpt>
<trkpt lat="47.617532" lon="10.532921"><ele>898.57</ele><time>2024-05-15T13:19:52Z</time></trkpt>
<trkpt lat="47.617589" lon="10.53327"><ele>896.62</ele><time>2024-05-15T13:19:57Z</time></trkpt>
<trkpt lat="47.617582" lon="10.534581"><ele>893.03</ele><time>2024-05-15T13:20:02Z</time></trkpt>
<trkpt lat="47.617615" lon="10.535749"><ele>888.98</ele><time>2024-05-15T13:20:06Z</time></trkpt>
<trkpt lat="47.617595" lon="10.536677"><ele>889.78</ele><time>2024-05-15T13:20:11Z</time></trkpt>
<trkpt lat="47.617452" lon="10.538322"><ele>885.51</ele><time>2024-05-15T13:20:15Z</time></trkpt>
<trkpt lat="47.617394" lon="10.538806"><ele>886.18</ele><time>2024-05-15T13:20:20Z</time></trkpt>
<trkpt lat="47.617283" lon="10.539376"><ele>887.01</ele><time>2024-05-15T13:20:25Z</time></trkpt>
<trkpt lat="47.617254" lon="10.539642"><ele>887.32</ele><time>2024-05-15T13:20:29Z</time></trkpt>
<trkpt lat="47.617242" lon="10.540074"><ele>887.84</ele><time>2024-05-15T13:20:34Z</time></trkpt>
<trkpt lat="47.617499" lon="10.540401"><ele>887.0</ele><time>2024-05-15T13:20:39Z</time></trkpt>
<trkpt lat="47.617705" lon="10.540561"><ele>887.75</ele><time>2024-05-15T13:20:43Z</time></trkpt>
<trkpt lat="47.61921" lon="10.541447"><ele>903.12</ele><time>2024-05-15T13:20:48Z</time></trkpt>
<trkpt lat="47.619493" lon="10.541546"><ele>906.95</ele><time>2024-05-15T13:20:52Z</time></trkpt>
<trkpt lat="47.619607" lon="10.54162"><ele>909.03</ele><time>2024-05-15T13:20:57Z</time></trkpt>
<trkpt lat="47.619707" lon="10.541759"><ele>910.39</ele><time>2024-05-15T13:21:02Z</time></trkpt>
<trkpt lat="47.619802" lon="10.541961"><ele>910.45</ele><time>2024-05-15T13:21:06Z</time></trkpt>
<trkpt lat="47.620048" lon="10.542746"><ele>908.36</ele><time>2024-05-15T13:21:11Z</time></trkpt>
<trkpt lat="47.620098" lon="10.542866"><ele>906.85</ele><time>2024-05-15T13:21:16Z</time></trkpt>
<trkpt lat="47.620532" lon="10.543655"><ele>898.58</ele><time>2024-05-15T13:21:20Z</time></trkpt>
<trkpt lat="47.620574" lon="10.543757"><ele>898.15</ele><time>2024-05-15T13:21:25Z</time></trkpt>
<trkpt lat="47.620612" lon="10.543911"><ele>897.79</ele><time>2024-05-15T13:21:29Z</time></trkpt>
<trkpt lat="47.620624" lon="10.544777"><ele>901.03</ele><time>2024-05-15T13:21:34Z</time></trkpt>
<trkpt lat="47.620583" lon="10.545009"><ele>902.56</ele><time>2024-05-15T13:21:39Z</time></trkpt>
<trkpt lat="47.620499" lon="10.545318"><ele>903.62</ele><time>2024-05-15T13:21:43Z</time></trkpt>
<trkpt lat="47.620484" lon="10.545501"><ele>905.38</ele><time>2024-05-15T13:21:48Z</time></trkpt>
<trkpt lat="47.620493" lon="10.545627"><ele>906.73</ele><time>2024-05-15T13:21:53Z</time></trkpt>
<trkpt lat="47.620726" lon="10.54644"><ele>912.84</ele><time>2024-05-15T13:21:57Z</time></trkpt>
<trkpt lat="47.620719" lon="10.546597"><ele>913.13</ele><time>2024-05-15T13:22:02Z</time></trkpt>
<trkpt lat="47.620653" lon="10.546893"><ele>913.66</ele><time>2024-05-15T13:22:06Z</time></trkpt>
<trkpt lat="47.620617" lon="10.547306"><ele>912.01</ele><time>2024-05-15T13:22:11Z</time></trkpt>
<trkpt lat="47.620618" lon="10.547702"><ele>908.97</ele><time>2024-05-15T13:22:16Z</time></trkpt>
<trkpt lat="47.620856" lon="10.549588"><ele>897.95</ele><time>2024-05-15T13:22:20Z</time></trkpt>
<trkpt lat="47.621012" lon="10.550497"><ele>905.15</ele><time>2024-05-15T13:22:25Z</time></trkpt>
<trkpt lat="47.621012" lon="10.550497"><ele>905.15</ele><time>2024-05-15T13:22:25Z</time></trkpt>
<trkpt lat="47.620075" lon="10.551005"><ele>907.65</ele><time>2024-05-15T13:22:29Z</time></trkpt>
<trkpt lat="47.620001" lon="10.551081"><ele>907.01</ele><time>2024-05-15T13:22:34Z</time></trkpt>
<trkpt lat="47.619948" lon="10.551187"><ele>907.65</ele><time>2024-05-15T13:22:38Z</time></trkpt>
<trkpt lat="47.619858" lon="10.55164"><ele>909.95</ele><time>2024-05-15T13:22:43Z</time></trkpt>
<trkpt lat="47.619526" lon="10.552786"><ele>922.75</ele><time>2024-05-15T13:22:47Z</time></trkpt>
<trkpt lat="47.619444" lon="10.552929"><ele>924.09</ele><time>2024-05-15T13:22:52Z</time></trkpt>
<trkpt lat="47.619391" lon="10.55297"><ele>924.77</ele><time>2024-05-15T13:22:56Z</time></trkpt>
<trkpt lat="47.619322" lon="10.552983"><ele>925.36</ele><time>2024-05-15T13:23:01Z</time></trkpt>
<trkpt lat="47.61901" lon="10.552876"><ele>926.47</ele><time>2024-05-15T13:23:05Z</time></trkpt>
<trkpt lat="47.618898" lon="10.552864"><ele>926.89</ele><time>2024-05-15T13:23:10Z</time></trkpt>
<trkpt lat="47.618567" lon="10.552945"><ele>929.57</ele><time>2024-05-15T13:23:14Z</time></trkpt>
<trkpt lat="47.618245" lon="10.553147"><ele>932.76</ele><time>2024-05-15T13:23:19Z</time></trkpt>
<trkpt lat="47.618037" lon="10.553345"><ele>935.15</ele><time>2024-05-15T13:23:23Z</time></trkpt>
<trkpt lat="47.617974" lon="10.553496"><ele>936.63</ele><time>2024-05-15T13:23:28Z</time></trkpt>
<trkpt lat="47.617925" lon="10.553706"><ele>938.28</ele><time>2024-05-15T13:23:32Z</time></trkpt>
<trkpt lat="47.617845" lon="10.554452"><ele>944.58</ele><time>2024-05-15T13:23:37Z</time></trkpt>
<trkpt lat="47.617757" lon="10.554819"><ele>947.2</ele><time>2024-05-15T13:23:41Z</time></trkpt>
<trkpt lat="47.617696" lon="10.554991"><ele>947.38</ele><time>2024-05-15T13:23:46Z</time></trkpt>
<trkpt lat="47.61767" lon="10.555272"><ele>946.24</ele><time>2024-05-15T13:23:50Z</time></trkpt>
<trkpt lat="47.617781" lon="10.556016"><ele>944.36</ele><time>2024-05-15T13:23:55Z</time></trkpt>
<trkpt lat="47.617774" lon="10.5565"><ele>940.56</ele><time>2024-05-15T13:23:59Z</time></trkpt>
<trkpt lat="47.617729" lon="10.556764"><ele>939.48</ele><time>2024-05-15T13:24:04Z</time></trkpt>
<trkpt lat="47.617373" lon="10.558307"><ele>936.63</ele><time>2024-05-15T13:24:08Z</time></trkpt>
<trkpt lat="47.617039" lon="10.559615"><ele>941.25</ele><time>2024-05-15T13:24:13Z</time></trkpt>
<trkpt lat="47.616976" lon="10.559924"><ele>942.06</ele><time>2024-05-15T13:24:17Z</time></trkpt>
<trkpt lat="47.616948" lon="10.560132"><ele>942.98</ele><time>2024-05-15T13:24:22Z</time></trkpt>
<trkpt lat="47.616936" lon="10.560457"><ele>943.89</ele><time>2024-05-15T13:24:26Z</time></trkpt>
<trkpt lat="47.617007" lon="10.560982"><ele>943.59</ele><time>2024-05-15T13:24:31Z</time></trkpt>
<trkpt lat="47.617027" lon="10.561802"><ele>939.02</ele><time>2024-05-15T13:24:35Z</time></trkpt>
<trkpt lat="47.61699" lon="10.562286"><ele>938.04</ele><time>2024-05-15T13:24:40Z</time></trkpt>
<trkpt lat="47.616961" lon="10.56247"><ele>938.05</ele><time>2024-05-15T13:24:44Z</time></trkpt>
<trkpt lat="47.616294" lon="10.564059"><ele>932.12</ele><time>2024-05-15T13:24:48Z</time></trkpt>
<trkpt lat="47.616014" lon="10.564497"><ele>929.15</ele><time>2024-05-15T13:24:53Z</time></trkpt>
<trkpt lat="47.615676" lon="10.564894"><ele>925.65</ele><time>2024-05-15T13:24:57Z</time></trkpt>
<trkpt lat="47.615206" lon="10.565385"><ele>920.09</ele><time>2024-05-15T13:25:02Z</time></trkpt>
<trkpt lat="47.614653" lon="10.565882"><ele>912.75</ele><time>2024-05-15T13:25:06Z</time></trkpt>
<trkpt lat="47.614653" lon="10.565882"><ele>912.75</ele><time>2024-05-15T13:25:06Z</time></trkpt>
<trkpt lat="47.614244" lon="10.565845"><ele>910.55</ele><time>2024-05-15T13:25:10Z</time></trkpt>
<trkpt lat="47.61405" lon="10.565881"><ele>909.16</ele><time>2024-05-15T13:25:14Z</time></trkpt>
<trkpt lat="47.613403" lon="10.566433"><ele>905.41</ele><time>2024-05-15T13:25:18Z</time></trkpt>
<trkpt lat="47.613214" lon="10.566526"><ele>905.28</ele><time>2024-05-15T13:25:22Z</time></trkpt>
<trkpt lat="47.61314" lon="10.566667"><ele>906.0</ele><time>2024-05-15T13:25:26Z</time></trkpt>
<trkpt lat="47.613162" lon="10.566982"><ele>908.84</ele><time>2024-05-15T13:25:34Z</time></trkpt>
<trkpt lat="47.613143" lon="10.567306"><ele>910.37</ele><time>2024-05-15T13:25:42Z</time></trkpt>
<trkpt lat="47.612765" lon="10.568642"><ele>910.14</ele><time>2024-05-15T13:25:51Z</time></trkpt>
<trkpt lat="47.612013" lon="10.571409"><ele>913.68</ele><time>2024-05-15T13:25:59Z</time></trkpt>
<trkpt lat="47.611641" lon="10.573136"><ele>921.12</ele><time>2024-05-15T13:26:07Z</time></trkpt>
<trkpt lat="47.611524" lon="10.573451"><ele>929.92</ele><time>2024-05-15T13:26:16Z</time></trkpt>
<trkpt lat="47.611347" lon="10.573771"><ele>940.24</ele><time>2024-05-15T13:26:24Z</time></trkpt>
<trkpt lat="47.61099" lon="10.57426"><ele>946.28</ele><time>2024-05-15T13:26:33Z</time></trkpt>
<trkpt lat="47.610241" lon="10.5755"><ele>954.82</ele><time>2024-05-15T13:26:41Z</time></trkpt>
<trkpt lat="47.609932" lon="10.575978"><ele>957.14</ele><time>2024-05-15T13:26:49Z</time></trkpt>
<trkpt lat="47.609932" lon="10.575978"><ele>957.14</ele><time>2024-05-15T13:26:49Z</time></trkpt>
<trkpt lat="47.609564" lon="10.576548"><ele>959.46</ele><time>2024-05-15T13:26:54Z</time></trkpt>
<trkpt lat="47.609418" lon="10.576853"><ele>954.39</ele><time>2024-05-15T13:26:59Z</time></trkpt>
<trkpt lat="47.609275" lon="10.577571"><ele>940.38</ele><time>2024-05-15T13:27:04Z</time></trkpt>
<trkpt lat="47.609243" lon="10.578104"><ele>932.57</ele><time>2024-05-15T13:27:08Z</time></trkpt>
<trkpt lat="47.609252" lon="10.578519"><ele>929.47</ele><time>2024-05-15T13:27:13Z</time></trkpt>
<trkpt lat="47.609281" lon="10.578732"><ele>928.38</ele><time>2024-05-15T13:27:18Z</time></trkpt>
<trkpt lat="47.60953" lon="10.579503"><ele>921.57</ele><time>2024-05-15T13:27:23Z</time></trkpt>
<trkpt lat="47.60963" lon="10.579927"><ele>912.9</ele><time>2024-05-15T13:27:28Z</time></trkpt>
<trkpt lat="47.609651" lon="10.580168"><ele>911.08</ele><time>2024-05-15T13:27:32Z</time></trkpt>
<trkpt lat="47.609644" lon="10.580479"><ele>912.0</ele><time>2024-05-15T13:27:37Z</time></trkpt>
<trkpt lat="47.609572" lon="10.58086"><ele>913.89</ele><time>2024-05-15T13:27:42Z</time></trkpt>
<trkpt lat="47.609488" lon="10.581105"><ele>913.74</ele><time>2024-05-15T13:27:47Z</time></trkpt>
<trkpt lat="47.609362" lon="10.581379"><ele>910.53</ele><time>2024-05-15T13:27:52Z</time></trkpt>
<trkpt lat="47.608897" lon="10.582163"><ele>905.1</ele><time>2024-05-15T13:27:57Z</time></trkpt>
<trkpt lat="47.608378" lon="10.583346"><ele>902.77</ele><time>2024-05-15T13:28:01Z</time></trkpt>
<trkpt lat="47.6082" lon="10.583651"><ele>903.37</ele><time>2024-05-15T13:28:06Z</time></trkpt>
<trkpt lat="47.608066" lon="10.583807"><ele>902.56</ele><time>2024-05-15T13:28:11Z</time></trkpt>
<trkpt lat="47.607799" lon="10.584012"><ele>900.71</ele><time>2024-05-15T13:28:16Z</time></trkpt>
<trkpt lat="47.606735" lon="10.584535"><ele>903.41</ele><time>2024-05-15T13:28:21Z</time></trkpt>
<trkpt lat="47.606356" lon="10.584696"><ele>902.8</ele><time>2024-05-15T13:28:25Z</time></trkpt>
<trkpt lat="47.606417" lon="10.584864"><ele>903.71</ele><time>2024-05-15T13:28:33Z</time></trkpt>
<trkpt lat="47.606434" lon="10.584999"><ele>904.32</ele><time>2024-05-15T13:28:40Z</time></trkpt>
<trkpt lat="47.606435" lon="10.58525"><ele>905.08</ele><time>2024-05-15T13:28:47Z</time></trkpt>
<trkpt lat="47.606409" lon="10.585459"><ele>905.12</ele><time>2024-05-15T13:28:55Z</time></trkpt>
<trkpt lat="47.606175" lon="10.586253"><ele>905.59</ele><time>2024-05-15T13:29:02Z</time></trkpt>
<trkpt lat="47.605805" lon="10.587271"><ele>906.99</ele><time>2024-05-15T13:29:09Z</time></trkpt>
<trkpt lat="47.606679" lon="10.587973"><ele>915.8</ele><time>2024-05-15T13:29:12Z</time></trkpt>
<trkpt lat="47.606851" lon="10.588171"><ele>917.32</ele><time>2024-05-15T13:29:15Z</time></trkpt>
<trkpt lat="47.607151" lon="10.588664"><ele>918.55</ele><time>2024-05-15T13:29:19Z</time></trkpt>
<trkpt lat="47.607483" lon="10.588807"><ele>919.9</ele><time>2024-05-15T13:29:22Z</time></trkpt>
<trkpt lat="47.607886" lon="10.589118"><ele>922.56</ele><time>2024-05-15T13:29:25Z</time></trkpt>
<trkpt lat="47.60798" lon="10.58916"><ele>922.75</ele><time>2024-05-15T13:29:28Z</time></trkpt>
<trkpt lat="47.608195" lon="10.589182"><ele>922.39</ele><time>2024-05-15T13:29:31Z</time></trkpt>
<trkpt lat="47.608433" lon="10.589123"><ele>921.64</ele><time>2024-05-15T13:29:34Z</time></trkpt>
<trkpt lat="47.608619" lon="10.589165"><ele>921.03</ele><time>2024-05-15T13:29:37Z</time></trkpt>
<trkpt lat="47.608754" lon="10.589165"><ele>921.52</ele><time>2024-05-15T13:29:41Z</time></trkpt>
<trkpt lat="47.609113" lon="10.58903"><ele>927.25</ele><time>2024-05-15T13:29:44Z</time></trkpt>
<trkpt lat="47.609178" lon="10.589021"><ele>928.91</ele><time>2024-05-15T13:29:47Z</time></trkpt>
<trkpt lat="47.609266" lon="10.589042"><ele>931.62</ele><time>2024-05-15T13:29:50Z</time></trkpt>
<trkpt lat="47.609266" lon="10.589042"><ele>931.62</ele><time>2024-05-15T13:29:53Z</time></trkpt>
<trkpt lat="47.609314" lon="10.589065"><ele>933.0</ele><time>2024-05-15T13:29:56Z</time></trkpt>
<trkpt lat="47.609395" lon="10.589148"><ele>934.74</ele><time>2024-05-15T13:30:00Z</time></trkpt>
<trkpt lat="47.609597" lon="10.589471"><ele>938.24</ele><time>2024-05-15T13:30:03Z</time></trkpt>
<trkpt lat="47.60986" lon="10.590201"><ele>945.01</ele><time>2024-05-15T13:30:06Z</time></trkpt>
<trkpt lat="47.610174" lon="10.59085"><ele>949.45</ele><time>2024-05-15T13:30:09Z</time></trkpt>
<trkpt lat="47.610348" lon="10.591071"><ele>953.59</ele><time>2024-05-15T13:30:12Z</time></trkpt>
<trkpt lat="47.610955" lon="10.591648"><ele>965.42</ele><time>2024-05-15T13:30:15Z</time></trkpt>
<trkpt lat="47.610984" lon="10.591724"><ele>964.66</ele><time>2024-05-15T13:30:18Z</time></trkpt>
<trkpt lat="47.610975" lon="10.591857"><ele>961.49</ele><time>2024-05-15T13:30:22Z</time></trkpt>
<trkpt lat="47.611024" lon="10.592092"><ele>959.59</ele><time>2024-05-15T13:30:25Z</time></trkpt>
<trkpt lat="47.61115" lon="10.59231"><ele>960.17</ele><time>2024-05-15T13:30:28Z</time></trkpt>
<trkpt lat="47.611283" lon="10.592416"><ele>961.05</ele><time>2024-05-15T13:30:31Z</time></trkpt>
<trkpt lat="47.611497" lon="10.592471"><ele>963.15</ele><time>2024-05-15T13:30:34Z</time></trkpt>
<trkpt lat="47.611585" lon="10.592511"><ele>963.34</ele><time>2024-05-15T13:30:37Z</time></trkpt>
<trkpt lat="47.611825" lon="10.592683"><ele>967.34</ele><time>2024-05-15T13:30:41Z</time></trkpt>
<trkpt lat="47.611888" lon="10.592717"><ele>968.53</ele><time>2024-05-15T13:30:44Z</time></trkpt>
<trkpt lat="47.611997" lon="10.592737"><ele>970.93</ele><time>2024-05-15T13:30:47Z</time></trkpt>
<trkpt lat="47.612177" lon="10.592695"><ele>976.29</ele><time>2024-05-15T13:30:50Z</time></trkpt>
<trkpt lat="47.612532" lon="10.592513"><ele>988.14</ele><time>2024-05-15T13:30:53Z</time></trkpt>
<trkpt lat="47.612609" lon="10.592511"><ele>989.3</ele><time>2024-05-15T13:30:56Z</time></trkpt>
<trkpt lat="47.612634" lon="10.592513"><ele>990.14</ele><time>2024-05-15T13:30:59Z</time></trkpt>
<trkpt lat="47.612634" lon="10.592513"><ele>990.14</ele><time>2024-05-15T13:30:59Z</time></trkpt>
<trkpt lat="47.612609" lon="10.592511"><ele>989.3</ele><time>2024-05-15T13:31:03Z</time></trkpt>
<trkpt lat="47.612532" lon="10.592513"><ele>988.14</ele><time>2024-05-15T13:31:06Z</time></trkpt>
<trkpt lat="47.612177" lon="10.592695"><ele>976.29</ele><time>2024-05-15T13:31:10Z</time></trkpt>
<trkpt lat="47.611997" lon="10.592737"><ele>970.93</ele><time>2024-05-15T13:31:13Z</time></trkpt>
<trkpt lat="47.611888" lon="10.592717"><ele>968.53</ele><time>2024-05-15T13:31:17Z</time></trkpt>
<trkpt lat="47.611825" lon="10.592683"><ele>967.34</ele><time>2024-05-15T13:31:20Z</time></trkpt>
<trkpt lat="47.611585" lon="10.592511"><ele>963.34</ele><time>2024-05-15T13:31:24Z</time></trkpt>
<trkpt lat="47.611497" lon="10.592471"><ele>963.15</ele><time>2024-05-15T13:31:27Z</time></trkpt>
<trkpt lat="47.611283" lon="10.592416"><ele>961.05</ele><time>2024-05-15T13:31:31Z</time></trkpt>
<trkpt lat="47.61115" lon="10.59231"><ele>960.17</ele><time>2024-05-15T13:31:34Z</time></trkpt>
<trkpt lat="47.611024" lon="10.592092"><ele>959.59</ele><time>2024-05-15T13:31:37Z</time></trkpt>
<trkpt lat="47.610975" lon="10.591857"><ele>961.49</ele><time>2024-05-15T13:31:41Z</time></trkpt>
<trkpt lat="47.610984" lon="10.591724"><ele>964.66</ele><time>2024-05-15T13:31:44Z</time></trkpt>
<trkpt lat="47.610955" lon="10.591648"><ele>965.42</ele><time>2024-05-15T13:31:48Z</time></trkpt>
<trkpt lat="47.610348" lon="10.591071"><ele>953.59</ele><time>2024-05-15T13:31:51Z</time></trkpt>
<trkpt lat="47.610174" lon="10.59085"><ele>949.45</ele><time>2024-05-15T13:31:55Z</time></trkpt>
<trkpt lat="47.60986" lon="10.590201"><ele>945.01</ele><time>2024-05-15T13:31:58Z</time></trkpt>
<trkpt lat="47.609597" lon="10.589471"><ele>938.24</ele><time>2024-05-15T13:32:02Z</time></trkpt>
<trkpt lat="47.609395" lon="10.589148"><ele>934.74</ele><time>2024-05-15T13:32:05Z</time></trkpt>
<trkpt lat="47.609314" lon="10.589065"><ele>933.0</ele><time>2024-05-15T13:32:08Z</time></trkpt>
<trkpt lat="47.609266" lon="10.589042"><ele>931.62</ele><time>2024-05-15T13:32:12Z</time></trkpt>
<trkpt lat="47.609266" lon="10.589042"><ele>931.62</ele><time>2024-05-15T13:32:15Z</time></trkpt>
<trkpt lat="47.609178" lon="10.589021"><ele>928.91</ele><time>2024-05-15T13:32:19Z</time></trkpt>
<trkpt lat="47.609113" lon="10.58903"><ele>927.25</ele><time>2024-05-15T13:32:22Z</time></trkpt>
<trkpt lat="47.608754" lon="10.589165"><ele>921.52</ele><time>2024-05-15T13:32:26Z</time></trkpt>
<trkpt lat="47.608619" lon="10.589165"><ele>921.03</ele><time>2024-05-15T13:32:29Z</time></trkpt>
<trkpt lat="47.608433" lon="10.589123"><ele>921.64</ele><time>2024-05-15T13:32:33Z</time></trkpt>
<trkpt lat="47.608195" lon="10.589182"><ele>922.39</ele><time>2024-05-15T13:32:36Z</time></trkpt>
<trkpt lat="47.60798" lon="10.58916"><ele>922.75</ele><time>2024-05-15T13:32:40Z</time></trkpt>
<trkpt lat="47.607886" lon="10.589118"><ele>922.56</ele><time>2024-05-15T13:32:43Z</time></trkpt>
<trkpt lat="47.607483" lon="10.588807"><ele>919.9</ele><time>2024-05-15T13:32:46Z</time></trkpt>
<trkpt lat="47.607151" lon="10.588664"><ele>918.55</ele><time>2024-05-15T13:32:50Z</time></trkpt>
<trkpt lat="47.606851" lon="10.588171"><ele>917.32</ele><time>2024-05-15T13:32:53Z</time></trkpt>
<trkpt lat="47.606679" lon="10.587973"><ele>915.8</ele><time>2024-05-15T13:32:57Z</time></trkpt>
<trkpt lat="47.605805" lon="10.587271"><ele>906.99</ele><time>2024-05-15T13:33:00Z</time></trkpt>
<trkpt lat="47.605604" lon="10.587145"><ele>905.07</ele><time>2024-05-15T13:33:04Z</time></trkpt>
<trkpt lat="47.605276" lon="10.587163"><ele>903.78</ele><time>2024-05-15T13:33:07Z</time></trkpt>
<trkpt lat="47.605177" lon="10.587119"><ele>903.4</ele><time>2024-05-15T13:33:11Z</time></trkpt>
<trkpt lat="47.604993" lon="10.586973"><ele>903.0</ele><time>2024-05-15T13:33:14Z</time></trkpt>
<trkpt lat="47.604736" lon="10.586644"><ele>903.0</ele><time>2024-05-15T13:33:17Z</time></trkpt>
<trkpt lat="47.604512" lon="10.586949"><ele>903.0</ele><time>2024-05-15T13:33:22Z</time></trkpt>
<trkpt lat="47.604437" lon="10.58702"><ele>903.0</ele><time>2024-05-15T13:33:27Z</time></trkpt>
<trkpt lat="47.604288" lon="10.587107"><ele>903.0</ele><time>2024-05-15T13:33:31Z</time></trkpt>
<trkpt lat="47.604096" lon="10.587134"><ele>902.41</ele><time>2024-05-15T13:33:36Z</time></trkpt>
<trkpt lat="47.603707" lon="10.58739"><ele>899.69</ele><time>2024-05-15T13:33:41Z</time></trkpt>
<trkpt lat="47.6036" lon="10.587399"><ele>898.97</ele><time>2024-05-15T13:33:45Z</time></trkpt>
<trkpt lat="47.6035" lon="10.587464"><ele>898.65</ele><time>2024-05-15T13:33:50Z</time></trkpt>
<trkpt lat="47.603441" lon="10.587568"><ele>898.24</ele><time>2024-05-15T13:33:54Z</time></trkpt>
<trkpt lat="47.603191" lon="10.587811"><ele>896.37</ele><time>2024-05-15T13:33:59Z</time></trkpt>
<trkpt lat="47.602853" lon="10.588191"><ele>894.27</ele><time>2024-05-15T13:34:04Z</time></trkpt>
<trkpt lat="47.602745" lon="10.58825"><ele>893.76</ele><time>2024-05-15T13:34:08Z</time></trkpt>
<trkpt lat="47.602642" lon="10.588274"><ele>893.02</ele><time>2024-05-15T13:34:13Z</time></trkpt>
<trkpt lat="47.602697" lon="10.588603"><ele>893.29</ele><time>2024-05-15T13:34:17Z</time></trkpt>
<trkpt lat="47.602766" lon="10.588899"><ele>892.06</ele><time>2024-05-15T13:34:21Z</time></trkpt>
<trkpt lat="47.6032" lon="10.5901"><ele>887.33</ele><time>2024-05-15T13:34:26Z</time></trkpt>
<trkpt lat="47.603477" lon="10.591444"><ele>883.32</ele><time>2024-05-15T13:34:30Z</time></trkpt>
<trkpt lat="47.603551" lon="10.591738"><ele>882.93</ele><time>2024-05-15T13:34:34Z</time></trkpt>
<trkpt lat="47.603831" lon="10.592349"><ele>886.01</ele><time>2024-05-15T13:34:38Z</time></trkpt>
<trkpt lat="47.604014" lon="10.592612"><ele>886.13</ele><time>2024-05-15T13:34:43Z</time></trkpt>
<trkpt lat="47.604156" lon="10.592773"><ele>885.05</ele><time>2024-05-15T13:34:47Z</time></trkpt>
<trkpt lat="47.604411" lon="10.59298"><ele>881.22</ele><time>2024-05-15T13:34:51Z</time></trkpt>
<trkpt lat="47.604799" lon="10.59316"><ele>877.96</ele><time>2024-05-15T13:34:56Z</time></trkpt>
<trkpt lat="47.606632" lon="10.593645"><ele>874.74</ele><time>2024-05-15T13:35:00Z</time></trkpt>
<trkpt lat="47.607033" lon="10.593842"><ele>874.49</ele><time>2024-05-15T13:35:04Z</time></trkpt>
<trkpt lat="47.607318" lon="10.594064"><ele>875.18</ele><time>2024-05-15T13:35:08Z</time></trkpt>
<trkpt lat="47.607545" lon="10.594311"><ele>875.96</ele><time>2024-05-15T13:35:13Z</time></trkpt>
<trkpt lat="47.607791" lon="10.594653"><ele>876.59</ele><time>2024-05-15T13:35:17Z</time></trkpt>
<trkpt lat="47.607948" lon="10.594921"><ele>875.24</ele><time>2024-05-15T13:35:21Z</time></trkpt>
<trkpt lat="47.608417" lon="10.595878"><ele>874.36</ele><time>2024-05-15T13:35:25Z</time></trkpt>
<trkpt lat="47.608974" lon="10.596683"><ele>869.54</ele><time>2024-05-15T13:35:30Z</time></trkpt>
<trkpt lat="47.609529" lon="10.597415"><ele>864.11</ele><time>2024-05-15T13:35:34Z</time></trkpt>
<trkpt lat="47.609864" lon="10.597985"><ele>859.13</ele><time>2024-05-15T13:35:38Z</time></trkpt>
<trkpt lat="47.610044" lon="10.598452"><ele>859.41</ele><time>2024-05-15T13:35:43Z</time></trkpt>
<trkpt lat="47.610155" lon="10.598928"><ele>858.2</ele><time>2024-05-15T13:35:47Z</time></trkpt>
<trkpt lat="47.61033" lon="10.600009"><ele>856.12</ele><time>2024-05-15T13:35:51Z</time></trkpt>
<trkpt lat="47.610364" lon="10.60014"><ele>855.15</ele><time>2024-05-15T13:35:55Z</time></trkpt>
<trkpt lat="47.610458" lon="10.600592"><ele>851.17</ele><time>2024-05-15T13:36:00Z</time></trkpt>
<trkpt lat="47.61056" lon="10.600942"><ele>849.64</ele><time>2024-05-15T13:36:04Z</time></trkpt>
<trkpt lat="47.61071" lon="10.60136"><ele>849.61</ele><time>2024-05-15T13:36:08Z</time></trkpt>
<trkpt lat="47.610873" lon="10.601741"><ele>848.96</ele><time>2024-05-15T13:36:12Z</time></trkpt>
<trkpt lat="47.611002" lon="10.601993"><ele>848.32</ele><time>2024-05-15T13:36:17Z</time></trkpt>
<trkpt lat="47.611266" lon="10.602424"><ele>846.71</ele><time>2024-05-15T13:36:21Z</time></trkpt>
<trkpt lat="47.611885" lon="10.603237"><ele>840.48</ele><time>2024-05-15T13:36:25Z</time></trkpt>
<trkpt lat="47.612002" lon="10.603471"><ele>840.21</ele><time>2024-05-15T13:36:30Z</time></trkpt>
<trkpt lat="47.612068" lon="10.603719"><ele>839.61</ele><time>2024-05-15T13:36:34Z</time></trkpt>
<trkpt lat="47.612082" lon="10.605173"><ele>834.57</ele><time>2024-05-15T13:36:38Z</time></trkpt>
<trkpt lat="47.612068" lon="10.605379"><ele>833.43</ele><time>2024-05-15T13:36:42Z</time></trkpt>
<trkpt lat="47.611989" lon="10.605883"><ele>830.82</ele><time>2024-05-15T13:36:47Z</time></trkpt>
<trkpt lat="47.611974" lon="10.60629"><ele>829.36</ele><time>2024-05-15T13:36:51Z</time></trkpt>
<trkpt lat="47.612002" lon="10.606643"><ele>827.9</ele><time>2024-05-15T13:36:55Z</time></trkpt>
<trkpt lat="47.612056" lon="10.607002"><ele>825.75</ele><time>2024-05-15T13:37:00Z</time></trkpt>
<trkpt lat="47.612186" lon="10.607443"><ele>824.84</ele><time>2024-05-15T13:37:04Z</time></trkpt>
<trkpt lat="47.612316" lon="10.607747"><ele>825.09</ele><time>2024-05-15T13:37:08Z</time></trkpt>
<trkpt lat="47.612469" lon="10.608036"><ele>823.98</ele><time>2024-05-15T13:37:12Z</time></trkpt>
<trkpt lat="47.613464" lon="10.609566"><ele>823.37</ele><time>2024-05-15T13:37:17Z</time></trkpt>
<trkpt lat="47.613782" lon="10.610167"><ele>819.64</ele><time>2024-05-15T13:37:21Z</time></trkpt>
<trkpt lat="47.613969" lon="10.610589"><ele>819.49</ele><time>2024-05-15T13:37:25Z</time></trkpt>
<trkpt lat="47.614462" lon="10.611914"><ele>817.05</ele><time>2024-05-15T13:37:29Z</time></trkpt>
<trkpt lat="47.614591" lon="10.612371"><ele>816.03</ele><time>2024-05-15T13:37:34Z</time></trkpt>
<trkpt lat="47.614722" lon="10.612949"><ele>815.38</ele><time>2024-05-15T13:37:38Z</time></trkpt>
<trkpt lat="47.614868" lon="10.613497"><ele>814.53</ele><time>2024-05-15T13:37:42Z</time></trkpt>
<trkpt lat="47.615256" lon="10.614736"><ele>809.32</ele><time>2024-05-15T13:37:47Z</time></trkpt>
<trkpt lat="47.615256" lon="10.614736"><ele>809.32</ele><time>2024-05-15T13:37:47Z</time></trkpt>
<trkpt lat="47.615357" lon="10.614924"><ele>808.59</ele><time>2024-05-15T13:37:48Z</time></trkpt>
<trkpt lat="47.615474" lon="10.615072"><ele>807.59</ele><time>2024-05-15T13:37:49Z</time></trkpt>
<trkpt lat="47.615539" lon="10.615128"><ele>807.12</ele><time>2024-05-15T13:37:51Z</time></trkpt>
<trkpt lat="47.61571" lon="10.614709"><ele>809.07</ele><time>2024-05-15T13:37:54Z</time></trkpt>
<trkpt lat="47.615954" lon="10.61422"><ele>811.27</ele><time>2024-05-15T13:37:58Z</time></trkpt>
<trkpt lat="47.616492" lon="10.613414"><ele>815.71</ele><time>2024-05-15T13:38:01Z</time></trkpt>
<trkpt lat="47.616668" lon="10.613086"><ele>816.01</ele><time>2024-05-15T13:38:05Z</time></trkpt>
<trkpt lat="47.616801" lon="10.612778"><ele>816.48</ele><time>2024-05-15T13:38:09Z</time></trkpt>
<trkpt lat="47.616979" lon="10.612269"><ele>817.1</ele><time>2024-05-15T13:38:12Z</time></trkpt>
<trkpt lat="47.617207" lon="10.611372"><ele>821.01</ele><time>2024-05-15T13:38:16Z</time></trkpt>
<trkpt lat="47.617359" lon="10.610841"><ele>822.97</ele><time>2024-05-15T13:38:20Z</time></trkpt>
<trkpt lat="47.617501" lon="10.610431"><ele>821.55</ele><time>2024-05-15T13:38:23Z</time></trkpt>
<trkpt lat="47.617633" lon="10.610112"><ele>820.69</ele><time>2024-05-15T13:38:27Z</time></trkpt>
<trkpt lat="47.617867" lon="10.609715"><ele>821.34</ele><time>2024-05-15T13:38:31Z</time></trkpt>
<trkpt lat="47.618037" lon="10.60954"><ele>821.98</ele><time>2024-05-15T13:38:34Z</time></trkpt>
<trkpt lat="47.618144" lon="10.60946"><ele>821.68</ele><time>2024-05-15T13:38:38Z</time></trkpt>
<trkpt lat="47.618368" lon="10.609306"><ele>820.38</ele><time>2024-05-15T13:38:42Z</time></trkpt>
<trkpt lat="47.618728" lon="10.609175"><ele>819.97</ele><time>2024-05-15T13:38:45Z</time></trkpt>
<trkpt lat="47.618989" lon="10.609129"><ele>819.82</ele><time>2024-05-15T13:38:49Z</time></trkpt>
<trkpt lat="47.619726" lon="10.608887"><ele>817.02</ele><time>2024-05-15T13:38:53Z</time></trkpt>
<trkpt lat="47.620174" lon="10.608542"><ele>817.38</ele><time>2024-05-15T13:38:56Z</time></trkpt>
<trkpt lat="47.621055" lon="10.60779"><ele>817.36</ele><time>2024-05-15T13:39:00Z</time></trkpt>
<trkpt lat="47.621295" lon="10.607574"><ele>818.91</ele><time>2024-05-15T13:39:03Z</time></trkpt>
<trkpt lat="47.621771" lon="10.607247"><ele>818.48</ele><time>2024-05-15T13:39:07Z</time></trkpt>
<trkpt lat="47.622099" lon="10.607109"><ele>818.18</ele><time>2024-05-15T13:39:11Z</time></trkpt>
<trkpt lat="47.622344" lon="10.607036"><ele>817.85</ele><time>2024-05-15T13:39:14Z</time></trkpt>
<trkpt lat="47.622992" lon="10.606985"><ele>816.89</ele><time>2024-05-15T13:39:18Z</time></trkpt>
<trkpt lat="47.623244" lon="10.606936"><ele>817.05</ele><time>2024-05-15T13:39:22Z</time></trkpt>
<trkpt lat="47.623527" lon="10.606819"><ele>818.98</ele><time>2024-05-15T13:39:25Z</time></trkpt>
<trkpt lat="47.623822" lon="10.606627"><ele>821.55</ele><time>2024-05-15T13:39:29Z</time></trkpt>
<trkpt lat="47.624319" lon="10.606233"><ele>819.9</ele><time>2024-05-15T13:39:33Z</time></trkpt>
<trkpt lat="47.624593" lon="10.606055"><ele>819.09</ele><time>2024-05-15T13:39:36Z</time></trkpt>
<trkpt lat="47.625597" lon="10.605666"><ele>816.06</ele><time>2024-05-15T13:39:40Z</time></trkpt>
<trkpt lat="47.625926" lon="10.605491"><ele>816.49</ele><time>2024-05-15T13:39:44Z</time></trkpt>
<trkpt lat="47.626192" lon="10.605319"><ele>817.0</ele><time>2024-05-15T13:39:47Z</time></trkpt>
<trkpt lat="47.626477" lon="10.605092"><ele>817.46</ele><time>2024-05-15T13:39:51Z</time></trkpt>
<trkpt lat="47.626844" lon="10.604756"><ele>817.24</ele><time>2024-05-15T13:39:54Z</time></trkpt>
<trkpt lat="47.627209" lon="10.604344"><ele>818.77</ele><time>2024-05-15T13:39:58Z</time></trkpt>
<trkpt lat="47.630189" lon="10.600104"><ele>817.12</ele><time>2024-05-15T13:40:02Z</time></trkpt>
<trkpt lat="47.630494" lon="10.599748"><ele>817.65</ele><time>2024-05-15T13:40:05Z</time></trkpt>
<trkpt lat="47.631044" lon="10.599215"><ele>821.58</ele><time>2024-05-15T13:40:09Z</time></trkpt>
<trkpt lat="47.631195" lon="10.598983"><ele>821.09</ele><time>2024-05-15T13:40:13Z</time></trkpt>
<trkpt lat="47.631661" lon="10.598128"><ele>821.29</ele><time>2024-05-15T13:40:16Z</time></trkpt>
<trkpt lat="47.631792" lon="10.597983"><ele>821.5</ele><time>2024-05-15T13:40:20Z</time></trkpt>
<trkpt lat="47.631929" lon="10.597874"><ele>821.7</ele><time>2024-05-15T13:40:24Z</time></trkpt>
<trkpt lat="47.632041" lon="10.597818"><ele>821.83</ele><time>2024-05-15T13:40:27Z</time></trkpt>
<trkpt lat="47.632171" lon="10.597805"><ele>821.98</ele><time>2024-05-15T13:40:31Z</time></trkpt>
<trkpt lat="47.632393" lon="10.597851"><ele>823.4</ele><time>2024-05-15T13:40:35Z</time></trkpt>
<trkpt lat="47.632643" lon="10.59799"><ele>825.4</ele><time>2024-05-15T13:40:38Z</time></trkpt>
<trkpt lat="47.63281" lon="10.598123"><ele>826.14</ele><time>2024-05-15T13:40:42Z</time></trkpt>
<trkpt lat="47.633127" lon="10.598454"><ele>828.11</ele><time>2024-05-15T13:40:45Z</time></trkpt>
<trkpt lat="47.633367" lon="10.598015"><ele>826.87</ele><time>2024-05-15T13:40:54Z</time></trkpt>
<trkpt lat="47.634041" lon="10.596653"><ele>826.38</ele><time>2024-05-15T13:41:03Z</time></trkpt>
<trkpt lat="47.634729" lon="10.595056"><ele>827.76</ele><time>2024-05-15T13:41:11Z</time></trkpt>
<trkpt lat="47.635069" lon="10.594093"><ele>825.53</ele><time>2024-05-15T13:41:20Z</time></trkpt>
<trkpt lat="47.635253" lon="10.593803"><ele>827.65</ele><time>2024-05-15T13:41:29Z</time></trkpt>
<trkpt lat="47.635307" lon="10.593787"><ele>827.52</ele><time>2024-05-15T13:41:31Z</time></trkpt>
<trkpt lat="47.635351" lon="10.59374"><ele>827.54</ele><time>2024-05-15T13:41:33Z</time></trkpt>
<trkpt lat="47.635378" lon="10.593669"><ele>827.86</ele><time>2024-05-15T13:41:35Z</time></trkpt>
<trkpt lat="47.635381" lon="10.59356"><ele>828.51</ele><time>2024-05-15T13:41:37Z</time></trkpt>
<trkpt lat="47.635503" lon="10.593342"><ele>829.13</ele><time>2024-05-15T13:41:39Z</time></trkpt>
<trkpt lat="47.635566" lon="10.593261"><ele>829.26</ele><time>2024-05-15T13:41:42Z</time></trkpt>
<trkpt lat="47.635689" lon="10.593162"><ele>829.62</ele><time>2024-05-15T13:41:44Z</time></trkpt>
<trkpt lat="47.635947" lon="10.593018"><ele>829.23</ele><time>2024-05-15T13:41:46Z</time></trkpt>
<trkpt lat="47.636346" lon="10.592897"><ele>828.93</ele><time>2024-05-15T13:41:48Z</time></trkpt>
<trkpt lat="47.636777" lon="10.592816"><ele>830.57</ele><time>2024-05-15T13:41:50Z</time></trkpt>
<trkpt lat="47.637031" lon="10.592715"><ele>830.02</ele><time>2024-05-15T13:41:52Z</time></trkpt>
<trkpt lat="47.637322" lon="10.592544"><ele>829.62</ele><time>2024-05-15T13:41:55Z</time></trkpt>
<trkpt lat="47.637441" lon="10.592447"><ele>829.6</ele><time>2024-05-15T13:41:57Z</time></trkpt>
<trkpt lat="47.637704" lon="10.592163"><ele>829.58</ele><time>2024-05-15T13:41:59Z</time></trkpt>
<trkpt lat="47.63802" lon="10.591653"><ele>830.71</ele><time>2024-05-15T13:42:01Z</time></trkpt>
<trkpt lat="47.638173" lon="10.591287"><ele>831.48</ele><time>2024-05-15T13:42:03Z</time></trkpt>
<trkpt lat="47.638279" lon="10.590896"><ele>833.24</ele><time>2024-05-15T13:42:05Z</time></trkpt>
<trkpt lat="47.638343" lon="10.59057"><ele>834.14</ele><time>2024-05-15T13:42:08Z</time></trkpt>
<trkpt lat="47.638374" lon="10.590063"><ele>837.1</ele><time>2024-05-15T13:42:10Z</time></trkpt>
<trkpt lat="47.638364" lon="10.589615"><ele>837.07</ele><time>2024-05-15T13:42:12Z</time></trkpt>
<trkpt lat="47.638321" lon="10.588988"><ele>836.91</ele><time>2024-05-15T13:42:14Z</time></trkpt>
<trkpt lat="47.638322" lon="10.58839"><ele>836.95</ele><time>2024-05-15T13:42:16Z</time></trkpt>
<trkpt lat="47.638368" lon="10.588028"><ele>837.75</ele><time>2024-05-15T13:42:18Z</time></trkpt>
<trkpt lat="47.638432" lon="10.587672"><ele>836.8</ele><time>2024-05-15T13:42:21Z</time></trkpt>
<trkpt lat="47.638774" lon="10.586438"><ele>840.16</ele><time>2024-05-15T13:42:23Z</time></trkpt>
<trkpt lat="47.639181" lon="10.585365"><ele>840.98</ele><time>2024-05-15T13:42:25Z</time></trkpt>
<trkpt lat="47.639783" lon="10.584027"><ele>842.5</ele><time>2024-05-15T13:42:27Z</time></trkpt>
<trkpt lat="47.639914" lon="10.583813"><ele>844.01</ele><time>2024-05-15T13:42:29Z</time></trkpt>
<trkpt lat="47.64014" lon="10.583571"><ele>847.08</ele><time>2024-05-15T13:42:31Z</time></trkpt>
<trkpt lat="47.64014" lon="10.583571"><ele>847.08</ele><time>2024-05-15T13:42:31Z</time></trkpt>
<trkpt lat="47.640341" lon="10.583416"><ele>848.87</ele><time>2024-05-15T13:42:35Z</time></trkpt>
<trkpt lat="47.640705" lon="10.583282"><ele>850.54</ele><time>2024-05-15T13:42:38Z</time></trkpt>
<trkpt lat="47.641069" lon="10.583234"><ele>848.47</ele><time>2024-05-15T13:42:41Z</time></trkpt>
<trkpt lat="47.641365" lon="10.583248"><ele>843.7</ele><time>2024-05-15T13:42:45Z</time></trkpt>
<trkpt lat="47.642131" lon="10.583469"><ele>841.84</ele><time>2024-05-15T13:42:48Z</time></trkpt>
<trkpt lat="47.64244" lon="10.583491"><ele>842.78</ele><time>2024-05-15T13:42:51Z</time></trkpt>
<trkpt lat="47.64273" lon="10.583447"><ele>843.34</ele><time>2024-05-15T13:42:55Z</time></trkpt>
<trkpt lat="47.643015" lon="10.583334"><ele>845.56</ele><time>2024-05-15T13:42:58Z</time></trkpt>
<trkpt lat="47.643319" lon="10.583162"><ele>851.28</ele><time>2024-05-15T13:43:01Z</time></trkpt>
<trkpt lat="47.643561" lon="10.582982"><ele>855.61</ele><time>2024-05-15T13:43:05Z</time></trkpt>
<trkpt lat="47.643804" lon="10.582767"><ele>858.99</ele><time>2024-05-15T13:43:08Z</time></trkpt>
<trkpt lat="47.644037" lon="10.582528"><ele>858.0</ele><time>2024-05-15T13:43:11Z</time></trkpt>
<trkpt lat="47.644206" lon="10.582318"><ele>855.72</ele><time>2024-05-15T13:43:15Z</time></trkpt>
<trkpt lat="47.644675" lon="10.581659"><ele>850.6</ele><time>2024-05-15T13:43:18Z</time></trkpt>
<trkpt lat="47.645105" lon="10.581134"><ele>850.33</ele><time>2024-05-15T13:43:21Z</time></trkpt>
<trkpt lat="47.645897" lon="10.580341"><ele>851.14</ele><time>2024-05-15T13:43:25Z</time></trkpt>
<trkpt lat="47.646188" lon="10.580082"><ele>854.21</ele><time>2024-05-15T13:43:28Z</time></trkpt>
<trkpt lat="47.647522" lon="10.579002"><ele>850.83</ele><time>2024-05-15T13:43:31Z</time></trkpt>
<trkpt lat="47.647759" lon="10.57873"><ele>851.22</ele><time>2024-05-15T13:43:35Z</time></trkpt>
<trkpt lat="47.648076" lon="10.578293"><ele>849.57</ele><time>2024-05-15T13:43:38Z</time></trkpt>
<trkpt lat="47.648547" lon="10.577705"><ele>845.2</ele><time>2024-05-15T13:43:41Z</time></trkpt>
<trkpt lat="47.648653" lon="10.57761"><ele>844.36</ele><time>2024-05-15T13:43:45Z</time></trkpt>
<trkpt lat="47.648843" lon="10.577514"><ele>843.3</ele><time>2024-05-15T13:43:48Z</time></trkpt>
<trkpt lat="47.649097" lon="10.577497"><ele>843.75</ele><time>2024-05-15T13:43:51Z</time></trkpt>
<trkpt lat="47.649274" lon="10.577537"><ele>844.39</ele><time>2024-05-15T13:43:55Z</time></trkpt>
<trkpt lat="47.649493" lon="10.577649"><ele>845.6</ele><time>2024-05-15T13:43:58Z</time></trkpt>
<trkpt lat="47.649748" lon="10.577747"><ele>846.58</ele><time>2024-05-15T13:44:01Z</time></trkpt>
<trkpt lat="47.649852" lon="10.577749"><ele>846.28</ele><time>2024-05-15T13:44:05Z</time></trkpt>
<trkpt lat="47.650417" lon="10.57765"><ele>843.04</ele><time>2024-05-15T13:44:08Z</time></trkpt>
<trkpt lat="47.650595" lon="10.57766"><ele>842.64</ele><time>2024-05-15T13:44:11Z</time></trkpt>
<trkpt lat="47.650691" lon="10.577686"><ele>842.83</ele><time>2024-05-15T13:44:15Z</time></trkpt>
<trkpt lat="47.650829" lon="10.577779"><ele>843.0</ele><time>2024-05-15T13:44:18Z</time></trkpt>
<trkpt lat="47.650926" lon="10.578012"><ele>843.89</ele><time>2024-05-15T13:44:21Z</time></trkpt>
<trkpt lat="47.65112" lon="10.578719"><ele>844.86</ele><time>2024-05-15T13:44:25Z</time></trkpt>
<trkpt lat="47.651212" lon="10.578948"><ele>843.27</ele><time>2024-05-15T13:44:28Z</time></trkpt>
<trkpt lat="47.651331" lon="10.579171"><ele>841.43</ele><time>2024-05-15T13:44:31Z</time></trkpt>
<trkpt lat="47.651387" lon="10.579273"><ele>841.39</ele><time>2024-05-15T13:44:35Z</time></trkpt>
<trkpt lat="47.651623" lon="10.579571"><ele>842.31</ele><time>2024-05-15T13:44:38Z</time></trkpt>
<trkpt lat="47.652362" lon="10.580319"><ele>841.0</ele><time>2024-05-15T13:44:41Z</time></trkpt>
<trkpt lat="47.652849" lon="10.580749"><ele>842.85</ele><time>2024-05-15T13:44:45Z</time></trkpt>
<trkpt lat="47.652849" lon="10.580749"><ele>842.85</ele><time>2024-05-15T13:44:45Z</time></trkpt>
<trkpt lat="47.653065" lon="10.580075"><ele>843.38</ele><time>2024-05-15T13:44:48Z</time></trkpt>
<trkpt lat="47.653486" lon="10.579094"><ele>842.45</ele><time>2024-05-15T13:44:51Z</time></trkpt>
<trkpt lat="47.653705" lon="10.578516"><ele>839.98</ele><time>2024-05-15T13:44:54Z</time></trkpt>
<trkpt lat="47.653871" lon="10.57787"><ele>837.13</ele><time>2024-05-15T13:44:58Z</time></trkpt>
<trkpt lat="47.653955" lon="10.57732"><ele>837.72</ele><time>2024-05-15T13:45:01Z</time></trkpt>
<trkpt lat="47.653979" lon="10.576773"><ele>839.59</ele><time>2024-05-15T13:45:04Z</time></trkpt>
<trkpt lat="47.653969" lon="10.576257"><ele>840.34</ele><time>2024-05-15T13:45:07Z</time></trkpt>
<trkpt lat="47.653945" lon="10.575869"><ele>841.3</ele><time>2024-05-15T13:45:11Z</time></trkpt>
<trkpt lat="47.653851" lon="10.575115"><ele>841.45</ele><time>2024-05-15T13:45:14Z</time></trkpt>
<trkpt lat="47.653691" lon="10.574318"><ele>844.51</ele><time>2024-05-15T13:45:17Z</time></trkpt>
<trkpt lat="47.653055" lon="10.571732"><ele>842.24</ele><time>2024-05-15T13:45:20Z</time></trkpt>
<trkpt lat="47.65325" lon="10.571511"><ele>842.31</ele><time>2024-05-15T13:45:27Z</time></trkpt>
<trkpt lat="47.653798" lon="10.570254"><ele>842.37</ele><time>2024-05-15T13:45:35Z</time></trkpt>
<trkpt lat="47.65416" lon="10.569612"><ele>843.58</ele><time>2024-05-15T13:45:42Z</time></trkpt>
<trkpt lat="47.654667" lon="10.568873"><ele>849.01</ele><time>2024-05-15T13:45:49Z</time></trkpt>
<trkpt lat="47.655256" lon="10.568081"><ele>838.67</ele><time>2024-05-15T13:45:56Z</time></trkpt>
<trkpt lat="47.655447" lon="10.567761"><ele>838.26</ele><time>2024-05-15T13:46:04Z</time></trkpt>
<trkpt lat="47.655595" lon="10.567458"><ele>840.4</ele><time>2024-05-15T13:46:11Z</time></trkpt>
<trkpt lat="47.65583" lon="10.566785"><ele>840.99</ele><time>2024-05-15T13:46:18Z</time></trkpt>
<trkpt lat="47.656025" lon="10.565708"><ele>845.69</ele><time>2024-05-15T13:46:25Z</time></trkpt>
<trkpt lat="47.656048" lon="10.564428"><ele>846.38</ele><time>2024-05-15T13:46:32Z</time></trkpt>
<trkpt lat="47.656027" lon="10.563742"><ele>847.46</ele><time>2024-05-15T13:46:40Z</time></trkpt>
<trkpt lat="47.655997" lon="10.563457"><ele>848.36</ele><time>2024-05-15T13:46:47Z</time></trkpt>
<trkpt lat="47.655951" lon="10.563211"><ele>849.79</ele><time>2024-05-15T13:46:54Z</time></trkpt>
<trkpt lat="47.655686" lon="10.56232"><ele>852.82</ele><time>2024-05-15T13:47:01Z</time></trkpt>
<trkpt lat="47.655788" lon="10.562184"><ele>852.7</ele><time>2024-05-15T13:47:03Z</time></trkpt>
<trkpt lat="47.655788" lon="10.562184"><ele>852.7</ele><time>2024-05-15T13:47:03Z</time></trkpt>
<trkpt lat="47.656254" lon="10.561978"><ele>852.48</ele><time>2024-05-15T13:47:07Z</time></trkpt>
<trkpt lat="47.656395" lon="10.562021"><ele>851.96</ele><time>2024-05-15T13:47:11Z</time></trkpt>
<trkpt lat="47.656602" lon="10.562024"><ele>850.47</ele><time>2024-05-15T13:47:16Z</time></trkpt>
<trkpt lat="47.656808" lon="10.561951"><ele>848.98</ele><time>2024-05-15T13:47:20Z</time></trkpt>
<trkpt lat="47.656972" lon="10.561836"><ele>848.29</ele><time>2024-05-15T13:47:24Z</time></trkpt>
<trkpt lat="47.6571" lon="10.561701"><ele>848.31</ele><time>2024-05-15T13:47:28Z</time></trkpt>
<trkpt lat="47.657366" lon="10.561268"><ele>850.43</ele><time>2024-05-15T13:47:33Z</time></trkpt>
<trkpt lat="47.657527" lon="10.561052"><ele>851.09</ele><time>2024-05-15T13:47:37Z</time></trkpt>
<trkpt lat="47.657658" lon="10.560927"><ele>850.72</ele><time>2024-05-15T13:47:41Z</time></trkpt>
<trkpt lat="47.658654" lon="10.560082"><ele>851.65</ele><time>2024-05-15T13:47:45Z</time></trkpt>
<trkpt lat="47.659091" lon="10.559734"><ele>853.79</ele><time>2024-05-15T13:47:50Z</time></trkpt>
<trkpt lat="47.659323" lon="10.559605"><ele>856.16</ele><time>2024-05-15T13:47:54Z</time></trkpt>
<trkpt lat="47.659548" lon="10.55951"><ele>859.12</ele><time>2024-05-15T13:47:58Z</time></trkpt>
<trkpt lat="47.659683" lon="10.559516"><ele>859.76</ele><time>2024-05-15T13:48:02Z</time></trkpt>
<trkpt lat="47.660239" lon="10.559683"><ele>853.82</ele><time>2024-05-15T13:48:07Z</time></trkpt>
<trkpt lat="47.66058" lon="10.559698"><ele>853.62</ele><time>2024-05-15T13:48:11Z</time></trkpt>
<trkpt lat="47.660865" lon="10.559616"><ele>856.1</ele><time>2024-05-15T13:48:15Z</time></trkpt>
<trkpt lat="47.660985" lon="10.559549"><ele>856.52</ele><time>2024-05-15T13:48:19Z</time></trkpt>
<trkpt lat="47.661467" lon="10.559149"><ele>856.5</ele><time>2024-05-15T13:48:23Z</time></trkpt>
<trkpt lat="47.661607" lon="10.559108"><ele>855.64</ele><time>2024-05-15T13:48:28Z</time></trkpt>
<trkpt lat="47.66174" lon="10.559118"><ele>855.17</ele><time>2024-05-15T13:48:32Z</time></trkpt>
<trkpt lat="47.66229" lon="10.559268"><ele>856.0</ele><time>2024-05-15T13:48:36Z</time></trkpt>
<trkpt lat="47.663073" lon="10.559591"><ele>855.32</ele><time>2024-05-15T13:48:40Z</time></trkpt>
<trkpt lat="47.663644" lon="10.559889"><ele>850.89</ele><time>2024-05-15T13:48:45Z</time></trkpt>
<trkpt lat="47.664408" lon="10.55971"><ele>851.22</ele><time>2024-05-15T13:48:49Z</time></trkpt>
<trkpt lat="47.664722" lon="10.559686"><ele>850.26</ele><time>2024-05-15T13:48:53Z</time></trkpt>
<trkpt lat="47.664995" lon="10.559591"><ele>850.48</ele><time>2024-05-15T13:48:57Z</time></trkpt>
<trkpt lat="47.66519" lon="10.559477"><ele>849.51</ele><time>2024-05-15T13:49:02Z</time></trkpt>
<trkpt lat="47.66531" lon="10.559366"><ele>848.8</ele><time>2024-05-15T13:49:06Z</time></trkpt>
<trkpt lat="47.66547" lon="10.559164"><ele>848.31</ele><time>2024-05-15T13:49:10Z</time></trkpt>
<trkpt lat="47.66594" lon="10.558696"><ele>849.74</ele><time>2024-05-15T13:49:14Z</time></trkpt>
<trkpt lat="47.666539" lon="10.558115"><ele>849.0</ele><time>2024-05-15T13:49:19Z</time></trkpt>
<trkpt lat="47.66673" lon="10.557797"><ele>849.23</ele><time>2024-05-15T13:49:23Z</time></trkpt>
<trkpt lat="47.666814" lon="10.557688"><ele>849.68</ele><time>2024-05-15T13:49:27Z</time></trkpt>
<trkpt lat="47.667465" lon="10.557064"><ele>854.52</ele><time>2024-05-15T13:49:31Z</time></trkpt>
<trkpt lat="47.668445" lon="10.556237"><ele>857.0</ele><time>2024-05-15T13:49:36Z</time></trkpt>
<trkpt lat="47.668557" lon="10.556154"><ele>857.0</ele><time>2024-05-15T13:49:40Z</time></trkpt>
<trkpt lat="47.668772" lon="10.556082"><ele>855.74</ele><time>2024-05-15T13:49:44Z</time></trkpt>
<trkpt lat="47.668875" lon="10.556081"><ele>854.99</ele><time>2024-05-15T13:49:48Z</time></trkpt>
<trkpt lat="47.668993" lon="10.556109"><ele>854.25</ele><time>2024-05-15T13:49:52Z</time></trkpt>
<trkpt lat="47.669139" lon="10.556207"><ele>853.2</ele><time>2024-05-15T13:49:57Z</time></trkpt>
<trkpt lat="47.669375" lon="10.556423"><ele>852.91</ele><time>2024-05-15T13:50:01Z</time></trkpt>
<trkpt lat="47.669581" lon="10.556508"><ele>852.57</ele><time>2024-05-15T13:50:05Z</time></trkpt>
<trkpt lat="47.66971" lon="10.556488"><ele>852.64</ele><time>2024-05-15T13:50:09Z</time></trkpt>
<trkpt lat="47.669972" lon="10.556293"><ele>850.95</ele><time>2024-05-15T13:50:14Z</time></trkpt>
<trkpt lat="47.670976" lon="10.555372"><ele>846.51</ele><time>2024-05-15T13:50:18Z</time></trkpt>
<trkpt lat="47.671283" lon="10.555116"><ele>847.32</ele><time>2024-05-15T13:50:22Z</time></trkpt>
<trkpt lat="47.671699" lon="10.554935"><ele>848.44</ele><time>2024-05-15T13:50:26Z</time></trkpt>
<trkpt lat="47.671699" lon="10.554935"><ele>848.44</ele><time>2024-05-15T13:50:26Z</time></trkpt>
<trkpt lat="47.672553" lon="10.554757"><ele>848.9</ele><time>2024-05-15T13:50:30Z</time></trkpt>
<trkpt lat="47.673241" lon="10.554655"><ele>849.76</ele><time>2024-05-15T13:50:34Z</time></trkpt>
<trkpt lat="47.673375" lon="10.554676"><ele>849.71</ele><time>2024-05-15T13:50:38Z</time></trkpt>
<trkpt lat="47.673496" lon="10.554723"><ele>849.42</ele><time>2024-05-15T13:50:42Z</time></trkpt>
<trkpt lat="47.673599" lon="10.554804"><ele>849.33</ele><time>2024-05-15T13:50:47Z</time></trkpt>
<trkpt lat="47.673895" lon="10.555176"><ele>850.66</ele><time>2024-05-15T13:50:51Z</time></trkpt>
<trkpt lat="47.674115" lon="10.555319"><ele>851.84</ele><time>2024-05-15T13:50:55Z</time></trkpt>
<trkpt lat="47.674288" lon="10.555564"><ele>851.98</ele><time>2024-05-15T13:50:59Z</time></trkpt>
<trkpt lat="47.674244" lon="10.555713"><ele>851.59</ele><time>2024-05-15T13:51:04Z</time></trkpt>
<trkpt lat="47.674238" lon="10.555829"><ele>851.27</ele><time>2024-05-15T13:51:09Z</time></trkpt>
<trkpt lat="47.674252" lon="10.555999"><ele>850.71</ele><time>2024-05-15T13:51:13Z</time></trkpt>
<trkpt lat="47.674455" lon="10.556947"><ele>849.04</ele><time>2024-05-15T13:51:18Z</time></trkpt>
<trkpt lat="47.674579" lon="10.557684"><ele>851.17</ele><time>2024-05-15T13:51:23Z</time></trkpt>
<trkpt lat="47.674605" lon="10.559601"><ele>851.73</ele><time>2024-05-15T13:51:28Z</time></trkpt>
<trkpt lat="47.674633" lon="10.560047"><ele>852.91</ele><time>2024-05-15T13:51:33Z</time></trkpt>
<trkpt lat="47.674694" lon="10.560491"><ele>852.97</ele><time>2024-05-15T13:51:38Z</time></trkpt>
<trkpt lat="47.674761" lon="10.5607"><ele>852.79</ele><time>2024-05-15T13:51:43Z</time></trkpt>
<trkpt lat="47.674898" lon="10.561018"><ele>852.61</ele><time>2024-05-15T13:51:48Z</time></trkpt>
<trkpt lat="47.675333" lon="10.561779"><ele>853.8</ele><time>2024-05-15T13:51:53Z</time></trkpt>
<trkpt lat="47.676557" lon="10.564295"><ele>851.0</ele><time>2024-05-15T13:51:58Z</time></trkpt>
<trkpt lat="47.676922" lon="10.564968"><ele>852.8</ele><time>2024-05-15T13:52:03Z</time></trkpt>
<trkpt lat="47.677023" lon="10.565224"><ele>853.28</ele><time>2024-05-15T13:52:08Z</time></trkpt>
<trkpt lat="47.677122" lon="10.565609"><ele>853.45</ele><time>2024-05-15T13:52:13Z</time></trkpt>
<trkpt lat="47.677173" lon="10.565958"><ele>852.74</ele><time>2024-05-15T13:52:18Z</time></trkpt>
<trkpt lat="47.677177" lon="10.566166"><ele>852.51</ele><time>2024-05-15T13:52:23Z</time></trkpt>
<trkpt lat="47.677123" lon="10.566917"><ele>852.29</ele><time>2024-05-15T13:52:28Z</time></trkpt>
<trkpt lat="47.677181" lon="10.567545"><ele>853.85</ele><time>2024-05-15T13:52:33Z</time></trkpt>
<trkpt lat="47.677177" lon="10.567735"><ele>853.84</ele><time>2024-05-15T13:52:38Z</time></trkpt>
<trkpt lat="47.677142" lon="10.56799"><ele>854.25</ele><time>2024-05-15T13:52:43Z</time></trkpt>
<trkpt lat="47.677126" lon="10.568255"><ele>854.77</ele><time>2024-05-15T13:52:48Z</time></trkpt>
<trkpt lat="47.677163" lon="10.569077"><ele>854.04</ele><time>2024-05-15T13:52:53Z</time></trkpt>
<trkpt lat="47.677107" lon="10.569505"><ele>853.04</ele><time>2024-05-15T13:52:58Z</time></trkpt>
<trkpt lat="47.676839" lon="10.570974"><ele>850.51</ele><time>2024-05-15T13:53:02Z</time></trkpt>
<trkpt lat="47.676837" lon="10.571088"><ele>850.92</ele><time>2024-05-15T13:53:07Z</time></trkpt>
<trkpt lat="47.676879" lon="10.571294"><ele>851.66</ele><time>2024-05-15T13:53:12Z</time></trkpt>
<trkpt lat="47.677258" lon="10.571993"><ele>853.81</ele><time>2024-05-15T13:53:17Z</time></trkpt>
<trkpt lat="47.677506" lon="10.572403"><ele>858.91</ele><time>2024-05-15T13:53:22Z</time></trkpt>
<trkpt lat="47.677506" lon="10.572403"><ele>858.91</ele><time>2024-05-15T13:53:22Z</time></trkpt>
<trkpt lat="47.678218" lon="10.573284"><ele>863.64</ele><time>2024-05-15T13:53:28Z</time></trkpt>
<trkpt lat="47.678813" lon="10.573901"><ele>849.43</ele><time>2024-05-15T13:53:34Z</time></trkpt>
<trkpt lat="47.679255" lon="10.574311"><ele>845.45</ele><time>2024-05-15T13:53:39Z</time></trkpt>
<trkpt lat="47.679572" lon="10.574558"><ele>843.89</ele><time>2024-05-15T13:53:45Z</time></trkpt>
<trkpt lat="47.680195" lon="10.574944"><ele>840.36</ele><time>2024-05-15T13:53:51Z</time></trkpt>
<trkpt lat="47.680601" lon="10.575328"><ele>840.0</ele><time>2024-05-15T13:53:56Z</time></trkpt>
<trkpt lat="47.680924" lon="10.575762"><ele>838.52</ele><time>2024-05-15T13:54:02Z</time></trkpt>
<trkpt lat="47.681336" lon="10.576388"><ele>841.61</ele><time>2024-05-15T13:54:08Z</time></trkpt>
<trkpt lat="47.681744" lon="10.576844"><ele>846.08</ele><time>2024-05-15T13:54:14Z</time></trkpt>
<trkpt lat="47.682357" lon="10.577483"><ele>841.54</ele><time>2024-05-15T13:54:19Z</time></trkpt>
<trkpt lat="47.682903" lon="10.578254"><ele>835.61</ele><time>2024-05-15T13:54:25Z</time></trkpt>
<trkpt lat="47.683445" lon="10.579109"><ele>842.53</ele><time>2024-05-15T13:54:31Z</time></trkpt>
<trkpt lat="47.683724" lon="10.579513"><ele>844.9</ele><time>2024-05-15T13:54:36Z</time></trkpt>
<trkpt lat="47.684444" lon="10.580394"><ele>836.59</ele><time>2024-05-15T13:54:42Z</time></trkpt>
<trkpt lat="47.684718" lon="10.58066"><ele>834.65</ele><time>2024-05-15T13:54:48Z</time></trkpt>
<trkpt lat="47.685009" lon="10.580793"><ele>831.34</ele><time>2024-05-15T13:54:53Z</time></trkpt>
<trkpt lat="47.685335" lon="10.580859"><ele>828.64</ele><time>2024-05-15T13:54:59Z</time></trkpt>
<trkpt lat="47.685938" lon="10.580866"><ele>835.44</ele><time>2024-05-15T13:55:05Z</time></trkpt>
<trkpt lat="47.686288" lon="10.580916"><ele>836.41</ele><time>2024-05-15T13:55:11Z</time></trkpt>
<trkpt lat="47.686617" lon="10.581037"><ele>834.11</ele><time>2024-05-15T13:55:16Z</time></trkpt>
<trkpt lat="47.686816" lon="10.581164"><ele>830.75</ele><time>2024-05-15T13:55:22Z</time></trkpt>
<trkpt lat="47.687093" lon="10.581412"><ele>827.93</ele><time>2024-05-15T13:55:28Z</time></trkpt>
<trkpt lat="47.687711" lon="10.582173"><ele>825.67</ele><time>2024-05-15T13:55:33Z</time></trkpt>
<trkpt lat="47.688098" lon="10.582526"><ele>825.84</ele><time>2024-05-15T13:55:39Z</time></trkpt>
<trkpt lat="47.688505" lon="10.582716"><ele>825.62</ele><time>2024-05-15T13:55:45Z</time></trkpt>
<trkpt lat="47.688997" lon="10.582823"><ele>824.94</ele><time>2024-05-15T13:55:50Z</time></trkpt>
<trkpt lat="47.689712" lon="10.582749"><ele>823.24</ele><time>2024-05-15T13:55:56Z</time></trkpt>
<trkpt lat="47.690288" lon="10.582585"><ele>823.95</ele><time>2024-05-15T13:56:02Z</time></trkpt>
<trkpt lat="47.690671" lon="10.582579"><ele>823.13</ele><time>2024-05-15T13:56:08Z</time></trkpt>
<trkpt lat="47.690965" lon="10.582674"><ele>823.2</ele><time>2024-05-15T13:56:13Z</time></trkpt>
<trkpt lat="47.691187" lon="10.582804"><ele>822.39</ele><time>2024-05-15T13:56:19Z</time></trkpt>
<trkpt lat="47.691468" lon="10.583032"><ele>820.74</ele><time>2024-05-15T13:56:25Z</time></trkpt>
<trkpt lat="47.691765" lon="10.583354"><ele>819.0</ele><time>2024-05-15T13:56:30Z</time></trkpt>
<trkpt lat="47.692135" lon="10.584076"><ele>819.0</ele><time>2024-05-15T13:56:36Z</time></trkpt>
<trkpt lat="47.692702" lon="10.585965"><ele>819.0</ele><time>2024-05-15T13:56:42Z</time></trkpt>
<trkpt lat="47.69286" lon="10.586322"><ele>819.29</ele><time>2024-05-15T13:56:47Z</time></trkpt>
<trkpt lat="47.692961" lon="10.586481"><ele>819.33</ele><time>2024-05-15T13:56:53Z</time></trkpt>
<trkpt lat="47.693257" lon="10.586857"><ele>819.27</ele><time>2024-05-15T13:56:59Z</time></trkpt>
<trkpt lat="47.69346" lon="10.587015"><ele>819.34</ele><time>2024-05-15T13:57:05Z</time></trkpt>
<trkpt lat="47.693907" lon="10.587241"><ele>818.0</ele><time>2024-05-15T13:57:10Z</time></trkpt>
<trkpt lat="47.694514" lon="10.58737"><ele>816.16</ele><time>2024-05-15T13:57:16Z</time></trkpt>
<trkpt lat="47.695338" lon="10.587427"><ele>812.78</ele><time>2024-05-15T13:57:22Z</time></trkpt>
<trkpt lat="47.695987" lon="10.587607"><ele>811.38</ele><time>2024-05-15T13:57:27Z</time></trkpt>
<trkpt lat="47.69613" lon="10.587676"><ele>811.63</ele><time>2024-05-15T13:57:33Z</time></trkpt>
<trkpt lat="47.696464" lon="10.587772"><ele>811.72</ele><time>2024-05-15T13:57:39Z</time></trkpt>
<trkpt lat="47.69659" lon="10.587869"><ele>811.28</ele><time>2024-05-15T13:57:44Z</time></trkpt>
<trkpt lat="47.696745" lon="10.588028"><ele>811.0</ele><time>2024-05-15T13:57:50Z</time></trkpt>
<trkpt lat="47.696817" lon="10.588328"><ele>811.53</ele><time>2024-05-15T13:57:56Z</time></trkpt>
<trkpt lat="47.696978" lon="10.588322"><ele>811.96</ele><time>2024-05-15T13:57:58Z</time></trkpt>
<trkpt lat="47.696978" lon="10.588322"><ele>811.96</ele><time>2024-05-15T13:57:58Z</time></trkpt>
<trkpt lat="47.697116" lon="10.588248"><ele>811.88</ele><time>2024-05-15T13:57:59Z</time></trkpt>
<trkpt lat="47.697469" lon="10.588"><ele>812.69</ele><time>2024-05-15T13:58:00Z</time></trkpt>
<trkpt lat="47.697505" lon="10.587955"><ele>812.64</ele><time>2024-05-15T13:58:02Z</time></trkpt>
<trkpt lat="47.697545" lon="10.587842"><ele>812.23</ele><time>2024-05-15T13:58:03Z</time></trkpt>
<trkpt lat="47.697554" lon="10.587726"><ele>811.85</ele><time>2024-05-15T13:58:05Z</time></trkpt>
<trkpt lat="47.697523" lon="10.587592"><ele>811.38</ele><time>2024-05-15T13:58:06Z</time></trkpt>
<trkpt lat="47.697521" lon="10.587423"><ele>811.05</ele><time>2024-05-15T13:58:07Z</time></trkpt>
<trkpt lat="47.698158" lon="10.586941"><ele>810.64</ele><time>2024-05-15T13:58:10Z</time></trkpt>
<trkpt lat="47.698217" lon="10.586847"><ele>810.57</ele><time>2024-05-15T13:58:13Z</time></trkpt>
<trkpt lat="47.69825" lon="10.586706"><ele>810.56</ele><time>2024-05-15T13:58:16Z</time></trkpt>
<trkpt lat="47.6982" lon="10.586025"><ele>810.81</ele><time>2024-05-15T13:58:18Z</time></trkpt>
<trkpt lat="47.698218" lon="10.585671"><ele>810.17</ele><time>2024-05-15T13:58:21Z</time></trkpt>
<trkpt lat="47.69832" lon="10.584864"><ele>810.49</ele><time>2024-05-15T13:58:24Z</time></trkpt>
<trkpt lat="47.698397" lon="10.584418"><ele>812.0</ele><time>2024-05-15T13:58:26Z</time></trkpt>
<trkpt lat="47.698523" lon="10.584086"><ele>812.2</ele><time>2024-05-15T13:58:29Z</time></trkpt>
<trkpt lat="47.698822" lon="10.583561"><ele>812.1</ele><time>2024-05-15T13:58:32Z</time></trkpt>
<trkpt lat="47.699185" lon="10.582595"><ele>814.17</ele><time>2024-05-15T13:58:35Z</time></trkpt>
<trkpt lat="47.699551" lon="10.581901"><ele>818.63</ele><time>2024-05-15T13:58:37Z</time></trkpt>
<trkpt lat="47.699753" lon="10.58142"><ele>820.12</ele><time>2024-05-15T13:58:40Z</time></trkpt>
<trkpt lat="47.700025" lon="10.580705"><ele>819.82</ele><time>2024-05-15T13:58:43Z</time></trkpt>
<trkpt lat="47.700124" lon="10.580332"><ele>824.64</ele><time>2024-05-15T13:58:46Z</time></trkpt>
<trkpt lat="47.700199" lon="10.579406"><ele>831.96</ele><time>2024-05-15T13:58:48Z</time></trkpt>
<trkpt lat="47.700257" lon="10.579076"><ele>833.3</ele><time>2024-05-15T13:58:51Z</time></trkpt>
<trkpt lat="47.700315" lon="10.578841"><ele>833.32</ele><time>2024-05-15T13:58:54Z</time></trkpt>
<trkpt lat="47.700373" lon="10.5787"><ele>833.35</ele><time>2024-05-15T13:58:57Z</time></trkpt>
<trkpt lat="47.700596" lon="10.578347"><ele>830.81</ele><time>2024-05-15T13:58:59Z</time></trkpt>
<trkpt lat="47.700734" lon="10.578058"><ele>828.09</ele><time>2024-05-15T13:59:02Z</time></trkpt>
<trkpt lat="47.70092" lon="10.577528"><ele>830.49</ele><time>2024-05-15T13:59:05Z</time></trkpt>
<trkpt lat="47.701044" lon="10.577108"><ele>832.46</ele><time>2024-05-15T13:59:07Z</time></trkpt>
<trkpt lat="47.701125" lon="10.576748"><ele>832.4</ele><time>2024-05-15T13:59:10Z</time></trkpt>
<trkpt lat="47.701193" lon="10.576173"><ele>831.15</ele><time>2024-05-15T13:59:13Z</time></trkpt>
<trkpt lat="47.701259" lon="10.575321"><ele>825.03</ele><time>2024-05-15T13:59:16Z</time></trkpt>
<trkpt lat="47.701314" lon="10.574854"><ele>827.77</ele><time>2024-05-15T13:59:18Z</time></trkpt>
<trkpt lat="47.701423" lon="10.574516"><ele>831.67</ele><time>2024-05-15T13:59:21Z</time></trkpt>
<trkpt lat="47.701476" lon="10.574421"><ele>832.21</ele><time>2024-05-15T13:59:24Z</time></trkpt>
<trkpt lat="47.701619" lon="10.574288"><ele>830.34</ele><time>2024-05-15T13:59:27Z</time></trkpt>
<trkpt lat="47.702978" lon="10.573391"><ele>819.48</ele><time>2024-05-15T13:59:29Z</time></trkpt>
<trkpt lat="47.704219" lon="10.572376"><ele>810.36</ele><time>2024-05-15T13:59:32Z</time></trkpt>
<trkpt lat="47.704394" lon="10.572148"><ele>810.49</ele><time>2024-05-15T13:59:35Z</time></trkpt>
<trkpt lat="47.704706" lon="10.57157"><ele>813.45</ele><time>2024-05-15T13:59:38Z</time></trkpt>
<trkpt lat="47.705216" lon="10.57069"><ele>817.14</ele><time>2024-05-15T13:59:40Z</time></trkpt>
<trkpt lat="47.705362" lon="10.570497"><ele>818.51</ele><time>2024-05-15T13:59:43Z</time></trkpt>
<trkpt lat="47.705496" lon="10.570383"><ele>819.41</ele><time>2024-05-15T13:59:46Z</time></trkpt>
<trkpt lat="47.705496" lon="10.570383"><ele>819.41</ele><time>2024-05-15T13:59:46Z</time></trkpt>
<trkpt lat="47.705299" lon="10.569603"><ele>822.28</ele><time>2024-05-15T13:59:54Z</time></trkpt>
<trkpt lat="47.705239" lon="10.569611"><ele>822.46</ele><time>2024-05-15T13:59:59Z</time></trkpt>
<trkpt lat="47.705185" lon="10.569578"><ele>822.69</ele><time>2024-05-15T14:00:04Z</time></trkpt>
<trkpt lat="47.705079" lon="10.569438"><ele>823.76</ele><time>2024-05-15T14:00:08Z</time></trkpt>
<trkpt lat="47.704934" lon="10.569324"><ele>825.01</ele><time>2024-05-15T14:00:13Z</time></trkpt>
<trkpt lat="47.704732" lon="10.56926"><ele>825.65</ele><time>2024-05-15T14:00:18Z</time></trkpt>
<trkpt lat="47.704608" lon="10.569258"><ele>826.36</ele><time>2024-05-15T14:00:22Z</time></trkpt>
<trkpt lat="47.704249" lon="10.569372"><ele>826.86</ele><time>2024-05-15T14:00:27Z</time></trkpt>
<trkpt lat="47.704066" lon="10.569483"><ele>826.86</ele><time>2024-05-15T14:00:32Z</time></trkpt>
<trkpt lat="47.703938" lon="10.569529"><ele>826.7</ele><time>2024-05-15T14:00:36Z</time></trkpt>
<trkpt lat="47.703234" lon="10.569622"><ele>825.13</ele><time>2024-05-15T14:00:41Z</time></trkpt>
<trkpt lat="47.702557" lon="10.569877"><ele>824.79</ele><time>2024-05-15T14:00:46Z</time></trkpt>
<trkpt lat="47.702302" lon="10.569932"><ele>826.78</ele><time>2024-05-15T14:00:50Z</time></trkpt>
<trkpt lat="47.702109" lon="10.569911"><ele>828.59</ele><time>2024-05-15T14:00:55Z</time></trkpt>
<trkpt lat="47.701488" lon="10.569712"><ele>831.79</ele><time>2024-05-15T14:01:00Z</time></trkpt>
<trkpt lat="47.701169" lon="10.569532"><ele>831.04</ele><time>2024-05-15T14:01:04Z</time></trkpt>
<trkpt lat="47.699892" lon="10.568305"><ele>832.49</ele><time>2024-05-15T14:01:09Z</time></trkpt>
<trkpt lat="47.69975" lon="10.5682"><ele>833.38</ele><time>2024-05-15T14:01:14Z</time></trkpt>
<trkpt lat="47.698943" lon="10.567976"><ele>837.67</ele><time>2024-05-15T14:01:18Z</time></trkpt>
<trkpt lat="47.698465" lon="10.567894"><ele>838.78</ele><time>2024-05-15T14:01:23Z</time></trkpt>
<trkpt lat="47.698417" lon="10.566262"><ele>834.86</ele><time>2024-05-15T14:01:27Z</time></trkpt>
<trkpt lat="47.698366" lon="10.56585"><ele>834.05</ele><time>2024-05-15T14:01:30Z</time></trkpt>
<trkpt lat="47.698262" lon="10.5653"><ele>833.49</ele><time>2024-05-15T14:01:34Z</time></trkpt>
<trkpt lat="47.698123" lon="10.564694"><ele>836.88</ele><time>2024-05-15T14:01:38Z</time></trkpt>
<trkpt lat="47.698047" lon="10.564488"><ele>837.76</ele><time>2024-05-15T14:01:41Z</time></trkpt>
<trkpt lat="47.697892" lon="10.564175"><ele>836.23</ele><time>2024-05-15T14:01:45Z</time></trkpt>
<trkpt lat="47.697658" lon="10.563763"><ele>835.42</ele><time>2024-05-15T14:01:49Z</time></trkpt>
<trkpt lat="47.697407" lon="10.563543"><ele>834.24</ele><time>2024-05-15T14:01:52Z</time></trkpt>
<trkpt lat="47.697255" lon="10.563329"><ele>836.01</ele><time>2024-05-15T14:01:56Z</time></trkpt>
<trkpt lat="47.697192" lon="10.563138"><ele>836.89</ele><time>2024-05-15T14:02:00Z</time></trkpt>
<trkpt lat="47.697149" lon="10.562718"><ele>837.53</ele><time>2024-05-15T14:02:03Z</time></trkpt>
<trkpt lat="47.697137" lon="10.562466"><ele>837.65</ele><time>2024-05-15T14:02:07Z</time></trkpt>
<trkpt lat="47.697178" lon="10.562196"><ele>837.55</ele><time>2024-05-15T14:02:11Z</time></trkpt>
<trkpt lat="47.697177" lon="10.561936"><ele>838.32</ele><time>2024-05-15T14:02:14Z</time></trkpt>
<trkpt lat="47.697133" lon="10.561778"><ele>838.64</ele><time>2024-05-15T14:02:18Z</time></trkpt>
<trkpt lat="47.697039" lon="10.561625"><ele>839.32</ele><time>2024-05-15T14:02:21Z</time></trkpt>
<trkpt lat="47.696523" lon="10.561125"><ele>844.06</ele><time>2024-05-15T14:02:25Z</time></trkpt>
<trkpt lat="47.696007" lon="10.560701"><ele>845.82</ele><time>2024-05-15T14:02:29Z</time></trkpt>
<trkpt lat="47.695869" lon="10.560567"><ele>845.16</ele><time>2024-05-15T14:02:32Z</time></trkpt>
<trkpt lat="47.695729" lon="10.560272"><ele>842.96</ele><time>2024-05-15T14:02:36Z</time></trkpt>
<trkpt lat="47.695675" lon="10.560106"><ele>841.85</ele><time>2024-05-15T14:02:40Z</time></trkpt>
<trkpt lat="47.695659" lon="10.559645"><ele>838.7</ele><time>2024-05-15T14:02:43Z</time></trkpt>
<trkpt lat="47.695573" lon="10.559333"><ele>837.45</ele><time>2024-05-15T14:02:47Z</time></trkpt>
<trkpt lat="47.695456" lon="10.558757"><ele>838.02</ele><time>2024-05-15T14:02:51Z</time></trkpt>
<trkpt lat="47.695339" lon="10.558396"><ele>839.72</ele><time>2024-05-15T14:02:54Z</time></trkpt>
<trkpt lat="47.695162" lon="10.558002"><ele>841.53</ele><time>2024-05-15T14:02:58Z</time></trkpt>
<trkpt lat="47.695048" lon="10.557576"><ele>843.32</ele><time>2024-05-15T14:03:02Z</time></trkpt>
<trkpt lat="47.694884" lon="10.557048"><ele>844.74</ele><time>2024-05-15T14:03:05Z</time></trkpt>
<trkpt lat="47.694715" lon="10.55632"><ele>840.97</ele><time>2024-05-15T14:03:09Z</time></trkpt>
<trkpt lat="47.694715" lon="10.55632"><ele>840.97</ele><time>2024-05-15T14:03:09Z</time></trkpt>
<trkpt lat="47.694743" lon="10.556178"><ele>841.09</ele><time>2024-05-15T14:03:13Z</time></trkpt>
<trkpt lat="47.694778" lon="10.556087"><ele>841.18</ele><time>2024-05-15T14:03:18Z</time></trkpt>
<trkpt lat="47.694905" lon="10.555916"><ele>841.19</ele><time>2024-05-15T14:03:22Z</time></trkpt>
<trkpt lat="47.694973" lon="10.555876"><ele>841.14</ele><time>2024-05-15T14:03:27Z</time></trkpt>
<trkpt lat="47.695126" lon="10.555729"><ele>841.11</ele><time>2024-05-15T14:03:31Z</time></trkpt>
<trkpt lat="47.69546" lon="10.555269"><ele>839.61</ele><time>2024-05-15T14:03:36Z</time></trkpt>
<trkpt lat="47.695739" lon="10.555019"><ele>839.82</ele><time>2024-05-15T14:03:40Z</time></trkpt>
<trkpt lat="47.696085" lon="10.554629"><ele>839.17</ele><time>2024-05-15T14:03:45Z</time></trkpt>
<trkpt lat="47.696333" lon="10.554488"><ele>841.63</ele><time>2024-05-15T14:03:49Z</time></trkpt>
<trkpt lat="47.696586" lon="10.5543"><ele>842.01</ele><time>2024-05-15T14:03:54Z</time></trkpt>
<trkpt lat="47.69673" lon="10.554246"><ele>842.01</ele><time>2024-05-15T14:03:58Z</time></trkpt>
<trkpt lat="47.697272" lon="10.55417"><ele>840.67</ele><time>2024-05-15T14:04:03Z</time></trkpt>
<trkpt lat="47.697581" lon="10.554091"><ele>838.65</ele><time>2024-05-15T14:04:07Z</time></trkpt>
<trkpt lat="47.697673" lon="10.554037"><ele>838.24</ele><time>2024-05-15T14:04:12Z</time></trkpt>
<trkpt lat="47.698483" lon="10.553595"><ele>837.48</ele><time>2024-05-15T14:04:16Z</time></trkpt>
<trkpt lat="47.699148" lon="10.553195"><ele>836.07</ele><time>2024-05-15T14:04:21Z</time></trkpt>
<trkpt lat="47.699297" lon="10.553106"><ele>834.81</ele><time>2024-05-15T14:04:25Z</time></trkpt>
<trkpt lat="47.69948" lon="10.552922"><ele>833.45</ele><time>2024-05-15T14:04:29Z</time></trkpt>
<trkpt lat="47.699704" lon="10.552447"><ele>832.01</ele><time>2024-05-15T14:04:34Z</time></trkpt>
<trkpt lat="47.700016" lon="10.551639"><ele>835.32</ele><time>2024-05-15T14:04:38Z</time></trkpt>
<trkpt lat="47.700198" lon="10.5511"><ele>842.16</ele><time>2024-05-15T14:04:43Z</time></trkpt>
<trkpt lat="47.700318" lon="10.550756"><ele>843.67</ele><time>2024-05-15T14:04:47Z</time></trkpt>
<trkpt lat="47.700412" lon="10.550594"><ele>844.9</ele><time>2024-05-15T14:04:52Z</time></trkpt>
<trkpt lat="47.700598" lon="10.550426"><ele>846.38</ele><time>2024-05-15T14:04:56Z</time></trkpt>
<trkpt lat="47.701139" lon="10.550147"><ele>851.47</ele><time>2024-05-15T14:05:01Z</time></trkpt>
<trkpt lat="47.701419" lon="10.549031"><ele>851.56</ele><time>2024-05-15T14:05:14Z</time></trkpt>
<trkpt lat="47.70152" lon="10.548491"><ele>850.74</ele><time>2024-05-15T14:05:28Z</time></trkpt>
<trkpt lat="47.701464" lon="10.548399"><ele>850.33</ele><time>2024-05-15T14:05:29Z</time></trkpt>
<trkpt lat="47.702091" lon="10.547009"><ele>858.46</ele><time>2024-05-15T14:05:34Z</time></trkpt>
<trkpt lat="47.702316" lon="10.546441"><ele>859.86</ele><time>2024-05-15T14:05:40Z</time></trkpt>
<trkpt lat="47.702542" lon="10.545678"><ele>857.74</ele><time>2024-05-15T14:05:45Z</time></trkpt>
<trkpt lat="47.702701" lon="10.545238"><ele>857.38</ele><time>2024-05-15T14:05:51Z</time></trkpt>
<trkpt lat="47.703007" lon="10.544871"><ele>854.97</ele><time>2024-05-15T14:05:57Z</time></trkpt>
<trkpt lat="47.703153" lon="10.544601"><ele>854.86</ele><time>2024-05-15T14:06:02Z</time></trkpt>
<trkpt lat="47.703249" lon="10.544372"><ele>856.34</ele><time>2024-05-15T14:06:08Z</time></trkpt>
<trkpt lat="47.703429" lon="10.5433"><ele>860.41</ele><time>2024-05-15T14:06:13Z</time></trkpt>
<trkpt lat="47.703598" lon="10.5426"><ele>862.48</ele><time>2024-05-15T14:06:19Z</time></trkpt>
<trkpt lat="47.703767" lon="10.542131"><ele>861.79</ele><time>2024-05-15T14:06:24Z</time></trkpt>
<trkpt lat="47.703982" lon="10.541725"><ele>861.28</ele><time>2024-05-15T14:06:30Z</time></trkpt>
<trkpt lat="47.704408" lon="10.541221"><ele>852.92</ele><time>2024-05-15T14:06:36Z</time></trkpt>
<trkpt lat="47.704576" lon="10.540954"><ele>847.41</ele><time>2024-05-15T14:06:41Z</time></trkpt>
<trkpt lat="47.704733" lon="10.540555"><ele>846.04</ele><time>2024-05-15T14:06:47Z</time></trkpt>
<trkpt lat="47.704909" lon="10.539917"><ele>847.09</ele><time>2024-05-15T14:06:52Z</time></trkpt>
<trkpt lat="47.705062" lon="10.53944"><ele>845.33</ele><time>2024-05-15T14:06:58Z</time></trkpt>
<trkpt lat="47.705316" lon="10.538803"><ele>842.32</ele><time>2024-05-15T14:07:03Z</time></trkpt>
<trkpt lat="47.705449" lon="10.53817"><ele>841.99</ele><time>2024-05-15T14:07:09Z</time></trkpt>
<trkpt lat="47.705605" lon="10.536752"><ele>839.97</ele><time>2024-05-15T14:07:14Z</time></trkpt>
<trkpt lat="47.70567" lon="10.536453"><ele>838.89</ele><time>2024-05-15T14:07:20Z</time></trkpt>
<trkpt lat="47.705802" lon="10.536145"><ele>837.34</ele><time>2024-05-15T14:07:26Z</time></trkpt>
<trkpt lat="47.706008" lon="10.535935"><ele>836.37</ele><time>2024-05-15T14:07:31Z</time></trkpt>
<trkpt lat="47.706193" lon="10.535826"><ele>835.7</ele><time>2024-05-15T14:07:37Z</time></trkpt>
<trkpt lat="47.706619" lon="10.535702"><ele>835.83</ele><time>2024-05-15T14:07:42Z</time></trkpt>
<trkpt lat="47.706936" lon="10.535461"><ele>836.96</ele><time>2024-05-15T14:07:48Z</time></trkpt>
<trkpt lat="47.707382" lon="10.534927"><ele>837.89</ele><time>2024-05-15T14:07:53Z</time></trkpt>
<trkpt lat="47.707614" lon="10.534823"><ele>838.3</ele><time>2024-05-15T14:07:59Z</time></trkpt>
<trkpt lat="47.707908" lon="10.534767"><ele>839.72</ele><time>2024-05-15T14:08:04Z</time></trkpt>
<trkpt lat="47.707869" lon="10.533741"><ele>826.89</ele><time>2024-05-15T14:08:06Z</time></trkpt>
<trkpt lat="47.707827" lon="10.533341"><ele>821.76</ele><time>2024-05-15T14:08:08Z</time></trkpt>
<trkpt lat="47.707749" lon="10.532974"><ele>816.23</ele><time>2024-05-15T14:08:10Z</time></trkpt>
<trkpt lat="47.707062" lon="10.530658"><ele>807.06</ele><time>2024-05-15T14:08:12Z</time></trkpt>
<trkpt lat="47.706933" lon="10.530148"><ele>799.15</ele><time>2024-05-15T14:08:14Z</time></trkpt>
<trkpt lat="47.70677" lon="10.529426"><ele>786.94</ele><time>2024-05-15T14:08:16Z</time></trkpt>
<trkpt lat="47.706707" lon="10.529017"><ele>784.28</ele><time>2024-05-15T14:08:18Z</time></trkpt>
<trkpt lat="47.706703" lon="10.528751"><ele>782.61</ele><time>2024-05-15T14:08:20Z</time></trkpt>
<trkpt lat="47.706736" lon="10.528492"><ele>781.6</ele><time>2024-05-15T14:08:22Z</time></trkpt>
<trkpt lat="47.706828" lon="10.528203"><ele>781.69</ele><time>2024-05-15T14:08:24Z</time></trkpt>
<trkpt lat="47.706948" lon="10.527962"><ele>782.31</ele><time>2024-05-15T14:08:26Z</time></trkpt>
<trkpt lat="47.707177" lon="10.527601"><ele>785.45</ele><time>2024-05-15T14:08:27Z</time></trkpt>
<trkpt lat="47.707399" lon="10.527394"><ele>787.68</ele><time>2024-05-15T14:08:29Z</time></trkpt>
<trkpt lat="47.707871" lon="10.527134"><ele>792.47</ele><time>2024-05-15T14:08:31Z</time></trkpt>
<trkpt lat="47.707969" lon="10.527062"><ele>794.45</ele><time>2024-05-15T14:08:33Z</time></trkpt>
<trkpt lat="47.708032" lon="10.526988"><ele>796.12</ele><time>2024-05-15T14:08:35Z</time></trkpt>
<trkpt lat="47.708095" lon="10.526882"><ele>798.63</ele><time>2024-05-15T14:08:37Z</time></trkpt>
<trkpt lat="47.708152" lon="10.526727"><ele>802.38</ele><time>2024-05-15T14:08:39Z</time></trkpt>
<trkpt lat="47.708188" lon="10.526552"><ele>805.82</ele><time>2024-05-15T14:08:41Z</time></trkpt>
<trkpt lat="47.708205" lon="10.526376"><ele>808.67</ele><time>2024-05-15T14:08:43Z</time></trkpt>
<trkpt lat="47.708205" lon="10.526376"><ele>808.67</ele><time>2024-05-15T14:08:43Z</time></trkpt>
<trkpt lat="47.708193" lon="10.526125"><ele>811.34</ele><time>2024-05-15T14:08:46Z</time></trkpt>
<trkpt lat="47.708152" lon="10.525861"><ele>812.25</ele><time>2024-05-15T14:08:50Z</time></trkpt>
<trkpt lat="47.708078" lon="10.525581"><ele>813.82</ele><time>2024-05-15T14:08:54Z</time></trkpt>
<trkpt lat="47.707706" lon="10.524499"><ele>826.57</ele><time>2024-05-15T14:08:57Z</time></trkpt>
<trkpt lat="47.707498" lon="10.523778"><ele>830.61</ele><time>2024-05-15T14:09:01Z</time></trkpt>
<trkpt lat="47.707408" lon="10.523343"><ele>829.69</ele><time>2024-05-15T14:09:04Z</time></trkpt>
<trkpt lat="47.707354" lon="10.522904"><ele>828.71</ele><time>2024-05-15T14:09:08Z</time></trkpt>
<trkpt lat="47.707377" lon="10.521928"><ele>828.0</ele><time>2024-05-15T14:09:12Z</time></trkpt>
<trkpt lat="47.707352" lon="10.521301"><ele>827.22</ele><time>2024-05-15T14:09:15Z</time></trkpt>
<trkpt lat="47.707319" lon="10.521007"><ele>826.28</ele><time>2024-05-15T14:09:19Z</time></trkpt>
<trkpt lat="47.707216" lon="10.520545"><ele>824.95</ele><time>2024-05-15T14:09:22Z</time></trkpt>
<trkpt lat="47.706989" lon="10.519837"><ele>823.19</ele><time>2024-05-15T14:09:26Z</time></trkpt>
<trkpt lat="47.706453" lon="10.518468"><ele>821.75</ele><time>2024-05-15T14:09:30Z</time></trkpt>
<trkpt lat="47.705947" lon="10.517296"><ele>817.84</ele><time>2024-05-15T14:09:33Z</time></trkpt>
<trkpt lat="47.705684" lon="10.516815"><ele>819.07</ele><time>2024-05-15T14:09:37Z</time></trkpt>
<trkpt lat="47.70536" lon="10.516343"><ele>819.66</ele><time>2024-05-15T14:09:40Z</time></trkpt>
<trkpt lat="47.704826" lon="10.515775"><ele>821.63</ele><time>2024-05-15T14:09:44Z</time></trkpt>
<trkpt lat="47.704265" lon="10.515317"><ele>821.09</ele><time>2024-05-15T14:09:48Z</time></trkpt>
<trkpt lat="47.704019" lon="10.515044"><ele>822.51</ele><time>2024-05-15T14:09:51Z</time></trkpt>
<trkpt lat="47.703844" lon="10.514774"><ele>823.32</ele><time>2024-05-15T14:09:55Z</time></trkpt>
<trkpt lat="47.703769" lon="10.514516"><ele>823.11</ele><time>2024-05-15T14:09:58Z</time></trkpt>
<trkpt lat="47.703727" lon="10.5141"><ele>820.76</ele><time>2024-05-15T14:10:02Z</time></trkpt>
<trkpt lat="47.703714" lon="10.513436"><ele>819.0</ele><time>2024-05-15T14:10:06Z</time></trkpt>
<trkpt lat="47.703737" lon="10.513336"><ele>819.0</ele><time>2024-05-15T14:10:09Z</time></trkpt>
<trkpt lat="47.703785" lon="10.513279"><ele>818.8</ele><time>2024-05-15T14:10:13Z</time></trkpt>
<trkpt lat="47.703912" lon="10.513212"><ele>818.56</ele><time>2024-05-15T14:10:16Z</time></trkpt>
<trkpt lat="47.705047" lon="10.512656"><ele>814.34</ele><time>2024-05-15T14:10:20Z</time></trkpt>
<trkpt lat="47.705193" lon="10.512486"><ele>811.85</ele><time>2024-05-15T14:10:24Z</time></trkpt>
<trkpt lat="47.705528" lon="10.511798"><ele>800.92</ele><time>2024-05-15T14:10:27Z</time></trkpt>
<trkpt lat="47.705725" lon="10.511538"><ele>797.5</ele><time>2024-05-15T14:10:31Z</time></trkpt>
<trkpt lat="47.706096" lon="10.511141"><ele>794.01</ele><time>2024-05-15T14:10:34Z</time></trkpt>
<trkpt lat="47.706246" lon="10.510916"><ele>794.47</ele><time>2024-05-15T14:10:38Z</time></trkpt>
<trkpt lat="47.706401" lon="10.510549"><ele>797.11</ele><time>2024-05-15T14:10:42Z</time></trkpt>
<trkpt lat="47.706672" lon="10.509628"><ele>806.34</ele><time>2024-05-15T14:10:45Z</time></trkpt>
<trkpt lat="47.706723" lon="10.509382"><ele>807.61</ele><time>2024-05-15T14:10:49Z</time></trkpt>
<trkpt lat="47.706709" lon="10.509235"><ele>808.54</ele><time>2024-05-15T14:10:52Z</time></trkpt>
<trkpt lat="47.706817" lon="10.509169"><ele>808.99</ele><time>2024-05-15T14:10:58Z</time></trkpt>
<trkpt lat="47.707001" lon="10.50912"><ele>808.96</ele><time>2024-05-15T14:11:04Z</time></trkpt>
<trkpt lat="47.707085" lon="10.509119"><ele>808.66</ele><time>2024-05-15T14:11:09Z</time></trkpt>
<trkpt lat="47.707277" lon="10.509225"><ele>807.94</ele><time>2024-05-15T14:11:15Z</time></trkpt>
<trkpt lat="47.707645" lon="10.509225"><ele>809.62</ele><time>2024-05-15T14:11:21Z</time></trkpt>
<trkpt lat="47.707962" lon="10.50832"><ele>816.02</ele><time>2024-05-15T14:11:48Z</time></trkpt>
<trkpt lat="47.708252" lon="10.50733"><ele>816.75</ele><time>2024-05-15T14:12:16Z</time></trkpt>
<trkpt lat="47.708997" lon="10.504618"><ele>820.36</ele><time>2024-05-15T14:12:43Z</time></trkpt>
<trkpt lat="47.70926" lon="10.503598"><ele>822.35</ele><time>2024-05-15T14:13:11Z</time></trkpt>
<trkpt lat="47.709349" lon="10.503187"><ele>822.03</ele><time>2024-05-15T14:13:39Z</time></trkpt>
<trkpt lat="47.709523" lon="10.502211"><ele>822.73</ele><time>2024-05-15T14:14:06Z</time></trkpt>
<trkpt lat="47.709634" lon="10.50176"><ele>822.33</ele><time>2024-05-15T14:14:34Z</time></trkpt>
<trkpt lat="47.709808" lon="10.501274"><ele>820.3</ele><time>2024-05-15T14:15:01Z</time></trkpt>
<trkpt lat="47.70997" lon="10.500949"><ele>819.89</ele><time>2024-05-15T14:15:29Z</time></trkpt>
<trkpt lat="47.71074" lon="10.499792"><ele>821.01</ele><time>2024-05-15T14:15:56Z</time></trkpt>
<trkpt lat="47.711021" lon="10.499242"><ele>819.83</ele><time>2024-05-15T14:16:24Z</time></trkpt>
<trkpt lat="47.711178" lon="10.498816"><ele>817.96</ele><time>2024-05-15T14:16:51Z</time></trkpt>
<trkpt lat="47.711272" lon="10.498487"><ele>818.1</ele><time>2024-05-15T14:17:19Z</time></trkpt>
<trkpt lat="47.71138" lon="10.498027"><ele>819.1</ele><time>2024-05-15T14:17:46Z</time></trkpt>
<trkpt lat="47.711446" lon="10.497517"><ele>820.92</ele><time>2024-05-15T14:18:14Z</time></trkpt>
<trkpt lat="47.711633" lon="10.49486"><ele>818.0</ele><time>2024-05-15T14:18:41Z</time></trkpt>
<trkpt lat="47.711699" lon="10.494402"><ele>816.77</ele><time>2024-05-15T14:19:09Z</time></trkpt>
<trkpt lat="47.712432" lon="10.491514"><ele>820.45</ele><time>2024-05-15T14:19:37Z</time></trkpt>
<trkpt lat="47.712485" lon="10.49122"><ele>821.66</ele><time>2024-05-15T14:20:04Z</time></trkpt>
<trkpt lat="47.712498" lon="10.490877"><ele>824.53</ele><time>2024-05-15T14:20:32Z</time></trkpt>
<trkpt lat="47.71226" lon="10.487704"><ele>820.37</ele><time>2024-05-15T14:20:59Z</time></trkpt>
<trkpt lat="47.712266" lon="10.4873"><ele>819.72</ele><time>2024-05-15T14:21:27Z</time></trkpt>
<trkpt lat="47.712352" lon="10.486759"><ele>822.14</ele><time>2024-05-15T14:21:54Z</time></trkpt>
<trkpt lat="47.712421" lon="10.486469"><ele>823.63</ele><time>2024-05-15T14:22:22Z</time></trkpt>
<trkpt lat="47.712657" lon="10.485856"><ele>823.88</ele><time>2024-05-15T14:22:49Z</time></trkpt>
<trkpt lat="47.712818" lon="10.485384"><ele>824.53</ele><time>2024-05-15T14:23:17Z</time></trkpt>
<trkpt lat="47.713009" lon="10.48474"><ele>824.34</ele><time>2024-05-15T14:23:44Z</time></trkpt>
<trkpt lat="47.713863" lon="10.4798"><ele>836.32</ele><time>2024-05-15T14:24:12Z</time></trkpt>
<trkpt lat="47.714006" lon="10.479123"><ele>833.9</ele><time>2024-05-15T14:24:39Z</time></trkpt>
<trkpt lat="47.714039" lon="10.478721"><ele>836.19</ele><time>2024-05-15T14:25:07Z</time></trkpt>
<trkpt lat="47.714015" lon="10.478424"><ele>839.36</ele><time>2024-05-15T14:25:35Z</time></trkpt>
<trkpt lat="47.713757" lon="10.476817"><ele>843.32</ele><time>2024-05-15T14:26:02Z</time></trkpt>
<trkpt lat="47.713768" lon="10.476622"><ele>842.49</ele><time>2024-05-15T14:26:30Z</time></trkpt>
<trkpt lat="47.713807" lon="10.476434"><ele>842.46</ele><time>2024-05-15T14:26:57Z</time></trkpt>
<trkpt lat="47.718128" lon="10.463799"><ele>874.34</ele><time>2024-05-15T14:27:25Z</time></trkpt>
<trkpt lat="47.719223" lon="10.460539"><ele>884.53</ele><time>2024-05-15T14:27:52Z</time></trkpt>
<trkpt lat="47.72209" lon="10.452384"><ele>892.77</ele><time>2024-05-15T14:28:20Z</time></trkpt>
<trkpt lat="47.722471" lon="10.449475"><ele>893.78</ele><time>2024-05-15T14:28:47Z</time></trkpt>
<trkpt lat="47.721608" lon="10.447422"><ele>910.79</ele><time>2024-05-15T14:29:15Z</time></trkpt>
<trkpt lat="47.721608" lon="10.447422"><ele>910.79</ele><time>2024-05-15T14:29:15Z</time></trkpt>
<trkpt lat="47.720121" lon="10.443883"><ele>927.79</ele><time>2024-05-15T14:29:22Z</time></trkpt>
<trkpt lat="47.719997" lon="10.443612"><ele>929.03</ele><time>2024-05-15T14:29:30Z</time></trkpt>
<trkpt lat="47.719588" lon="10.442611"><ele>937.74</ele><time>2024-05-15T14:29:37Z</time></trkpt>
<trkpt lat="47.719531" lon="10.442442"><ele>938.69</ele><time>2024-05-15T14:29:45Z</time></trkpt>
<trkpt lat="47.719535" lon="10.442267"><ele>938.42</ele><time>2024-05-15T14:29:52Z</time></trkpt>
<trkpt lat="47.719579" lon="10.442098"><ele>937.13</ele><time>2024-05-15T14:30:00Z</time></trkpt>
<trkpt lat="47.71975" lon="10.441788"><ele>932.95</ele><time>2024-05-15T14:30:07Z</time></trkpt>
<trkpt lat="47.720152" lon="10.441128"><ele>927.15</ele><time>2024-05-15T14:30:15Z</time></trkpt>
<trkpt lat="47.721295" lon="10.439351"><ele>932.87</ele><time>2024-05-15T14:30:23Z</time></trkpt>
<trkpt lat="47.722854" lon="10.436879"><ele>936.32</ele><time>2024-05-15T14:30:30Z</time></trkpt>
<trkpt lat="47.724206" lon="10.434812"><ele>924.86</ele><time>2024-05-15T14:30:38Z</time></trkpt>
<trkpt lat="47.724558" lon="10.434193"><ele>927.35</ele><time>2024-05-15T14:30:45Z</time></trkpt>
<trkpt lat="47.725076" lon="10.433372"><ele>925.46</ele><time>2024-05-15T14:30:53Z</time></trkpt>
<trkpt lat="47.725307" lon="10.432926"><ele>923.94</ele><time>2024-05-15T14:31:00Z</time></trkpt>
<trkpt lat="47.725363" lon="10.432611"><ele>924.41</ele><time>2024-05-15T14:31:08Z</time></trkpt>
<trkpt lat="47.725258" lon="10.430263"><ele>929.04</ele><time>2024-05-15T14:31:15Z</time></trkpt>
<trkpt lat="47.725088" lon="10.427045"><ele>920.53</ele><time>2024-05-15T14:31:23Z</time></trkpt>
<trkpt lat="47.724987" lon="10.424716"><ele>921.82</ele><time>2024-05-15T14:31:30Z</time></trkpt>
<trkpt lat="47.724757" lon="10.420456"><ele>897.76</ele><time>2024-05-15T14:31:38Z</time></trkpt>
<trkpt lat="47.724712" lon="10.419885"><ele>894.49</ele><time>2024-05-15T14:31:45Z</time></trkpt>
<trkpt lat="47.724702" lon="10.419524"><ele>893.91</ele><time>2024-05-15T14:31:53Z</time></trkpt>
<trkpt lat="47.724742" lon="10.419203"><ele>893.19</ele><time>2024-05-15T14:32:00Z</time></trkpt>
<trkpt lat="47.724866" lon="10.418704"><ele>894.99</ele><time>2024-05-15T14:32:08Z</time></trkpt>
<trkpt lat="47.725132" lon="10.417848"><ele>897.0</ele><time>2024-05-15T14:32:15Z</time></trkpt>
<trkpt lat="47.725355" lon="10.417039"><ele>894.14</ele><time>2024-05-15T14:32:23Z</time></trkpt>
<trkpt lat="47.725701" lon="10.415927"><ele>886.46</ele><time>2024-05-15T14:32:30Z</time></trkpt>
<trkpt lat="47.726291" lon="10.413842"><ele>869.77</ele><time>2024-05-15T14:32:38Z</time></trkpt>
<trkpt lat="47.726329" lon="10.413622"><ele>869.64</ele><time>2024-05-15T14:32:45Z</time></trkpt>
<trkpt lat="47.726348" lon="10.413355"><ele>870.23</ele><time>2024-05-15T14:32:53Z</time></trkpt>
<trkpt lat="47.726276" lon="10.412629"><ele>868.36</ele><time>2024-05-15T14:33:00Z</time></trkpt>
<trkpt lat="47.72627" lon="10.412287"><ele>867.71</ele><time>2024-05-15T14:33:08Z</time></trkpt>
<trkpt lat="47.726336" lon="10.410943"><ele>865.16</ele><time>2024-05-15T14:33:15Z</time></trkpt>
<trkpt lat="47.726287" lon="10.410486"><ele>863.5</ele><time>2024-05-15T14:33:23Z</time></trkpt>
<trkpt lat="47.726198" lon="10.41009"><ele>860.35</ele><time>2024-05-15T14:33:30Z</time></trkpt>
<trkpt lat="47.726191" lon="10.409959"><ele>859.13</ele><time>2024-05-15T14:33:38Z</time></trkpt>
<trkpt lat="47.726203" lon="10.409871"><ele>858.41</ele><time>2024-05-15T14:33:45Z</time></trkpt>
<trkpt lat="47.726408" lon="10.409175"><ele>852.89</ele><time>2024-05-15T14:33:53Z</time></trkpt>
<trkpt lat="47.726481" lon="10.408735"><ele>849.26</ele><time>2024-05-15T14:34:00Z</time></trkpt>
<trkpt lat="47.726506" lon="10.408587"><ele>848.59</ele><time>2024-05-15T14:34:08Z</time></trkpt>
<trkpt lat="47.726566" lon="10.408423"><ele>848.18</ele><time>2024-05-15T14:34:15Z</time></trkpt>
<trkpt lat="47.72692" lon="10.408087"><ele>846.17</ele><time>2024-05-15T14:34:23Z</time></trkpt>
<trkpt lat="47.727019" lon="10.407961"><ele>845.75</ele><time>2024-05-15T14:34:30Z</time></trkpt>
<trkpt lat="47.727104" lon="10.407784"><ele>845.58</ele><time>2024-05-15T14:34:38Z</time></trkpt>
<trkpt lat="47.727355" lon="10.406975"><ele>840.28</ele><time>2024-05-15T14:34:45Z</time></trkpt>
<trkpt lat="47.727436" lon="10.406777"><ele>838.66</ele><time>2024-05-15T14:34:53Z</time></trkpt>
<trkpt lat="47.727588" lon="10.40655"><ele>837.16</ele><time>2024-05-15T14:35:01Z</time></trkpt>
<trkpt lat="47.727888" lon="10.406203"><ele>835.2</ele><time>2024-05-15T14:35:08Z</time></trkpt>
<trkpt lat="47.728116" lon="10.405969"><ele>834.89</ele><time>2024-05-15T14:35:16Z</time></trkpt>
<trkpt lat="47.728844" lon="10.405291"><ele>833.7</ele><time>2024-05-15T14:35:23Z</time></trkpt>
<trkpt lat="47.729367" lon="10.404636"><ele>836.77</ele><time>2024-05-15T14:35:31Z</time></trkpt>
<trkpt lat="47.729723" lon="10.404145"><ele>837.15</ele><time>2024-05-15T14:35:38Z</time></trkpt>
<trkpt lat="47.729804" lon="10.404063"><ele>836.86</ele><time>2024-05-15T14:35:46Z</time></trkpt>
<trkpt lat="47.729887" lon="10.404018"><ele>836.29</ele><time>2024-05-15T14:35:53Z</time></trkpt>
<trkpt lat="47.7304" lon="10.403953"><ele>832.2</ele><time>2024-05-15T14:36:01Z</time></trkpt>
<trkpt lat="47.730722" lon="10.403886"><ele>832.6</ele><time>2024-05-15T14:36:08Z</time></trkpt>
<trkpt lat="47.73082" lon="10.403819"><ele>832.95</ele><time>2024-05-15T14:36:16Z</time></trkpt>
<trkpt lat="47.730895" lon="10.403733"><ele>833.0</ele><time>2024-05-15T14:36:23Z</time></trkpt>
<trkpt lat="47.730947" lon="10.403609"><ele>832.99</ele><time>2024-05-15T14:36:31Z</time></trkpt>
<trkpt lat="47.730979" lon="10.403432"><ele>832.35</ele><time>2024-05-15T14:36:38Z</time></trkpt>
<trkpt lat="47.730987" lon="10.40286"><ele>829.42</ele><time>2024-05-15T14:36:46Z</time></trkpt>
<trkpt lat="47.730937" lon="10.402092"><ele>821.02</ele><time>2024-05-15T14:36:53Z</time></trkpt>
<trkpt lat="47.730937" lon="10.401582"><ele>816.83</ele><time>2024-05-15T14:37:01Z</time></trkpt>
<trkpt lat="47.730953" lon="10.401336"><ele>814.62</ele><time>2024-05-15T14:37:08Z</time></trkpt>
<trkpt lat="47.730997" lon="10.401197"><ele>813.62</ele><time>2024-05-15T14:37:16Z</time></trkpt>
<trkpt lat="47.731318" lon="10.400576"><ele>808.89</ele><time>2024-05-15T14:37:23Z</time></trkpt>
<trkpt lat="47.731353" lon="10.400384"><ele>807.1</ele><time>2024-05-15T14:37:31Z</time></trkpt>
<trkpt lat="47.731371" lon="10.400143"><ele>804.54</ele><time>2024-05-15T14:37:38Z</time></trkpt>
<trkpt lat="47.731352" lon="10.399913"><ele>801.79</ele><time>2024-05-15T14:37:46Z</time></trkpt>
<trkpt lat="47.731256" lon="10.399233"><ele>796.72</ele><time>2024-05-15T14:37:53Z</time></trkpt>
<trkpt lat="47.731235" lon="10.398933"><ele>796.18</ele><time>2024-05-15T14:38:01Z</time></trkpt>
<trkpt lat="47.731194" lon="10.39754"><ele>793.86</ele><time>2024-05-15T14:38:08Z</time></trkpt>
<trkpt lat="47.731053" lon="10.396506"><ele>793.42</ele><time>2024-05-15T14:38:16Z</time></trkpt>
<trkpt lat="47.731064" lon="10.395841"><ele>792.33</ele><time>2024-05-15T14:38:23Z</time></trkpt>
<trkpt lat="47.731072" lon="10.395411"><ele>794.35</ele><time>2024-05-15T14:38:31Z</time></trkpt>
<trkpt lat="47.731052" lon="10.395213"><ele>795.05</ele><time>2024-05-15T14:38:38Z</time></trkpt>
<trkpt lat="47.730981" lon="10.394851"><ele>797.47</ele><time>2024-05-15T14:38:46Z</time></trkpt>
<trkpt lat="47.730772" lon="10.394112"><ele>798.91</ele><time>2024-05-15T14:38:53Z</time></trkpt>
<trkpt lat="47.730744" lon="10.39389"><ele>798.35</ele><time>2024-05-15T14:39:01Z</time></trkpt>
<trkpt lat="47.730749" lon="10.393622"><ele>798.1</ele><time>2024-05-15T14:39:08Z</time></trkpt>
<trkpt lat="47.730815" lon="10.393275"><ele>796.33</ele><time>2024-05-15T14:39:16Z</time></trkpt>
<trkpt lat="47.73089" lon="10.393035"><ele>795.59</ele><time>2024-05-15T14:39:24Z</time></trkpt>
<trkpt lat="47.731157" lon="10.392394"><ele>794.75</ele><time>2024-05-15T14:39:31Z</time></trkpt>
<trkpt lat="47.731266" lon="10.39209"><ele>792.05</ele><time>2024-05-15T14:39:39Z</time></trkpt>
<trkpt lat="47.731376" lon="10.391616"><ele>790.96</ele><time>2024-05-15T14:39:46Z</time></trkpt>
<trkpt lat="47.731419" lon="10.391303"><ele>790.54</ele><time>2024-05-15T14:39:54Z</time></trkpt>
<trkpt lat="47.73143" lon="10.390752"><ele>786.27</ele><time>2024-05-15T14:40:01Z</time></trkpt>
<trkpt lat="47.731459" lon="10.390389"><ele>783.55</ele><time>2024-05-15T14:40:09Z</time></trkpt>
<trkpt lat="47.731595" lon="10.389842"><ele>779.61</ele><time>2024-05-15T14:40:16Z</time></trkpt>
<trkpt lat="47.731759" lon="10.389337"><ele>775.71</ele><time>2024-05-15T14:40:24Z</time></trkpt>
<trkpt lat="47.732108" lon="10.388455"><ele>769.59</ele><time>2024-05-15T14:40:31Z</time></trkpt>
<trkpt lat="47.732583" lon="10.387565"><ele>765.4</ele><time>2024-05-15T14:40:39Z</time></trkpt>
<trkpt lat="47.733041" lon="10.386418"><ele>761.05</ele><time>2024-05-15T14:40:46Z</time></trkpt>
<trkpt lat="47.73321" lon="10.386047"><ele>758.09</ele><time>2024-05-15T14:40:54Z</time></trkpt>
<trkpt lat="47.733591" lon="10.38565"><ele>756.02</ele><time>2024-05-15T14:41:01Z</time></trkpt>
<trkpt lat="47.733671" lon="10.385547"><ele>755.3</ele><time>2024-05-15T14:41:09Z</time></trkpt>
<trkpt lat="47.73376" lon="10.38538"><ele>753.47</ele><time>2024-05-15T14:41:16Z</time></trkpt>
<trkpt lat="47.733846" lon="10.385025"><ele>750.35</ele><time>2024-05-15T14:41:24Z</time></trkpt>
<trkpt lat="47.734011" lon="10.383839"><ele>743.64</ele><time>2024-05-15T14:41:31Z</time></trkpt>
<trkpt lat="47.734055" lon="10.383633"><ele>742.15</ele><time>2024-05-15T14:41:39Z</time></trkpt>
<trkpt lat="47.734486" lon="10.382174"><ele>734.76</ele><time>2024-05-15T14:41:46Z</time></trkpt>
<trkpt lat="47.734689" lon="10.381607"><ele>730.47</ele><time>2024-05-15T14:41:54Z</time></trkpt>
<trkpt lat="47.734772" lon="10.381414"><ele>729.36</ele><time>2024-05-15T14:42:01Z</time></trkpt>
<trkpt lat="47.7352" lon="10.380687"><ele>729.19</ele><time>2024-05-15T14:42:09Z</time></trkpt>
<trkpt lat="47.735455" lon="10.380041"><ele>728.05</ele><time>2024-05-15T14:42:16Z</time></trkpt>
<trkpt lat="47.735364" lon="10.379748"><ele>728.0</ele><time>2024-05-15T14:42:20Z</time></trkpt>
<trkpt lat="47.735335" lon="10.379558"><ele>728.0</ele><time>2024-05-15T14:42:24Z</time></trkpt>
<trkpt lat="47.734959" lon="10.380665"><ele>728.34</ele><time>2024-05-15T14:42:37Z</time></trkpt>
<trkpt lat="47.73482" lon="10.380927"><ele>728.35</ele><time>2024-05-15T14:42:49Z</time></trkpt>
<trkpt lat="47.73473" lon="10.380921"><ele>728.03</ele><time>2024-05-15T14:42:54Z</time></trkpt>
<trkpt lat="47.73467" lon="10.380854"><ele>728.19</ele><time>2024-05-15T14:42:59Z</time></trkpt>
<trkpt lat="47.734471" lon="10.3805"><ele>728.0</ele><time>2024-05-15T14:43:04Z</time></trkpt>
<trkpt lat="47.734398" lon="10.380405"><ele>728.5</ele><time>2024-05-15T14:43:10Z</time></trkpt>
<trkpt lat="47.734042" lon="10.380072"><ele>733.09</ele><time>2024-05-15T14:43:15Z</time></trkpt>
<trkpt lat="47.733832" lon="10.379764"><ele>734.29</ele><time>2024-05-15T14:43:20Z</time></trkpt>
<trkpt lat="47.733736" lon="10.379716"><ele>734.56</ele><time>2024-05-15T14:43:25Z</time></trkpt>
<trkpt lat="47.733615" lon="10.3797"><ele>735.06</ele><time>2024-05-15T14:43:31Z</time></trkpt>
<trkpt lat="47.73344" lon="10.379715"><ele>735.04</ele><time>2024-05-15T14:43:36Z</time></trkpt>
<trkpt lat="47.73312" lon="10.379858"><ele>738.33</ele><time>2024-05-15T14:43:41Z</time></trkpt>
<trkpt lat="47.732649" lon="10.380146"><ele>745.68</ele><time>2024-05-15T14:43:46Z</time></trkpt>
<trkpt lat="47.732504" lon="10.380186"><ele>746.31</ele><time>2024-05-15T14:43:52Z</time></trkpt>
<trkpt lat="47.732063" lon="10.380176"><ele>745.73</ele><time>2024-05-15T14:43:57Z</time></trkpt>
<trkpt lat="47.731522" lon="10.380215"><ele>747.51</ele><time>2024-05-15T14:44:02Z</time></trkpt>
<trkpt lat="47.731061" lon="10.380207"><ele>745.95</ele><time>2024-05-15T14:44:07Z</time></trkpt>
<trkpt lat="47.7307" lon="10.380142"><ele>746.24</ele><time>2024-05-15T14:44:13Z</time></trkpt>
<trkpt lat="47.730416" lon="10.380161"><ele>748.66</ele><time>2024-05-15T14:44:18Z</time></trkpt>
<trkpt lat="47.729412" lon="10.380335"><ele>754.18</ele><time>2024-05-15T14:44:23Z</time></trkpt>
<trkpt lat="47.728897" lon="10.380291"><ele>754.05</ele><time>2024-05-15T14:44:28Z</time></trkpt>
<trkpt lat="47.727786" lon="10.380445"><ele>758.37</ele><time>2024-05-15T14:44:34Z</time></trkpt>
<trkpt lat="47.727114" lon="10.380603"><ele>760.6</ele><time>2024-05-15T14:44:39Z</time></trkpt>
<trkpt lat="47.726255" lon="10.381014"><ele>761.7</ele><time>2024-05-15T14:44:44Z</time></trkpt>
<trkpt lat="47.726007" lon="10.381055"><ele>762.08</ele><time>2024-05-15T14:44:49Z</time></trkpt>
<trkpt lat="47.725815" lon="10.380891"><ele>763.8</ele><time>2024-05-15T14:44:56Z</time></trkpt>
<trkpt lat="47.724148" lon="10.380049"><ele>756.31</ele><time>2024-05-15T14:45:02Z</time></trkpt>
<trkpt lat="47.723419" lon="10.37935"><ele>760.1</ele><time>2024-05-15T14:45:09Z</time></trkpt>
<trkpt lat="47.723093" lon="10.379145"><ele>752.51</ele><time>2024-05-15T14:45:16Z</time></trkpt>
<trkpt lat="47.722547" lon="10.378969"><ele>753.54</ele><time>2024-05-15T14:45:22Z</time></trkpt>
<trkpt lat="47.722382" lon="10.378936"><ele>755.51</ele><time>2024-05-15T14:45:29Z</time></trkpt>
<trkpt lat="47.722221" lon="10.378955"><ele>758.44</ele><time>2024-05-15T14:45:35Z</time></trkpt>
<trkpt lat="47.722088" lon="10.379005"><ele>761.23</ele><time>2024-05-15T14:45:42Z</time></trkpt>
<trkpt lat="47.721808" lon="10.379159"><ele>765.89</ele><time>2024-05-15T14:45:49Z</time></trkpt>
<trkpt lat="47.721586" lon="10.379242"><ele>766.95</ele><time>2024-05-15T14:45:55Z</time></trkpt>
<trkpt lat="47.71983" lon="10.379742"><ele>775.22</ele><time>2024-05-15T14:46:02Z</time></trkpt>
<trkpt lat="47.719561" lon="10.379857"><ele>775.12</ele><time>2024-05-15T14:46:09Z</time></trkpt>
<trkpt lat="47.719168" lon="10.380073"><ele>773.28</ele><time>2024-05-15T14:46:15Z</time></trkpt>
<trkpt lat="47.718922" lon="10.380241"><ele>773.63</ele><time>2024-05-15T14:46:22Z</time></trkpt>
<trkpt lat="47.718723" lon="10.38047"><ele>776.07</ele><time>2024-05-15T14:46:28Z</time></trkpt>
<trkpt lat="47.71838" lon="10.380772"><ele>776.11</ele><time>2024-05-15T14:46:35Z</time></trkpt>
<trkpt lat="47.71692" lon="10.381623"><ele>788.97</ele><time>2024-05-15T14:46:42Z</time></trkpt>
<trkpt lat="47.716863" lon="10.381508"><ele>788.66</ele><time>2024-05-15T14:46:43Z</time></trkpt>
<trkpt lat="47.716788" lon="10.381253"><ele>787.87</ele><time>2024-05-15T14:46:45Z</time></trkpt>
<trkpt lat="47.716072" lon="10.380385"><ele>781.89</ele><time>2024-05-15T14:46:47Z</time></trkpt>
<trkpt lat="47.715884" lon="10.380085"><ele>783.32</ele><time>2024-05-15T14:46:49Z</time></trkpt>
<trkpt lat="47.715768" lon="10.379813"><ele>784.26</ele><time>2024-05-15T14:46:51Z</time></trkpt>
<trkpt lat="47.715642" lon="10.379421"><ele>785.03</ele><time>2024-05-15T14:46:52Z</time></trkpt>
<trkpt lat="47.715541" lon="10.378929"><ele>784.91</ele><time>2024-05-15T14:46:54Z</time></trkpt>
<trkpt lat="47.715502" lon="10.378632"><ele>782.77</ele><time>2024-05-15T14:46:56Z</time></trkpt>
<trkpt lat="47.715493" lon="10.378134"><ele>779.66</ele><time>2024-05-15T14:46:58Z</time></trkpt>
<trkpt lat="47.715514" lon="10.377814"><ele>777.26</ele><time>2024-05-15T14:47:00Z</time></trkpt>
<trkpt lat="47.715656" lon="10.377129"><ele>771.21</ele><time>2024-05-15T14:47:02Z</time></trkpt>
<trkpt lat="47.715996" lon="10.376169"><ele>762.12</ele><time>2024-05-15T14:47:03Z</time></trkpt>
<trkpt lat="47.716503" lon="10.374919"><ele>758.76</ele><time>2024-05-15T14:47:05Z</time></trkpt>
<trkpt lat="47.716679" lon="10.374569"><ele>758.59</ele><time>2024-05-15T14:47:07Z</time></trkpt>
<trkpt lat="47.716802" lon="10.374366"><ele>761.34</ele><time>2024-05-15T14:47:09Z</time></trkpt>
<trkpt lat="47.717095" lon="10.37399"><ele>767.39</ele><time>2024-05-15T14:47:11Z</time></trkpt>
<trkpt lat="47.717328" lon="10.37378"><ele>766.67</ele><time>2024-05-15T14:47:13Z</time></trkpt>
<trkpt lat="47.717508" lon="10.373587"><ele>766.21</ele><time>2024-05-15T14:47:14Z</time></trkpt>
<trkpt lat="47.717677" lon="10.373337"><ele>767.06</ele><time>2024-05-15T14:47:16Z</time></trkpt>
<trkpt lat="47.717844" lon="10.372937"><ele>766.15</ele><time>2024-05-15T14:47:18Z</time></trkpt>
<trkpt lat="47.718136" lon="10.371879"><ele>765.99</ele><time>2024-05-15T14:47:20Z</time></trkpt>
<trkpt lat="47.718243" lon="10.371319"><ele>764.0</ele><time>2024-05-15T14:47:22Z</time></trkpt>
<trkpt lat="47.718298" lon="10.370942"><ele>763.47</ele><time>2024-05-15T14:47:23Z</time></trkpt>
<trkpt lat="47.718334" lon="10.37043"><ele>762.54</ele><time>2024-05-15T14:47:25Z</time></trkpt>
<trkpt lat="47.718319" lon="10.370152"><ele>761.63</ele><time>2024-05-15T14:47:27Z</time></trkpt>
<trkpt lat="47.718265" lon="10.369833"><ele>760.19</ele><time>2024-05-15T14:47:29Z</time></trkpt>
<trkpt lat="47.718193" lon="10.369521"><ele>759.29</ele><time>2024-05-15T14:47:31Z</time></trkpt>
<trkpt lat="47.717865" lon="10.369606"><ele>761.67</ele><time>2024-05-15T14:47:35Z</time></trkpt>
<trkpt lat="47.717616" lon="10.369572"><ele>762.82</ele><time>2024-05-15T14:47:40Z</time></trkpt>
<trkpt lat="47.71717" lon="10.369363"><ele>764.6</ele><time>2024-05-15T14:47:44Z</time></trkpt>
<trkpt lat="47.716717" lon="10.369102"><ele>763.54</ele><time>2024-05-15T14:47:48Z</time></trkpt>
<trkpt lat="47.716426" lon="10.368907"><ele>763.06</ele><time>2024-05-15T14:47:53Z</time></trkpt>
<trkpt lat="47.716244" lon="10.368709"><ele>763.91</ele><time>2024-05-15T14:47:57Z</time></trkpt>
<trkpt lat="47.71608" lon="10.368466"><ele>764.81</ele><time>2024-05-15T14:48:01Z</time></trkpt>
<trkpt lat="47.71591" lon="10.368113"><ele>767.11</ele><time>2024-05-15T14:48:06Z</time></trkpt>
<trkpt lat="47.715837" lon="10.368021"><ele>767.83</ele><time>2024-05-15T14:48:10Z</time></trkpt>
<trkpt lat="47.715766" lon="10.367971"><ele>767.77</ele><time>2024-05-15T14:48:15Z</time></trkpt>
<trkpt lat="47.7156" lon="10.3679"><ele>767.91</ele><time>2024-05-15T14:48:19Z</time></trkpt>
<trkpt lat="47.715215" lon="10.367843"><ele>768.17</ele><time>2024-05-15T14:48:23Z</time></trkpt>
<trkpt lat="47.714942" lon="10.367752"><ele>768.6</ele><time>2024-05-15T14:48:28Z</time></trkpt>
<trkpt lat="47.714565" lon="10.367506"><ele>767.41</ele><time>2024-05-15T14:48:32Z</time></trkpt>
<trkpt lat="47.714215" lon="10.367326"><ele>767.62</ele><time>2024-05-15T14:48:36Z</time></trkpt>
<trkpt lat="47.71376" lon="10.367116"><ele>770.74</ele><time>2024-05-15T14:48:41Z</time></trkpt>
<trkpt lat="47.71329" lon="10.366829"><ele>767.28</ele><time>2024-05-15T14:48:45Z</time></trkpt>
<trkpt lat="47.712547" lon="10.366335"><ele>765.14</ele><time>2024-05-15T14:48:50Z</time></trkpt>
<trkpt lat="47.712193" lon="10.36614"><ele>765.21</ele><time>2024-05-15T14:48:54Z</time></trkpt>
<trkpt lat="47.711874" lon="10.366022"><ele>765.18</ele><time>2024-05-15T14:48:58Z</time></trkpt>
<trkpt lat="47.710992" lon="10.365853"><ele>768.14</ele><time>2024-05-15T14:49:03Z</time></trkpt>
<trkpt lat="47.710178" lon="10.365497"><ele>764.92</ele><time>2024-05-15T14:49:07Z</time></trkpt>
<trkpt lat="47.709936" lon="10.36543"><ele>763.98</ele><time>2024-05-15T14:49:11Z</time></trkpt>
<trkpt lat="47.709683" lon="10.365428"><ele>761.88</ele><time>2024-05-15T14:49:16Z</time></trkpt>
<trkpt lat="47.70909" lon="10.365552"><ele>760.69</ele><time>2024-05-15T14:49:20Z</time></trkpt>
<trkpt lat="47.708685" lon="10.365491"><ele>758.64</ele><time>2024-05-15T14:49:25Z</time></trkpt>
<trkpt lat="47.708798" lon="10.36504"><ele>759.0</ele><time>2024-05-15T14:49:27Z</time></trkpt>
<trkpt lat="47.708993" lon="10.364119"><ele>756.04</ele><time>2024-05-15T14:49:30Z</time></trkpt>
<trkpt lat="47.709036" lon="10.363857"><ele>755.94</ele><time>2024-05-15T14:49:31Z</time></trkpt>
<trkpt lat="47.708881" lon="10.363893"><ele>757.02</ele><time>2024-05-15T14:49:33Z</time></trkpt>
<trkpt lat="47.708459" lon="10.364194"><ele>757.65</ele><time>2024-05-15T14:49:35Z</time></trkpt>
<trkpt lat="47.708377" lon="10.364275"><ele>758.23</ele><time>2024-05-15T14:49:37Z</time></trkpt>
<trkpt lat="47.708204" lon="10.364538"><ele>759.77</ele><time>2024-05-15T14:49:39Z</time></trkpt>
<trkpt lat="47.708125" lon="10.364612"><ele>760.05</ele><time>2024-05-15T14:49:41Z</time></trkpt>
<trkpt lat="47.70725" lon="10.365219"><ele>764.99</ele><time>2024-05-15T14:49:43Z</time></trkpt>
<trkpt lat="47.7069" lon="10.365402"><ele>765.31</ele><time>2024-05-15T14:49:45Z</time></trkpt>
<trkpt lat="47.706535" lon="10.365537"><ele>763.93</ele><time>2024-05-15T14:49:47Z</time></trkpt>
<trkpt lat="47.705897" lon="10.365911"><ele>765.57</ele><time>2024-05-15T14:49:49Z</time></trkpt>
<trkpt lat="47.705522" lon="10.366089"><ele>764.96</ele><time>2024-05-15T14:49:51Z</time></trkpt>
<trkpt lat="47.705051" lon="10.366219"><ele>768.91</ele><time>2024-05-15T14:49:53Z</time></trkpt>
<trkpt lat="47.703951" lon="10.366385"><ele>769.55</ele><time>2024-05-15T14:49:55Z</time></trkpt>
<trkpt lat="47.70342" lon="10.366431"><ele>774.79</ele><time>2024-05-15T14:49:57Z</time></trkpt>
<trkpt lat="47.703222" lon="10.366421"><ele>775.16</ele><time>2024-05-15T14:49:59Z</time></trkpt>
<trkpt lat="47.703094" lon="10.366374"><ele>774.94</ele><time>2024-05-15T14:50:01Z</time></trkpt>
<trkpt lat="47.702534" lon="10.366098"><ele>778.84</ele><time>2024-05-15T14:50:03Z</time></trkpt>
<trkpt lat="47.702349" lon="10.366073"><ele>778.95</ele><time>2024-05-15T14:50:05Z</time></trkpt>
<trkpt lat="47.702223" lon="10.366081"><ele>778.54</ele><time>2024-05-15T14:50:07Z</time></trkpt>
<trkpt lat="47.701309" lon="10.36621"><ele>784.32</ele><time>2024-05-15T14:50:09Z</time></trkpt>
<trkpt lat="47.701209" lon="10.366209"><ele>784.82</ele><time>2024-05-15T14:50:11Z</time></trkpt>
<trkpt lat="47.700866" lon="10.366131"><ele>786.8</ele><time>2024-05-15T14:50:13Z</time></trkpt>
<trkpt lat="47.700698" lon="10.36605"><ele>788.15</ele><time>2024-05-15T14:50:15Z</time></trkpt>
<trkpt lat="47.699627" lon="10.365835"><ele>785.65</ele><time>2024-05-15T14:50:18Z</time></trkpt>
<trkpt lat="47.699053" lon="10.365776"><ele>784.88</ele><time>2024-05-15T14:50:21Z</time></trkpt>
<trkpt lat="47.697612" lon="10.365708"><ele>783.15</ele><time>2024-05-15T14:50:24Z</time></trkpt>
<trkpt lat="47.695798" lon="10.365685"><ele>789.59</ele><time>2024-05-15T14:50:28Z</time></trkpt>
<trkpt lat="47.695685" lon="10.365624"><ele>789.88</ele><time>2024-05-15T14:50:31Z</time></trkpt>
<trkpt lat="47.695611" lon="10.365517"><ele>790.0</ele><time>2024-05-15T14:50:34Z</time></trkpt>
<trkpt lat="47.695407" lon="10.364792"><ele>790.21</ele><time>2024-05-15T14:50:37Z</time></trkpt>
<trkpt lat="47.695338" lon="10.364681"><ele>790.24</ele><time>2024-05-15T14:50:40Z</time></trkpt>
<trkpt lat="47.69525" lon="10.364648"><ele>789.8</ele><time>2024-05-15T14:50:43Z</time></trkpt>
<trkpt lat="47.695146" lon="10.364671"><ele>789.05</ele><time>2024-05-15T14:50:46Z</time></trkpt>
<trkpt lat="47.694506" lon="10.362555"><ele>790.89</ele><time>2024-05-15T14:50:49Z</time></trkpt>
<trkpt lat="47.694443" lon="10.362233"><ele>791.01</ele><time>2024-05-15T14:50:53Z</time></trkpt>
<trkpt lat="47.694447" lon="10.362174"><ele>791.0</ele><time>2024-05-15T14:50:56Z</time></trkpt>
<trkpt lat="47.694599" lon="10.361794"><ele>790.76</ele><time>2024-05-15T14:51:00Z</time></trkpt>
<trkpt lat="47.694712" lon="10.361638"><ele>790.87</ele><time>2024-05-15T14:51:03Z</time></trkpt>
<trkpt lat="47.694916" lon="10.361436"><ele>790.29</ele><time>2024-05-15T14:51:07Z</time></trkpt>
<trkpt lat="47.695457" lon="10.361085"><ele>789.81</ele><time>2024-05-15T14:51:10Z</time></trkpt>
<trkpt lat="47.695566" lon="10.360891"><ele>790.32</ele><time>2024-05-15T14:51:14Z</time></trkpt>
<trkpt lat="47.695605" lon="10.36076"><ele>790.27</ele><time>2024-05-15T14:51:17Z</time></trkpt>
<trkpt lat="47.695699" lon="10.360038"><ele>790.03</ele><time>2024-05-15T14:51:21Z</time></trkpt>
<trkpt lat="47.695709" lon="10.359769"><ele>790.85</ele><time>2024-05-15T14:51:24Z</time></trkpt>
<trkpt lat="47.695757" lon="10.359509"><ele>791.56</ele><time>2024-05-15T14:51:28Z</time></trkpt>
<trkpt lat="47.695854" lon="10.359336"><ele>791.19</ele><time>2024-05-15T14:51:31Z</time></trkpt>
<trkpt lat="47.69597" lon="10.359255"><ele>790.3</ele><time>2024-05-15T14:51:35Z</time></trkpt>
<trkpt lat="47.696188" lon="10.35918"><ele>789.15</ele><time>2024-05-15T14:51:38Z</time></trkpt>
<trkpt lat="47.696261" lon="10.359132"><ele>788.45</ele><time>2024-05-15T14:51:42Z</time></trkpt>
<trkpt lat="47.696324" lon="10.359056"><ele>787.32</ele><time>2024-05-15T14:51:45Z</time></trkpt>
<trkpt lat="47.696429" lon="10.358791"><ele>783.44</ele><time>2024-05-15T14:51:49Z</time></trkpt>
<trkpt lat="47.696491" lon="10.35844"><ele>779.22</ele><time>2024-05-15T14:51:52Z</time></trkpt>
<trkpt lat="47.696514" lon="10.357969"><ele>774.71</ele><time>2024-05-15T14:51:56Z</time></trkpt>
<trkpt lat="47.696573" lon="10.357425"><ele>772.47</ele><time>2024-05-15T14:51:59Z</time></trkpt>
<trkpt lat="47.696674" lon="10.35698"><ele>771.26</ele><time>2024-05-15T14:52:03Z</time></trkpt>
<trkpt lat="47.696948" lon="10.356258"><ele>766.59</ele><time>2024-05-15T14:52:06Z</time></trkpt>
<trkpt lat="47.696988" lon="10.356098"><ele>766.57</ele><time>2024-05-15T14:52:10Z</time></trkpt>
<trkpt lat="47.697009" lon="10.355929"><ele>766.12</ele><time>2024-05-15T14:52:13Z</time></trkpt>
<trkpt lat="47.697003" lon="10.355722"><ele>765.55</ele><time>2024-05-15T14:52:17Z</time></trkpt>
<trkpt lat="47.696895" lon="10.355122"><ele>759.53</ele><time>2024-05-15T14:52:20Z</time></trkpt>
<trkpt lat="47.696919" lon="10.354694"><ele>755.54</ele><time>2024-05-15T14:52:24Z</time></trkpt>
<trkpt lat="47.697123" lon="10.351361"><ele>730.51</ele><time>2024-05-15T14:52:27Z</time></trkpt>
<trkpt lat="47.697342" lon="10.348453"><ele>717.68</ele><time>2024-05-15T14:52:31Z</time></trkpt>
<trkpt lat="47.697221" lon="10.348633"><ele>718.0</ele><time>2024-05-15T14:52:36Z</time></trkpt>
<trkpt lat="47.697133" lon="10.348834"><ele>718.0</ele><time>2024-05-15T14:52:41Z</time></trkpt>
<trkpt lat="47.696925" lon="10.349465"><ele>718.0</ele><time>2024-05-15T14:52:46Z</time></trkpt>
<trkpt lat="47.69658" lon="10.35"><ele>718.0</ele><time>2024-05-15T14:52:51Z</time></trkpt>
<trkpt lat="47.696271" lon="10.349652"><ele>717.75</ele><time>2024-05-15T14:52:55Z</time></trkpt>
<trkpt lat="47.696182" lon="10.349589"><ele>717.52</ele><time>2024-05-15T14:52:59Z</time></trkpt>
<trkpt lat="47.695951" lon="10.349576"><ele>718.35</ele><time>2024-05-15T14:53:03Z</time></trkpt>
<trkpt lat="47.695623" lon="10.349359"><ele>719.45</ele><time>2024-05-15T14:53:08Z</time></trkpt>
<trkpt lat="47.695341" lon="10.349282"><ele>720.19</ele><time>2024-05-15T14:53:12Z</time></trkpt>
<trkpt lat="47.695033" lon="10.349282"><ele>720.93</ele><time>2024-05-15T14:53:16Z</time></trkpt>
<trkpt lat="47.694964" lon="10.349264"><ele>720.91</ele><time>2024-05-15T14:53:20Z</time></trkpt>
<trkpt lat="47.694895" lon="10.349206"><ele>720.67</ele><time>2024-05-15T14:53:24Z</time></trkpt>
<trkpt lat="47.694906" lon="10.349081"><ele>720.46</ele><time>2024-05-15T14:53:26Z</time></trkpt>
<trkpt lat="47.694894" lon="10.348955"><ele>720.15</ele><time>2024-05-15T14:53:27Z</time></trkpt>
<trkpt lat="47.694617" lon="10.349167"><ele>720.38</ele><time>2024-05-15T14:53:30Z</time></trkpt>
<trkpt lat="47.694435" lon="10.34928"><ele>721.84</ele><time>2024-05-15T14:53:33Z</time></trkpt>
<trkpt lat="47.694123" lon="10.349387"><ele>723.9</ele><time>2024-05-15T14:53:36Z</time></trkpt>
<trkpt lat="47.693721" lon="10.349449"><ele>725.44</ele><time>2024-05-15T14:53:39Z</time></trkpt>
<trkpt lat="47.693478" lon="10.349524"><ele>725.72</ele><time>2024-05-15T14:53:43Z</time></trkpt>
<trkpt lat="47.693259" lon="10.34963"><ele>726.87</ele><time>2024-05-15T14:53:46Z</time></trkpt>
<trkpt lat="47.693022" lon="10.349782"><ele>729.55</ele><time>2024-05-15T14:53:49Z</time></trkpt>
<trkpt lat="47.69267" lon="10.350082"><ele>732.43</ele><time>2024-05-15T14:53:52Z</time></trkpt>
<trkpt lat="47.692421" lon="10.350185"><ele>733.76</ele><time>2024-05-15T14:53:55Z</time></trkpt>
<trkpt lat="47.692135" lon="10.350201"><ele>734.48</ele><time>2024-05-15T14:53:59Z</time></trkpt>
<trkpt lat="47.691963" lon="10.350204"><ele>735.14</ele><time>2024-05-15T14:54:02Z</time></trkpt>
<trkpt lat="47.691753" lon="10.350265"><ele>736.58</ele><time>2024-05-15T14:54:05Z</time></trkpt>
<trkpt lat="47.691615" lon="10.350364"><ele>737.81</ele><time>2024-05-15T14:54:08Z</time></trkpt>
<trkpt lat="47.691328" lon="10.350694"><ele>739.06</ele><time>2024-05-15T14:54:11Z</time></trkpt>
<trkpt lat="47.691109" lon="10.350897"><ele>738.93</ele><time>2024-05-15T14:54:15Z</time></trkpt>
<trkpt lat="47.690696" lon="10.351133"><ele>741.66</ele><time>2024-05-15T14:54:18Z</time></trkpt>
<trkpt lat="47.690548" lon="10.351251"><ele>741.97</ele><time>2024-05-15T14:54:21Z</time></trkpt>
<trkpt lat="47.690093" lon="10.351766"><ele>746.19</ele><time>2024-05-15T14:54:24Z</time></trkpt>
<trkpt lat="47.689397" lon="10.352376"><ele>748.14</ele><time>2024-05-15T14:54:27Z</time></trkpt>
<trkpt lat="47.688963" lon="10.352667"><ele>747.99</ele><time>2024-05-15T14:54:31Z</time></trkpt>
<trkpt lat="47.688495" lon="10.352912"><ele>750.12</ele><time>2024-05-15T14:54:34Z</time></trkpt>
<trkpt lat="47.687649" lon="10.353277"><ele>752.88</ele><time>2024-05-15T14:54:37Z</time></trkpt>
<trkpt lat="47.687405" lon="10.353359"><ele>753.21</ele><time>2024-05-15T14:54:40Z</time></trkpt>
<trkpt lat="47.68652" lon="10.353582"><ele>750.16</ele><time>2024-05-15T14:54:43Z</time></trkpt>
<trkpt lat="47.686027" lon="10.353668"><ele>752.12</ele><time>2024-05-15T14:54:47Z</time></trkpt>
<trkpt lat="47.685368" lon="10.353738"><ele>755.14</ele><time>2024-05-15T14:54:50Z</time></trkpt>
<trkpt lat="47.684493" lon="10.353716"><ele>755.51</ele><time>2024-05-15T14:54:53Z</time></trkpt>
<trkpt lat="47.682706" lon="10.353474"><ele>758.27</ele><time>2024-05-15T14:54:56Z</time></trkpt>
<trkpt lat="47.682568" lon="10.353488"><ele>758.87</ele><time>2024-05-15T14:54:59Z</time></trkpt>
<trkpt lat="47.682391" lon="10.353568"><ele>760.03</ele><time>2024-05-15T14:55:03Z</time></trkpt>
<trkpt lat="47.682219" lon="10.353733"><ele>761.87</ele><time>2024-05-15T14:55:06Z</time></trkpt>
<trkpt lat="47.681811" lon="10.354505"><ele>761.62</ele><time>2024-05-15T14:55:09Z</time></trkpt>
<trkpt lat="47.68196" lon="10.354564"><ele>762.14</ele><time>2024-05-15T14:55:20Z</time></trkpt>
<trkpt lat="47.682956" lon="10.354692"><ele>765.32</ele><time>2024-05-15T14:55:30Z</time></trkpt>
<trkpt lat="47.683119" lon="10.355062"><ele>766.05</ele><time>2024-05-15T14:55:31Z</time></trkpt>
<trkpt lat="47.683018" lon="10.356051"><ele>770.38</ele><time>2024-05-15T14:55:34Z</time></trkpt>
<trkpt lat="47.682812" lon="10.357509"><ele>772.93</ele><time>2024-05-15T14:55:36Z</time></trkpt>
<trkpt lat="47.682808" lon="10.357693"><ele>771.61</ele><time>2024-05-15T14:55:38Z</time></trkpt>
<trkpt lat="47.682828" lon="10.357949"><ele>770.89</ele><time>2024-05-15T14:55:40Z</time></trkpt>
<trkpt lat="47.682819" lon="10.358038"><ele>770.86</ele><time>2024-05-15T14:55:42Z</time></trkpt>
<trkpt lat="47.682234" lon="10.358946"><ele>773.03</ele><time>2024-05-15T14:55:45Z</time></trkpt>
<trkpt lat="47.682168" lon="10.359103"><ele>772.46</ele><time>2024-05-15T14:55:47Z</time></trkpt>
<trkpt lat="47.682067" lon="10.359475"><ele>769.67</ele><time>2024-05-15T14:55:49Z</time></trkpt>
<trkpt lat="47.682036" lon="10.359831"><ele>767.22</ele><time>2024-05-15T14:55:51Z</time></trkpt>
<trkpt lat="47.682" lon="10.360082"><ele>765.35</ele><time>2024-05-15T14:55:53Z</time></trkpt>
<trkpt lat="47.681957" lon="10.360248"><ele>764.17</ele><time>2024-05-15T14:55:56Z</time></trkpt>
<trkpt lat="47.681861" lon="10.360565"><ele>764.48</ele><time>2024-05-15T14:55:58Z</time></trkpt>
<trkpt lat="47.681375" lon="10.361829"><ele>762.5</ele><time>2024-05-15T14:56:00Z</time></trkpt>
<trkpt lat="47.681169" lon="10.362439"><ele>765.74</ele><time>2024-05-15T14:56:02Z</time></trkpt>
<trkpt lat="47.680999" lon="10.363024"><ele>766.55</ele><time>2024-05-15T14:56:04Z</time></trkpt>
<trkpt lat="47.680925" lon="10.363446"><ele>769.01</ele><time>2024-05-15T14:56:06Z</time></trkpt>
<trkpt lat="47.68087" lon="10.363912"><ele>771.02</ele><time>2024-05-15T14:56:09Z</time></trkpt>
<trkpt lat="47.680849" lon="10.364641"><ele>775.52</ele><time>2024-05-15T14:56:11Z</time></trkpt>
<trkpt lat="47.680915" lon="10.366837"><ele>786.74</ele><time>2024-05-15T14:56:13Z</time></trkpt>
<trkpt lat="47.680667" lon="10.367128"><ele>791.92</ele><time>2024-05-15T14:56:15Z</time></trkpt>
<trkpt lat="47.680336" lon="10.367278"><ele>795.19</ele><time>2024-05-15T14:56:17Z</time></trkpt>
<trkpt lat="47.680101" lon="10.367313"><ele>795.02</ele><time>2024-05-15T14:56:20Z</time></trkpt>
<trkpt lat="47.679914" lon="10.367385"><ele>794.68</ele><time>2024-05-15T14:56:22Z</time></trkpt>
<trkpt lat="47.679467" lon="10.368084"><ele>799.17</ele><time>2024-05-15T14:56:24Z</time></trkpt>
<trkpt lat="47.679273" lon="10.368124"><ele>798.33</ele><time>2024-05-15T14:56:26Z</time></trkpt>
<trkpt lat="47.679184" lon="10.368096"><ele>797.93</ele><time>2024-05-15T14:56:28Z</time></trkpt>
<trkpt lat="47.678791" lon="10.367843"><ele>794.57</ele><time>2024-05-15T14:56:30Z</time></trkpt>
<trkpt lat="47.677696" lon="10.367051"><ele>795.38</ele><time>2024-05-15T14:56:32Z</time></trkpt>
<trkpt lat="47.677581" lon="10.366945"><ele>795.0</ele><time>2024-05-15T14:56:34Z</time></trkpt>
<trkpt lat="47.677082" lon="10.366311"><ele>794.1</ele><time>2024-05-15T14:56:36Z</time></trkpt>
<trkpt lat="47.676855" lon="10.366071"><ele>793.26</ele><time>2024-05-15T14:56:38Z</time></trkpt>
<trkpt lat="47.676721" lon="10.365977"><ele>792.3</ele><time>2024-05-15T14:56:40Z</time></trkpt>
<trkpt lat="47.676546" lon="10.365908"><ele>789.83</ele><time>2024-05-15T14:56:42Z</time></trkpt>
<trkpt lat="47.675991" lon="10.365825"><ele>785.55</ele><time>2024-05-15T14:56:44Z</time></trkpt>
<trkpt lat="47.675631" lon="10.364871"><ele>783.67</ele><time>2024-05-15T14:56:47Z</time></trkpt>
<trkpt lat="47.675603" lon="10.364743"><ele>783.5</ele><time>2024-05-15T14:56:51Z</time></trkpt>
<trkpt lat="47.675395" lon="10.364864"><ele>781.84</ele><time>2024-05-15T14:57:00Z</time></trkpt>
<trkpt lat="47.675285" lon="10.364903"><ele>781.05</ele><time>2024-05-15T14:57:10Z</time></trkpt>
<trkpt lat="47.67521" lon="10.36481"><ele>780.76</ele><time>2024-05-15T14:57:15Z</time></trkpt>
<trkpt lat="47.675062" lon="10.364533"><ele>780.38</ele><time>2024-05-15T14:57:20Z</time></trkpt>
<trkpt lat="47.674992" lon="10.364463"><ele>779.94</ele><time>2024-05-15T14:57:26Z</time></trkpt>
<trkpt lat="47.674681" lon="10.364355"><ele>777.98</ele><time>2024-05-15T14:57:31Z</time></trkpt>
<trkpt lat="47.674337" lon="10.36409"><ele>775.89</ele><time>2024-05-15T14:57:36Z</time></trkpt>
<trkpt lat="47.673492" lon="10.36279"><ele>771.21</ele><time>2024-05-15T14:57:42Z</time></trkpt>
<trkpt lat="47.673113" lon="10.362358"><ele>766.58</ele><time>2024-05-15T14:57:47Z</time></trkpt>
<trkpt lat="47.672597" lon="10.361906"><ele>767.21</ele><time>2024-05-15T14:57:52Z</time></trkpt>
<trkpt lat="47.672361" lon="10.361587"><ele>764.92</ele><time>2024-05-15T14:57:58Z</time></trkpt>
<trkpt lat="47.671898" lon="10.360653"><ele>760.54</ele><time>2024-05-15T14:58:03Z</time></trkpt>
<trkpt lat="47.671746" lon="10.360884"><ele>759.82</ele><time>2024-05-15T14:58:05Z</time></trkpt>
<trkpt lat="47.671481" lon="10.36146"><ele>760.75</ele><time>2024-05-15T14:58:07Z</time></trkpt>
<trkpt lat="47.671399" lon="10.361755"><ele>761.02</ele><time>2024-05-15T14:58:09Z</time></trkpt>
<trkpt lat="47.671347" lon="10.362232"><ele>762.01</ele><time>2024-05-15T14:58:11Z</time></trkpt>
<trkpt lat="47.671294" lon="10.362456"><ele>762.29</ele><time>2024-05-15T14:58:14Z</time></trkpt>
<trkpt lat="47.671165" lon="10.362638"><ele>762.8</ele><time>2024-05-15T14:58:16Z</time></trkpt>
<trkpt lat="47.671092" lon="10.362689"><ele>763.0</ele><time>2024-05-15T14:58:18Z</time></trkpt>
<trkpt lat="47.670985" lon="10.362728"><ele>763.0</ele><time>2024-05-15T14:58:20Z</time></trkpt>
<trkpt lat="47.670618" lon="10.362707"><ele>760.09</ele><time>2024-05-15T14:58:22Z</time></trkpt>
<trkpt lat="47.670447" lon="10.362721"><ele>758.03</ele><time>2024-05-15T14:58:24Z</time></trkpt>
<trkpt lat="47.670294" lon="10.362791"><ele>756.18</ele><time>2024-05-15T14:58:26Z</time></trkpt>
<trkpt lat="47.670157" lon="10.362925"><ele>755.3</ele><time>2024-05-15T14:58:28Z</time></trkpt>
<trkpt lat="47.669873" lon="10.363323"><ele>750.18</ele><time>2024-05-15T14:58:30Z</time></trkpt>
<trkpt lat="47.669731" lon="10.363384"><ele>748.69</ele><time>2024-05-15T14:58:33Z</time></trkpt>
<trkpt lat="47.668034" lon="10.363325"><ele>733.97</ele><time>2024-05-15T14:58:35Z</time></trkpt>
<trkpt lat="47.667911" lon="10.363399"><ele>734.0</ele><time>2024-05-15T14:58:37Z</time></trkpt>
<trkpt lat="47.667831" lon="10.363545"><ele>734.0</ele><time>2024-05-15T14:58:39Z</time></trkpt>
<trkpt lat="47.667778" lon="10.363777"><ele>734.6</ele><time>2024-05-15T14:58:41Z</time></trkpt>
<trkpt lat="47.667819" lon="10.363851"><ele>734.99</ele><time>2024-05-15T14:58:42Z</time></trkpt>
<trkpt lat="47.667833" lon="10.363963"><ele>735.57</ele><time>2024-05-15T14:58:42Z</time></trkpt>
<trkpt lat="47.667829" lon="10.364092"><ele>736.18</ele><time>2024-05-15T14:58:43Z</time></trkpt>
<trkpt lat="47.667802" lon="10.364176"><ele>736.33</ele><time>2024-05-15T14:58:44Z</time></trkpt>
<trkpt lat="47.667752" lon="10.364242"><ele>736.59</ele><time>2024-05-15T14:58:44Z</time></trkpt>
<trkpt lat="47.667645" lon="10.364262"><ele>736.84</ele><time>2024-05-15T14:58:45Z</time></trkpt>
<trkpt lat="47.667383" lon="10.364251"><ele>737.84</ele><time>2024-05-15T14:58:46Z</time></trkpt>
<trkpt lat="47.667214" lon="10.364307"><ele>739.03</ele><time>2024-05-15T14:58:46Z</time></trkpt>
<trkpt lat="47.667007" lon="10.364616"><ele>740.39</ele><time>2024-05-15T14:58:47Z</time></trkpt>
<trkpt lat="47.667039" lon="10.365145"><ele>743.38</ele><time>2024-05-15T14:58:49Z</time></trkpt>
<trkpt lat="47.667044" lon="10.366098"><ele>749.23</ele><time>2024-05-15T14:58:51Z</time></trkpt>
<trkpt lat="47.667024" lon="10.366346"><ele>750.62</ele><time>2024-05-15T14:58:53Z</time></trkpt>
<trkpt lat="47.666953" lon="10.366823"><ele>752.62</ele><time>2024-05-15T14:58:55Z</time></trkpt>
<trkpt lat="47.666974" lon="10.368219"><ele>756.56</ele><time>2024-05-15T14:58:58Z</time></trkpt>
<trkpt lat="47.667044" lon="10.368988"><ele>766.77</ele><time>2024-05-15T14:59:00Z</time></trkpt>
<trkpt lat="47.667116" lon="10.369247"><ele>770.99</ele><time>2024-05-15T14:59:02Z</time></trkpt>
<trkpt lat="47.667544" lon="10.370527"><ele>779.09</ele><time>2024-05-15T14:59:04Z</time></trkpt>
<trkpt lat="47.667586" lon="10.370705"><ele>780.49</ele><time>2024-05-15T14:59:06Z</time></trkpt>
<trkpt lat="47.667506" lon="10.372057"><ele>782.93</ele><time>2024-05-15T14:59:08Z</time></trkpt>
<trkpt lat="47.667461" lon="10.372398"><ele>785.7</ele><time>2024-05-15T14:59:10Z</time></trkpt>
<trkpt lat="47.667374" lon="10.372837"><ele>789.41</ele><time>2024-05-15T14:59:12Z</time></trkpt>
<trkpt lat="47.667357" lon="10.373055"><ele>791.03</ele><time>2024-05-15T14:59:14Z</time></trkpt>
<trkpt lat="47.667479" lon="10.374031"><ele>802.78</ele><time>2024-05-15T14:59:16Z</time></trkpt>
<trkpt lat="47.667519" lon="10.37618"><ele>814.34</ele><time>2024-05-15T14:59:19Z</time></trkpt>
<trkpt lat="47.66751" lon="10.376412"><ele>816.06</ele><time>2024-05-15T14:59:21Z</time></trkpt>
<trkpt lat="47.667423" lon="10.377127"><ele>824.95</ele><time>2024-05-15T14:59:23Z</time></trkpt>
<trkpt lat="47.667352" lon="10.377518"><ele>829.88</ele><time>2024-05-15T14:59:25Z</time></trkpt>
<trkpt lat="47.667266" lon="10.377845"><ele>835.1</ele><time>2024-05-15T14:59:27Z</time></trkpt>
<trkpt lat="47.667074" lon="10.378181"><ele>839.68</ele><time>2024-05-15T14:59:29Z</time></trkpt>
<trkpt lat="47.666662" lon="10.378495"><ele>844.37</ele><time>2024-05-15T14:59:31Z</time></trkpt>
<trkpt lat="47.666605" lon="10.37857"><ele>845.85</ele><time>2024-05-15T14:59:33Z</time></trkpt>
<trkpt lat="47.666517" lon="10.378764"><ele>848.98</ele><time>2024-05-15T14:59:35Z</time></trkpt>
<trkpt lat="47.666491" lon="10.378886"><ele>850.6</ele><time>2024-05-15T14:59:38Z</time></trkpt>
<trkpt lat="47.666484" lon="10.379046"><ele>852.16</ele><time>2024-05-15T14:59:40Z</time></trkpt>
<trkpt lat="47.666509" lon="10.37919"><ele>853.35</ele><time>2024-05-15T14:59:42Z</time></trkpt>
<trkpt lat="47.666592" lon="10.37936"><ele>854.11</ele><time>2024-05-15T14:59:44Z</time></trkpt>
<trkpt lat="47.666784" lon="10.379856"><ele>856.49</ele><time>2024-05-15T14:59:46Z</time></trkpt>
<trkpt lat="47.66693" lon="10.380501"><ele>859.53</ele><time>2024-05-15T14:59:48Z</time></trkpt>
<trkpt lat="47.667104" lon="10.381446"><ele>866.65</ele><time>2024-05-15T14:59:50Z</time></trkpt>
<trkpt lat="47.66717" lon="10.381941"><ele>869.9</ele><time>2024-05-15T14:59:52Z</time></trkpt>
<trkpt lat="47.667193" lon="10.382579"><ele>877.02</ele><time>2024-05-15T14:59:54Z</time></trkpt>
<trkpt lat="47.667222" lon="10.38293"><ele>879.65</ele><time>2024-05-15T14:59:56Z</time></trkpt>
<trkpt lat="47.667271" lon="10.383206"><ele>881.99</ele><time>2024-05-15T14:59:59Z</time></trkpt>
<trkpt lat="47.667276" lon="10.383844"><ele>889.6</ele><time>2024-05-15T15:00:01Z</time></trkpt>
<trkpt lat="47.66734" lon="10.384296"><ele>893.86</ele><time>2024-05-15T15:00:03Z</time></trkpt>
<trkpt lat="47.667384" lon="10.384496"><ele>894.91</ele><time>2024-05-15T15:00:05Z</time></trkpt>
<trkpt lat="47.667529" lon="10.384919"><ele>893.23</ele><time>2024-05-15T15:00:07Z</time></trkpt>
<trkpt lat="47.668031" lon="10.385617"><ele>900.0</ele><time>2024-05-15T15:00:09Z</time></trkpt>
<trkpt lat="47.668133" lon="10.385868"><ele>903.01</ele><time>2024-05-15T15:00:11Z</time></trkpt>
<trkpt lat="47.668198" lon="10.386093"><ele>902.88</ele><time>2024-05-15T15:00:13Z</time></trkpt>
<trkpt lat="47.668236" lon="10.386347"><ele>903.8</ele><time>2024-05-15T15:00:15Z</time></trkpt>
<trkpt lat="47.668337" lon="10.387678"><ele>909.95</ele><time>2024-05-15T15:00:17Z</time></trkpt>
<trkpt lat="47.668334" lon="10.388087"><ele>913.0</ele><time>2024-05-15T15:00:20Z</time></trkpt>
<trkpt lat="47.668292" lon="10.389008"><ele>916.61</ele><time>2024-05-15T15:00:22Z</time></trkpt>
<trkpt lat="47.668145" lon="10.39058"><ele>924.13</ele><time>2024-05-15T15:00:24Z</time></trkpt>
<trkpt lat="47.668137" lon="10.390796"><ele>924.63</ele><time>2024-05-15T15:00:26Z</time></trkpt>
<trkpt lat="47.66819" lon="10.39215"><ele>927.13</ele><time>2024-05-15T15:00:28Z</time></trkpt>
<trkpt lat="47.668248" lon="10.392595"><ele>925.37</ele><time>2024-05-15T15:00:30Z</time></trkpt>
<trkpt lat="47.668432" lon="10.393277"><ele>927.88</ele><time>2024-05-15T15:00:32Z</time></trkpt>
<trkpt lat="47.66848" lon="10.393515"><ele>928.29</ele><time>2024-05-15T15:00:34Z</time></trkpt>
<trkpt lat="47.668572" lon="10.394489"><ele>930.88</ele><time>2024-05-15T15:00:36Z</time></trkpt>
<trkpt lat="47.668767" lon="10.39596"><ele>930.44</ele><time>2024-05-15T15:00:38Z</time></trkpt>
<trkpt lat="47.66878" lon="10.396111"><ele>930.39</ele><time>2024-05-15T15:00:41Z</time></trkpt>
<trkpt lat="47.668758" lon="10.396367"><ele>930.52</ele><time>2024-05-15T15:00:43Z</time></trkpt>
<trkpt lat="47.668597" lon="10.396214"><ele>930.7</ele><time>2024-05-15T15:00:46Z</time></trkpt>
<trkpt lat="47.668451" lon="10.396116"><ele>931.57</ele><time>2024-05-15T15:00:49Z</time></trkpt>
<trkpt lat="47.667634" lon="10.39573"><ele>940.53</ele><time>2024-05-15T15:00:52Z</time></trkpt>
<trkpt lat="47.667501" lon="10.39565"><ele>943.95</ele><time>2024-05-15T15:00:55Z</time></trkpt>
<trkpt lat="47.667341" lon="10.395499"><ele>945.48</ele><time>2024-05-15T15:00:58Z</time></trkpt>
<trkpt lat="47.66724" lon="10.395352"><ele>945.89</ele><time>2024-05-15T15:01:01Z</time></trkpt>
<trkpt lat="47.666874" lon="10.394552"><ele>941.9</ele><time>2024-05-15T15:01:04Z</time></trkpt>
<trkpt lat="47.66618" lon="10.393228"><ele>947.01</ele><time>2024-05-15T15:01:07Z</time></trkpt>
<trkpt lat="47.665759" lon="10.392633"><ele>947.85</ele><time>2024-05-15T15:01:10Z</time></trkpt>
<trkpt lat="47.664978" lon="10.391653"><ele>944.69</ele><time>2024-05-15T15:01:13Z</time></trkpt>
<trkpt lat="47.664574" lon="10.391031"><ele>940.51</ele><time>2024-05-15T15:01:16Z</time></trkpt>
<trkpt lat="47.664448" lon="10.390767"><ele>939.56</ele><time>2024-05-15T15:01:19Z</time></trkpt>
<trkpt lat="47.663902" lon="10.389137"><ele>938.39</ele><time>2024-05-15T15:01:22Z</time></trkpt>
<trkpt lat="47.663746" lon="10.38877"><ele>937.46</ele><time>2024-05-15T15:01:25Z</time></trkpt>
<trkpt lat="47.663548" lon="10.388421"><ele>935.25</ele><time>2024-05-15T15:01:28Z</time></trkpt>
<trkpt lat="47.662977" lon="10.387552"><ele>931.58</ele><time>2024-05-15T15:01:31Z</time></trkpt>
<trkpt lat="47.662367" lon="10.386461"><ele>932.66</ele><time>2024-05-15T15:01:34Z</time></trkpt>
<trkpt lat="47.662152" lon="10.38613"><ele>932.4</ele><time>2024-05-15T15:01:37Z</time></trkpt>
<trkpt lat="47.662046" lon="10.385928"><ele>933.12</ele><time>2024-05-15T15:01:40Z</time></trkpt>
<trkpt lat="47.661811" lon="10.385317"><ele>937.03</ele><time>2024-05-15T15:01:43Z</time></trkpt>
<trkpt lat="47.661745" lon="10.385198"><ele>937.56</ele><time>2024-05-15T15:01:46Z</time></trkpt>
<trkpt lat="47.661664" lon="10.385124"><ele>937.2</ele><time>2024-05-15T15:01:49Z</time></trkpt>
<trkpt lat="47.660812" lon="10.384612"><ele>936.05</ele><time>2024-05-15T15:01:52Z</time></trkpt>
<trkpt lat="47.660663" lon="10.384509"><ele>938.05</ele><time>2024-05-15T15:01:55Z</time></trkpt>
<trkpt lat="47.660383" lon="10.384418"><ele>940.22</ele><time>2024-05-15T15:01:58Z</time></trkpt>
<trkpt lat="47.660057" lon="10.384372"><ele>941.53</ele><time>2024-05-15T15:02:01Z</time></trkpt>
<trkpt lat="47.659853" lon="10.3844"><ele>941.03</ele><time>2024-05-15T15:02:04Z</time></trkpt>
<trkpt lat="47.659422" lon="10.3846"><ele>939.43</ele><time>2024-05-15T15:02:07Z</time></trkpt>
<trkpt lat="47.659276" lon="10.384588"><ele>939.46</ele><time>2024-05-15T15:02:10Z</time></trkpt>
<trkpt lat="47.658384" lon="10.384177"><ele>937.18</ele><time>2024-05-15T15:02:13Z</time></trkpt>
<trkpt lat="47.65811" lon="10.384102"><ele>936.95</ele><time>2024-05-15T15:02:17Z</time></trkpt>
<trkpt lat="47.658042" lon="10.384062"><ele>936.89</ele><time>2024-05-15T15:02:20Z</time></trkpt>
<trkpt lat="47.658042" lon="10.384062"><ele>936.89</ele><time>2024-05-15T15:02:20Z</time></trkpt>
<trkpt lat="47.658008" lon="10.384011"><ele>936.83</ele><time>2024-05-15T15:02:23Z</time></trkpt>
<trkpt lat="47.657859" lon="10.383531"><ele>936.29</ele><time>2024-05-15T15:02:27Z</time></trkpt>
<trkpt lat="47.657737" lon="10.383213"><ele>936.0</ele><time>2024-05-15T15:02:31Z</time></trkpt>
<trkpt lat="47.657137" lon="10.382078"><ele>935.05</ele><time>2024-05-15T15:02:35Z</time></trkpt>
<trkpt lat="47.656994" lon="10.381691"><ele>935.1</ele><time>2024-05-15T15:02:39Z</time></trkpt>
<trkpt lat="47.656905" lon="10.381364"><ele>936.08</ele><time>2024-05-15T15:02:42Z</time></trkpt>
<trkpt lat="47.656767" lon="10.380698"><ele>936.9</ele><time>2024-05-15T15:02:46Z</time></trkpt>
<trkpt lat="47.656598" lon="10.379815"><ele>937.67</ele><time>2024-05-15T15:02:50Z</time></trkpt>
<trkpt lat="47.656353" lon="10.378683"><ele>938.48</ele><time>2024-05-15T15:02:54Z</time></trkpt>
<trkpt lat="47.656186" lon="10.377787"><ele>941.21</ele><time>2024-05-15T15:02:58Z</time></trkpt>
<trkpt lat="47.656061" lon="10.376952"><ele>942.03</ele><time>2024-05-15T15:03:01Z</time></trkpt>
<trkpt lat="47.655992" lon="10.376644"><ele>941.49</ele><time>2024-05-15T15:03:05Z</time></trkpt>
<trkpt lat="47.655916" lon="10.376432"><ele>940.45</ele><time>2024-05-15T15:03:09Z</time></trkpt>
<trkpt lat="47.655729" lon="10.376037"><ele>938.24</ele><time>2024-05-15T15:03:13Z</time></trkpt>
<trkpt lat="47.655291" lon="10.375206"><ele>937.31</ele><time>2024-05-15T15:03:17Z</time></trkpt>
<trkpt lat="47.653911" lon="10.373131"><ele>936.52</ele><time>2024-05-15T15:03:20Z</time></trkpt>
<trkpt lat="47.653482" lon="10.37255"><ele>935.38</ele><time>2024-05-15T15:03:24Z</time></trkpt>
<trkpt lat="47.653343" lon="10.372408"><ele>936.61</ele><time>2024-05-15T15:03:28Z</time></trkpt>
<trkpt lat="47.653197" lon="10.372338"><ele>937.17</ele><time>2024-05-15T15:03:32Z</time></trkpt>
<trkpt lat="47.652912" lon="10.372274"><ele>936.08</ele><time>2024-05-15T15:03:36Z</time></trkpt>
<trkpt lat="47.651286" lon="10.371958"><ele>920.2</ele><time>2024-05-15T15:03:39Z</time></trkpt>
<trkpt lat="47.651285" lon="10.371686"><ele>919.43</ele><time>2024-05-15T15:03:43Z</time></trkpt>
<trkpt lat="47.651265" lon="10.371486"><ele>919.23</ele><time>2024-05-15T15:03:47Z</time></trkpt>
<trkpt lat="47.651226" lon="10.371311"><ele>919.1</ele><time>2024-05-15T15:03:51Z</time></trkpt>
<trkpt lat="47.651035" lon="10.370698"><ele>921.85</ele><time>2024-05-15T15:03:55Z</time></trkpt>
<trkpt lat="47.651004" lon="10.370506"><ele>922.38</ele><time>2024-05-15T15:03:59Z</time></trkpt>
<trkpt lat="47.650989" lon="10.37034"><ele>922.44</ele><time>2024-05-15T15:04:03Z</time></trkpt>
<trkpt lat="47.650983" lon="10.36991"><ele>920.75</ele><time>2024-05-15T15:04:07Z</time></trkpt>
<trkpt lat="47.651051" lon="10.368729"><ele>923.05</ele><time>2024-05-15T15:04:11Z</time></trkpt>
<trkpt lat="47.651009" lon="10.368426"><ele>925.34</ele><time>2024-05-15T15:04:14Z</time></trkpt>
<trkpt lat="47.650871" lon="10.367871"><ele>926.5</ele><time>2024-05-15T15:04:18Z</time></trkpt>
<trkpt lat="47.650849" lon="10.36767"><ele>925.91</ele><time>2024-05-15T15:04:22Z</time></trkpt>
<trkpt lat="47.650869" lon="10.367063"><ele>929.07</ele><time>2024-05-15T15:04:26Z</time></trkpt>
<trkpt lat="47.65086" lon="10.366894"><ele>930.48</ele><time>2024-05-15T15:04:30Z</time></trkpt>
<trkpt lat="47.650833" lon="10.366699"><ele>932.54</ele><time>2024-05-15T15:04:34Z</time></trkpt>
<trkpt lat="47.650738" lon="10.366285"><ele>934.08</ele><time>2024-05-15T15:04:38Z</time></trkpt>
<trkpt lat="47.650697" lon="10.366141"><ele>933.49</ele><time>2024-05-15T15:04:42Z</time></trkpt>
<trkpt lat="47.650459" lon="10.365623"><ele>932.24</ele><time>2024-05-15T15:04:46Z</time></trkpt>
<trkpt lat="47.650278" lon="10.365118"><ele>933.0</ele><time>2024-05-15T15:04:50Z</time></trkpt>
<trkpt lat="47.650221" lon="10.365001"><ele>932.59</ele><time>2024-05-15T15:04:53Z</time></trkpt>
<trkpt lat="47.649472" lon="10.363958"><ele>930.75</ele><time>2024-05-15T15:04:57Z</time></trkpt>
<trkpt lat="47.649365" lon="10.363749"><ele>930.72</ele><time>2024-05-15T15:05:01Z</time></trkpt>
<trkpt lat="47.649187" lon="10.363308"><ele>930.07</ele><time>2024-05-15T15:05:05Z</time></trkpt>
<trkpt lat="47.649114" lon="10.363088"><ele>930.19</ele><time>2024-05-15T15:05:09Z</time></trkpt>
<trkpt lat="47.649094" lon="10.362986"><ele>929.83</ele><time>2024-05-15T15:05:13Z</time></trkpt>
<trkpt lat="47.649075" lon="10.362541"><ele>926.96</ele><time>2024-05-15T15:05:17Z</time></trkpt>
<trkpt lat="47.648906" lon="10.361876"><ele>924.69</ele><time>2024-05-15T15:05:21Z</time></trkpt>
<trkpt lat="47.648463" lon="10.362305"><ele>929.34</ele><time>2024-05-15T15:05:24Z</time></trkpt>
<trkpt lat="47.647855" lon="10.362772"><ele>932.01</ele><time>2024-05-15T15:05:28Z</time></trkpt>
<trkpt lat="47.647633" lon="10.363155"><ele>929.29</ele><time>2024-05-15T15:05:31Z</time></trkpt>
<trkpt lat="47.647503" lon="10.363314"><ele>928.09</ele><time>2024-05-15T15:05:35Z</time></trkpt>
<trkpt lat="47.64734" lon="10.363408"><ele>926.73</ele><time>2024-05-15T15:05:38Z</time></trkpt>
<trkpt lat="47.647169" lon="10.363402"><ele>925.81</ele><time>2024-05-15T15:05:42Z</time></trkpt>
<trkpt lat="47.647019" lon="10.363259"><ele>925.34</ele><time>2024-05-15T15:05:45Z</time></trkpt>
<trkpt lat="47.646883" lon="10.36305"><ele>924.82</ele><time>2024-05-15T15:05:49Z</time></trkpt>
<trkpt lat="47.646853" lon="10.362923"><ele>925.46</ele><time>2024-05-15T15:05:52Z</time></trkpt>
<trkpt lat="47.646817" lon="10.361967"><ele>929.93</ele><time>2024-05-15T15:05:56Z</time></trkpt>
<trkpt lat="47.646738" lon="10.360803"><ele>928.76</ele><time>2024-05-15T15:05:59Z</time></trkpt>
<trkpt lat="47.646681" lon="10.360482"><ele>926.99</ele><time>2024-05-15T15:06:03Z</time></trkpt>
<trkpt lat="47.646532" lon="10.360015"><ele>924.04</ele><time>2024-05-15T15:06:06Z</time></trkpt>
<trkpt lat="47.646322" lon="10.359507"><ele>922.51</ele><time>2024-05-15T15:06:10Z</time></trkpt>
<trkpt lat="47.645869" lon="10.358743"><ele>915.15</ele><time>2024-05-15T15:06:13Z</time></trkpt>
<trkpt lat="47.645765" lon="10.358519"><ele>914.41</ele><time>2024-05-15T15:06:16Z</time></trkpt>
<trkpt lat="47.644819" lon="10.356282"><ele>905.91</ele><time>2024-05-15T15:06:20Z</time></trkpt>
<trkpt lat="47.644573" lon="10.355778"><ele>901.0</ele><time>2024-05-15T15:06:23Z</time></trkpt>
<trkpt lat="47.644395" lon="10.355454"><ele>898.16</ele><time>2024-05-15T15:06:27Z</time></trkpt>
<trkpt lat="47.644249" lon="10.355038"><ele>895.27</ele><time>2024-05-15T15:06:30Z</time></trkpt>
<trkpt lat="47.644185" lon="10.354953"><ele>894.67</ele><time>2024-05-15T15:06:34Z</time></trkpt>
<trkpt lat="47.644065" lon="10.354881"><ele>893.93</ele><time>2024-05-15T15:06:37Z</time></trkpt>
<trkpt lat="47.643878" lon="10.354908"><ele>893.59</ele><time>2024-05-15T15:06:41Z</time></trkpt>
<trkpt lat="47.643234" lon="10.355042"><ele>888.59</ele><time>2024-05-15T15:06:44Z</time></trkpt>
<trkpt lat="47.642871" lon="10.355218"><ele>885.92</ele><time>2024-05-15T15:06:48Z</time></trkpt>
<trkpt lat="47.642871" lon="10.355218"><ele>885.92</ele><time>2024-05-15T15:06:48Z</time></trkpt>
<trkpt lat="47.642972" lon="10.353556"><ele>879.0</ele><time>2024-05-15T15:06:50Z</time></trkpt>
<trkpt lat="47.643033" lon="10.353386"><ele>879.0</ele><time>2024-05-15T15:06:52Z</time></trkpt>
<trkpt lat="47.643201" lon="10.353079"><ele>879.57</ele><time>2024-05-15T15:06:54Z</time></trkpt>
<trkpt lat="47.643302" lon="10.352953"><ele>879.19</ele><time>2024-05-15T15:06:57Z</time></trkpt>
<trkpt lat="47.643513" lon="10.352786"><ele>877.41</ele><time>2024-05-15T15:06:59Z</time></trkpt>
<trkpt lat="47.643597" lon="10.352749"><ele>876.85</ele><time>2024-05-15T15:07:01Z</time></trkpt>
<trkpt lat="47.64486" lon="10.352428"><ele>867.85</ele><time>2024-05-15T15:07:03Z</time></trkpt>
<trkpt lat="47.645322" lon="10.352398"><ele>868.89</ele><time>2024-05-15T15:07:05Z</time></trkpt>
<trkpt lat="47.645725" lon="10.352457"><ele>863.98</ele><time>2024-05-15T15:07:08Z</time></trkpt>
<trkpt lat="47.646035" lon="10.352544"><ele>860.22</ele><time>2024-05-15T15:07:10Z</time></trkpt>
<trkpt lat="47.647304" lon="10.35314"><ele>857.21</ele><time>2024-05-15T15:07:12Z</time></trkpt>
<trkpt lat="47.648398" lon="10.353658"><ele>851.97</ele><time>2024-05-15T15:07:14Z</time></trkpt>
<trkpt lat="47.648788" lon="10.35382"><ele>852.02</ele><time>2024-05-15T15:07:16Z</time></trkpt>
<trkpt lat="47.648998" lon="10.353869"><ele>851.17</ele><time>2024-05-15T15:07:19Z</time></trkpt>
<trkpt lat="47.649847" lon="10.35392"><ele>844.31</ele><time>2024-05-15T15:07:21Z</time></trkpt>
<trkpt lat="47.651329" lon="10.354231"><ele>830.73</ele><time>2024-05-15T15:07:23Z</time></trkpt>
<trkpt lat="47.651507" lon="10.354244"><ele>830.74</ele><time>2024-05-15T15:07:25Z</time></trkpt>
<trkpt lat="47.651606" lon="10.354184"><ele>830.81</ele><time>2024-05-15T15:07:27Z</time></trkpt>
<trkpt lat="47.651686" lon="10.354053"><ele>829.77</ele><time>2024-05-15T15:07:30Z</time></trkpt>
<trkpt lat="47.651708" lon="10.353978"><ele>828.96</ele><time>2024-05-15T15:07:32Z</time></trkpt>
<trkpt lat="47.651721" lon="10.3538"><ele>826.92</ele><time>2024-05-15T15:07:34Z</time></trkpt>
<trkpt lat="47.651714" lon="10.353733"><ele>826.13</ele><time>2024-05-15T15:07:36Z</time></trkpt>
<trkpt lat="47.651668" lon="10.353601"><ele>824.85</ele><time>2024-05-15T15:07:38Z</time></trkpt>
<trkpt lat="47.651499" lon="10.353441"><ele>822.55</ele><time>2024-05-15T15:07:41Z</time></trkpt>
<trkpt lat="47.650989" lon="10.353061"><ele>825.38</ele><time>2024-05-15T15:07:43Z</time></trkpt>
<trkpt lat="47.650819" lon="10.352882"><ele>826.52</ele><time>2024-05-15T15:07:45Z</time></trkpt>
<trkpt lat="47.650652" lon="10.352583"><ele>826.39</ele><time>2024-05-15T15:07:47Z</time></trkpt>
<trkpt lat="47.650543" lon="10.352295"><ele>824.58</ele><time>2024-05-15T15:07:49Z</time></trkpt>
<trkpt lat="47.650481" lon="10.35199"><ele>822.98</ele><time>2024-05-15T15:07:52Z</time></trkpt>
<trkpt lat="47.650444" lon="10.351627"><ele>818.59</ele><time>2024-05-15T15:07:54Z</time></trkpt>
<trkpt lat="47.650386" lon="10.351279"><ele>813.81</ele><time>2024-05-15T15:07:56Z</time></trkpt>
<trkpt lat="47.65032" lon="10.351039"><ele>811.22</ele><time>2024-05-15T15:07:58Z</time></trkpt>
<trkpt lat="47.650227" lon="10.350811"><ele>808.97</ele><time>2024-05-15T15:08:00Z</time></trkpt>
<trkpt lat="47.650047" lon="10.35049"><ele>807.3</ele><time>2024-05-15T15:08:03Z</time></trkpt>
<trkpt lat="47.649573" lon="10.34974"><ele>804.27</ele><time>2024-05-15T15:08:05Z</time></trkpt>
<trkpt lat="47.649537" lon="10.349608"><ele>802.83</ele><time>2024-05-15T15:08:07Z</time></trkpt>
<trkpt lat="47.649523" lon="10.349424"><ele>800.48</ele><time>2024-05-15T15:08:09Z</time></trkpt>
<trkpt lat="47.649541" lon="10.349284"><ele>798.71</ele><time>2024-05-15T15:08:11Z</time></trkpt>
<trkpt lat="47.6496" lon="10.349143"><ele>796.59</ele><time>2024-05-15T15:08:13Z</time></trkpt>
<trkpt lat="47.649675" lon="10.349035"><ele>794.84</ele><time>2024-05-15T15:08:16Z</time></trkpt>
<trkpt lat="47.64977" lon="10.348968"><ele>793.61</ele><time>2024-05-15T15:08:18Z</time></trkpt>
<trkpt lat="47.649887" lon="10.348937"><ele>792.54</ele><time>2024-05-15T15:08:20Z</time></trkpt>
<trkpt lat="47.650003" lon="10.348955"><ele>792.14</ele><time>2024-05-15T15:08:22Z</time></trkpt>
<trkpt lat="47.652302" lon="10.350077"><ele>754.98</ele><time>2024-05-15T15:08:24Z</time></trkpt>
<trkpt lat="47.652524" lon="10.350124"><ele>753.68</ele><time>2024-05-15T15:08:27Z</time></trkpt>
<trkpt lat="47.652717" lon="10.350125"><ele>751.98</ele><time>2024-05-15T15:08:29Z</time></trkpt>
<trkpt lat="47.652838" lon="10.350091"><ele>750.82</ele><time>2024-05-15T15:08:31Z</time></trkpt>
<trkpt lat="47.652981" lon="10.350008"><ele>749.55</ele><time>2024-05-15T15:08:33Z</time></trkpt>
<trkpt lat="47.653114" lon="10.349867"><ele>748.2</ele><time>2024-05-15T15:08:35Z</time></trkpt>
<trkpt lat="47.653307" lon="10.349573"><ele>745.97</ele><time>2024-05-15T15:08:38Z</time></trkpt>
<trkpt lat="47.653643" lon="10.348767"><ele>739.55</ele><time>2024-05-15T15:08:40Z</time></trkpt>
<trkpt lat="47.653751" lon="10.34855"><ele>737.67</ele><time>2024-05-15T15:08:42Z</time></trkpt>
<trkpt lat="47.653751" lon="10.34855"><ele>737.67</ele><time>2024-05-15T15:08:42Z</time></trkpt>
<trkpt lat="47.653575" lon="10.348425"><ele>736.53</ele><time>2024-05-15T15:08:44Z</time></trkpt>
<trkpt lat="47.653321" lon="10.348368"><ele>735.38</ele><time>2024-05-15T15:08:46Z</time></trkpt>
<trkpt lat="47.653205" lon="10.348289"><ele>735.99</ele><time>2024-05-15T15:08:48Z</time></trkpt>
<trkpt lat="47.653098" lon="10.348181"><ele>735.98</ele><time>2024-05-15T15:08:49Z</time></trkpt>
<trkpt lat="47.652766" lon="10.347635"><ele>734.12</ele><time>2024-05-15T15:08:51Z</time></trkpt>
<trkpt lat="47.652471" lon="10.347011"><ele>735.57</ele><time>2024-05-15T15:08:53Z</time></trkpt>
<trkpt lat="47.652175" lon="10.346624"><ele>736.18</ele><time>2024-05-15T15:08:55Z</time></trkpt>
<trkpt lat="47.651839" lon="10.346266"><ele>734.99</ele><time>2024-05-15T15:08:57Z</time></trkpt>
<trkpt lat="47.651698" lon="10.346175"><ele>734.69</ele><time>2024-05-15T15:08:59Z</time></trkpt>
<trkpt lat="47.651579" lon="10.346146"><ele>735.06</ele><time>2024-05-15T15:09:00Z</time></trkpt>
<trkpt lat="47.650631" lon="10.346086"><ele>743.91</ele><time>2024-05-15T15:09:02Z</time></trkpt>
<trkpt lat="47.650476" lon="10.345978"><ele>746.57</ele><time>2024-05-15T15:09:04Z</time></trkpt>
<trkpt lat="47.650409" lon="10.345892"><ele>748.06</ele><time>2024-05-15T15:09:06Z</time></trkpt>
<trkpt lat="47.65018" lon="10.345467"><ele>750.37</ele><time>2024-05-15T15:09:08Z</time></trkpt>
<trkpt lat="47.649647" lon="10.344567"><ele>746.37</ele><time>2024-05-15T15:09:10Z</time></trkpt>
<trkpt lat="47.649586" lon="10.344418"><ele>746.42</ele><time>2024-05-15T15:09:11Z</time></trkpt>
<trkpt lat="47.649352" lon="10.34368"><ele>748.42</ele><time>2024-05-15T15:09:13Z</time></trkpt>
<trkpt lat="47.649291" lon="10.343549"><ele>748.55</ele><time>2024-05-15T15:09:15Z</time></trkpt>
<trkpt lat="47.649136" lon="10.343352"><ele>749.22</ele><time>2024-05-15T15:09:17Z</time></trkpt>
<trkpt lat="47.648426" lon="10.342707"><ele>753.66</ele><time>2024-05-15T15:09:19Z</time></trkpt>
<trkpt lat="47.648187" lon="10.342349"><ele>753.51</ele><time>2024-05-15T15:09:21Z</time></trkpt>
<trkpt lat="47.647848" lon="10.341747"><ele>753.57</ele><time>2024-05-15T15:09:22Z</time></trkpt>
<trkpt lat="47.647751" lon="10.341495"><ele>754.1</ele><time>2024-05-15T15:09:24Z</time></trkpt>
<trkpt lat="47.647598" lon="10.340954"><ele>752.07</ele><time>2024-05-15T15:09:26Z</time></trkpt>
<trkpt lat="47.64748" lon="10.340469"><ele>751.14</ele><time>2024-05-15T15:09:28Z</time></trkpt>
<trkpt lat="47.647415" lon="10.340287"><ele>751.61</ele><time>2024-05-15T15:09:30Z</time></trkpt>
<trkpt lat="47.647332" lon="10.340132"><ele>752.42</ele><time>2024-05-15T15:09:32Z</time></trkpt>
<trkpt lat="47.647241" lon="10.340024"><ele>752.93</ele><time>2024-05-15T15:09:33Z</time></trkpt>
<trkpt lat="47.646808" lon="10.339659"><ele>750.17</ele><time>2024-05-15T15:09:35Z</time></trkpt>
<trkpt lat="47.646451" lon="10.339244"><ele>749.77</ele><time>2024-05-15T15:09:37Z</time></trkpt>
<trkpt lat="47.64619" lon="10.339005"><ele>748.28</ele><time>2024-05-15T15:09:39Z</time></trkpt>
<trkpt lat="47.646031" lon="10.338895"><ele>746.18</ele><time>2024-05-15T15:09:41Z</time></trkpt>
<trkpt lat="47.645481" lon="10.338592"><ele>744.79</ele><time>2024-05-15T15:09:43Z</time></trkpt>
<trkpt lat="47.645365" lon="10.33851"><ele>745.81</ele><time>2024-05-15T15:09:44Z</time></trkpt>
<trkpt lat="47.645119" lon="10.338278"><ele>747.71</ele><time>2024-05-15T15:09:46Z</time></trkpt>
<trkpt lat="47.644419" lon="10.337338"><ele>750.54</ele><time>2024-05-15T15:09:48Z</time></trkpt>
<trkpt lat="47.644195" lon="10.337075"><ele>752.06</ele><time>2024-05-15T15:09:50Z</time></trkpt>
<trkpt lat="47.643675" lon="10.336527"><ele>747.79</ele><time>2024-05-15T15:09:52Z</time></trkpt>
<trkpt lat="47.643546" lon="10.336359"><ele>746.45</ele><time>2024-05-15T15:09:54Z</time></trkpt>
<trkpt lat="47.643127" lon="10.335579"><ele>743.76</ele><time>2024-05-15T15:09:56Z</time></trkpt>
<trkpt lat="47.643221" lon="10.335462"><ele>743.99</ele><time>2024-05-15T15:09:58Z</time></trkpt>
<trkpt lat="47.64334" lon="10.335257"><ele>743.9</ele><time>2024-05-15T15:10:01Z</time></trkpt>
<trkpt lat="47.64364" lon="10.334188"><ele>734.25</ele><time>2024-05-15T15:10:04Z</time></trkpt>
<trkpt lat="47.643804" lon="10.333772"><ele>733.69</ele><time>2024-05-15T15:10:07Z</time></trkpt>
<trkpt lat="47.643932" lon="10.333534"><ele>734.0</ele><time>2024-05-15T15:10:09Z</time></trkpt>
<trkpt lat="47.644113" lon="10.333274"><ele>733.79</ele><time>2024-05-15T15:10:12Z</time></trkpt>
<trkpt lat="47.644344" lon="10.33302"><ele>733.38</ele><time>2024-05-15T15:10:15Z</time></trkpt>
<trkpt lat="47.644558" lon="10.332682"><ele>730.9</ele><time>2024-05-15T15:10:18Z</time></trkpt>
<trkpt lat="47.645054" lon="10.331673"><ele>724.02</ele><time>2024-05-15T15:10:20Z</time></trkpt>
<trkpt lat="47.645615" lon="10.330482"><ele>726.21</ele><time>2024-05-15T15:10:23Z</time></trkpt>
<trkpt lat="47.645775" lon="10.329968"><ele>726.63</ele><time>2024-05-15T15:10:26Z</time></trkpt>
<trkpt lat="47.645811" lon="10.329635"><ele>725.98</ele><time>2024-05-15T15:10:29Z</time></trkpt>
<trkpt lat="47.645832" lon="10.328716"><ele>723.4</ele><time>2024-05-15T15:10:31Z</time></trkpt>
<trkpt lat="47.645859" lon="10.328468"><ele>720.81</ele><time>2024-05-15T15:10:34Z</time></trkpt>
<trkpt lat="47.645983" lon="10.327955"><ele>710.13</ele><time>2024-05-15T15:10:37Z</time></trkpt>
<trkpt lat="47.646282" lon="10.327177"><ele>702.06</ele><time>2024-05-15T15:10:40Z</time></trkpt>
<trkpt lat="47.646389" lon="10.326814"><ele>702.47</ele><time>2024-05-15T15:10:43Z</time></trkpt>
<trkpt lat="47.64642" lon="10.326578"><ele>703.0</ele><time>2024-05-15T15:10:45Z</time></trkpt>
<trkpt lat="47.646416" lon="10.326254"><ele>702.56</ele><time>2024-05-15T15:10:48Z</time></trkpt>
<trkpt lat="47.646304" lon="10.325448"><ele>699.04</ele><time>2024-05-15T15:10:51Z</time></trkpt>
<trkpt lat="47.646058" lon="10.325431"><ele>698.64</ele><time>2024-05-15T15:10:54Z</time></trkpt>
<trkpt lat="47.645772" lon="10.32537"><ele>699.0</ele><time>2024-05-15T15:10:57Z</time></trkpt>
<trkpt lat="47.645493" lon="10.325258"><ele>698.93</ele><time>2024-05-15T15:11:00Z</time></trkpt>
<trkpt lat="47.645244" lon="10.325111"><ele>698.45</ele><time>2024-05-15T15:11:02Z</time></trkpt>
<trkpt lat="47.64503" lon="10.324954"><ele>697.83</ele><time>2024-05-15T15:11:05Z</time></trkpt>
<trkpt lat="47.644815" lon="10.324741"><ele>697.78</ele><time>2024-05-15T15:11:08Z</time></trkpt>
<trkpt lat="47.644617" lon="10.324509"><ele>696.94</ele><time>2024-05-15T15:11:11Z</time></trkpt>
<trkpt lat="47.644381" lon="10.324125"><ele>696.54</ele><time>2024-05-15T15:11:14Z</time></trkpt>
<trkpt lat="47.644221" lon="10.323789"><ele>696.77</ele><time>2024-05-15T15:11:17Z</time></trkpt>
<trkpt lat="47.644079" lon="10.32338"><ele>695.28</ele><time>2024-05-15T15:11:20Z</time></trkpt>
<trkpt lat="47.643856" lon="10.322557"><ele>697.11</ele><time>2024-05-15T15:11:23Z</time></trkpt>
<trkpt lat="47.643718" lon="10.322183"><ele>698.56</ele><time>2024-05-15T15:11:26Z</time></trkpt>
<trkpt lat="47.643583" lon="10.321891"><ele>697.91</ele><time>2024-05-15T15:11:29Z</time></trkpt>
<trkpt lat="47.643289" lon="10.321444"><ele>696.91</ele><time>2024-05-15T15:11:32Z</time></trkpt>
<trkpt lat="47.643141" lon="10.32127"><ele>697.25</ele><time>2024-05-15T15:11:34Z</time></trkpt>
<trkpt lat="47.642733" lon="10.320894"><ele>700.14</ele><time>2024-05-15T15:11:37Z</time></trkpt>
<trkpt lat="47.642008" lon="10.320508"><ele>700.11</ele><time>2024-05-15T15:11:40Z</time></trkpt>
<trkpt lat="47.641728" lon="10.320312"><ele>698.05</ele><time>2024-05-15T15:11:43Z</time></trkpt>
<trkpt lat="47.641508" lon="10.32006"><ele>699.35</ele><time>2024-05-15T15:11:46Z</time></trkpt>
<trkpt lat="47.641341" lon="10.319769"><ele>702.73</ele><time>2024-05-15T15:11:49Z</time></trkpt>
<trkpt lat="47.641247" lon="10.319565"><ele>704.93</ele><time>2024-05-15T15:11:52Z</time></trkpt>
<trkpt lat="47.641111" lon="10.319179"><ele>707.96</ele><time>2024-05-15T15:11:55Z</time></trkpt>
<trkpt lat="47.641063" lon="10.318988"><ele>708.93</ele><time>2024-05-15T15:11:58Z</time></trkpt>
<trkpt lat="47.640966" lon="10.318418"><ele>707.66</ele><time>2024-05-15T15:12:01Z</time></trkpt>
<trkpt lat="47.640878" lon="10.318012"><ele>703.54</ele><time>2024-05-15T15:12:04Z</time></trkpt>
<trkpt lat="47.640769" lon="10.317674"><ele>702.12</ele><time>2024-05-15T15:12:07Z</time></trkpt>
<trkpt lat="47.640632" lon="10.317358"><ele>703.39</ele><time>2024-05-15T15:12:09Z</time></trkpt>
<trkpt lat="47.640468" lon="10.317091"><ele>703.52</ele><time>2024-05-15T15:12:12Z</time></trkpt>
<trkpt lat="47.640068" lon="10.316595"><ele>700.68</ele><time>2024-05-15T15:12:15Z</time></trkpt>
<trkpt lat="47.63985" lon="10.316295"><ele>700.74</ele><time>2024-05-15T15:12:18Z</time></trkpt>
<trkpt lat="47.639697" lon="10.316049"><ele>700.86</ele><time>2024-05-15T15:12:21Z</time></trkpt>
<trkpt lat="47.639569" lon="10.315786"><ele>700.3</ele><time>2024-05-15T15:12:24Z</time></trkpt>
<trkpt lat="47.639415" lon="10.315363"><ele>699.66</ele><time>2024-05-15T15:12:27Z</time></trkpt>
<trkpt lat="47.63928" lon="10.314839"><ele>702.36</ele><time>2024-05-15T15:12:30Z</time></trkpt>
<trkpt lat="47.639191" lon="10.314183"><ele>700.02</ele><time>2024-05-15T15:12:33Z</time></trkpt>
<trkpt lat="47.639036" lon="10.313469"><ele>700.91</ele><time>2024-05-15T15:12:36Z</time></trkpt>
<trkpt lat="47.638852" lon="10.312819"><ele>702.12</ele><time>2024-05-15T15:12:39Z</time></trkpt>
<trkpt lat="47.638547" lon="10.312171"><ele>704.65</ele><time>2024-05-15T15:12:41Z</time></trkpt>
<trkpt lat="47.638054" lon="10.311393"><ele>704.05</ele><time>2024-05-15T15:12:44Z</time></trkpt>
<trkpt lat="47.637664" lon="10.310736"><ele>702.56</ele><time>2024-05-15T15:12:47Z</time></trkpt>
<trkpt lat="47.637095" lon="10.309408"><ele>705.66</ele><time>2024-05-15T15:12:50Z</time></trkpt>
<trkpt lat="47.636843" lon="10.308999"><ele>702.9</ele><time>2024-05-15T15:12:53Z</time></trkpt>
<trkpt lat="47.636633" lon="10.308482"><ele>700.43</ele><time>2024-05-15T15:12:56Z</time></trkpt>
<trkpt lat="47.63637" lon="10.30759"><ele>700.28</ele><time>2024-05-15T15:12:59Z</time></trkpt>
<trkpt lat="47.636318" lon="10.307353"><ele>698.82</ele><time>2024-05-15T15:13:02Z</time></trkpt>
<trkpt lat="47.636225" lon="10.307067"><ele>698.0</ele><time>2024-05-15T15:13:05Z</time></trkpt>
<trkpt lat="47.636052" lon="10.306909"><ele>698.34</ele><time>2024-05-15T15:13:08Z</time></trkpt>
<trkpt lat="47.635931" lon="10.306885"><ele>698.86</ele><time>2024-05-15T15:13:11Z</time></trkpt>
<trkpt lat="47.635697" lon="10.306888"><ele>699.79</ele><time>2024-05-15T15:13:13Z</time></trkpt>
<trkpt lat="47.6355" lon="10.306859"><ele>700.42</ele><time>2024-05-15T15:13:16Z</time></trkpt>
<trkpt lat="47.635365" lon="10.306811"><ele>700.28</ele><time>2024-05-15T15:13:19Z</time></trkpt>
<trkpt lat="47.63503" lon="10.306578"><ele>698.65</ele><time>2024-05-15T15:13:22Z</time></trkpt>
<trkpt lat="47.634865" lon="10.306427"><ele>698.86</ele><time>2024-05-15T15:13:25Z</time></trkpt>
<trkpt lat="47.634647" lon="10.306328"><ele>699.43</ele><time>2024-05-15T15:13:28Z</time></trkpt>
<trkpt lat="47.634284" lon="10.306365"><ele>701.15</ele><time>2024-05-15T15:13:31Z</time></trkpt>
<trkpt lat="47.634208" lon="10.306349"><ele>701.7</ele><time>2024-05-15T15:13:34Z</time></trkpt>
<trkpt lat="47.634131" lon="10.306282"><ele>702.46</ele><time>2024-05-15T15:13:37Z</time></trkpt>
<trkpt lat="47.634046" lon="10.306147"><ele>703.36</ele><time>2024-05-15T15:13:40Z</time></trkpt>
<trkpt lat="47.633755" lon="10.305559"><ele>705.0</ele><time>2024-05-15T15:13:43Z</time></trkpt>
<trkpt lat="47.633498" lon="10.305164"><ele>705.17</ele><time>2024-05-15T15:13:45Z</time></trkpt>
<trkpt lat="47.633366" lon="10.304995"><ele>706.02</ele><time>2024-05-15T15:13:48Z</time></trkpt>
<trkpt lat="47.633196" lon="10.30482"><ele>706.16</ele><time>2024-05-15T15:13:51Z</time></trkpt>
<trkpt lat="47.632849" lon="10.304521"><ele>704.49</ele><time>2024-05-15T15:13:54Z</time></trkpt>
<trkpt lat="47.63246" lon="10.304239"><ele>705.56</ele><time>2024-05-15T15:13:57Z</time></trkpt>
<trkpt lat="47.632331" lon="10.304119"><ele>706.34</ele><time>2024-05-15T15:14:00Z</time></trkpt>
<trkpt lat="47.632229" lon="10.303963"><ele>707.46</ele><time>2024-05-15T15:14:03Z</time></trkpt>
<trkpt lat="47.631963" lon="10.303347"><ele>709.15</ele><time>2024-05-15T15:14:06Z</time></trkpt>
<trkpt lat="47.63187" lon="10.303023"><ele>707.92</ele><time>2024-05-15T15:14:09Z</time></trkpt>
<trkpt lat="47.631794" lon="10.302442"><ele>708.6</ele><time>2024-05-15T15:14:12Z</time></trkpt>
<trkpt lat="47.631718" lon="10.301566"><ele>709.18</ele><time>2024-05-15T15:14:15Z</time></trkpt>
<trkpt lat="47.63162" lon="10.301095"><ele>708.83</ele><time>2024-05-15T15:14:17Z</time></trkpt>
<trkpt lat="47.631534" lon="10.300825"><ele>708.49</ele><time>2024-05-15T15:14:20Z</time></trkpt>
<trkpt lat="47.631428" lon="10.300308"><ele>707.78</ele><time>2024-05-15T15:14:23Z</time></trkpt>
<trkpt lat="47.631375" lon="10.299877"><ele>708.0</ele><time>2024-05-15T15:14:26Z</time></trkpt>
<trkpt lat="47.631346" lon="10.299171"><ele>706.17</ele><time>2024-05-15T15:14:29Z</time></trkpt>
<trkpt lat="47.631324" lon="10.298929"><ele>706.23</ele><time>2024-05-15T15:14:32Z</time></trkpt>
<trkpt lat="47.63109" lon="10.29771"><ele>700.78</ele><time>2024-05-15T15:14:35Z</time></trkpt>
<trkpt lat="47.631003" lon="10.297449"><ele>700.39</ele><time>2024-05-15T15:14:38Z</time></trkpt>
<trkpt lat="47.63065" lon="10.296748"><ele>701.39</ele><time>2024-05-15T15:14:41Z</time></trkpt>
<trkpt lat="47.630474" lon="10.296442"><ele>699.97</ele><time>2024-05-15T15:14:44Z</time></trkpt>
<trkpt lat="47.62968" lon="10.2951"><ele>702.96</ele><time>2024-05-15T15:14:47Z</time></trkpt>
<trkpt lat="47.629075" lon="10.294187"><ele>699.78</ele><time>2024-05-15T15:14:49Z</time></trkpt>
<trkpt lat="47.628984" lon="10.293967"><ele>699.6</ele><time>2024-05-15T15:14:52Z</time></trkpt>
<trkpt lat="47.628919" lon="10.293737"><ele>698.75</ele><time>2024-05-15T15:14:55Z</time></trkpt>
<trkpt lat="47.628879" lon="10.293231"><ele>694.65</ele><time>2024-05-15T15:14:58Z</time></trkpt>
<trkpt lat="47.628887" lon="10.29257"><ele>694.76</ele><time>2024-05-15T15:15:01Z</time></trkpt>
<trkpt lat="47.62886" lon="10.292127"><ele>698.03</ele><time>2024-05-15T15:15:04Z</time></trkpt>
<trkpt lat="47.628714" lon="10.291357"><ele>697.88</ele><time>2024-05-15T15:15:07Z</time></trkpt>
<trkpt lat="47.628586" lon="10.290957"><ele>696.46</ele><time>2024-05-15T15:15:10Z</time></trkpt>
<trkpt lat="47.628377" lon="10.290414"><ele>695.49</ele><time>2024-05-15T15:15:13Z</time></trkpt>
<trkpt lat="47.627326" lon="10.28807"><ele>697.54</ele><time>2024-05-15T15:15:16Z</time></trkpt>
<trkpt lat="47.627326" lon="10.28807"><ele>697.54</ele><time>2024-05-15T15:15:16Z</time></trkpt>
<trkpt lat="47.627166" lon="10.287834"><ele>696.32</ele><time>2024-05-15T15:15:20Z</time></trkpt>
<trkpt lat="47.626887" lon="10.287528"><ele>696.08</ele><time>2024-05-15T15:15:24Z</time></trkpt>
<trkpt lat="47.626531" lon="10.287298"><ele>696.72</ele><time>2024-05-15T15:15:29Z</time></trkpt>
<trkpt lat="47.62549" lon="10.286903"><ele>696.76</ele><time>2024-05-15T15:15:33Z</time></trkpt>
<trkpt lat="47.624345" lon="10.28642"><ele>694.36</ele><time>2024-05-15T15:15:37Z</time></trkpt>
<trkpt lat="47.624003" lon="10.2863"><ele>695.99</ele><time>2024-05-15T15:15:42Z</time></trkpt>
<trkpt lat="47.622424" lon="10.285613"><ele>695.7</ele><time>2024-05-15T15:15:46Z</time></trkpt>
<trkpt lat="47.622193" lon="10.285534"><ele>697.11</ele><time>2024-05-15T15:15:50Z</time></trkpt>
<trkpt lat="47.621978" lon="10.285524"><ele>697.88</ele><time>2024-05-15T15:15:54Z</time></trkpt>
<trkpt lat="47.621582" lon="10.285579"><ele>698.03</ele><time>2024-05-15T15:15:59Z</time></trkpt>
<trkpt lat="47.621458" lon="10.285562"><ele>698.02</ele><time>2024-05-15T15:16:03Z</time></trkpt>
<trkpt lat="47.621798" lon="10.283717"><ele>698.71</ele><time>2024-05-15T15:16:09Z</time></trkpt>
<trkpt lat="47.621823" lon="10.283547"><ele>698.31</ele><time>2024-05-15T15:16:15Z</time></trkpt>
<trkpt lat="47.621847" lon="10.282153"><ele>697.44</ele><time>2024-05-15T15:16:22Z</time></trkpt>
<trkpt lat="47.621878" lon="10.281906"><ele>697.61</ele><time>2024-05-15T15:16:28Z</time></trkpt>
<trkpt lat="47.621949" lon="10.281715"><ele>697.83</ele><time>2024-05-15T15:16:34Z</time></trkpt>
<trkpt lat="47.621741" lon="10.281516"><ele>699.86</ele><time>2024-05-15T15:16:37Z</time></trkpt>
<trkpt lat="47.621591" lon="10.281429"><ele>701.44</ele><time>2024-05-15T15:16:40Z</time></trkpt>
<trkpt lat="47.621499" lon="10.281386"><ele>702.22</ele><time>2024-05-15T15:16:42Z</time></trkpt>
<trkpt lat="47.621397" lon="10.281377"><ele>702.98</ele><time>2024-05-15T15:16:45Z</time></trkpt>
<trkpt lat="47.62133" lon="10.28141"><ele>702.77</ele><time>2024-05-15T15:16:48Z</time></trkpt>
<trkpt lat="47.621251" lon="10.281485"><ele>702.33</ele><time>2024-05-15T15:16:51Z</time></trkpt>
<trkpt lat="47.62115" lon="10.281666"><ele>701.28</ele><time>2024-05-15T15:16:54Z</time></trkpt>
<trkpt lat="47.620932" lon="10.282542"><ele>699.85</ele><time>2024-05-15T15:16:56Z</time></trkpt>
<trkpt lat="47.620883" lon="10.282668"><ele>699.4</ele><time>2024-05-15T15:16:59Z</time></trkpt>
<trkpt lat="47.620818" lon="10.282761"><ele>698.95</ele><time>2024-05-15T15:17:02Z</time></trkpt>
<trkpt lat="47.620721" lon="10.282844"><ele>698.05</ele><time>2024-05-15T15:17:05Z</time></trkpt>
<trkpt lat="47.620551" lon="10.282889"><ele>697.0</ele><time>2024-05-15T15:17:08Z</time></trkpt>
<trkpt lat="47.619693" lon="10.282755"><ele>698.92</ele><time>2024-05-15T15:17:10Z</time></trkpt>
<trkpt lat="47.619566" lon="10.282772"><ele>698.99</ele><time>2024-05-15T15:17:13Z</time></trkpt>
<trkpt lat="47.61908" lon="10.282904"><ele>700.17</ele><time>2024-05-15T15:17:16Z</time></trkpt>
<trkpt lat="47.619014" lon="10.282905"><ele>700.3</ele><time>2024-05-15T15:17:19Z</time></trkpt>
<trkpt lat="47.618915" lon="10.282815"><ele>700.78</ele><time>2024-05-15T15:17:22Z</time></trkpt>
<trkpt lat="47.618627" lon="10.282137"><ele>701.69</ele><time>2024-05-15T15:17:24Z</time></trkpt>
<trkpt lat="47.618352" lon="10.281689"><ele>702.93</ele><time>2024-05-15T15:17:27Z</time></trkpt>
<trkpt lat="47.61796" lon="10.281198"><ele>705.89</ele><time>2024-05-15T15:17:30Z</time></trkpt>
<trkpt lat="47.617103" lon="10.279969"><ele>712.35</ele><time>2024-05-15T15:17:33Z</time></trkpt>
<trkpt lat="47.616761" lon="10.279549"><ele>716.53</ele><time>2024-05-15T15:17:36Z</time></trkpt>
<trkpt lat="47.616247" lon="10.279046"><ele>720.35</ele><time>2024-05-15T15:17:38Z</time></trkpt>
<trkpt lat="47.615976" lon="10.278834"><ele>719.81</ele><time>2024-05-15T15:17:41Z</time></trkpt>
<trkpt lat="47.615292" lon="10.278409"><ele>717.49</ele><time>2024-05-15T15:17:44Z</time></trkpt>
<trkpt lat="47.615056" lon="10.278232"><ele>717.57</ele><time>2024-05-15T15:17:47Z</time></trkpt>
<trkpt lat="47.614828" lon="10.277934"><ele>718.44</ele><time>2024-05-15T15:17:49Z</time></trkpt>
<trkpt lat="47.614785" lon="10.277829"><ele>718.82</ele><time>2024-05-15T15:17:52Z</time></trkpt>
<trkpt lat="47.614708" lon="10.27754"><ele>719.04</ele><time>2024-05-15T15:17:55Z</time></trkpt>
<trkpt lat="47.614633" lon="10.277101"><ele>723.6</ele><time>2024-05-15T15:17:58Z</time></trkpt>
<trkpt lat="47.614491" lon="10.276591"><ele>728.15</ele><time>2024-05-15T15:18:01Z</time></trkpt>
<trkpt lat="47.614162" lon="10.27536"><ele>729.43</ele><time>2024-05-15T15:18:03Z</time></trkpt>
<trkpt lat="47.61385" lon="10.274237"><ele>730.47</ele><time>2024-05-15T15:18:06Z</time></trkpt>
<trkpt lat="47.613723" lon="10.273862"><ele>727.83</ele><time>2024-05-15T15:18:09Z</time></trkpt>
<trkpt lat="47.613551" lon="10.273523"><ele>726.53</ele><time>2024-05-15T15:18:12Z</time></trkpt>
<trkpt lat="47.613441" lon="10.273385"><ele>726.07</ele><time>2024-05-15T15:18:15Z</time></trkpt>
<trkpt lat="47.61322" lon="10.273175"><ele>724.51</ele><time>2024-05-15T15:18:17Z</time></trkpt>
<trkpt lat="47.613067" lon="10.273085"><ele>724.01</ele><time>2024-05-15T15:18:20Z</time></trkpt>
<trkpt lat="47.612876" lon="10.27302"><ele>723.02</ele><time>2024-05-15T15:18:23Z</time></trkpt>
<trkpt lat="47.612457" lon="10.272936"><ele>720.31</ele><time>2024-05-15T15:18:26Z</time></trkpt>
<trkpt lat="47.612099" lon="10.272837"><ele>717.78</ele><time>2024-05-15T15:18:29Z</time></trkpt>
<trkpt lat="47.611875" lon="10.272753"><ele>718.64</ele><time>2024-05-15T15:18:31Z</time></trkpt>
<trkpt lat="47.611455" lon="10.272459"><ele>721.03</ele><time>2024-05-15T15:18:34Z</time></trkpt>
<trkpt lat="47.6112" lon="10.272156"><ele>718.84</ele><time>2024-05-15T15:18:37Z</time></trkpt>
<trkpt lat="47.610938" lon="10.271677"><ele>715.57</ele><time>2024-05-15T15:18:40Z</time></trkpt>
<trkpt lat="47.610444" lon="10.270528"><ele>710.86</ele><time>2024-05-15T15:18:43Z</time></trkpt>
<trkpt lat="47.610155" lon="10.270088"><ele>711.26</ele><time>2024-05-15T15:18:45Z</time></trkpt>
<trkpt lat="47.609893" lon="10.269797"><ele>709.61</ele><time>2024-05-15T15:18:48Z</time></trkpt>
<trkpt lat="47.609192" lon="10.26924"><ele>709.67</ele><time>2024-05-15T15:18:51Z</time></trkpt>
<trkpt lat="47.609042" lon="10.269093"><ele>710.0</ele><time>2024-05-15T15:18:54Z</time></trkpt>
<trkpt lat="47.608749" lon="10.268737"><ele>709.72</ele><time>2024-05-15T15:18:57Z</time></trkpt>
<trkpt lat="47.608648" lon="10.268579"><ele>709.13</ele><time>2024-05-15T15:18:59Z</time></trkpt>
<trkpt lat="47.608427" lon="10.268078"><ele>709.05</ele><time>2024-05-15T15:19:02Z</time></trkpt>
<trkpt lat="47.608321" lon="10.267673"><ele>708.0</ele><time>2024-05-15T15:19:05Z</time></trkpt>
<trkpt lat="47.608259" lon="10.267349"><ele>708.25</ele><time>2024-05-15T15:19:08Z</time></trkpt>
<trkpt lat="47.608225" lon="10.266949"><ele>708.22</ele><time>2024-05-15T15:19:11Z</time></trkpt>
<trkpt lat="47.608331" lon="10.265144"><ele>707.51</ele><time>2024-05-15T15:19:13Z</time></trkpt>
<trkpt lat="47.608287" lon="10.264465"><ele>706.06</ele><time>2024-05-15T15:19:16Z</time></trkpt>
<trkpt lat="47.608229" lon="10.26414"><ele>706.1</ele><time>2024-05-15T15:19:19Z</time></trkpt>
<trkpt lat="47.608155" lon="10.263856"><ele>707.12</ele><time>2024-05-15T15:19:22Z</time></trkpt>
<trkpt lat="47.607976" lon="10.263346"><ele>708.67</ele><time>2024-05-15T15:19:25Z</time></trkpt>
<trkpt lat="47.607647" lon="10.262518"><ele>708.52</ele><time>2024-05-15T15:19:27Z</time></trkpt>
<trkpt lat="47.606787" lon="10.260434"><ele>708.63</ele><time>2024-05-15T15:19:30Z</time></trkpt>
<trkpt lat="47.606584" lon="10.259985"><ele>709.74</ele><time>2024-05-15T15:19:33Z</time></trkpt>
<trkpt lat="47.606338" lon="10.259518"><ele>708.87</ele><time>2024-05-15T15:19:36Z</time></trkpt>
<trkpt lat="47.606122" lon="10.259171"><ele>707.05</ele><time>2024-05-15T15:19:39Z</time></trkpt>
<trkpt lat="47.605691" lon="10.258628"><ele>707.51</ele><time>2024-05-15T15:19:41Z</time></trkpt>
<trkpt lat="47.603718" lon="10.256496"><ele>706.0</ele><time>2024-05-15T15:19:44Z</time></trkpt>
<trkpt lat="47.603177" lon="10.25598"><ele>705.97</ele><time>2024-05-15T15:19:47Z</time></trkpt>
<trkpt lat="47.602805" lon="10.255719"><ele>705.37</ele><time>2024-05-15T15:19:50Z</time></trkpt>
<trkpt lat="47.601376" lon="10.255034"><ele>711.0</ele><time>2024-05-15T15:19:53Z</time></trkpt>
<trkpt lat="47.601228" lon="10.254942"><ele>710.79</ele><time>2024-05-15T15:19:55Z</time></trkpt>
<trkpt lat="47.60109" lon="10.254845"><ele>710.37</ele><time>2024-05-15T15:19:58Z</time></trkpt>
<trkpt lat="47.600187" lon="10.254035"><ele>706.64</ele><time>2024-05-15T15:20:01Z</time></trkpt>
<trkpt lat="47.599922" lon="10.253828"><ele>707.0</ele><time>2024-05-15T15:20:04Z</time></trkpt>
<trkpt lat="47.598902" lon="10.253161"><ele>708.0</ele><time>2024-05-15T15:20:07Z</time></trkpt>
<trkpt lat="47.598149" lon="10.252801"><ele>709.97</ele><time>2024-05-15T15:20:09Z</time></trkpt>
<trkpt lat="47.598149" lon="10.252801"><ele>709.97</ele><time>2024-05-15T15:20:09Z</time></trkpt>
<trkpt lat="47.598391" lon="10.251557"><ele>708.0</ele><time>2024-05-15T15:20:19Z</time></trkpt>
<trkpt lat="47.598676" lon="10.248625"><ele>709.68</ele><time>2024-05-15T15:20:28Z</time></trkpt>
<trkpt lat="47.598708" lon="10.2481"><ele>710.94</ele><time>2024-05-15T15:20:37Z</time></trkpt>
<trkpt lat="47.598707" lon="10.247627"><ele>711.18</ele><time>2024-05-15T15:20:46Z</time></trkpt>
<trkpt lat="47.598646" lon="10.247017"><ele>712.13</ele><time>2024-05-15T15:20:56Z</time></trkpt>
<trkpt lat="47.598343" lon="10.244901"><ele>717.75</ele><time>2024-05-15T15:21:05Z</time></trkpt>
<trkpt lat="47.598364" lon="10.244583"><ele>719.05</ele><time>2024-05-15T15:21:14Z</time></trkpt>
<trkpt lat="47.598336" lon="10.244434"><ele>719.12</ele><time>2024-05-15T15:21:15Z</time></trkpt>
<trkpt lat="47.598273" lon="10.244279"><ele>720.48</ele><time>2024-05-15T15:21:17Z</time></trkpt>
<trkpt lat="47.598273" lon="10.244279"><ele>720.48</ele><time>2024-05-15T15:21:17Z</time></trkpt>
<trkpt lat="47.598141" lon="10.244254"><ele>720.15</ele><time>2024-05-15T15:21:22Z</time></trkpt>
<trkpt lat="47.597629" lon="10.243916"><ele>718.99</ele><time>2024-05-15T15:21:27Z</time></trkpt>
<trkpt lat="47.597455" lon="10.243756"><ele>719.07</ele><time>2024-05-15T15:21:32Z</time></trkpt>
<trkpt lat="47.597011" lon="10.243265"><ele>719.94</ele><time>2024-05-15T15:21:37Z</time></trkpt>
<trkpt lat="47.596864" lon="10.243179"><ele>719.28</ele><time>2024-05-15T15:21:42Z</time></trkpt>
<trkpt lat="47.59617" lon="10.242971"><ele>723.53</ele><time>2024-05-15T15:21:47Z</time></trkpt>
<trkpt lat="47.595288" lon="10.242477"><ele>726.32</ele><time>2024-05-15T15:21:52Z</time></trkpt>
<trkpt lat="47.594773" lon="10.24234"><ele>722.85</ele><time>2024-05-15T15:21:57Z</time></trkpt>
<trkpt lat="47.594141" lon="10.242002"><ele>717.82</ele><time>2024-05-15T15:22:02Z</time></trkpt>
<trkpt lat="47.593992" lon="10.241965"><ele>716.74</ele><time>2024-05-15T15:22:07Z</time></trkpt>
<trkpt lat="47.593759" lon="10.241962"><ele>716.0</ele><time>2024-05-15T15:22:12Z</time></trkpt>
<trkpt lat="47.593594" lon="10.24191"><ele>715.89</ele><time>2024-05-15T15:22:17Z</time></trkpt>
<trkpt lat="47.593294" lon="10.241643"><ele>716.08</ele><time>2024-05-15T15:22:22Z</time></trkpt>
<trkpt lat="47.593108" lon="10.241575"><ele>716.33</ele><time>2024-05-15T15:22:27Z</time></trkpt>
<trkpt lat="47.592631" lon="10.241519"><ele>718.81</ele><time>2024-05-15T15:22:32Z</time></trkpt>
<trkpt lat="47.592114" lon="10.241052"><ele>720.68</ele><time>2024-05-15T15:22:37Z</time></trkpt>
<trkpt lat="47.591791" lon="10.240842"><ele>723.51</ele><time>2024-05-15T15:22:42Z</time></trkpt>
<trkpt lat="47.591539" lon="10.240729"><ele>724.2</ele><time>2024-05-15T15:22:47Z</time></trkpt>
<trkpt lat="47.591345" lon="10.240672"><ele>723.62</ele><time>2024-05-15T15:22:52Z</time></trkpt>
<trkpt lat="47.590784" lon="10.240649"><ele>721.09</ele><time>2024-05-15T15:22:57Z</time></trkpt>
<trkpt lat="47.590246" lon="10.240417"><ele>717.83</ele><time>2024-05-15T15:23:02Z</time></trkpt>
<trkpt lat="47.589907" lon="10.240196"><ele>717.49</ele><time>2024-05-15T15:23:07Z</time></trkpt>
<trkpt lat="47.589651" lon="10.24"><ele>717.74</ele><time>2024-05-15T15:23:12Z</time></trkpt>
<trkpt lat="47.589384" lon="10.239761"><ele>717.61</ele><time>2024-05-15T15:23:17Z</time></trkpt>
<trkpt lat="47.588993" lon="10.239339"><ele>716.61</ele><time>2024-05-15T15:23:22Z</time></trkpt>
<trkpt lat="47.588408" lon="10.238808"><ele>717.1</ele><time>2024-05-15T15:23:27Z</time></trkpt>
<trkpt lat="47.587421" lon="10.238366"><ele>717.6</ele><time>2024-05-15T15:23:32Z</time></trkpt>
<trkpt lat="47.587038" lon="10.238057"><ele>717.34</ele><time>2024-05-15T15:23:37Z</time></trkpt>
<trkpt lat="47.587038" lon="10.238057"><ele>717.34</ele><time>2024-05-15T15:23:37Z</time></trkpt>
<trkpt lat="47.586506" lon="10.23895"><ele>718.13</ele><time>2024-05-15T15:23:44Z</time></trkpt>
<trkpt lat="47.586345" lon="10.239239"><ele>718.7</ele><time>2024-05-15T15:23:51Z</time></trkpt>
<trkpt lat="47.586248" lon="10.239492"><ele>717.32</ele><time>2024-05-15T15:23:58Z</time></trkpt>
<trkpt lat="47.586153" lon="10.239913"><ele>715.46</ele><time>2024-05-15T15:24:04Z</time></trkpt>
<trkpt lat="47.586033" lon="10.240597"><ele>715.4</ele><time>2024-05-15T15:24:11Z</time></trkpt>
<trkpt lat="47.585933" lon="10.241499"><ele>712.07</ele><time>2024-05-15T15:24:18Z</time></trkpt>
<trkpt lat="47.585853" lon="10.241931"><ele>711.86</ele><time>2024-05-15T15:24:25Z</time></trkpt>
<trkpt lat="47.585829" lon="10.241995"><ele>711.83</ele><time>2024-05-15T15:24:32Z</time></trkpt>
<trkpt lat="47.585782" lon="10.242064"><ele>711.68</ele><time>2024-05-15T15:24:33Z</time></trkpt>
<trkpt lat="47.585681" lon="10.242128"><ele>711.52</ele><time>2024-05-15T15:24:33Z</time></trkpt>
<trkpt lat="47.585538" lon="10.242114"><ele>711.77</ele><time>2024-05-15T15:24:34Z</time></trkpt>
<trkpt lat="47.584707" lon="10.241346"><ele>711.11</ele><time>2024-05-15T15:24:38Z</time></trkpt>
<trkpt lat="47.584234" lon="10.241005"><ele>713.99</ele><time>2024-05-15T15:24:42Z</time></trkpt>
<trkpt lat="47.583975" lon="10.240893"><ele>715.62</ele><time>2024-05-15T15:24:47Z</time></trkpt>
<trkpt lat="47.583674" lon="10.240794"><ele>717.44</ele><time>2024-05-15T15:24:51Z</time></trkpt>
<trkpt lat="47.583372" lon="10.240749"><ele>718.3</ele><time>2024-05-15T15:24:55Z</time></trkpt>
<trkpt lat="47.583069" lon="10.240748"><ele>717.14</ele><time>2024-05-15T15:24:59Z</time></trkpt>
<trkpt lat="47.582764" lon="10.240799"><ele>716.86</ele><time>2024-05-15T15:25:03Z</time></trkpt>
<trkpt lat="47.582421" lon="10.240919"><ele>719.28</ele><time>2024-05-15T15:25:07Z</time></trkpt>
<trkpt lat="47.581387" lon="10.24138"><ele>719.04</ele><time>2024-05-15T15:25:11Z</time></trkpt>
<trkpt lat="47.580601" lon="10.241603"><ele>720.65</ele><time>2024-05-15T15:25:15Z</time></trkpt>
<trkpt lat="47.580141" lon="10.241675"><ele>718.37</ele><time>2024-05-15T15:25:19Z</time></trkpt>
<trkpt lat="47.579809" lon="10.241695"><ele>716.98</ele><time>2024-05-15T15:25:23Z</time></trkpt>
<trkpt lat="47.579489" lon="10.241703"><ele>715.87</ele><time>2024-05-15T15:25:28Z</time></trkpt>
<trkpt lat="47.579096" lon="10.241647"><ele>714.31</ele><time>2024-05-15T15:25:32Z</time></trkpt>
<trkpt lat="47.579096" lon="10.241647"><ele>714.31</ele><time>2024-05-15T15:25:32Z</time></trkpt>
<trkpt lat="47.578796" lon="10.241566"><ele>715.33</ele><time>2024-05-15T15:25:40Z</time></trkpt>
<trkpt lat="47.578423" lon="10.241408"><ele>715.95</ele><time>2024-05-15T15:25:49Z</time></trkpt>
<trkpt lat="47.57786" lon="10.241067"><ele>716.27</ele><time>2024-05-15T15:25:58Z</time></trkpt>
<trkpt lat="47.577356" lon="10.240759"><ele>718.91</ele><time>2024-05-15T15:26:06Z</time></trkpt>
<trkpt lat="47.577014" lon="10.24051"><ele>719.41</ele><time>2024-05-15T15:26:15Z</time></trkpt>
<trkpt lat="47.576138" lon="10.239945"><ele>723.85</ele><time>2024-05-15T15:26:23Z</time></trkpt>
<trkpt lat="47.574114" lon="10.238622"><ele>740.85</ele><time>2024-05-15T15:26:32Z</time></trkpt>
<trkpt lat="47.573741" lon="10.238374"><ele>738.61</ele><time>2024-05-15T15:26:41Z</time></trkpt>
<trkpt lat="47.573493" lon="10.238125"><ele>738.11</ele><time>2024-05-15T15:26:49Z</time></trkpt>
<trkpt lat="47.573381" lon="10.237953"><ele>737.84</ele><time>2024-05-15T15:26:58Z</time></trkpt>
<trkpt lat="47.573064" lon="10.237289"><ele>735.84</ele><time>2024-05-15T15:27:07Z</time></trkpt>
<trkpt lat="47.572905" lon="10.237041"><ele>736.73</ele><time>2024-05-15T15:27:15Z</time></trkpt>
<trkpt lat="47.572904" lon="10.236878"><ele>736.54</ele><time>2024-05-15T15:27:19Z</time></trkpt>
<trkpt lat="47.572855" lon="10.236732"><ele>736.72</ele><time>2024-05-15T15:27:23Z</time></trkpt>
<trkpt lat="47.572814" lon="10.236676"><ele>736.87</ele><time>2024-05-15T15:27:26Z</time></trkpt>
<trkpt lat="47.572713" lon="10.236611"><ele>737.43</ele><time>2024-05-15T15:27:30Z</time></trkpt>
<trkpt lat="47.572625" lon="10.236613"><ele>737.74</ele><time>2024-05-15T15:27:34Z</time></trkpt>
<trkpt lat="47.572543" lon="10.236662"><ele>737.86</ele><time>2024-05-15T15:27:37Z</time></trkpt>
<trkpt lat="47.572467" lon="10.236779"><ele>737.59</ele><time>2024-05-15T15:27:41Z</time></trkpt>
<trkpt lat="47.572359" lon="10.236817"><ele>737.46</ele><time>2024-05-15T15:27:44Z</time></trkpt>
<trkpt lat="47.57219" lon="10.236758"><ele>738.24</ele><time>2024-05-15T15:27:48Z</time></trkpt>
<trkpt lat="47.571902" lon="10.236616"><ele>743.16</ele><time>2024-05-15T15:27:52Z</time></trkpt>
<trkpt lat="47.571785" lon="10.236505"><ele>743.46</ele><time>2024-05-15T15:27:55Z</time></trkpt>
<trkpt lat="47.570408" lon="10.235099"><ele>730.42</ele><time>2024-05-15T15:27:59Z</time></trkpt>
<trkpt lat="47.569633" lon="10.234346"><ele>724.76</ele><time>2024-05-15T15:28:03Z</time></trkpt>
<trkpt lat="47.569633" lon="10.234346"><ele>724.76</ele><time>2024-05-15T15:28:03Z</time></trkpt>
<trkpt lat="47.56869" lon="10.235418"><ele>720.5</ele><time>2024-05-15T15:28:05Z</time></trkpt>
<trkpt lat="47.568588" lon="10.235566"><ele>721.21</ele><time>2024-05-15T15:28:08Z</time></trkpt>
<trkpt lat="47.568547" lon="10.235677"><ele>722.0</ele><time>2024-05-15T15:28:11Z</time></trkpt>
<trkpt lat="47.568486" lon="10.235933"><ele>724.39</ele><time>2024-05-15T15:28:14Z</time></trkpt>
<trkpt lat="47.568463" lon="10.236203"><ele>728.64</ele><time>2024-05-15T15:28:17Z</time></trkpt>
<trkpt lat="47.568494" lon="10.236432"><ele>733.42</ele><time>2024-05-15T15:28:20Z</time></trkpt>
<trkpt lat="47.568534" lon="10.236578"><ele>737.03</ele><time>2024-05-15T15:28:22Z</time></trkpt>
<trkpt lat="47.568673" lon="10.236873"><ele>741.62</ele><time>2024-05-15T15:28:25Z</time></trkpt>
<trkpt lat="47.569495" lon="10.237796"><ele>741.68</ele><time>2024-05-15T15:28:28Z</time></trkpt>
<trkpt lat="47.569599" lon="10.237953"><ele>740.79</ele><time>2024-05-15T15:28:31Z</time></trkpt>
<trkpt lat="47.56969" lon="10.238172"><ele>740.86</ele><time>2024-05-15T15:28:34Z</time></trkpt>
<trkpt lat="47.569747" lon="10.238367"><ele>741.14</ele><time>2024-05-15T15:28:37Z</time></trkpt>
<trkpt lat="47.56979" lon="10.238616"><ele>742.89</ele><time>2024-05-15T15:28:39Z</time></trkpt>
<trkpt lat="47.56979" lon="10.238957"><ele>745.58</ele><time>2024-05-15T15:28:42Z</time></trkpt>
<trkpt lat="47.569762" lon="10.239167"><ele>745.26</ele><time>2024-05-15T15:28:45Z</time></trkpt>
<trkpt lat="47.569668" lon="10.239497"><ele>743.31</ele><time>2024-05-15T15:28:48Z</time></trkpt>
<trkpt lat="47.569527" lon="10.239746"><ele>740.29</ele><time>2024-05-15T15:28:51Z</time></trkpt>
<trkpt lat="47.569349" lon="10.239985"><ele>737.03</ele><time>2024-05-15T15:28:54Z</time></trkpt>
<trkpt lat="47.568923" lon="10.240377"><ele>729.58</ele><time>2024-05-15T15:28:56Z</time></trkpt>
<trkpt lat="47.56877" lon="10.240573"><ele>726.03</ele><time>2024-05-15T15:28:59Z</time></trkpt>
<trkpt lat="47.568632" lon="10.240808"><ele>724.92</ele><time>2024-05-15T15:29:02Z</time></trkpt>
<trkpt lat="47.568497" lon="10.241126"><ele>724.16</ele><time>2024-05-15T15:29:05Z</time></trkpt>
<trkpt lat="47.568359" lon="10.241498"><ele>723.86</ele><time>2024-05-15T15:29:08Z</time></trkpt>
<trkpt lat="47.568232" lon="10.241908"><ele>722.55</ele><time>2024-05-15T15:29:11Z</time></trkpt>
<trkpt lat="47.568199" lon="10.242159"><ele>723.23</ele><time>2024-05-15T15:29:13Z</time></trkpt>
<trkpt lat="47.568192" lon="10.242348"><ele>725.36</ele><time>2024-05-15T15:29:16Z</time></trkpt>
<trkpt lat="47.568251" lon="10.24284"><ele>731.04</ele><time>2024-05-15T15:29:19Z</time></trkpt>
<trkpt lat="47.568155" lon="10.242875"><ele>734.18</ele><time>2024-05-15T15:29:24Z</time></trkpt>
<trkpt lat="47.568093" lon="10.242861"><ele>735.81</ele><time>2024-05-15T15:29:29Z</time></trkpt>
<trkpt lat="47.568036" lon="10.242803"><ele>736.62</ele><time>2024-05-15T15:29:34Z</time></trkpt>
<trkpt lat="47.567813" lon="10.242365"><ele>733.3</ele><time>2024-05-15T15:29:39Z</time></trkpt>
<trkpt lat="47.567676" lon="10.242157"><ele>733.25</ele><time>2024-05-15T15:29:44Z</time></trkpt>
<trkpt lat="47.567518" lon="10.241934"><ele>733.54</ele><time>2024-05-15T15:29:49Z</time></trkpt>
<trkpt lat="47.567149" lon="10.241546"><ele>735.18</ele><time>2024-05-15T15:29:54Z</time></trkpt>
<trkpt lat="47.566943" lon="10.241414"><ele>737.2</ele><time>2024-05-15T15:29:59Z</time></trkpt>
<trkpt lat="47.566701" lon="10.241305"><ele>739.1</ele><time>2024-05-15T15:30:03Z</time></trkpt>
<trkpt lat="47.56647" lon="10.241244"><ele>739.66</ele><time>2024-05-15T15:30:08Z</time></trkpt>
<trkpt lat="47.566204" lon="10.241206"><ele>739.68</ele><time>2024-05-15T15:30:13Z</time></trkpt>
<trkpt lat="47.565924" lon="10.241218"><ele>740.7</ele><time>2024-05-15T15:30:18Z</time></trkpt>
<trkpt lat="47.565552" lon="10.241273"><ele>743.75</ele><time>2024-05-15T15:30:23Z</time></trkpt>
<trkpt lat="47.564493" lon="10.241576"><ele>750.95</ele><time>2024-05-15T15:30:28Z</time></trkpt>
<trkpt lat="47.56351" lon="10.24194"><ele>745.75</ele><time>2024-05-15T15:30:33Z</time></trkpt>
<trkpt lat="47.563194" lon="10.24214"><ele>740.2</ele><time>2024-05-15T15:30:38Z</time></trkpt>
<trkpt lat="47.562927" lon="10.242396"><ele>738.23</ele><time>2024-05-15T15:30:43Z</time></trkpt>
<trkpt lat="47.562413" lon="10.243025"><ele>735.18</ele><time>2024-05-15T15:30:48Z</time></trkpt>
<trkpt lat="47.562167" lon="10.243298"><ele>734.0</ele><time>2024-05-15T15:30:53Z</time></trkpt>
<trkpt lat="47.561112" lon="10.244075"><ele>730.67</ele><time>2024-05-15T15:30:58Z</time></trkpt>
<trkpt lat="47.560893" lon="10.244261"><ele>730.21</ele><time>2024-05-15T15:31:03Z</time></trkpt>
<trkpt lat="47.560694" lon="10.244486"><ele>728.35</ele><time>2024-05-15T15:31:08Z</time></trkpt>
<trkpt lat="47.560504" lon="10.244772"><ele>726.82</ele><time>2024-05-15T15:31:12Z</time></trkpt>
<trkpt lat="47.560376" lon="10.245078"><ele>726.0</ele><time>2024-05-15T15:31:17Z</time></trkpt>
<trkpt lat="47.560047" lon="10.246026"><ele>726.88</ele><time>2024-05-15T15:31:22Z</time></trkpt>
<trkpt lat="47.559912" lon="10.246307"><ele>727.54</ele><time>2024-05-15T15:31:27Z</time></trkpt>
<trkpt lat="47.559797" lon="10.246474"><ele>728.46</ele><time>2024-05-15T15:31:32Z</time></trkpt>
<trkpt lat="47.559697" lon="10.246587"><ele>728.97</ele><time>2024-05-15T15:31:37Z</time></trkpt>
<trkpt lat="47.559561" lon="10.246698"><ele>729.0</ele><time>2024-05-15T15:31:42Z</time></trkpt>
<trkpt lat="47.559215" lon="10.246901"><ele>729.0</ele><time>2024-05-15T15:31:47Z</time></trkpt>
<trkpt lat="47.559088" lon="10.247013"><ele>728.86</ele><time>2024-05-15T15:31:52Z</time></trkpt>
<trkpt lat="47.558988" lon="10.247171"><ele>727.95</ele><time>2024-05-15T15:31:57Z</time></trkpt>
<trkpt lat="47.558906" lon="10.24735"><ele>727.12</ele><time>2024-05-15T15:32:02Z</time></trkpt>
<trkpt lat="47.558842" lon="10.247574"><ele>726.88</ele><time>2024-05-15T15:32:07Z</time></trkpt>
<trkpt lat="47.558487" lon="10.250098"><ele>720.25</ele><time>2024-05-15T15:32:12Z</time></trkpt>
<trkpt lat="47.558485" lon="10.250335"><ele>719.81</ele><time>2024-05-15T15:32:17Z</time></trkpt>
<trkpt lat="47.558613" lon="10.250791"><ele>719.0</ele><time>2024-05-15T15:32:21Z</time></trkpt>
<trkpt lat="47.558616" lon="10.250929"><ele>719.68</ele><time>2024-05-15T15:32:26Z</time></trkpt>
<trkpt lat="47.558586" lon="10.251071"><ele>720.72</ele><time>2024-05-15T15:32:31Z</time></trkpt>
<trkpt lat="47.558514" lon="10.251224"><ele>721.41</ele><time>2024-05-15T15:32:36Z</time></trkpt>
<trkpt lat="47.55841" lon="10.251295"><ele>721.66</ele><time>2024-05-15T15:32:41Z</time></trkpt>
<trkpt lat="47.55841" lon="10.251295"><ele>721.66</ele><time>2024-05-15T15:32:41Z</time></trkpt>
<trkpt lat="47.558222" lon="10.250548"><ele>720.43</ele><time>2024-05-15T15:32:44Z</time></trkpt>
<trkpt lat="47.558088" lon="10.250129"><ele>721.88</ele><time>2024-05-15T15:32:47Z</time></trkpt>
<trkpt lat="47.557928" lon="10.249726"><ele>723.98</ele><time>2024-05-15T15:32:50Z</time></trkpt>
<trkpt lat="47.557791" lon="10.249448"><ele>724.94</ele><time>2024-05-15T15:32:52Z</time></trkpt>
<trkpt lat="47.557654" lon="10.249222"><ele>725.36</ele><time>2024-05-15T15:32:55Z</time></trkpt>
<trkpt lat="47.55729" lon="10.248722"><ele>725.85</ele><time>2024-05-15T15:32:58Z</time></trkpt>
<trkpt lat="47.556758" lon="10.248148"><ele>727.78</ele><time>2024-05-15T15:33:01Z</time></trkpt>
<trkpt lat="47.556755" lon="10.248069"><ele>727.97</ele><time>2024-05-15T15:33:04Z</time></trkpt>
<trkpt lat="47.556733" lon="10.247996"><ele>728.0</ele><time>2024-05-15T15:33:07Z</time></trkpt>
<trkpt lat="47.556652" lon="10.247905"><ele>727.95</ele><time>2024-05-15T15:33:10Z</time></trkpt>
<trkpt lat="47.556553" lon="10.247909"><ele>727.59</ele><time>2024-05-15T15:33:13Z</time></trkpt>
<trkpt lat="47.556503" lon="10.24796"><ele>727.41</ele><time>2024-05-15T15:33:16Z</time></trkpt>
<trkpt lat="47.556311" lon="10.2479"><ele>726.75</ele><time>2024-05-15T15:33:19Z</time></trkpt>
<trkpt lat="47.555843" lon="10.247516"><ele>726.01</ele><time>2024-05-15T15:33:23Z</time></trkpt>
<trkpt lat="47.555453" lon="10.247065"><ele>726.5</ele><time>2024-05-15T15:33:26Z</time></trkpt>
<trkpt lat="47.555161" lon="10.246569"><ele>728.01</ele><time>2024-05-15T15:33:29Z</time></trkpt>
<trkpt lat="47.554965" lon="10.246154"><ele>725.05</ele><time>2024-05-15T15:33:32Z</time></trkpt>
<trkpt lat="47.554764" lon="10.245591"><ele>721.96</ele><time>2024-05-15T15:33:35Z</time></trkpt>
<trkpt lat="47.554689" lon="10.245357"><ele>721.32</ele><time>2024-05-15T15:33:38Z</time></trkpt>
<trkpt lat="47.554646" lon="10.245159"><ele>720.26</ele><time>2024-05-15T15:33:41Z</time></trkpt>
<trkpt lat="47.554562" lon="10.244733"><ele>719.02</ele><time>2024-05-15T15:33:44Z</time></trkpt>
<trkpt lat="47.554489" lon="10.244029"><ele>719.24</ele><time>2024-05-15T15:33:47Z</time></trkpt>
<trkpt lat="47.554477" lon="10.243719"><ele>719.16</ele><time>2024-05-15T15:33:50Z</time></trkpt>
<trkpt lat="47.554492" lon="10.243246"><ele>719.51</ele><time>2024-05-15T15:33:54Z</time></trkpt>
<trkpt lat="47.554534" lon="10.242759"><ele>718.31</ele><time>2024-05-15T15:33:57Z</time></trkpt>
<trkpt lat="47.554644" lon="10.242167"><ele>717.34</ele><time>2024-05-15T15:34:00Z</time></trkpt>
<trkpt lat="47.554771" lon="10.24166"><ele>717.66</ele><time>2024-05-15T15:34:03Z</time></trkpt>
<trkpt lat="47.554968" lon="10.241068"><ele>717.37</ele><time>2024-05-15T15:34:06Z</time></trkpt>
<trkpt lat="47.55546" lon="10.23975"><ele>720.97</ele><time>2024-05-15T15:34:09Z</time></trkpt>
<trkpt lat="47.555714" lon="10.239"><ele>719.17</ele><time>2024-05-15T15:34:12Z</time></trkpt>
<trkpt lat="47.55586" lon="10.238411"><ele>718.03</ele><time>2024-05-15T15:34:15Z</time></trkpt>
<trkpt lat="47.555971" lon="10.237802"><ele>719.41</ele><time>2024-05-15T15:34:18Z</time></trkpt>
<trkpt lat="47.556031" lon="10.237261"><ele>721.21</ele><time>2024-05-15T15:34:22Z</time></trkpt>
<trkpt lat="47.55606" lon="10.236709"><ele>720.34</ele><time>2024-05-15T15:34:25Z</time></trkpt>
<trkpt lat="47.556058" lon="10.236326"><ele>719.15</ele><time>2024-05-15T15:34:28Z</time></trkpt>
<trkpt lat="47.556033" lon="10.235872"><ele>719.0</ele><time>2024-05-15T15:34:31Z</time></trkpt>
<trkpt lat="47.555978" lon="10.235302"><ele>719.52</ele><time>2024-05-15T15:34:34Z</time></trkpt>
<trkpt lat="47.555836" lon="10.234572"><ele>719.54</ele><time>2024-05-15T15:34:37Z</time></trkpt>
<trkpt lat="47.555742" lon="10.234231"><ele>719.92</ele><time>2024-05-15T15:34:40Z</time></trkpt>
<trkpt lat="47.55559" lon="10.233862"><ele>719.91</ele><time>2024-05-15T15:34:43Z</time></trkpt>
<trkpt lat="47.554701" lon="10.232008"><ele>719.23</ele><time>2024-05-15T15:34:46Z</time></trkpt>
<trkpt lat="47.554615" lon="10.231741"><ele>719.28</ele><time>2024-05-15T15:34:50Z</time></trkpt>
<trkpt lat="47.554631" lon="10.23167"><ele>719.32</ele><time>2024-05-15T15:34:52Z</time></trkpt>
<trkpt lat="47.554626" lon="10.231603"><ele>719.34</ele><time>2024-05-15T15:34:54Z</time></trkpt>
<trkpt lat="47.554583" lon="10.231517"><ele>719.5</ele><time>2024-05-15T15:34:56Z</time></trkpt>
<trkpt lat="47.554544" lon="10.231493"><ele>719.64</ele><time>2024-05-15T15:34:58Z</time></trkpt>
<trkpt lat="47.554482" lon="10.231499"><ele>719.86</ele><time>2024-05-15T15:35:00Z</time></trkpt>
<trkpt lat="47.554336" lon="10.23131"><ele>720.0</ele><time>2024-05-15T15:35:02Z</time></trkpt>
<trkpt lat="47.554139" lon="10.230924"><ele>720.0</ele><time>2024-05-15T15:35:04Z</time></trkpt>
<trkpt lat="47.553951" lon="10.230692"><ele>719.6</ele><time>2024-05-15T15:35:06Z</time></trkpt>
<trkpt lat="47.553814" lon="10.230598"><ele>719.11</ele><time>2024-05-15T15:35:08Z</time></trkpt>
<trkpt lat="47.553459" lon="10.230485"><ele>719.55</ele><time>2024-05-15T15:35:10Z</time></trkpt>
<trkpt lat="47.553431" lon="10.230416"><ele>719.65</ele><time>2024-05-15T15:35:11Z</time></trkpt>
<trkpt lat="47.553382" lon="10.230379"><ele>719.82</ele><time>2024-05-15T15:35:11Z</time></trkpt>
<trkpt lat="47.553332" lon="10.230381"><ele>720.01</ele><time>2024-05-15T15:35:12Z</time></trkpt>
<trkpt lat="47.553332" lon="10.230381"><ele>720.01</ele><time>2024-05-15T15:35:12Z</time></trkpt>
<trkpt lat="47.553289" lon="10.230418"><ele>720.4</ele><time>2024-05-15T15:35:18Z</time></trkpt>
<trkpt lat="47.553261" lon="10.230491"><ele>720.72</ele><time>2024-05-15T15:35:25Z</time></trkpt>
<trkpt lat="47.553264" lon="10.230575"><ele>720.8</ele><time>2024-05-15T15:35:31Z</time></trkpt>
<trkpt lat="47.553158" lon="10.230845"><ele>722.26</ele><time>2024-05-15T15:35:37Z</time></trkpt>
<trkpt lat="47.552999" lon="10.231109"><ele>723.62</ele><time>2024-05-15T15:35:43Z</time></trkpt>
<trkpt lat="47.552746" lon="10.231649"><ele>722.36</ele><time>2024-05-15T15:35:50Z</time></trkpt>
<trkpt lat="47.552371" lon="10.232767"><ele>721.46</ele><time>2024-05-15T15:35:56Z</time></trkpt>
<trkpt lat="47.550978" lon="10.236692"><ele>726.31</ele><time>2024-05-15T15:36:02Z</time></trkpt>
<trkpt lat="47.550923" lon="10.236865"><ele>726.41</ele><time>2024-05-15T15:36:09Z</time></trkpt>
<trkpt lat="47.550802" lon="10.237416"><ele>725.64</ele><time>2024-05-15T15:36:15Z</time></trkpt>
<trkpt lat="47.550671" lon="10.238203"><ele>725.16</ele><time>2024-05-15T15:36:21Z</time></trkpt>
<trkpt lat="47.550614" lon="10.238743"><ele>724.94</ele><time>2024-05-15T15:36:27Z</time></trkpt>
<trkpt lat="47.550586" lon="10.239223"><ele>723.77</ele><time>2024-05-15T15:36:34Z</time></trkpt>
<trkpt lat="47.550579" lon="10.240038"><ele>721.87</ele><time>2024-05-15T15:36:40Z</time></trkpt>
<trkpt lat="47.550212" lon="10.240162"><ele>725.4</ele><time>2024-05-15T15:36:42Z</time></trkpt>
<trkpt lat="47.550075" lon="10.240243"><ele>727.58</ele><time>2024-05-15T15:36:45Z</time></trkpt>
<trkpt lat="47.54992" lon="10.240274"><ele>729.56</ele><time>2024-05-15T15:36:47Z</time></trkpt>
<trkpt lat="47.549746" lon="10.240256"><ele>730.75</ele><time>2024-05-15T15:36:49Z</time></trkpt>
<trkpt lat="47.549315" lon="10.240095"><ele>732.27</ele><time>2024-05-15T15:36:52Z</time></trkpt>
<trkpt lat="47.549131" lon="10.240094"><ele>733.64</ele><time>2024-05-15T15:36:54Z</time></trkpt>
<trkpt lat="47.549001" lon="10.240162"><ele>735.13</ele><time>2024-05-15T15:36:56Z</time></trkpt>
<trkpt lat="47.548876" lon="10.240281"><ele>737.24</ele><time>2024-05-15T15:36:59Z</time></trkpt>
<trkpt lat="47.548826" lon="10.24039"><ele>738.63</ele><time>2024-05-15T15:37:01Z</time></trkpt>
<trkpt lat="47.548781" lon="10.240532"><ele>740.21</ele><time>2024-05-15T15:37:03Z</time></trkpt>
<trkpt lat="47.54871" lon="10.240905"><ele>746.21</ele><time>2024-05-15T15:37:05Z</time></trkpt>
<trkpt lat="47.548672" lon="10.241274"><ele>749.36</ele><time>2024-05-15T15:37:08Z</time></trkpt>
<trkpt lat="47.548707" lon="10.241569"><ele>749.26</ele><time>2024-05-15T15:37:10Z</time></trkpt>
<trkpt lat="47.548688" lon="10.241823"><ele>750.86</ele><time>2024-05-15T15:37:12Z</time></trkpt>
<trkpt lat="47.548641" lon="10.241893"><ele>752.11</ele><time>2024-05-15T15:37:15Z</time></trkpt>
<trkpt lat="47.548566" lon="10.241908"><ele>753.4</ele><time>2024-05-15T15:37:17Z</time></trkpt>
<trkpt lat="47.548491" lon="10.241859"><ele>754.11</ele><time>2024-05-15T15:37:19Z</time></trkpt>
<trkpt lat="47.548135" lon="10.241486"><ele>756.56</ele><time>2024-05-15T15:37:22Z</time></trkpt>
<trkpt lat="47.548012" lon="10.241426"><ele>757.76</ele><time>2024-05-15T15:37:24Z</time></trkpt>
<trkpt lat="47.547907" lon="10.241467"><ele>759.32</ele><time>2024-05-15T15:37:26Z</time></trkpt>
<trkpt lat="47.54787" lon="10.241554"><ele>760.59</ele><time>2024-05-15T15:37:29Z</time></trkpt>
<trkpt lat="47.547845" lon="10.241672"><ele>762.12</ele><time>2024-05-15T15:37:31Z</time></trkpt>
<trkpt lat="47.547845" lon="10.241796"><ele>764.02</ele><time>2024-05-15T15:37:33Z</time></trkpt>
<trkpt lat="47.547901" lon="10.242161"><ele>767.92</ele><time>2024-05-15T15:37:35Z</time></trkpt>
<trkpt lat="47.547898" lon="10.242298"><ele>768.96</ele><time>2024-05-15T15:37:38Z</time></trkpt>
<trkpt lat="47.547869" lon="10.242396"><ele>769.5</ele><time>2024-05-15T15:37:40Z</time></trkpt>
<trkpt lat="47.547817" lon="10.242463"><ele>769.85</ele><time>2024-05-15T15:37:42Z</time></trkpt>
<trkpt lat="47.547696" lon="10.24256"><ele>770.96</ele><time>2024-05-15T15:37:45Z</time></trkpt>
<trkpt lat="47.547516" lon="10.242685"><ele>771.72</ele><time>2024-05-15T15:37:47Z</time></trkpt>
<trkpt lat="47.547391" lon="10.242827"><ele>772.22</ele><time>2024-05-15T15:37:49Z</time></trkpt>
<trkpt lat="47.546954" lon="10.243554"><ele>771.06</ele><time>2024-05-15T15:37:52Z</time></trkpt>
<trkpt lat="47.54621" lon="10.244632"><ele>776.85</ele><time>2024-05-15T15:37:54Z</time></trkpt>
<trkpt lat="47.546114" lon="10.244742"><ele>777.98</ele><time>2024-05-15T15:37:56Z</time></trkpt>
<trkpt lat="47.545794" lon="10.245023"><ele>776.36</ele><time>2024-05-15T15:37:59Z</time></trkpt>
<trkpt lat="47.545695" lon="10.245142"><ele>774.74</ele><time>2024-05-15T15:38:01Z</time></trkpt>
<trkpt lat="47.545644" lon="10.245254"><ele>773.99</ele><time>2024-05-15T15:38:03Z</time></trkpt>
<trkpt lat="47.545534" lon="10.245631"><ele>771.44</ele><time>2024-05-15T15:38:05Z</time></trkpt>
<trkpt lat="47.545426" lon="10.245895"><ele>769.59</ele><time>2024-05-15T15:38:08Z</time></trkpt>
<trkpt lat="47.545365" lon="10.246141"><ele>768.91</ele><time>2024-05-15T15:38:10Z</time></trkpt>
<trkpt lat="47.545173" lon="10.247196"><ele>767.28</ele><time>2024-05-15T15:38:12Z</time></trkpt>
<trkpt lat="47.545054" lon="10.247544"><ele>766.01</ele><time>2024-05-15T15:38:15Z</time></trkpt>
<trkpt lat="47.544873" lon="10.247859"><ele>764.84</ele><time>2024-05-15T15:38:17Z</time></trkpt>
<trkpt lat="47.54462" lon="10.248204"><ele>764.12</ele><time>2024-05-15T15:38:19Z</time></trkpt>
<trkpt lat="47.54421" lon="10.248057"><ele>764.99</ele><time>2024-05-15T15:38:21Z</time></trkpt>
<trkpt lat="47.543929" lon="10.248299"><ele>764.87</ele><time>2024-05-15T15:38:23Z</time></trkpt>
<trkpt lat="47.543776" lon="10.248378"><ele>765.1</ele><time>2024-05-15T15:38:25Z</time></trkpt>
<trkpt lat="47.543662" lon="10.248363"><ele>765.02</ele><time>2024-05-15T15:38:26Z</time></trkpt>
<trkpt lat="47.543292" lon="10.248192"><ele>765.58</ele><time>2024-05-15T15:38:28Z</time></trkpt>
<trkpt lat="47.543137" lon="10.248187"><ele>765.9</ele><time>2024-05-15T15:38:30Z</time></trkpt>
<trkpt lat="47.542777" lon="10.248358"><ele>766.92</ele><time>2024-05-15T15:38:31Z</time></trkpt>
<trkpt lat="47.542735" lon="10.248352"><ele>767.55</ele><time>2024-05-15T15:38:33Z</time></trkpt>
<trkpt lat="47.542507" lon="10.248146"><ele>771.59</ele><time>2024-05-15T15:38:35Z</time></trkpt>
<trkpt lat="47.542435" lon="10.248112"><ele>772.6</ele><time>2024-05-15T15:38:37Z</time></trkpt>
<trkpt lat="47.542235" lon="10.248159"><ele>775.19</ele><time>2024-05-15T15:38:38Z</time></trkpt>
<trkpt lat="47.542092" lon="10.248246"><ele>776.16</ele><time>2024-05-15T15:38:40Z</time></trkpt>
<trkpt lat="47.541915" lon="10.248441"><ele>777.53</ele><time>2024-05-15T15:38:42Z</time></trkpt>
<trkpt lat="47.541545" lon="10.248774"><ele>784.97</ele><time>2024-05-15T15:38:44Z</time></trkpt>
<trkpt lat="47.5415" lon="10.248881"><ele>787.47</ele><time>2024-05-15T15:38:45Z</time></trkpt>
<trkpt lat="47.541487" lon="10.248999"><ele>789.69</ele><time>2024-05-15T15:38:47Z</time></trkpt>
<trkpt lat="47.541499" lon="10.249367"><ele>793.47</ele><time>2024-05-15T15:38:49Z</time></trkpt>
<trkpt lat="47.541491" lon="10.249499"><ele>794.18</ele><time>2024-05-15T15:38:51Z</time></trkpt>
<trkpt lat="47.541452" lon="10.249656"><ele>795.37</ele><time>2024-05-15T15:38:52Z</time></trkpt>
<trkpt lat="47.541351" lon="10.249945"><ele>798.0</ele><time>2024-05-15T15:38:54Z</time></trkpt>
<trkpt lat="47.541263" lon="10.250041"><ele>801.81</ele><time>2024-05-15T15:38:56Z</time></trkpt>
<trkpt lat="47.541184" lon="10.250047"><ele>805.3</ele><time>2024-05-15T15:38:58Z</time></trkpt>
<trkpt lat="47.541184" lon="10.250047"><ele>805.3</ele><time>2024-05-15T15:38:58Z</time></trkpt>
<trkpt lat="47.541115" lon="10.250004"><ele>807.88</ele><time>2024-05-15T15:39:00Z</time></trkpt>
<trkpt lat="47.541041" lon="10.249918"><ele>812.03</ele><time>2024-05-15T15:39:02Z</time></trkpt>
<trkpt lat="47.540729" lon="10.249339"><ele>820.45</ele><time>2024-05-15T15:39:05Z</time></trkpt>
<trkpt lat="47.540427" lon="10.248727"><ele>833.74</ele><time>2024-05-15T15:39:07Z</time></trkpt>
<trkpt lat="47.540366" lon="10.248491"><ele>838.01</ele><time>2024-05-15T15:39:09Z</time></trkpt>
<trkpt lat="47.540331" lon="10.247937"><ele>842.37</ele><time>2024-05-15T15:39:12Z</time></trkpt>
<trkpt lat="47.540439" lon="10.247231"><ele>839.61</ele><time>2024-05-15T15:39:14Z</time></trkpt>
<trkpt lat="47.540439" lon="10.246901"><ele>841.79</ele><time>2024-05-15T15:39:16Z</time></trkpt>
<trkpt lat="47.54018" lon="10.244942"><ele>857.9</ele><time>2024-05-15T15:39:19Z</time></trkpt>
<trkpt lat="47.540039" lon="10.244582"><ele>863.66</ele><time>2024-05-15T15:39:21Z</time></trkpt>
<trkpt lat="47.539941" lon="10.244422"><ele>866.49</ele><time>2024-05-15T15:39:23Z</time></trkpt>
<trkpt lat="47.539846" lon="10.24431"><ele>868.88</ele><time>2024-05-15T15:39:25Z</time></trkpt>
<trkpt lat="47.539643" lon="10.244153"><ele>872.65</ele><time>2024-05-15T15:39:28Z</time></trkpt>
<trkpt lat="47.539291" lon="10.244113"><ele>872.37</ele><time>2024-05-15T15:39:30Z</time></trkpt>
<trkpt lat="47.539212" lon="10.244074"><ele>871.66</ele><time>2024-05-15T15:39:32Z</time></trkpt>
<trkpt lat="47.539153" lon="10.244"><ele>871.45</ele><time>2024-05-15T15:39:35Z</time></trkpt>
<trkpt lat="47.539096" lon="10.243861"><ele>871.53</ele><time>2024-05-15T15:39:37Z</time></trkpt>
<trkpt lat="47.538986" lon="10.243371"><ele>876.03</ele><time>2024-05-15T15:39:39Z</time></trkpt>
<trkpt lat="47.538687" lon="10.242819"><ele>878.39</ele><time>2024-05-15T15:39:42Z</time></trkpt>
<trkpt lat="47.538242" lon="10.242182"><ele>873.34</ele><time>2024-05-15T15:39:44Z</time></trkpt>
<trkpt lat="47.538123" lon="10.242073"><ele>875.92</ele><time>2024-05-15T15:39:46Z</time></trkpt>
<trkpt lat="47.537656" lon="10.24191"><ele>880.92</ele><time>2024-05-15T15:39:49Z</time></trkpt>
<trkpt lat="47.537269" lon="10.241321"><ele>888.81</ele><time>2024-05-15T15:39:51Z</time></trkpt>
<trkpt lat="47.536967" lon="10.240668"><ele>891.35</ele><time>2024-05-15T15:39:53Z</time></trkpt>
<trkpt lat="47.536639" lon="10.240045"><ele>888.61</ele><time>2024-05-15T15:39:56Z</time></trkpt>
<trkpt lat="47.536475" lon="10.239853"><ele>888.01</ele><time>2024-05-15T15:39:58Z</time></trkpt>
<trkpt lat="47.536183" lon="10.23959"><ele>886.14</ele><time>2024-05-15T15:40:00Z</time></trkpt>
<trkpt lat="47.536102" lon="10.239441"><ele>887.97</ele><time>2024-05-15T15:40:03Z</time></trkpt>
<trkpt lat="47.535788" lon="10.238078"><ele>905.18</ele><time>2024-05-15T15:40:05Z</time></trkpt>
<trkpt lat="47.535699" lon="10.237867"><ele>908.34</ele><time>2024-05-15T15:40:07Z</time></trkpt>
<trkpt lat="47.535644" lon="10.237848"><ele>910.12</ele><time>2024-05-15T15:40:10Z</time></trkpt>
<trkpt lat="47.535591" lon="10.237876"><ele>911.85</ele><time>2024-05-15T15:40:12Z</time></trkpt>
<trkpt lat="47.535544" lon="10.237968"><ele>913.1</ele><time>2024-05-15T15:40:14Z</time></trkpt>
<trkpt lat="47.53546" lon="10.238336"><ele>911.63</ele><time>2024-05-15T15:40:17Z</time></trkpt>
<trkpt lat="47.535345" lon="10.23861"><ele>908.56</ele><time>2024-05-15T15:40:19Z</time></trkpt>
<trkpt lat="47.535126" lon="10.238831"><ele>906.24</ele><time>2024-05-15T15:40:21Z</time></trkpt>
<trkpt lat="47.535006" lon="10.238901"><ele>905.85</ele><time>2024-05-15T15:40:24Z</time></trkpt>
<trkpt lat="47.534897" lon="10.238924"><ele>905.58</ele><time>2024-05-15T15:40:26Z</time></trkpt>
<trkpt lat="47.534432" lon="10.238929"><ele>904.71</ele><time>2024-05-15T15:40:28Z</time></trkpt>
<trkpt lat="47.532953" lon="10.23869"><ele>921.5</ele><time>2024-05-15T15:40:30Z</time></trkpt>
<trkpt lat="47.532752" lon="10.238612"><ele>921.62</ele><time>2024-05-15T15:40:33Z</time></trkpt>
<trkpt lat="47.532646" lon="10.238494"><ele>921.37</ele><time>2024-05-15T15:40:35Z</time></trkpt>
<trkpt lat="47.532398" lon="10.238012"><ele>922.18</ele><time>2024-05-15T15:40:37Z</time></trkpt>
<trkpt lat="47.531859" lon="10.237226"><ele>924.43</ele><time>2024-05-15T15:40:40Z</time></trkpt>
<trkpt lat="47.531354" lon="10.236571"><ele>925.94</ele><time>2024-05-15T15:40:42Z</time></trkpt>
<trkpt lat="47.530729" lon="10.235884"><ele>935.7</ele><time>2024-05-15T15:40:44Z</time></trkpt>
<trkpt lat="47.530501" lon="10.23539"><ele>938.29</ele><time>2024-05-15T15:40:47Z</time></trkpt>
<trkpt lat="47.530427" lon="10.235299"><ele>937.65</ele><time>2024-05-15T15:40:49Z</time></trkpt>
<trkpt lat="47.529859" lon="10.234776"><ele>935.22</ele><time>2024-05-15T15:40:51Z</time></trkpt>
<trkpt lat="47.529707" lon="10.234474"><ele>932.8</ele><time>2024-05-15T15:40:54Z</time></trkpt>
<trkpt lat="47.529234" lon="10.23339"><ele>926.03</ele><time>2024-05-15T15:40:56Z</time></trkpt>
<trkpt lat="47.528985" lon="10.232976"><ele>927.14</ele><time>2024-05-15T15:40:58Z</time></trkpt>
<trkpt lat="47.528813" lon="10.232799"><ele>927.17</ele><time>2024-05-15T15:41:01Z</time></trkpt>
<trkpt lat="47.52776" lon="10.232026"><ele>923.1</ele><time>2024-05-15T15:41:03Z</time></trkpt>
<trkpt lat="47.527704" lon="10.232005"><ele>924.24</ele><time>2024-05-15T15:41:05Z</time></trkpt>
<trkpt lat="47.527639" lon="10.232019"><ele>925.04</ele><time>2024-05-15T15:41:08Z</time></trkpt>
<trkpt lat="47.527611" lon="10.232085"><ele>924.67</ele><time>2024-05-15T15:41:10Z</time></trkpt>
<trkpt lat="47.527631" lon="10.23295"><ele>918.97</ele><time>2024-05-15T15:41:12Z</time></trkpt>
<trkpt lat="47.527608" lon="10.233073"><ele>918.73</ele><time>2024-05-15T15:41:15Z</time></trkpt>
<trkpt lat="47.527241" lon="10.233641"><ele>917.72</ele><time>2024-05-15T15:41:17Z</time></trkpt>
<trkpt lat="47.527096" lon="10.233804"><ele>917.07</ele><time>2024-05-15T15:41:19Z</time></trkpt>
<trkpt lat="47.526953" lon="10.233882"><ele>917.02</ele><time>2024-05-15T15:41:22Z</time></trkpt>
<trkpt lat="47.526826" lon="10.233892"><ele>917.38</ele><time>2024-05-15T15:41:24Z</time></trkpt>
<trkpt lat="47.526748" lon="10.233882"><ele>917.76</ele><time>2024-05-15T15:41:26Z</time></trkpt>
<trkpt lat="47.526544" lon="10.233773"><ele>918.83</ele><time>2024-05-15T15:41:29Z</time></trkpt>
<trkpt lat="47.526488" lon="10.233778"><ele>918.8</ele><time>2024-05-15T15:41:31Z</time></trkpt>
<trkpt lat="47.526412" lon="10.23381"><ele>918.57</ele><time>2024-05-15T15:41:33Z</time></trkpt>
<trkpt lat="47.526233" lon="10.234038"><ele>915.03</ele><time>2024-05-15T15:41:36Z</time></trkpt>
<trkpt lat="47.52613" lon="10.234055"><ele>914.31</ele><time>2024-05-15T15:41:38Z</time></trkpt>
<trkpt lat="47.526064" lon="10.234014"><ele>913.89</ele><time>2024-05-15T15:41:40Z</time></trkpt>
<trkpt lat="47.525975" lon="10.233869"><ele>914.21</ele><time>2024-05-15T15:41:42Z</time></trkpt>
<trkpt lat="47.525176" lon="10.232274"><ele>913.16</ele><time>2024-05-15T15:41:45Z</time></trkpt>
<trkpt lat="47.525054" lon="10.232109"><ele>914.29</ele><time>2024-05-15T15:41:47Z</time></trkpt>
<trkpt lat="47.524752" lon="10.231821"><ele>913.36</ele><time>2024-05-15T15:41:49Z</time></trkpt>
<trkpt lat="47.524606" lon="10.231578"><ele>909.53</ele><time>2024-05-15T15:41:52Z</time></trkpt>
<trkpt lat="47.524451" lon="10.231037"><ele>904.5</ele><time>2024-05-15T15:41:54Z</time></trkpt>
<trkpt lat="47.524333" lon="10.230714"><ele>900.97</ele><time>2024-05-15T15:41:56Z</time></trkpt>
<trkpt lat="47.523748" lon="10.229458"><ele>892.85</ele><time>2024-05-15T15:41:59Z</time></trkpt>
<trkpt lat="47.523423" lon="10.228693"><ele>892.33</ele><time>2024-05-15T15:42:01Z</time></trkpt>
<trkpt lat="47.523222" lon="10.228427"><ele>890.86</ele><time>2024-05-15T15:42:03Z</time></trkpt>
<trkpt lat="47.523147" lon="10.228395"><ele>890.02</ele><time>2024-05-15T15:42:06Z</time></trkpt>
<trkpt lat="47.52306" lon="10.228429"><ele>889.37</ele><time>2024-05-15T15:42:08Z</time></trkpt>
<trkpt lat="47.52306" lon="10.228429"><ele>889.37</ele><time>2024-05-15T15:42:08Z</time></trkpt>
<trkpt lat="47.522704" lon="10.228719"><ele>885.39</ele><time>2024-05-15T15:42:11Z</time></trkpt>
<trkpt lat="47.522612" lon="10.228759"><ele>885.21</ele><time>2024-05-15T15:42:13Z</time></trkpt>
<trkpt lat="47.522588" lon="10.228946"><ele>883.66</ele><time>2024-05-15T15:42:15Z</time></trkpt>
<trkpt lat="47.522542" lon="10.229045"><ele>882.96</ele><time>2024-05-15T15:42:18Z</time></trkpt>
<trkpt lat="47.522177" lon="10.229226"><ele>881.28</ele><time>2024-05-15T15:42:20Z</time></trkpt>
<trkpt lat="47.522022" lon="10.229316"><ele>879.87</ele><time>2024-05-15T15:42:22Z</time></trkpt>
<trkpt lat="47.521983" lon="10.229364"><ele>879.47</ele><time>2024-05-15T15:42:24Z</time></trkpt>
<trkpt lat="47.52193" lon="10.229466"><ele>878.95</ele><time>2024-05-15T15:42:26Z</time></trkpt>
<trkpt lat="47.521909" lon="10.229612"><ele>878.87</ele><time>2024-05-15T15:42:29Z</time></trkpt>
<trkpt lat="47.52194" lon="10.229855"><ele>878.98</ele><time>2024-05-15T15:42:31Z</time></trkpt>
<trkpt lat="47.521991" lon="10.230113"><ele>879.0</ele><time>2024-05-15T15:42:33Z</time></trkpt>
<trkpt lat="47.522034" lon="10.230235"><ele>879.0</ele><time>2024-05-15T15:42:35Z</time></trkpt>
<trkpt lat="47.52234" lon="10.230761"><ele>879.0</ele><time>2024-05-15T15:42:37Z</time></trkpt>
<trkpt lat="47.52245" lon="10.231002"><ele>878.5</ele><time>2024-05-15T15:42:40Z</time></trkpt>
<trkpt lat="47.522527" lon="10.231222"><ele>877.64</ele><time>2024-05-15T15:42:42Z</time></trkpt>
<trkpt lat="47.522614" lon="10.231654"><ele>877.24</ele><time>2024-05-15T15:42:44Z</time></trkpt>
<trkpt lat="47.522621" lon="10.231803"><ele>877.37</ele><time>2024-05-15T15:42:46Z</time></trkpt>
<trkpt lat="47.522603" lon="10.232066"><ele>877.53</ele><time>2024-05-15T15:42:48Z</time></trkpt>
<trkpt lat="47.522538" lon="10.232254"><ele>877.37</ele><time>2024-05-15T15:42:50Z</time></trkpt>
<trkpt lat="47.522489" lon="10.232348"><ele>877.45</ele><time>2024-05-15T15:42:53Z</time></trkpt>
<trkpt lat="47.522293" lon="10.232597"><ele>878.87</ele><time>2024-05-15T15:42:55Z</time></trkpt>
<trkpt lat="47.522197" lon="10.232761"><ele>881.1</ele><time>2024-05-15T15:42:57Z</time></trkpt>
<trkpt lat="47.522127" lon="10.233037"><ele>883.9</ele><time>2024-05-15T15:42:59Z</time></trkpt>
<trkpt lat="47.522121" lon="10.23312"><ele>884.55</ele><time>2024-05-15T15:43:01Z</time></trkpt>
<trkpt lat="47.522143" lon="10.23337"><ele>885.99</ele><time>2024-05-15T15:43:04Z</time></trkpt>
<trkpt lat="47.522201" lon="10.233611"><ele>886.22</ele><time>2024-05-15T15:43:06Z</time></trkpt>
<trkpt lat="47.522312" lon="10.233898"><ele>886.04</ele><time>2024-05-15T15:43:08Z</time></trkpt>
<trkpt lat="47.522395" lon="10.234067"><ele>885.53</ele><time>2024-05-15T15:43:10Z</time></trkpt>
<trkpt lat="47.522706" lon="10.234568"><ele>886.89</ele><time>2024-05-15T15:43:12Z</time></trkpt>
<trkpt lat="47.52291" lon="10.234953"><ele>888.87</ele><time>2024-05-15T15:43:14Z</time></trkpt>
<trkpt lat="47.523056" lon="10.235326"><ele>888.17</ele><time>2024-05-15T15:43:17Z</time></trkpt>
<trkpt lat="47.523353" lon="10.236277"><ele>893.58</ele><time>2024-05-15T15:43:19Z</time></trkpt>
<trkpt lat="47.523582" lon="10.236746"><ele>900.34</ele><time>2024-05-15T15:43:21Z</time></trkpt>
<trkpt lat="47.523913" lon="10.237296"><ele>900.19</ele><time>2024-05-15T15:43:23Z</time></trkpt>
<trkpt lat="47.524354" lon="10.238239"><ele>894.66</ele><time>2024-05-15T15:43:25Z</time></trkpt>
<trkpt lat="47.524475" lon="10.238433"><ele>893.86</ele><time>2024-05-15T15:43:28Z</time></trkpt>
<trkpt lat="47.52464" lon="10.238626"><ele>894.34</ele><time>2024-05-15T15:43:30Z</time></trkpt>
<trkpt lat="47.525543" lon="10.239479"><ele>885.88</ele><time>2024-05-15T15:43:32Z</time></trkpt>
<trkpt lat="47.525782" lon="10.239732"><ele>886.57</ele><time>2024-05-15T15:43:34Z</time></trkpt>
<trkpt lat="47.525942" lon="10.239932"><ele>885.1</ele><time>2024-05-15T15:43:36Z</time></trkpt>
<trkpt lat="47.526062" lon="10.24012"><ele>882.88</ele><time>2024-05-15T15:43:39Z</time></trkpt>
<trkpt lat="47.526136" lon="10.240273"><ele>881.32</ele><time>2024-05-15T15:43:41Z</time></trkpt>
<trkpt lat="47.526411" lon="10.241006"><ele>879.95</ele><time>2024-05-15T15:43:43Z</time></trkpt>
<trkpt lat="47.526531" lon="10.241284"><ele>876.91</ele><time>2024-05-15T15:43:45Z</time></trkpt>
<trkpt lat="47.526991" lon="10.242138"><ele>870.25</ele><time>2024-05-15T15:43:47Z</time></trkpt>
<trkpt lat="47.527109" lon="10.242418"><ele>868.07</ele><time>2024-05-15T15:43:49Z</time></trkpt>
<trkpt lat="47.52714" lon="10.24254"><ele>867.07</ele><time>2024-05-15T15:43:52Z</time></trkpt>
<trkpt lat="47.527154" lon="10.242676"><ele>866.09</ele><time>2024-05-15T15:43:54Z</time></trkpt>
<trkpt lat="47.527127" lon="10.242961"><ele>864.09</ele><time>2024-05-15T15:43:56Z</time></trkpt>
<trkpt lat="47.527089" lon="10.243126"><ele>863.34</ele><time>2024-05-15T15:43:58Z</time></trkpt>
<trkpt lat="47.526969" lon="10.243673"><ele>863.24</ele><time>2024-05-15T15:44:00Z</time></trkpt>
<trkpt lat="47.526916" lon="10.244155"><ele>862.8</ele><time>2024-05-15T15:44:03Z</time></trkpt>
<trkpt lat="47.526888" lon="10.244255"><ele>862.28</ele><time>2024-05-15T15:44:05Z</time></trkpt>
<trkpt lat="47.52666" lon="10.244625"><ele>858.72</ele><time>2024-05-15T15:44:07Z</time></trkpt>
<trkpt lat="47.526632" lon="10.244705"><ele>858.25</ele><time>2024-05-15T15:44:09Z</time></trkpt>
<trkpt lat="47.526614" lon="10.24487"><ele>857.66</ele><time>2024-05-15T15:44:11Z</time></trkpt>
<trkpt lat="47.526649" lon="10.245284"><ele>855.79</ele><time>2024-05-15T15:44:14Z</time></trkpt>
<trkpt lat="47.526731" lon="10.245596"><ele>852.58</ele><time>2024-05-15T15:44:16Z</time></trkpt>
<trkpt lat="47.526803" lon="10.245753"><ele>851.61</ele><time>2024-05-15T15:44:18Z</time></trkpt>
<trkpt lat="47.526941" lon="10.245896"><ele>852.02</ele><time>2024-05-15T15:44:20Z</time></trkpt>
<trkpt lat="47.52715" lon="10.246052"><ele>850.9</ele><time>2024-05-15T15:44:22Z</time></trkpt>
<trkpt lat="47.527448" lon="10.246494"><ele>846.11</ele><time>2024-05-15T15:44:24Z</time></trkpt>
<trkpt lat="47.527584" lon="10.246613"><ele>845.79</ele><time>2024-05-15T15:44:27Z</time></trkpt>
<trkpt lat="47.527863" lon="10.246786"><ele>846.51</ele><time>2024-05-15T15:44:29Z</time></trkpt>
<trkpt lat="47.527948" lon="10.246861"><ele>846.64</ele><time>2024-05-15T15:44:31Z</time></trkpt>
<trkpt lat="47.528038" lon="10.246967"><ele>846.33</ele><time>2024-05-15T15:44:33Z</time></trkpt>
<trkpt lat="47.528246" lon="10.247299"><ele>842.97</ele><time>2024-05-15T15:44:35Z</time></trkpt>
<trkpt lat="47.528415" lon="10.247471"><ele>839.77</ele><time>2024-05-15T15:44:38Z</time></trkpt>
<trkpt lat="47.528564" lon="10.247558"><ele>837.53</ele><time>2024-05-15T15:44:40Z</time></trkpt>
<trkpt lat="47.528855" lon="10.247681"><ele>834.43</ele><time>2024-05-15T15:44:42Z</time></trkpt>
<trkpt lat="47.529016" lon="10.247799"><ele>832.39</ele><time>2024-05-15T15:44:44Z</time></trkpt>
<trkpt lat="47.52935" lon="10.248179"><ele>826.12</ele><time>2024-05-15T15:44:46Z</time></trkpt>
<trkpt lat="47.529521" lon="10.248323"><ele>825.31</ele><time>2024-05-15T15:44:49Z</time></trkpt>
<trkpt lat="47.529952" lon="10.248554"><ele>824.88</ele><time>2024-05-15T15:44:51Z</time></trkpt>
<trkpt lat="47.530448" lon="10.248929"><ele>818.32</ele><time>2024-05-15T15:44:53Z</time></trkpt>
<trkpt lat="47.530939" lon="10.249239"><ele>811.31</ele><time>2024-05-15T15:44:55Z</time></trkpt>
<trkpt lat="47.531082" lon="10.249372"><ele>810.02</ele><time>2024-05-15T15:44:57Z</time></trkpt>
<trkpt lat="47.531209" lon="10.249522"><ele>809.15</ele><time>2024-05-15T15:44:59Z</time></trkpt>
<trkpt lat="47.531361" lon="10.24977"><ele>808.95</ele><time>2024-05-15T15:45:02Z</time></trkpt>
<trkpt lat="47.531404" lon="10.249888"><ele>808.35</ele><time>2024-05-15T15:45:04Z</time></trkpt>
<trkpt lat="47.531413" lon="10.24999"><ele>807.37</ele><time>2024-05-15T15:45:06Z</time></trkpt>
<trkpt lat="47.531382" lon="10.250157"><ele>804.01</ele><time>2024-05-15T15:45:08Z</time></trkpt>
<trkpt lat="47.531303" lon="10.250223"><ele>800.83</ele><time>2024-05-15T15:45:10Z</time></trkpt>
<trkpt lat="47.531225" lon="10.250236"><ele>798.62</ele><time>2024-05-15T15:45:12Z</time></trkpt>
<trkpt lat="47.531168" lon="10.250221"><ele>797.44</ele><time>2024-05-15T15:45:14Z</time></trkpt>
<trkpt lat="47.530898" lon="10.250001"><ele>796.16</ele><time>2024-05-15T15:45:16Z</time></trkpt>
<trkpt lat="47.530606" lon="10.249888"><ele>796.04</ele><time>2024-05-15T15:45:19Z</time></trkpt>
<trkpt lat="47.530285" lon="10.249888"><ele>791.91</ele><time>2024-05-15T15:45:21Z</time></trkpt>
<trkpt lat="47.529995" lon="10.249838"><ele>789.46</ele><time>2024-05-15T15:45:23Z</time></trkpt>
<trkpt lat="47.529804" lon="10.249832"><ele>788.23</ele><time>2024-05-15T15:45:25Z</time></trkpt>
<trkpt lat="47.529592" lon="10.249897"><ele>787.45</ele><time>2024-05-15T15:45:27Z</time></trkpt>
<trkpt lat="47.529489" lon="10.250022"><ele>786.24</ele><time>2024-05-15T15:45:29Z</time></trkpt>
<trkpt lat="47.52946" lon="10.25017"><ele>784.48</ele><time>2024-05-15T15:45:31Z</time></trkpt>
<trkpt lat="47.529497" lon="10.250323"><ele>782.71</ele><time>2024-05-15T15:45:33Z</time></trkpt>
<trkpt lat="47.529583" lon="10.250403"><ele>782.32</ele><time>2024-05-15T15:45:35Z</time></trkpt>
<trkpt lat="47.529814" lon="10.250441"><ele>782.22</ele><time>2024-05-15T15:45:37Z</time></trkpt>
<trkpt lat="47.530042" lon="10.250564"><ele>780.97</ele><time>2024-05-15T15:45:39Z</time></trkpt>
<trkpt lat="47.530337" lon="10.25078"><ele>779.64</ele><time>2024-05-15T15:45:41Z</time></trkpt>
<trkpt lat="47.530462" lon="10.250896"><ele>779.51</ele><time>2024-05-15T15:45:43Z</time></trkpt>
<trkpt lat="47.530551" lon="10.251015"><ele>779.34</ele><time>2024-05-15T15:45:45Z</time></trkpt>
<trkpt lat="47.53062" lon="10.251156"><ele>779.81</ele><time>2024-05-15T15:45:47Z</time></trkpt>
<trkpt lat="47.530681" lon="10.251326"><ele>779.76</ele><time>2024-05-15T15:45:49Z</time></trkpt>
<trkpt lat="47.530747" lon="10.251669"><ele>777.28</ele><time>2024-05-15T15:45:51Z</time></trkpt>
<trkpt lat="47.530803" lon="10.252166"><ele>771.8</ele><time>2024-05-15T15:45:53Z</time></trkpt>
<trkpt lat="47.530758" lon="10.25275"><ele>766.35</ele><time>2024-05-15T15:45:55Z</time></trkpt>
<trkpt lat="47.530764" lon="10.253062"><ele>763.41</ele><time>2024-05-15T15:45:58Z</time></trkpt>
<trkpt lat="47.530824" lon="10.253318"><ele>759.28</ele><time>2024-05-15T15:46:00Z</time></trkpt>
<trkpt lat="47.530877" lon="10.253459"><ele>758.18</ele><time>2024-05-15T15:46:02Z</time></trkpt>
<trkpt lat="47.531021" lon="10.253708"><ele>755.82</ele><time>2024-05-15T15:46:04Z</time></trkpt>
<trkpt lat="47.531295" lon="10.254023"><ele>749.91</ele><time>2024-05-15T15:46:06Z</time></trkpt>
<trkpt lat="47.531375" lon="10.25415"><ele>747.4</ele><time>2024-05-15T15:46:08Z</time></trkpt>
<trkpt lat="47.531501" lon="10.254453"><ele>744.53</ele><time>2024-05-15T15:46:10Z</time></trkpt>
<trkpt lat="47.531548" lon="10.254662"><ele>742.41</ele><time>2024-05-15T15:46:12Z</time></trkpt>
<trkpt lat="47.531578" lon="10.254967"><ele>741.28</ele><time>2024-05-15T15:46:14Z</time></trkpt>
<trkpt lat="47.531578" lon="10.254967"><ele>741.28</ele><time>2024-05-15T15:46:14Z</time></trkpt>
<trkpt lat="47.531569" lon="10.255203"><ele>739.07</ele><time>2024-05-15T15:46:18Z</time></trkpt>
<trkpt lat="47.531474" lon="10.256194"><ele>730.92</ele><time>2024-05-15T15:46:22Z</time></trkpt>
<trkpt lat="47.531464" lon="10.256521"><ele>730.0</ele><time>2024-05-15T15:46:25Z</time></trkpt>
<trkpt lat="47.531472" lon="10.256791"><ele>729.86</ele><time>2024-05-15T15:46:29Z</time></trkpt>
<trkpt lat="47.531549" lon="10.25766"><ele>729.6</ele><time>2024-05-15T15:46:33Z</time></trkpt>
<trkpt lat="47.530848" lon="10.257793"><ele>730.0</ele><time>2024-05-15T15:46:39Z</time></trkpt>
<trkpt lat="47.530645" lon="10.257803"><ele>730.06</ele><time>2024-05-15T15:46:45Z</time></trkpt>
<trkpt lat="47.530405" lon="10.257789"><ele>730.54</ele><time>2024-05-15T15:46:52Z</time></trkpt>
<trkpt lat="47.530051" lon="10.257684"><ele>731.21</ele><time>2024-05-15T15:46:58Z</time></trkpt>
<trkpt lat="47.529876" lon="10.257595"><ele>731.36</ele><time>2024-05-15T15:47:04Z</time></trkpt>
<trkpt lat="47.529369" lon="10.257331"><ele>732.32</ele><time>2024-05-15T15:47:10Z</time></trkpt>
<trkpt lat="47.529134" lon="10.257279"><ele>733.01</ele><time>2024-05-15T15:47:17Z</time></trkpt>
<trkpt lat="47.528921" lon="10.257258"><ele>734.53</ele><time>2024-05-15T15:47:23Z</time></trkpt>
<trkpt lat="47.528505" lon="10.257286"><ele>734.78</ele><time>2024-05-15T15:47:29Z</time></trkpt>
<trkpt lat="47.528242" lon="10.257354"><ele>732.72</ele><time>2024-05-15T15:47:35Z</time></trkpt>
<trkpt lat="47.527907" lon="10.257481"><ele>730.6</ele><time>2024-05-15T15:47:42Z</time></trkpt>
<trkpt lat="47.52748" lon="10.25775"><ele>730.01</ele><time>2024-05-15T15:47:48Z</time></trkpt>
<trkpt lat="47.5269" lon="10.258305"><ele>731.16</ele><time>2024-05-15T15:47:54Z</time></trkpt>
<trkpt lat="47.526354" lon="10.258869"><ele>732.0</ele><time>2024-05-15T15:48:01Z</time></trkpt>
<trkpt lat="47.525732" lon="10.259278"><ele>730.41</ele><time>2024-05-15T15:48:07Z</time></trkpt>
<trkpt lat="47.525217" lon="10.259656"><ele>729.54</ele><time>2024-05-15T15:48:13Z</time></trkpt>
<trkpt lat="47.524881" lon="10.260126"><ele>731.41</ele><time>2024-05-15T15:48:19Z</time></trkpt>
<trkpt lat="47.524711" lon="10.260443"><ele>733.64</ele><time>2024-05-15T15:48:26Z</time></trkpt>
<trkpt lat="47.524673" lon="10.260524"><ele>734.06</ele><time>2024-05-15T15:48:32Z</time></trkpt>
<trkpt lat="47.524278" lon="10.261273"><ele>734.6</ele><time>2024-05-15T15:48:38Z</time></trkpt>
<trkpt lat="47.524034" lon="10.261714"><ele>734.0</ele><time>2024-05-15T15:48:44Z</time></trkpt>
<trkpt lat="47.522975" lon="10.262897"><ele>733.88</ele><time>2024-05-15T15:48:51Z</time></trkpt>
<trkpt lat="47.522975" lon="10.262897"><ele>733.88</ele><time>2024-05-15T15:48:51Z</time></trkpt>
<trkpt lat="47.523137" lon="10.263278"><ele>733.76</ele><time>2024-05-15T15:49:00Z</time></trkpt>
<trkpt lat="47.523743" lon="10.264583"><ele>733.55</ele><time>2024-05-15T15:49:09Z</time></trkpt>
<trkpt lat="47.523772" lon="10.264784"><ele>732.75</ele><time>2024-05-15T15:49:18Z</time></trkpt>
<trkpt lat="47.523754" lon="10.26499"><ele>732.5</ele><time>2024-05-15T15:49:27Z</time></trkpt>
<trkpt lat="47.523696" lon="10.265129"><ele>732.37</ele><time>2024-05-15T15:49:36Z</time></trkpt>
<trkpt lat="47.52367" lon="10.265273"><ele>732.01</ele><time>2024-05-15T15:49:45Z</time></trkpt>
<trkpt lat="47.523676" lon="10.265374"><ele>732.27</ele><time>2024-05-15T15:49:54Z</time></trkpt>
<trkpt lat="47.52392" lon="10.2659"><ele>733.03</ele><time>2024-05-15T15:50:03Z</time></trkpt>
<trkpt lat="47.524175" lon="10.26748"><ele>736.07</ele><time>2024-05-15T15:50:12Z</time></trkpt>
<trkpt lat="47.52431" lon="10.268437"><ele>735.63</ele><time>2024-05-15T15:50:21Z</time></trkpt>
<trkpt lat="47.524326" lon="10.268722"><ele>734.83</ele><time>2024-05-15T15:50:30Z</time></trkpt>
<trkpt lat="47.524293" lon="10.268716"><ele>734.79</ele><time>2024-05-15T15:50:34Z</time></trkpt>
<trkpt lat="47.524235" lon="10.26875"><ele>734.62</ele><time>2024-05-15T15:50:37Z</time></trkpt>
<trkpt lat="47.524212" lon="10.268793"><ele>734.45</ele><time>2024-05-15T15:50:41Z</time></trkpt>
<trkpt lat="47.524202" lon="10.26889"><ele>734.13</ele><time>2024-05-15T15:50:45Z</time></trkpt>
<trkpt lat="47.524235" lon="10.268973"><ele>734.17</ele><time>2024-05-15T15:50:49Z</time></trkpt>
<trkpt lat="47.524296" lon="10.269008"><ele>734.27</ele><time>2024-05-15T15:50:53Z</time></trkpt>
<trkpt lat="47.524329" lon="10.269001"><ele>734.35</ele><time>2024-05-15T15:50:56Z</time></trkpt>
<trkpt lat="47.52438" lon="10.268946"><ele>734.61</ele><time>2024-05-15T15:51:00Z</time></trkpt>
<trkpt lat="47.524467" lon="10.26928"><ele>734.16</ele><time>2024-05-15T15:51:04Z</time></trkpt>
<trkpt lat="47.524623" lon="10.270405"><ele>736.1</ele><time>2024-05-15T15:51:08Z</time></trkpt>
<trkpt lat="47.524658" lon="10.271069"><ele>738.85</ele><time>2024-05-15T15:51:12Z</time></trkpt>
<trkpt lat="47.524632" lon="10.271591"><ele>741.29</ele><time>2024-05-15T15:51:15Z</time></trkpt>
<trkpt lat="47.524313" lon="10.273759"><ele>741.35</ele><time>2024-05-15T15:51:19Z</time></trkpt>
<trkpt lat="47.524176" lon="10.273937"><ele>741.55</ele><time>2024-05-15T15:51:22Z</time></trkpt>
<trkpt lat="47.523943" lon="10.274039"><ele>742.52</ele><time>2024-05-15T15:51:25Z</time></trkpt>
<trkpt lat="47.523943" lon="10.274039"><ele>742.52</ele><time>2024-05-15T15:51:25Z</time></trkpt>
<trkpt lat="47.524253" lon="10.27423"><ele>739.15</ele><time>2024-05-15T15:53:13Z</time></trkpt>
<trkpt lat="47.524918" lon="10.274657"><ele>737.77</ele><time>2024-05-15T15:55:01Z</time></trkpt>
<trkpt lat="47.525072" lon="10.274657"><ele>738.22</ele><time>2024-05-15T15:56:49Z</time></trkpt>
<trkpt lat="47.525342" lon="10.274168"><ele>737.23</ele><time>2024-05-15T15:56:59Z</time></trkpt>
<trkpt lat="47.525765" lon="10.273627"><ele>737.0</ele><time>2024-05-15T15:57:08Z</time></trkpt>
<trkpt lat="47.525991" lon="10.273575"><ele>737.0</ele><time>2024-05-15T15:57:17Z</time></trkpt>
<trkpt lat="47.526054" lon="10.273447"><ele>737.0</ele><time>2024-05-15T15:57:32Z</time></trkpt>
<trkpt lat="47.526632" lon="10.272005"><ele>737.06</ele><time>2024-05-15T15:57:46Z</time></trkpt>
<trkpt lat="47.52685" lon="10.272091"><ele>736.87</ele><time>2024-05-15T15:57:54Z</time></trkpt>
<trkpt lat="47.526936" lon="10.272037"><ele>736.36</ele><time>2024-05-15T15:58:02Z</time></trkpt>
<trkpt lat="47.527028" lon="10.271745"><ele>736.0</ele><time>2024-05-15T15:58:11Z</time></trkpt>
<trkpt lat="47.52719" lon="10.271329"><ele>735.89</ele><time>2024-05-15T15:58:19Z</time></trkpt>
<trkpt lat="47.527884" lon="10.270016"><ele>737.38</ele><time>2024-05-15T15:58:27Z</time></trkpt>
<trkpt lat="47.528133" lon="10.269389"><ele>735.8</ele><time>2024-05-15T15:58:35Z</time></trkpt>
<trkpt lat="47.528199" lon="10.269132"><ele>735.0</ele><time>2024-05-15T15:58:43Z</time></trkpt>
<trkpt lat="47.528192" lon="10.268855"><ele>735.12</ele><time>2024-05-15T15:58:52Z</time></trkpt>
<trkpt lat="47.528295" lon="10.268745"><ele>735.52</ele><time>2024-05-15T15:58:58Z</time></trkpt>
<trkpt lat="47.52842" lon="10.268546"><ele>735.69</ele><time>2024-05-15T15:59:05Z</time></trkpt>
<trkpt lat="47.528548" lon="10.268149"><ele>735.89</ele><time>2024-05-15T15:59:12Z</time></trkpt>
<trkpt lat="47.528659" lon="10.267588"><ele>737.19</ele><time>2024-05-15T15:59:19Z</time></trkpt>
<trkpt lat="47.528511" lon="10.267068"><ele>737.88</ele><time>2024-05-15T15:59:25Z</time></trkpt>
<trkpt lat="47.528507" lon="10.266753"><ele>735.87</ele><time>2024-05-15T15:59:32Z</time></trkpt>
<trkpt lat="47.528649" lon="10.26646"><ele>734.92</ele><time>2024-05-15T15:59:39Z</time></trkpt>
<trkpt lat="47.528862" lon="10.26636"><ele>736.51</ele><time>2024-05-15T15:59:46Z</time></trkpt>
<trkpt lat="47.52924" lon="10.266451"><ele>738.53</ele><time>2024-05-15T15:59:53Z</time></trkpt>
<trkpt lat="47.529761" lon="10.266434"><ele>736.02</ele><time>2024-05-15T15:59:59Z</time></trkpt>
<trkpt lat="47.529958" lon="10.266408"><ele>735.22</ele><time>2024-05-15T16:00:06Z</time></trkpt>
<trkpt lat="47.530091" lon="10.266349"><ele>734.53</ele><time>2024-05-15T16:00:13Z</time></trkpt>
<trkpt lat="47.530186" lon="10.266235"><ele>733.78</ele><time>2024-05-15T16:00:20Z</time></trkpt>
<trkpt lat="47.530548" lon="10.265357"><ele>732.75</ele><time>2024-05-15T16:00:26Z</time></trkpt>
</trkseg>
</trk>
</gpx>